
Distance (Route):
Temperature : 4°C
Humidity : 55.5%
Pressure : 774.7hPa| Receiver | Frames | First received | Last received |
|---|---|---|---|
| AA1-15 | 809 | 2026-09-02 10:49:57 | 2026-09-02 13:11:07 |
| DL1XH-15 | 294 | 2026-09-02 10:54:28 | 2026-09-02 12:41:45 |
| DB0DAN | 143 | 2026-09-02 10:49:40 | 2026-09-02 13:07:10 |
| DL1XH-west | 101 | 2026-09-02 11:06:11 | 2026-09-02 11:28:15 |
| AM1SDL-15 | 62 | 2026-09-02 10:54:51 | 2026-09-02 13:00:28 |
| DJ2DS-15 | 60 | 2026-09-02 11:19:29 | 2026-09-02 12:39:27 |
| DL1XH1-15 | 57 | 2026-09-02 11:08:51 | 2026-09-02 11:27:59 |
| DG6HD-11 | 47 | 2026-09-02 10:52:30 | 2026-09-02 12:47:44 |
| SP3WXH-11 | 47 | 2026-09-02 11:21:43 | 2026-09-02 13:02:34 |
| MECKS9 | 45 | 2026-09-02 10:49:12 | 2026-09-02 12:47:42 |
| DG6HD-15 | 38 | 2026-09-02 11:02:25 | 2026-09-02 12:33:46 |
| S3001 | 38 | 2026-09-02 11:08:20 | 2026-09-02 12:48:44 |
| DK1YY | 12 | 2026-09-02 11:17:55 | 2026-09-02 11:45:51 |
| SP3BTT-10 | 11 | 2026-09-02 11:04:46 | 2026-09-02 11:27:36 |
| SONDE2-11 | 8 | 2026-09-02 11:06:10 | 2026-09-02 11:19:06 |
| DM0DOS-11 | 4 | 2026-09-02 11:21:26 | 2026-09-02 11:21:57 |
| Receiver | Date | Latitude | Longitude | Direction | Speed | Altitude | Climb | Temperature | Humidity | Pressure | Voltage | Killtimer | Uptime | BKT | XDATA |
|---|---|---|---|---|---|---|---|---|---|---|---|---|---|---|---|
| AA1-15 | 2026-09-02 13:11:07 | 54.17316 | 14.60063 | 96° | 31km/h | 2297m | -4.5m/s | 4°C | 55.5% | 774.7hPa | 2.7V | 07:45:44 | 02:43:51 | 00:00:00 | |
| AA1-15 | 2026-09-02 13:10:50 | 54.17325 | 14.59854 | 93° | 31km/h | 2370m | -4.6m/s | 3.4°C | 56.8% | 767.7hPa | 2.7V | 07:45:44 | 02:43:35 | 00:00:00 | |
| AA1-15 | 2026-09-02 13:10:40 | 54.17332 | 14.59721 | 96° | 31km/h | 2415m | -4.6m/s | 3.1°C | 56.4% | 763.5hPa | 2.7V | 07:45:44 | 02:43:25 | 00:00:00 | |
| AA1-15 | 2026-09-02 13:10:29 | 54.17339 | 14.59592 | 92° | 24km/h | 2465m | -4.7m/s | 2.6°C | 57.5% | 758.9hPa | 2.6V | 07:45:44 | 02:43:14 | 00:00:00 | |
| AA1-15 | 2026-09-02 13:10:18 | 54.17332 | 14.59479 | 77° | 26km/h | 2515m | -4.5m/s | 2.2°C | 58.8% | 754.1hPa | 2.7V | 07:46:35 | 02:43:03 | 00:00:00 | |
| AA1-15 | 2026-09-02 13:10:08 | 54.17316 | 14.59374 | 70° | 27km/h | 2560m | -4.8m/s | 1.9°C | 61.3% | 749.9hPa | 2.7V | 07:46:35 | 02:42:53 | 00:00:00 | |
| AA1-15 | 2026-09-02 13:09:57 | 54.17290 | 14.59250 | 71° | 27km/h | 2609m | -4.5m/s | 1.4°C | 63.7% | 745.2hPa | 2.6V | 07:46:35 | 02:42:42 | 00:00:00 | |
| AA1-15 | 2026-09-02 13:09:46 | 54.17264 | 14.59124 | 70° | 31km/h | 2658m | -4.3m/s | 1°C | 67.4% | 740.7hPa | 2.7V | 07:46:35 | 02:42:31 | 00:00:00 | |
| AA1-15 | 2026-09-02 13:09:35 | 54.17237 | 14.58967 | 80° | 37km/h | 2707m | -4.5m/s | 0.5°C | 69.1% | 736.3hPa | 2.7V | 07:47:26 | 02:42:20 | 00:00:00 | |
| AA1-15 | 2026-09-02 13:09:24 | 54.17233 | 14.58802 | 92° | 31km/h | 2756m | -4.4m/s | 0.1°C | 70.5% | 731.7hPa | 2.6V | 07:47:26 | 02:42:09 | 00:00:00 | |
| AA1-15 | 2026-09-02 13:09:13 | 54.17235 | 14.58665 | 90° | 27km/h | 2805m | -4.5m/s | -0.3°C | 72.8% | 727.2hPa | 2.7V | 07:47:26 | 02:41:58 | 00:00:00 | |
| AA1-15 | 2026-09-02 13:09:03 | 54.17228 | 14.58556 | 79° | 24km/h | 2850m | -4.7m/s | -0.6°C | 70.1% | 723.2hPa | 2.7V | 07:47:26 | 02:41:48 | 00:00:00 | |
| AA1-15 | 2026-09-02 13:08:52 | 54.17203 | 14.58433 | 68° | 31km/h | 2899m | -4.4m/s | -0.9°C | 71.1% | 718.9hPa | 2.7V | 07:47:26 | 02:41:37 | 00:00:00 | |
| AA1-15 | 2026-09-02 13:08:41 | 54.17171 | 14.58289 | 74° | 35km/h | 2949m | -4.5m/s | -1.3°C | 72.2% | 714.3hPa | 2.7V | 07:48:17 | 02:41:26 | 00:00:00 | |
| AA1-15 | 2026-09-02 13:08:30 | 54.17143 | 14.58122 | 76° | 38km/h | 2999m | -4.4m/s | -1.7°C | 74.3% | 710hPa | 2.7V | 07:48:17 | 02:41:15 | 00:00:00 | |
| AA1-15 | 2026-09-02 13:08:19 | 54.17122 | 14.57943 | 80° | 38km/h | 3049m | -4.5m/s | -2.1°C | 77.3% | 705.6hPa | 2.7V | 07:48:17 | 02:41:04 | 00:00:00 | |
| AA1-15 | 2026-09-02 13:08:08 | 54.17108 | 14.57761 | 85° | 37km/h | 3099m | -4.5m/s | -2.4°C | 83.9% | 701hPa | 2.7V | 07:48:17 | 02:40:53 | 00:00:00 | |
| AA1-15 | 2026-09-02 13:07:57 | 54.17099 | 14.57591 | 83° | 38km/h | 3149m | -4.5m/s | -2.6°C | 92.8% | 696.9hPa | 2.6V | 07:48:17 | 02:40:42 | 00:00:00 | |
| AA1-15 | 2026-09-02 13:07:46 | 54.17086 | 14.57409 | 84° | 38km/h | 3199m | -4.7m/s | -2.8°C | 95.4% | 692.3hPa | 2.7V | 07:49:08 | 02:40:31 | 00:00:00 | |
| AA1-15 | 2026-09-02 13:07:35 | 54.17081 | 14.57244 | 87° | 31km/h | 3250m | -4.7m/s | -3.1°C | 90.7% | 687.9hPa | 2.6V | 07:49:08 | 02:40:20 | 00:00:00 | |
| AA1-15 | 2026-09-02 13:07:24 | 54.17072 | 14.57104 | 80° | 29km/h | 3300m | -4.7m/s | -3.5°C | 91.8% | 683.6hPa | 2.7V | 07:49:08 | 02:40:09 | 00:00:00 | |
| AA1-15 | 2026-09-02 13:07:13 | 54.17055 | 14.56971 | 71° | 31km/h | 3352m | -4.7m/s | -3.9°C | 92.9% | 679.1hPa | 2.7V | 07:49:08 | 02:39:58 | 00:00:00 | |
| DB0DAN | 2026-09-02 13:07:10 | 54.17046 | 14.56930 | 71° | 33km/h | 3366m | -4.7m/s | -4.1°C | 91.3% | 677.82hPa | 2.7V | 00:00:00 | 00:00:00 | 00:00:00 | |
| AA1-15 | 2026-09-02 13:07:03 | 54.17029 | 14.56822 | 79° | 38km/h | 3398m | -4.6m/s | -4.4°C | 95.1% | 675hPa | 2.7V | 07:49:08 | 02:39:48 | 00:00:00 | |
| DB0DAN | 2026-09-02 13:06:55 | 54.17018 | 14.56687 | 86° | 38km/h | 3436m | -4.8m/s | -4.7°C | 93.4% | 671.86hPa | 2.6V | 00:00:00 | 00:00:00 | 00:00:00 | |
| AA1-15 | 2026-09-02 13:06:53 | 54.17016 | 14.56653 | 87° | 38km/h | 3445m | -4.7m/s | -4.7°C | 95.3% | 671.1hPa | 2.7V | 07:49:59 | 02:39:38 | 00:00:00 | |
| AA1-15 | 2026-09-02 13:06:43 | 54.17016 | 14.56508 | 89° | 29km/h | 3492m | -4.7m/s | -4.9°C | 91.1% | 667hPa | 2.7V | 07:49:59 | 02:39:28 | 00:00:00 | |
| DB0DAN | 2026-09-02 13:06:40 | 54.17016 | 14.56471 | 88° | 27km/h | 3507m | -4.9m/s | -5°C | 88.2% | 665.73hPa | 2.7V | 00:00:00 | 00:00:00 | 00:00:00 | |
| AA1-15 | 2026-09-02 13:06:33 | 54.17011 | 14.56387 | 79° | 29km/h | 3540m | -4.8m/s | -5.1°C | 88.5% | 663hPa | 2.7V | 07:49:59 | 02:39:18 | 00:00:00 | |
| DB0DAN | 2026-09-02 13:06:25 | 54.16996 | 14.56289 | 73° | 29km/h | 3578m | -4.8m/s | -5.5°C | 84.1% | 659.8hPa | 2.7V | 00:00:00 | 00:00:00 | 00:00:00 | |
| AA1-15 | 2026-09-02 13:06:23 | 54.16992 | 14.56265 | 73° | 29km/h | 3588m | -5.1m/s | -5.5°C | 85.5% | 659hPa | 2.7V | 07:49:59 | 02:39:08 | 00:00:00 | |
| AA1-15 | 2026-09-02 13:06:12 | 54.16968 | 14.56129 | 74° | 31km/h | 3642m | -4.8m/s | -5.9°C | 84.8% | 654.5hPa | 2.7V | 07:49:59 | 02:38:57 | 00:00:00 | |
| DB0DAN | 2026-09-02 13:06:10 | 54.16964 | 14.56103 | 74° | 31km/h | 3651m | -4.9m/s | -6°C | 83.5% | 653.63hPa | 2.7V | 00:00:00 | 00:00:00 | 00:00:00 | |
| AA1-15 | 2026-09-02 13:06:01 | 54.16941 | 14.55979 | 73° | 33km/h | 3696m | -5m/s | -6.2°C | 90.1% | 650hPa | 2.7V | 07:50:50 | 02:38:46 | 00:00:00 | |
| DB0DAN | 2026-09-02 13:05:55 | 54.16927 | 14.55897 | 73° | 31km/h | 3726m | -4.9m/s | -6°C | 72.4% | 647.48hPa | 2.6V | 00:00:00 | 00:00:00 | 00:00:00 | |
| AA1-15 | 2026-09-02 13:05:50 | 54.16912 | 14.55812 | 73° | 37km/h | 3755m | -4.9m/s | -6.1°C | 78.5% | 645.1hPa | 2.6V | 07:50:50 | 02:38:34 | 00:00:00 | |
| DB0DAN | 2026-09-02 13:05:40 | 54.16889 | 14.55672 | 75° | 37km/h | 3800m | -4.9m/s | -6.3°C | 77% | 641.28hPa | 2.7V | 00:00:00 | 00:00:00 | 00:00:00 | |
| AA1-15 | 2026-09-02 13:05:38 | 54.16885 | 14.55640 | 76° | 38km/h | 3810m | -5.1m/s | -6.4°C | 81.9% | 640.6hPa | 2.6V | 07:50:50 | 02:38:23 | 00:00:00 | |
| AA1-15 | 2026-09-02 13:05:27 | 54.16861 | 14.55453 | 82° | 40km/h | 3864m | -4.9m/s | -6.7°C | 81% | 636.1hPa | 2.7V | 07:50:50 | 02:38:12 | 00:00:00 | |
| DB0DAN | 2026-09-02 13:05:25 | 54.16859 | 14.55420 | 83° | 37km/h | 3873m | -4.8m/s | -6.8°C | 76.2% | 635.32hPa | 2.6V | 00:00:00 | 00:00:00 | 00:00:00 | |
| AA1-15 | 2026-09-02 13:05:16 | 54.16849 | 14.55284 | 83° | 35km/h | 3916m | -4.7m/s | -7.1°C | 79.6% | 631.8hPa | 2.7V | 07:51:41 | 02:38:01 | 00:00:00 | |
| DB0DAN | 2026-09-02 13:05:10 | 54.16843 | 14.55196 | 83° | 33km/h | 3946m | -5m/s | -7.4°C | 75.7% | 629.44hPa | 2.7V | 00:00:00 | 00:00:00 | 00:00:00 | |
| AA1-15 | 2026-09-02 13:05:06 | 54.16838 | 14.55141 | 80° | 31km/h | 3965m | -5m/s | -7.5°C | 78.4% | 627.9hPa | 2.6V | 07:51:41 | 02:37:51 | 00:00:00 | |
| AA1-15 | 2026-09-02 13:04:55 | 54.16815 | 14.55018 | 66° | 26km/h | 4020m | -5m/s | -7.8°C | 77.2% | 623.6hPa | 2.6V | 07:51:41 | 02:37:40 | 00:00:00 | |
| AA1-15 | 2026-09-02 13:04:44 | 54.16784 | 14.54905 | 62° | 26km/h | 4075m | -4.9m/s | -8.2°C | 78% | 619.2hPa | 2.6V | 07:51:41 | 02:37:29 | 00:00:00 | |
| AA1-15 | 2026-09-02 13:04:33 | 54.16742 | 14.54789 | 59° | 27km/h | 4131m | -5m/s | -8.6°C | 80.7% | 614.8hPa | 2.6V | 07:51:41 | 02:37:18 | 00:00:00 | |
| AA1-15 | 2026-09-02 13:04:22 | 54.16702 | 14.54681 | 55° | 27km/h | 4186m | -4.9m/s | -8.8°C | 84.9% | 610.5hPa | 2.7V | 07:52:32 | 02:37:07 | 00:00:00 | |
| AA1-15 | 2026-09-02 13:04:13 | 54.16663 | 14.54588 | 58° | 29km/h | 4236m | -5m/s | -9.1°C | 82.3% | 606.4hPa | 2.6V | 07:52:32 | 02:36:57 | 00:00:00 | |
| DB0DAN | 2026-09-02 13:04:10 | 54.16656 | 14.54566 | 63° | 29km/h | 4246m | -5m/s | -9.2°C | 79.5% | 605.69hPa | 2.7V | 00:00:00 | 00:00:00 | 00:00:00 | |
| AA1-15 | 2026-09-02 13:04:01 | 54.16633 | 14.54459 | 74° | 29km/h | 4292m | -5.1m/s | -9.5°C | 83.2% | 602.2hPa | 2.6V | 07:52:32 | 02:36:46 | 00:00:00 | |
| DB0DAN | 2026-09-02 13:03:55 | 54.16621 | 14.54388 | 74° | 27km/h | 4322m | -5.1m/s | -9.7°C | 80.3% | 599.82hPa | 2.6V | 00:00:00 | 00:00:00 | 00:00:00 | |
| AA1-15 | 2026-09-02 13:03:50 | 54.16610 | 14.54328 | 71° | 29km/h | 4347m | -5.1m/s | -9.9°C | 83.8% | 597.7hPa | 2.6V | 07:52:32 | 02:36:35 | 00:00:00 | |
| DB0DAN | 2026-09-02 13:03:40 | 54.16580 | 14.54211 | 64° | 29km/h | 4399m | -5.3m/s | -10.3°C | 81.3% | 593.68hPa | 2.6V | 00:00:00 | 00:00:00 | 00:00:00 | |
| AA1-15 | 2026-09-02 13:03:39 | 54.16577 | 14.54199 | 62° | 29km/h | 4404m | -5.3m/s | -10.3°C | 84% | 593.4hPa | 2.6V | 07:52:32 | 02:36:24 | 00:00:00 | |
| AA1-15 | 2026-09-02 13:03:28 | 54.16536 | 14.54086 | 54° | 26km/h | 4462m | -5.3m/s | -10.7°C | 82.9% | 589hPa | 2.5V | 07:53:23 | 02:36:13 | 00:00:00 | |
| DB0DAN | 2026-09-02 13:03:25 | 54.16524 | 14.54060 | 52° | 24km/h | 4478m | -5.1m/s | -10.8°C | 80.3% | 587.86hPa | 2.6V | 00:00:00 | 00:00:00 | 00:00:00 | |
| AA1-15 | 2026-09-02 13:03:18 | 54.16492 | 14.53979 | 60° | 31km/h | 4519m | -5.3m/s | -11.1°C | 83.6% | 584.6hPa | 2.6V | 07:53:23 | 02:36:02 | 00:00:00 | |
| DB0DAN | 2026-09-02 13:03:10 | 54.16468 | 14.53892 | 70° | 31km/h | 4555m | -5.1m/s | -11.3°C | 80.5% | 581.84hPa | 2.6V | 00:00:00 | 00:00:00 | 00:00:00 | |
| AA1-15 | 2026-09-02 13:03:07 | 54.16461 | 14.53854 | 72° | 31km/h | 4570m | -5.1m/s | -11.4°C | 82.6% | 580.6hPa | 2.6V | 07:53:23 | 02:35:52 | 00:00:00 | |
| AA1-15 | 2026-09-02 13:02:56 | 54.16442 | 14.53719 | 79° | 27km/h | 4625m | -5m/s | -11.8°C | 82% | 576.6hPa | 2.6V | 07:53:23 | 02:35:41 | 00:00:00 | |
| DB0DAN | 2026-09-02 13:02:55 | 54.16440 | 14.53707 | 79° | 26km/h | 4630m | -5m/s | -11.9°C | 79.9% | 576.15hPa | 2.5V | 00:00:00 | 00:00:00 | 00:00:00 | |
| AA1-15 | 2026-09-02 13:02:46 | 54.16430 | 14.53611 | 78° | 24km/h | 4674m | -4.9m/s | -12.2°C | 82.9% | 572.8hPa | 2.6V | 07:54:14 | 02:35:31 | 00:00:00 | |
| AA1-15 | 2026-09-02 13:02:35 | 54.16416 | 14.53501 | 81° | 24km/h | 4729m | -4.9m/s | -12.5°C | 81.8% | 568.8hPa | 2.6V | 07:54:14 | 02:35:20 | 00:00:00 | |
| SP3WXH-11 | 2026-09-02 13:02:34 | 54.16413 | 14.53470 | 79° | 24km/h | 4744m | -4.9m/s | -12.6°C | 80.2% | 567.5hPa | 2.6V | 00:00:00 | 00:00:00 | 00:00:00 | |
| DB0DAN | 2026-09-02 13:02:25 | 54.16405 | 14.53401 | 82° | 22km/h | 4778m | -5m/s | -12.8°C | 82.4% | 565hPa | 2.6V | 00:00:00 | 00:00:00 | 00:00:00 | |
| AA1-15 | 2026-09-02 13:02:24 | 54.16405 | 14.53391 | 84° | 24km/h | 4783m | -5.1m/s | -12.8°C | 83.9% | 564.5hPa | 2.6V | 07:54:14 | 02:35:09 | 00:00:00 | |
| AA1-15 | 2026-09-02 13:02:13 | 54.16400 | 14.53259 | 86° | 33km/h | 4838m | -5.2m/s | -13.2°C | 83.2% | 560.7hPa | 2.6V | 07:54:14 | 02:34:58 | 00:00:00 | |
| DB0DAN | 2026-09-02 13:02:10 | 54.16399 | 14.53218 | 89° | 29km/h | 4853m | -5.2m/s | -13.2°C | 81.1% | 559.52hPa | 2.6V | 00:00:00 | 00:00:00 | 00:00:00 | |
| AA1-15 | 2026-09-02 13:02:03 | 54.16399 | 14.53134 | 90° | 26km/h | 4889m | -5.2m/s | -13.4°C | 83.1% | 556.9hPa | 2.6V | 07:54:14 | 02:34:48 | 00:00:00 | |
| DB0DAN | 2026-09-02 13:01:55 | 54.16395 | 14.53056 | 80° | 20km/h | 4929m | -5.1m/s | -13.7°C | 81.9% | 553.92hPa | 2.6V | 00:00:00 | 00:00:00 | 00:00:00 | |
| AA1-15 | 2026-09-02 13:01:52 | 54.16392 | 14.53029 | 79° | 22km/h | 4945m | -5.2m/s | -13.9°C | 84.3% | 552.8hPa | 2.6V | 07:55:05 | 02:34:37 | 00:00:00 | |
| AA1-15 | 2026-09-02 13:01:41 | 54.16382 | 14.52928 | 82° | 22km/h | 5000m | -5m/s | -14.4°C | 85.4% | 548.8hPa | 2.5V | 07:55:05 | 02:34:26 | 00:00:00 | |
| DB0DAN | 2026-09-02 13:01:40 | 54.16381 | 14.52919 | 79° | 20km/h | 5005m | -5.3m/s | -14.4°C | 84.5% | 548.35hPa | 2.5V | 00:00:00 | 00:00:00 | 00:00:00 | |
| AA1-15 | 2026-09-02 13:01:31 | 54.16369 | 14.52841 | 73° | 20km/h | 5052m | -5.3m/s | -14.7°C | 83.4% | 545.1hPa | 2.5V | 07:55:05 | 02:34:16 | 00:00:00 | |
| DB0DAN | 2026-09-02 13:01:25 | 54.16359 | 14.52790 | 74° | 20km/h | 5083m | -5.2m/s | -15°C | 80.7% | 542.74hPa | 2.5V | 00:00:00 | 00:00:00 | 00:00:00 | |
| AA1-15 | 2026-09-02 13:01:20 | 54.16354 | 14.52746 | 87° | 22km/h | 5110m | -5.4m/s | -15.1°C | 82.8% | 540.9hPa | 2.5V | 07:55:05 | 02:34:05 | 00:00:00 | |
| DB0DAN | 2026-09-02 13:01:10 | 54.16358 | 14.52641 | 97° | 26km/h | 5163m | -5.7m/s | -15.5°C | 83.5% | 537.06hPa | 2.5V | 00:00:00 | 00:00:00 | 00:00:00 | |
| AA1-15 | 2026-09-02 13:01:10 | 54.16361 | 14.52606 | 97° | 29km/h | 5179m | -5.4m/s | -15.6°C | 85% | 535.9hPa | 2.6V | 07:55:05 | 02:33:52 | 00:00:00 | |
| AA1-15 | 2026-09-02 13:00:56 | 54.16367 | 14.52459 | 97° | 31km/h | 5238m | -5.3m/s | -15.9°C | 85.5% | 531.7hPa | 2.5V | 07:55:56 | 02:33:41 | 00:00:00 | |
| DB0DAN | 2026-09-02 13:00:55 | 54.16368 | 14.52446 | 99° | 29km/h | 5243m | -5.5m/s | -16°C | 84.9% | 531.39hPa | 2.5V | 00:00:00 | 00:00:00 | 00:00:00 | |
| AA1-15 | 2026-09-02 13:00:45 | 54.16385 | 14.52328 | 105° | 26km/h | 5298m | -5.7m/s | -16.3°C | 85.2% | 527.5hPa | 2.5V | 07:55:56 | 02:33:30 | 00:00:00 | |
| DB0DAN | 2026-09-02 13:00:40 | 54.16390 | 14.52280 | 89° | 20km/h | 5327m | -5.5m/s | -16.5°C | 84.9% | 525.61hPa | 2.5V | 00:00:00 | 00:00:00 | 00:00:00 | |
| AA1-15 | 2026-09-02 13:00:35 | 54.16387 | 14.52224 | 87° | 29km/h | 5354m | -6m/s | -16.7°C | 85.3% | 523.6hPa | 2.5V | 07:55:56 | 02:33:20 | 00:00:00 | |
| SP3WXH-11 | 2026-09-02 13:00:31 | 54.16388 | 14.52159 | 93° | 29km/h | 5384m | -6.0m/s | -16.9°C | 85.2% | 521.6hPa | 2.6V | 00:00:00 | 00:00:00 | 00:00:00 | |
| AM1SDL-15 | 2026-09-02 13:00:28 | 54.16388 | 14.52135 | 90° | 31km/h | 5396m | -5.8m/s | -16.9°C | 87.4% | 520.6hPa | 2.6V | 00:00:00 | 02:33:13 | 00:00:00 | |
| DB0DAN | 2026-09-02 13:00:25 | 54.16387 | 14.52097 | 87° | 27km/h | 5414m | -6.1m/s | -17°C | 84.8% | 519.43hPa | 2.6V | 00:00:00 | 00:00:00 | 00:00:00 | |
| AA1-15 | 2026-09-02 13:00:24 | 54.16387 | 14.52085 | 86° | 29km/h | 5420m | -6m/s | -17.1°C | 84.6% | 519.1hPa | 2.5V | 07:55:56 | 02:33:09 | 00:00:00 | |
| AA1-15 | 2026-09-02 13:00:13 | 54.16378 | 14.51947 | 80° | 29km/h | 5485m | -6.2m/s | -17.5°C | 86.6% | 514.6hPa | 2.6V | 07:56:47 | 02:32:58 | 00:00:00 | |
| DB0DAN | 2026-09-02 13:00:10 | 54.16374 | 14.51908 | 80° | 29km/h | 5503m | -5.9m/s | -17.6°C | 87.3% | 513.39hPa | 2.6V | 00:00:00 | 00:00:00 | 00:00:00 | |
| AA1-15 | 2026-09-02 13:00:02 | 54.16361 | 14.51801 | 78° | 35km/h | 5550m | -5.9m/s | -17.9°C | 88% | 510.1hPa | 2.6V | 07:56:47 | 02:32:47 | 00:00:00 | |
| SP3WXH-11 | 2026-09-02 13:00:00 | 54.16357 | 14.51757 | 81° | 33km/h | 5567m | -5.8m/s | -18.1°C | 88.9% | 509.0hPa | 2.6V | 00:00:00 | 00:00:00 | 00:00:00 | |
| DB0DAN | 2026-09-02 12:59:55 | 54.16352 | 14.51698 | 84° | 33km/h | 5591m | -5.8m/s | -18.2°C | 88.6% | 507.31hPa | 2.6V | 00:00:00 | 00:00:00 | 00:00:00 | |
| AA1-15 | 2026-09-02 12:59:51 | 54.16348 | 14.51639 | 86° | 37km/h | 5614m | -6.2m/s | -18.3°C | 87.4% | 505.8hPa | 2.5V | 07:56:47 | 02:32:36 | 00:00:00 | |
| AM1SDL-15 | 2026-09-02 12:59:49 | 54.16347 | 14.51608 | 89° | 37km/h | 5627m | -5.8m/s | -18.3°C | 90.0% | 505.0hPa | 2.6V | 07:56:00 | 02:32:34 | 00:00:00 | |
| DB0DAN | 2026-09-02 12:59:40 | 54.16349 | 14.51465 | 94° | 37km/h | 5679m | -6m/s | -18.6°C | 87.2% | 501.44hPa | 2.6V | 00:00:00 | 00:00:00 | 00:00:00 | |
| AA1-15 | 2026-09-02 12:59:40 | 54.16349 | 14.51465 | 94° | 38km/h | 5679m | -6m/s | -18.6°C | 86.8% | 501.4hPa | 2.6V | 07:56:47 | 02:32:25 | 00:00:00 | |
| AA1-15 | 2026-09-02 12:59:30 | 54.16355 | 14.51289 | 93° | 37km/h | 5743m | -5.8m/s | -18.9°C | 86.3% | 497.1hPa | 2.5V | 07:56:47 | 02:32:14 | 00:00:00 | |
| AA1-15 | 2026-09-02 12:59:19 | 54.16358 | 14.51114 | 91° | 37km/h | 5808m | -5.8m/s | -19.3°C | 85.3% | 492.8hPa | 2.6V | 07:57:38 | 02:32:03 | 00:00:00 | |
| AA1-15 | 2026-09-02 12:59:08 | 54.16359 | 14.50953 | 90° | 38km/h | 5867m | -6.1m/s | -19.7°C | 84.5% | 489hPa | 2.5V | 07:57:38 | 02:31:53 | 00:00:00 | |
| AA1-15 | 2026-09-02 12:58:58 | 54.16360 | 14.50787 | 88° | 38km/h | 5926m | -5.9m/s | -20.2°C | 84.5% | 485.1hPa | 2.5V | 07:57:38 | 02:31:43 | 00:00:00 | |
| SP3WXH-11 | 2026-09-02 12:58:57 | 54.16359 | 14.50770 | 89° | 38km/h | 5932m | -5.8m/s | -20.2°C | 84.6% | 484.7hPa | 2.6V | 00:00:00 | 00:00:00 | 00:00:00 | |
| DB0DAN | 2026-09-02 12:58:55 | 54.16359 | 14.50735 | 90° | 38km/h | 5944m | -6m/s | -20.3°C | 84.7% | 483.99hPa | 2.6V | 00:00:00 | 00:00:00 | 00:00:00 | |
| AA1-15 | 2026-09-02 12:58:47 | 54.16359 | 14.50595 | 89° | 40km/h | 5990m | -5.8m/s | -20.6°C | 85.6% | 480.8hPa | 2.6V | 07:57:38 | 02:31:32 | 00:00:00 | |
| DB0DAN | 2026-09-02 12:58:40 | 54.16358 | 14.50475 | 89° | 38km/h | 6031m | -6.1m/s | -20.9°C | 86.3% | 478.16hPa | 2.5V | 00:00:00 | 00:00:00 | 00:00:00 | |
| AA1-15 | 2026-09-02 12:58:36 | 54.16356 | 14.50406 | 87° | 40km/h | 6056m | -6.1m/s | -21.1°C | 86.5% | 476.6hPa | 2.6V | 07:57:38 | 02:31:21 | 00:00:00 | |
| AA1-15 | 2026-09-02 12:58:25 | 54.16355 | 14.50221 | 88° | 40km/h | 6121m | -5.8m/s | -21.6°C | 85.9% | 472.4hPa | 2.6V | 07:58:29 | 02:31:10 | 00:00:00 | |
| AA1-15 | 2026-09-02 12:58:14 | 54.16350 | 14.50033 | 83° | 38km/h | 6185m | -5.9m/s | -22.1°C | 85.9% | 468.3hPa | 2.6V | 07:58:29 | 02:30:59 | 00:00:00 | |
| AM1SDL-15 | 2026-09-02 12:58:13 | 54.16349 | 14.50016 | 83° | 40km/h | 6191m | -6.0m/s | -22.1°C | 87.7% | 467.9hPa | 2.6V | 00:00:00 | 02:30:58 | 00:00:00 | |
| DB0DAN | 2026-09-02 12:58:10 | 54.16345 | 14.49964 | 85° | 38km/h | 6208m | -5.8m/s | -22.2°C | 85.1% | 466.7hPa | 2.5V | 00:00:00 | 00:00:00 | 00:00:00 | |
| AA1-15 | 2026-09-02 12:58:03 | 54.16343 | 14.49842 | 89° | 40km/h | 6249m | -6.4m/s | -22.5°C | 85.8% | 464.1hPa | 2.6V | 07:58:29 | 02:30:48 | 00:00:00 | |
| DB0DAN | 2026-09-02 12:57:55 | 54.16343 | 14.49704 | 90° | 38km/h | 6297m | -6.1m/s | -22.9°C | 83.5% | 461.13hPa | 2.5V | 00:00:00 | 00:00:00 | 00:00:00 | |
| AA1-15 | 2026-09-02 12:57:52 | 54.16343 | 14.49652 | 90° | 40km/h | 6315m | -6.3m/s | -23°C | 84.6% | 460.1hPa | 2.6V | 07:58:29 | 02:30:37 | 00:00:00 | |
| AA1-15 | 2026-09-02 12:57:41 | 54.16348 | 14.49465 | 93° | 38km/h | 6382m | -6.2m/s | -23.5°C | 84% | 455.9hPa | 2.6V | 07:59:20 | 02:30:26 | 00:00:00 | |
| DB0DAN | 2026-09-02 12:57:40 | 54.16348 | 14.49448 | 92° | 37km/h | 6388m | -5.8m/s | -23.5°C | 82.5% | 455.51hPa | 2.5V | 00:00:00 | 00:00:00 | 00:00:00 | |
| AA1-15 | 2026-09-02 12:57:31 | 54.16353 | 14.49287 | 95° | 37km/h | 6447m | -6.5m/s | -24°C | 84.1% | 451.7hPa | 2.5V | 07:59:20 | 02:30:15 | 00:00:00 | |
| DB0DAN | 2026-09-02 12:57:25 | 54.16356 | 14.49210 | 93° | 33km/h | 6477m | -6.5m/s | -24.2°C | 80.4% | 449.91hPa | 2.5V | 00:00:00 | 00:00:00 | 00:00:00 | |
| AA1-15 | 2026-09-02 12:57:20 | 54.16358 | 14.49135 | 90° | 33km/h | 6509m | -6.5m/s | -24.4°C | 81% | 448hPa | 2.5V | 07:59:20 | 02:30:05 | 00:00:00 | |
| DB0DAN | 2026-09-02 12:57:10 | 54.16358 | 14.48991 | 90° | 33km/h | 6570m | -6.3m/s | -24.7°C | 75.4% | 444.23hPa | 2.5V | 00:00:00 | 00:00:00 | 00:00:00 | |
| AA1-15 | 2026-09-02 12:57:10 | 54.16358 | 14.48977 | 90° | 33km/h | 6577m | -6.6m/s | -24.7°C | 78% | 443.8hPa | 2.5V | 07:59:20 | 02:29:54 | 00:00:00 | |
| AA1-15 | 2026-09-02 12:56:58 | 54.16352 | 14.48819 | 84° | 35km/h | 6645m | -6.3m/s | -25.3°C | 80.4% | 439.7hPa | 2.6V | 07:59:20 | 02:29:43 | 00:00:00 | |
| AA1-15 | 2026-09-02 12:56:47 | 54.16344 | 14.48658 | 86° | 35km/h | 6714m | -6.3m/s | -25.8°C | 81.6% | 435.5hPa | 2.5V | 08:00:11 | 02:29:32 | 00:00:00 | |
| AA1-15 | 2026-09-02 12:56:36 | 54.16334 | 14.48498 | 84° | 35km/h | 6782m | -6.3m/s | -26.3°C | 80.1% | 431.3hPa | 2.6V | 08:00:11 | 02:29:21 | 00:00:00 | |
| DB0DAN | 2026-09-02 12:56:25 | 54.16324 | 14.48332 | 82° | 33km/h | 6849m | -6.5m/s | -26.8°C | 75.9% | 427.36hPa | 2.6V | 00:00:00 | 00:00:00 | 00:00:00 | |
| AA1-15 | 2026-09-02 12:56:25 | 54.16324 | 14.48332 | 82° | 35km/h | 6849m | -6.5m/s | -26.8°C | 79.2% | 427.4hPa | 2.6V | 08:00:11 | 02:29:10 | 00:00:00 | |
| AA1-15 | 2026-09-02 12:56:14 | 54.16311 | 14.48165 | 83° | 35km/h | 6918m | -6.3m/s | -27.3°C | 76.2% | 423.3hPa | 2.6V | 08:00:11 | 02:28:59 | 00:00:00 | |
| AM1SDL-15 | 2026-09-02 12:56:13 | 54.16310 | 14.48150 | 80° | 35km/h | 6924m | -6.5m/s | -27.3°C | 75.1% | 422.8hPa | 2.6V | 00:00:00 | 02:28:58 | 00:00:00 | |
| DB0DAN | 2026-09-02 12:56:10 | 54.16305 | 14.48105 | 81° | 33km/h | 6943m | -6.5m/s | -27.5°C | 73.1% | 421.71hPa | 2.5V | 00:00:00 | 00:00:00 | 00:00:00 | |
| AA1-15 | 2026-09-02 12:56:03 | 54.16296 | 14.48005 | 80° | 33km/h | 6986m | -6.3m/s | -27.9°C | 78.2% | 419.2hPa | 2.6V | 08:00:11 | 02:28:48 | 00:00:00 | |
| AA1-15 | 2026-09-02 12:55:52 | 54.16280 | 14.47843 | 80° | 35km/h | 7055m | -6.5m/s | -28.4°C | 76.5% | 415.2hPa | 2.5V | 08:01:02 | 02:28:37 | 00:00:00 | |
| SP3WXH-11 | 2026-09-02 12:55:51 | 54.16279 | 14.47828 | 80° | 33km/h | 7061m | -6.6m/s | -28.5°C | 72.5% | 414.8hPa | 2.5V | 00:00:00 | 00:00:00 | 00:00:00 | |
| AA1-15 | 2026-09-02 12:55:42 | 54.16263 | 14.47686 | 82° | 33km/h | 7125m | -6.5m/s | -29°C | 77.3% | 411.2hPa | 2.5V | 08:01:02 | 02:28:26 | 00:00:00 | |
| DB0DAN | 2026-09-02 12:55:40 | 54.16262 | 14.47672 | 86° | 31km/h | 7131m | -6.2m/s | -29°C | 73.1% | 410.71hPa | 2.5V | 00:00:00 | 00:00:00 | 00:00:00 | |
| AA1-15 | 2026-09-02 12:55:31 | 54.16248 | 14.47537 | 78° | 31km/h | 7195m | -6.5m/s | -29.5°C | 75.7% | 407.1hPa | 2.5V | 08:01:02 | 02:28:15 | 00:00:00 | |
| DB0DAN | 2026-09-02 12:55:25 | 54.16239 | 14.47470 | 78° | 29km/h | 7226m | -6.8m/s | -29.7°C | 70.2% | 405.17hPa | 2.6V | 00:00:00 | 00:00:00 | 00:00:00 | |
| AA1-15 | 2026-09-02 12:55:19 | 54.16228 | 14.47395 | 78° | 29km/h | 7266m | -6.7m/s | -29.9°C | 72.6% | 403hPa | 2.6V | 08:01:02 | 02:28:04 | 00:00:00 | |
| AA1-15 | 2026-09-02 12:55:08 | 54.16209 | 14.47261 | 75° | 27km/h | 7337m | -6.7m/s | -30.5°C | 71.7% | 399hPa | 2.6V | 08:01:53 | 02:27:53 | 00:00:00 | |
| AA1-15 | 2026-09-02 12:54:58 | 54.16192 | 14.47139 | 76° | 33km/h | 7403m | -6.4m/s | -31°C | 72.2% | 395.3hPa | 2.5V | 08:01:53 | 02:27:43 | 00:00:00 | |
| DB0DAN | 2026-09-02 12:54:55 | 54.16187 | 14.47101 | 79° | 27km/h | 7422m | -6.5m/s | -31.2°C | 67.7% | 394.25hPa | 2.6V | 00:00:00 | 00:00:00 | 00:00:00 | |
| AA1-15 | 2026-09-02 12:54:47 | 54.16173 | 14.47008 | 77° | 27km/h | 7471m | -6.2m/s | -31.6°C | 73.5% | 391.5hPa | 2.5V | 08:01:53 | 02:27:32 | 00:00:00 | |
| DB0DAN | 2026-09-02 12:54:40 | 54.16160 | 14.46922 | 73° | 29km/h | 7514m | -6.3m/s | -32°C | 71.3% | 389.21hPa | 2.6V | 00:00:00 | 00:00:00 | 00:00:00 | |
| AA1-15 | 2026-09-02 12:54:36 | 54.16151 | 14.46874 | 73° | 31km/h | 7540m | -6.8m/s | -32.2°C | 77.1% | 387.8hPa | 2.6V | 08:01:53 | 02:27:21 | 00:00:00 | |
| AA1-15 | 2026-09-02 12:54:26 | 54.16129 | 14.46743 | 77° | 31km/h | 7604m | -6.4m/s | -32.8°C | 79.8% | 384.3hPa | 2.6V | 08:01:53 | 02:27:11 | 00:00:00 | |
| AA1-15 | 2026-09-02 12:54:15 | 54.16107 | 14.46595 | 74° | 33km/h | 7675m | -6.7m/s | -33.4°C | 76.7% | 380.4hPa | 2.5V | 08:02:44 | 02:27:00 | 00:00:00 | |
| DB0DAN | 2026-09-02 12:54:10 | 54.16094 | 14.46528 | 71° | 31km/h | 7708m | -7.1m/s | -33.6°C | 73.9% | 378.63hPa | 2.6V | 00:00:00 | 00:00:00 | 00:00:00 | |
| AA1-15 | 2026-09-02 12:54:04 | 54.16077 | 14.46448 | 72° | 35km/h | 7749m | -6.4m/s | -34°C | 81.3% | 376.4hPa | 2.6V | 08:02:44 | 02:26:49 | 00:00:00 | |
| AA1-15 | 2026-09-02 12:53:54 | 54.16048 | 14.46293 | 76° | 35km/h | 7822m | -7m/s | -34.5°C | 82.4% | 372.5hPa | 2.6V | 08:02:44 | 02:26:38 | 00:00:00 | |
| SP3WXH-11 | 2026-09-02 12:53:47 | 54.16035 | 14.46197 | 80° | 38km/h | 7861m | -6.7m/s | -34.8°C | 74.8% | 370.4hPa | 2.6V | 00:00:00 | 00:00:00 | 00:00:00 | |
| AA1-15 | 2026-09-02 12:53:43 | 54.16030 | 14.46134 | 83° | 37km/h | 7887m | -6.5m/s | -34.8°C | 75.9% | 369.1hPa | 2.6V | 08:02:44 | 02:26:28 | 00:00:00 | |
| AA1-15 | 2026-09-02 12:53:32 | 54.16005 | 14.45956 | 82° | 42km/h | 7958m | -6.7m/s | -35.2°C | 75.7% | 365.3hPa | 2.5V | 08:02:44 | 02:26:17 | 00:00:00 | |
| DB0DAN | 2026-09-02 12:53:25 | 54.15997 | 14.45830 | 85° | 42km/h | 8003m | -6.6m/s | -35.6°C | 73.4% | 362.85hPa | 2.5V | 00:00:00 | 00:00:00 | 00:00:00 | |
| AA1-15 | 2026-09-02 12:53:21 | 54.15991 | 14.45755 | 83° | 46km/h | 8030m | -6.6m/s | -35.8°C | 79.9% | 361.5hPa | 2.6V | 08:03:35 | 02:26:06 | 00:00:00 | |
| AA1-15 | 2026-09-02 12:53:10 | 54.15980 | 14.45538 | 84° | 46km/h | 8103m | -6.9m/s | -36.4°C | 83.1% | 357.6hPa | 2.6V | 08:03:35 | 02:25:55 | 00:00:00 | |
| AA1-15 | 2026-09-02 12:52:59 | 54.15969 | 14.45321 | 85° | 49km/h | 8177m | -7m/s | -36.8°C | 82.5% | 353.8hPa | 2.6V | 08:03:35 | 02:25:44 | 00:00:00 | |
| AM1SDL-15 | 2026-09-02 12:52:58 | 54.15968 | 14.45300 | 87° | 47km/h | 8183m | -6.7m/s | -36.8°C | 83.0% | 353.4hPa | 2.5V | 00:00:00 | 02:25:43 | 00:00:00 | |
| DB0DAN | 2026-09-02 12:52:55 | 54.15965 | 14.45237 | 85° | 46km/h | 8204m | -6.8m/s | -37°C | 78.3% | 352.44hPa | 2.5V | 00:00:00 | 00:00:00 | 00:00:00 | |
| AA1-15 | 2026-09-02 12:52:48 | 54.15959 | 14.45096 | 85° | 47km/h | 8252m | -7.1m/s | -37.4°C | 82.7% | 350hPa | 2.6V | 08:03:35 | 02:25:33 | 00:00:00 | |
| SP3WXH-11 | 2026-09-02 12:52:46 | 54.15955 | 14.45016 | 83° | 46km/h | 8280m | -7.2m/s | -37.6°C | 77.7% | 348.6hPa | 2.6V | 00:00:00 | 00:00:00 | 00:00:00 | |
| AA1-15 | 2026-09-02 12:52:38 | 54.15944 | 14.44879 | 81° | 46km/h | 8330m | -7.3m/s | -37.8°C | 80.5% | 346.1hPa | 2.6V | 08:03:35 | 02:25:22 | 00:00:00 | |
| AA1-15 | 2026-09-02 12:52:26 | 54.15916 | 14.44670 | 74° | 44km/h | 8408m | -7.1m/s | -38.2°C | 69.7% | 342.3hPa | 2.6V | 08:04:26 | 02:25:11 | 00:00:00 | |
| AA1-15 | 2026-09-02 12:52:15 | 54.15879 | 14.44461 | 72° | 46km/h | 8487m | -7.2m/s | -38.8°C | 73% | 338.5hPa | 2.6V | 08:04:26 | 02:25:00 | 00:00:00 | |
| AA1-15 | 2026-09-02 12:52:04 | 54.15836 | 14.44250 | 71° | 47km/h | 8563m | -7.1m/s | -39.5°C | 73.4% | 334.8hPa | 2.6V | 08:04:26 | 02:24:49 | 00:00:00 | |
| AA1-15 | 2026-09-02 12:51:54 | 54.15798 | 14.44052 | 74° | 49km/h | 8633m | -6.6m/s | -40.1°C | 75.3% | 331.4hPa | 2.6V | 08:04:26 | 02:24:39 | 00:00:00 | |
| AA1-15 | 2026-09-02 12:51:43 | 54.15753 | 14.43820 | 71° | 53km/h | 8711m | -7.2m/s | -40.9°C | 77% | 327.7hPa | 2.6V | 08:05:17 | 02:24:28 | 00:00:00 | |
| SP3WXH-11 | 2026-09-02 12:51:43 | 54.15748 | 14.43799 | 69° | 51km/h | 8718m | -7.3m/s | -40.9°C | 71.7% | 327.3hPa | 2.5V | 00:00:00 | 00:00:00 | 00:00:00 | |
| DB0DAN | 2026-09-02 12:51:40 | 54.15740 | 14.43757 | 70° | 49km/h | 8732m | -6.8m/s | -41.1°C | 71% | 326.64hPa | 2.5V | 00:00:00 | 00:00:00 | 00:00:00 | |
| AA1-15 | 2026-09-02 12:51:32 | 54.15705 | 14.43593 | 69° | 51km/h | 8789m | -6.8m/s | -41.5°C | 79% | 324hPa | 2.6V | 08:05:17 | 02:24:17 | 00:00:00 | |
| AA1-15 | 2026-09-02 12:51:22 | 54.15654 | 14.43366 | 69° | 51km/h | 8866m | -6.8m/s | -42.2°C | 80.4% | 320.3hPa | 2.5V | 08:05:17 | 02:24:06 | 00:00:00 | |
| AM1SDL-15 | 2026-09-02 12:51:17 | 54.15635 | 14.43285 | 67° | 51km/h | 8893m | -6.6m/s | -42.4°C | 79.8% | 319.0hPa | 2.5V | 00:00:00 | 02:24:02 | 00:00:00 | |
| DB0DAN | 2026-09-02 12:51:10 | 54.15603 | 14.43142 | 69° | 49km/h | 8941m | -6.9m/s | -42.9°C | 76.8% | 316.85hPa | 2.5V | 00:00:00 | 00:00:00 | 00:00:00 | |
| AA1-15 | 2026-09-02 12:51:10 | 54.15603 | 14.43142 | 69° | 51km/h | 8941m | -6.9m/s | -42.9°C | 83% | 316.9hPa | 2.5V | 08:05:17 | 02:23:55 | 00:00:00 | |
| AA1-15 | 2026-09-02 12:50:59 | 54.15552 | 14.42915 | 68° | 49km/h | 9017m | -7m/s | -43.7°C | 82.6% | 313.2hPa | 2.5V | 08:05:17 | 02:23:44 | 00:00:00 | |
| DB0DAN | 2026-09-02 12:50:55 | 54.15533 | 14.42836 | 67° | 47km/h | 9045m | -6.9m/s | -43.9°C | 74.7% | 311.89hPa | 2.5V | 00:00:00 | 00:00:00 | 00:00:00 | |
| AA1-15 | 2026-09-02 12:50:48 | 54.15498 | 14.42697 | 67° | 49km/h | 9095m | -7m/s | -44.3°C | 82% | 309.6hPa | 2.5V | 08:06:08 | 02:23:33 | 00:00:00 | |
| DB0DAN | 2026-09-02 12:50:40 | 54.15456 | 14.42542 | 64° | 47km/h | 9151m | -7.2m/s | -44.8°C | 69.9% | 307.12hPa | 2.6V | 00:00:00 | 00:00:00 | 00:00:00 | |
| AA1-15 | 2026-09-02 12:50:37 | 54.15439 | 14.42484 | 63° | 49km/h | 9172m | -7.1m/s | -45°C | 77.8% | 306.1hPa | 2.5V | 08:06:08 | 02:23:22 | 00:00:00 | |
| AA1-15 | 2026-09-02 12:50:26 | 54.15378 | 14.42277 | 63° | 47km/h | 9252m | -7.3m/s | -45.7°C | 75.2% | 302.5hPa | 2.6V | 08:06:08 | 02:23:11 | 00:00:00 | |
| DB0DAN | 2026-09-02 12:50:25 | 54.15372 | 14.42259 | 62° | 46km/h | 9259m | -7.2m/s | -45.7°C | 67.6% | 302.17hPa | 2.5V | 00:00:00 | 00:00:00 | 00:00:00 | |
| AA1-15 | 2026-09-02 12:50:16 | 54.15323 | 14.42092 | 63° | 47km/h | 9323m | -7.1m/s | -46.4°C | 72.8% | 299.2hPa | 2.5V | 08:06:08 | 02:23:01 | 00:00:00 | |
| AM1SDL-15 | 2026-09-02 12:50:13 | 54.15306 | 14.42038 | 63° | 47km/h | 9344m | -7.1m/s | -46.5°C | 69.1% | 298.3hPa | 2.5V | 00:00:00 | 02:22:58 | 00:00:00 | |
| DB0DAN | 2026-09-02 12:50:10 | 54.15289 | 14.41982 | 61° | 47km/h | 9365m | -7m/s | -46.7°C | 62.2% | 297.42hPa | 2.5V | 00:00:00 | 00:00:00 | 00:00:00 | |
| AA1-15 | 2026-09-02 12:50:05 | 54.15260 | 14.41890 | 63° | 47km/h | 9401m | -7.3m/s | -47.1°C | 67.4% | 295.8hPa | 2.5V | 08:06:08 | 02:22:50 | 00:00:00 | |
| AA1-15 | 2026-09-02 12:49:54 | 54.15196 | 14.41667 | 65° | 49km/h | 9488m | -7.4m/s | -47.9°C | 49.6% | 291.9hPa | 2.5V | 08:06:59 | 02:22:38 | 00:00:00 | |
| AA1-15 | 2026-09-02 12:49:45 | 54.15149 | 14.41499 | 64° | 47km/h | 9555m | -7.5m/s | -48.3°C | 43.3% | 288.9hPa | 2.6V | 08:06:59 | 02:22:29 | 00:00:00 | |
| DB0DAN | 2026-09-02 12:49:40 | 54.15127 | 14.41425 | 63° | 47km/h | 9585m | -7.6m/s | -48.4°C | 37.5% | 287.68hPa | 2.5V | 00:00:00 | 00:00:00 | 00:00:00 | |
| AA1-15 | 2026-09-02 12:49:34 | 54.15090 | 14.41309 | 60° | 53km/h | 9629m | -7.5m/s | -48.9°C | 44.9% | 285.8hPa | 2.5V | 08:06:59 | 02:22:19 | 00:00:00 | |
| DB0DAN | 2026-09-02 12:49:25 | 54.15028 | 14.41127 | 59° | 53km/h | 9696m | -7.6m/s | -49.4°C | 38.1% | 282.85hPa | 2.5V | 00:00:00 | 00:00:00 | 00:00:00 | |
| AA1-15 | 2026-09-02 12:49:23 | 54.15014 | 14.41086 | 59° | 57km/h | 9711m | -7.5m/s | -49.4°C | 44.7% | 282.2hPa | 2.5V | 08:06:59 | 02:22:08 | 00:00:00 | |
| AA1-15 | 2026-09-02 12:49:13 | 54.14929 | 14.40859 | 59° | 58km/h | 9794m | -7.4m/s | -49.9°C | 40.8% | 278.6hPa | 2.5V | 08:06:59 | 02:21:57 | 00:00:00 | |
| AA1-15 | 2026-09-02 12:49:02 | 54.14849 | 14.40629 | 59° | 55km/h | 9877m | -7.5m/s | -50.4°C | 38.3% | 275.1hPa | 2.6V | 08:07:50 | 02:21:46 | 00:00:00 | |
| AA1-15 | 2026-09-02 12:48:51 | 54.14766 | 14.40386 | 61° | 60km/h | 9961m | -7.7m/s | -50.9°C | 36.9% | 271.6hPa | 2.6V | 08:07:50 | 02:21:35 | 00:00:00 | |
| S3001 | 2026-09-02 12:48:44 | 54.14721 | 14.40252 | 60° | 58km/h | 10007m | -7.7m/s | -51.2°C | 29.3% | 269.7hPa | 2.5V | 00:00:00 | 00:00:00 | 00:00:00 | |
| AA1-15 | 2026-09-02 12:48:41 | 54.14677 | 14.40116 | 62° | 60km/h | 10053m | -7.8m/s | -51.3°C | 34.9% | 267.9hPa | 2.5V | 08:07:50 | 02:21:23 | 00:00:00 | |
| AA1-15 | 2026-09-02 12:48:29 | 54.14607 | 14.39904 | 62° | 55km/h | 10130m | -7.7m/s | -51.6°C | 33.7% | 264.7hPa | 2.6V | 08:07:50 | 02:21:13 | 00:00:00 | |
| AA1-15 | 2026-09-02 12:48:18 | 54.14544 | 14.39672 | 65° | 55km/h | 10216m | -7.7m/s | -52°C | 32.9% | 261.1hPa | 2.6V | 08:08:41 | 02:21:02 | 00:00:00 | |
| AA1-15 | 2026-09-02 12:48:07 | 54.14473 | 14.39403 | 67° | 60km/h | 10309m | -7.6m/s | -52.3°C | 32.5% | 257.5hPa | 2.6V | 08:08:41 | 02:20:50 | 00:00:00 | |
| AA1-15 | 2026-09-02 12:47:56 | 54.14405 | 14.39136 | 67° | 60km/h | 10394m | -7.7m/s | -52.7°C | 31.9% | 254hPa | 2.6V | 08:08:41 | 02:20:39 | 00:00:00 | |
| DB0DAN | 2026-09-02 12:47:55 | 54.14411 | 14.39160 | 66° | 58km/h | 10386m | -7.8m/s | -52.7°C | 25.2% | 254.4hPa | 2.5V | 00:00:00 | 00:00:00 | 00:00:00 | |
| AA1-15 | 2026-09-02 12:47:45 | 54.14338 | 14.38839 | 72° | 60km/h | 10488m | -7.9m/s | -53.1°C | 31.2% | 250.4hPa | 2.6V | 08:08:41 | 02:20:27 | 00:00:00 | |
| DG6HD-11 | 2026-09-02 12:47:44 | 54.14347 | 14.38888 | 71° | 60km/h | 10473m | -7.7m/s | -53.0°C | 29.3% | 251.0hPa | 2.5V | 00:00:00 | 00:00:00 | 00:00:00 | |
| MECKS9 | 2026-09-02 12:47:42 | 54.14338 | 14.38839 | 73° | 60km/h | 10488m | -7.9m/s | -53.1°C | 24.9% | 250.4hPa | 2.5V | 00:00:00 | 00:00:00 | 00:00:00 | |
| DB0DAN | 2026-09-02 12:47:40 | 54.14329 | 14.38790 | 73° | 57km/h | 10504m | -7.8m/s | -53.2°C | 24.8% | 249.8hPa | 2.5V | 00:00:00 | 00:00:00 | 00:00:00 | |
| AA1-15 | 2026-09-02 12:47:34 | 54.14302 | 14.38614 | 78° | 62km/h | 10559m | -7.9m/s | -53.5°C | 30.7% | 247.6hPa | 2.5V | 08:08:41 | 02:20:18 | 00:00:00 | |
| AA1-15 | 2026-09-02 12:47:23 | 54.14270 | 14.38329 | 78° | 60km/h | 10646m | -7.9m/s | -53.8°C | 29.8% | 244.3hPa | 2.5V | 08:09:32 | 02:20:07 | 00:00:00 | |
| AA1-15 | 2026-09-02 12:47:12 | 54.14230 | 14.38026 | 76° | 58km/h | 10742m | -7.9m/s | -54.3°C | 28.1% | 240.7hPa | 2.6V | 08:09:32 | 02:19:55 | 00:00:00 | |
| DB0DAN | 2026-09-02 12:47:10 | 54.14230 | 14.38026 | 76° | 57km/h | 10742m | -7.9m/s | -54.3°C | 22% | 240.72hPa | 2.6V | 00:00:00 | 00:00:00 | 00:00:00 | |
| AA1-15 | 2026-09-02 12:47:02 | 54.14207 | 14.37814 | 83° | 55km/h | 10813m | -7.8m/s | -54.6°C | 26.7% | 238hPa | 2.5V | 08:09:32 | 02:19:46 | 00:00:00 | |
| AA1-15 | 2026-09-02 12:46:52 | 54.14187 | 14.37567 | 82° | 58km/h | 10894m | -8m/s | -54.6°C | 23.9% | 235hPa | 2.5V | 08:09:32 | 02:19:36 | 00:00:00 | |
| AA1-15 | 2026-09-02 12:46:42 | 54.14171 | 14.37322 | 81° | 57km/h | 10974m | -8m/s | -54.4°C | 21.3% | 232.1hPa | 2.6V | 08:09:32 | 02:19:26 | 00:00:00 | |
| AA1-15 | 2026-09-02 12:46:31 | 54.14153 | 14.37099 | 83° | 49km/h | 11055m | -8.4m/s | -54.6°C | 18.3% | 229.3hPa | 2.6V | 08:10:23 | 02:19:16 | 00:00:00 | |
| AA1-15 | 2026-09-02 12:46:21 | 54.14124 | 14.36868 | 77° | 55km/h | 11144m | -8m/s | -54.7°C | 14.6% | 226hPa | 2.6V | 08:10:23 | 02:19:05 | 00:00:00 | |
| AA1-15 | 2026-09-02 12:46:11 | 54.14096 | 14.36625 | 80° | 57km/h | 11226m | -8.4m/s | -54°C | 10.6% | 223.1hPa | 2.5V | 08:10:23 | 02:18:55 | 00:00:00 | |
| AA1-15 | 2026-09-02 12:46:00 | 54.14067 | 14.36377 | 77° | 51km/h | 11318m | -8.3m/s | -53.7°C | 7.1% | 220hPa | 2.6V | 08:10:23 | 02:18:44 | 00:00:00 | |
| AA1-15 | 2026-09-02 12:45:49 | 54.14037 | 14.36144 | 80° | 55km/h | 11411m | -8.5m/s | -52°C | 4.3% | 216.8hPa | 2.6V | 08:10:23 | 02:18:33 | 00:00:00 | |
| AA1-15 | 2026-09-02 12:45:38 | 54.14018 | 14.35900 | 85° | 58km/h | 11498m | -8.6m/s | -51.5°C | 3.2% | 214hPa | 2.6V | 08:12:05 | 02:18:23 | 00:00:00 | |
| AA1-15 | 2026-09-02 12:45:28 | 54.14018 | 14.35564 | 93° | 69km/h | 11603m | -8.7m/s | -51.5°C | 2.4% | 210.6hPa | 2.5V | 08:12:05 | 02:18:11 | 00:00:00 | |
| AA1-15 | 2026-09-02 12:45:19 | 54.14030 | 14.35337 | 95° | 66km/h | 11674m | -8.9m/s | -51.3°C | 2% | 208.3hPa | 2.5V | 08:12:05 | 02:18:03 | 00:00:00 | |
| AA1-15 | 2026-09-02 12:45:08 | 54.14041 | 14.34952 | 90° | 53km/h | 11808m | -8.9m/s | -51°C | 1.9% | 204.1hPa | 2.5V | 08:12:05 | 02:17:48 | 00:00:00 | |
| AA1-15 | 2026-09-02 12:44:55 | 54.14054 | 14.34701 | 100° | 57km/h | 11907m | -9m/s | -50.6°C | 1.7% | 200.9hPa | 2.5V | 08:12:05 | 02:17:37 | 00:00:00 | |
| DB0DAN | 2026-09-02 12:44:55 | 54.14048 | 14.34772 | 97° | 53km/h | 11880m | -9.1m/s | 0°C | 0% | 201.83hPa | 2.6V | 00:00:00 | 00:00:00 | 00:00:00 | |
| AA1-15 | 2026-09-02 12:44:45 | 54.14078 | 14.34529 | 105° | 60km/h | 11970m | -9.1m/s | -50.2°C | 1.4% | 199hPa | 2.6V | 08:12:05 | 02:17:30 | 00:00:00 | |
| AA1-15 | 2026-09-02 12:44:35 | 54.14118 | 14.34285 | 107° | 60km/h | 12061m | -9.2m/s | -49.8°C | 1.1% | 196.3hPa | 2.6V | 08:12:05 | 02:17:20 | 00:00:00 | |
| AM1SDL-15 | 2026-09-02 12:44:35 | 54.14118 | 14.34285 | 108° | 58km/h | 12061m | -9.1m/s | -49.7°C | 3.8% | 196.2hPa | 2.6V | 00:00:00 | 02:17:20 | 00:00:00 | |
| SP3WXH-11 | 2026-09-02 12:44:28 | 54.14148 | 14.34114 | 107° | 57km/h | 12125m | -9.2m/s | -49.7°C | 1.8% | 194.3hPa | 2.6V | 00:00:00 | 00:00:00 | 00:00:00 | |
| DB0DAN | 2026-09-02 12:44:25 | 54.14161 | 14.34043 | 106° | 55km/h | 12153m | -9.3m/s | 0°C | 0% | 193.54hPa | 2.6V | 00:00:00 | 00:00:00 | 00:00:00 | |
| AA1-15 | 2026-09-02 12:44:24 | 54.14165 | 14.34019 | 106° | 58km/h | 12162m | -9.3m/s | -49.4°C | 1% | 193.3hPa | 2.6V | 08:12:05 | 02:17:09 | 00:00:00 | |
| AA1-15 | 2026-09-02 12:44:14 | 54.14195 | 14.33787 | 98° | 55km/h | 12254m | -9.2m/s | -49.9°C | 0.8% | 190.6hPa | 2.6V | 08:12:05 | 02:16:59 | 00:00:00 | |
| AA1-15 | 2026-09-02 12:44:03 | 54.14209 | 14.33526 | 90° | 57km/h | 12355m | -9.1m/s | -49.8°C | 0.6% | 187.7hPa | 2.6V | 08:12:56 | 02:16:48 | 00:00:00 | |
| SP3WXH-11 | 2026-09-02 12:43:57 | 54.14208 | 14.33384 | 89° | 53km/h | 12410m | -9.3m/s | -50.2°C | 1.5% | 186.1hPa | 2.5V | 00:00:00 | 00:00:00 | 00:00:00 | |
| DB0DAN | 2026-09-02 12:43:55 | 54.14208 | 14.33337 | 91° | 53km/h | 12428m | -9.1m/s | 0°C | 0% | 185.57hPa | 2.5V | 00:00:00 | 00:00:00 | 00:00:00 | |
| AA1-15 | 2026-09-02 12:43:52 | 54.14209 | 14.33264 | 93° | 57km/h | 12455m | -9.1m/s | -50.2°C | 0.6% | 184.8hPa | 2.6V | 08:12:56 | 02:16:37 | 00:00:00 | |
| AA1-15 | 2026-09-02 12:43:41 | 54.14231 | 14.33005 | 98° | 55km/h | 12556m | -9.2m/s | -50.2°C | 0.4% | 181.9hPa | 2.6V | 08:12:56 | 02:16:26 | 00:00:00 | |
| AA1-15 | 2026-09-02 12:43:31 | 54.14254 | 14.32744 | 99° | 57km/h | 12659m | -9.2m/s | -49.9°C | 0.4% | 179.1hPa | 2.5V | 08:12:56 | 02:16:15 | 00:00:00 | |
| AA1-15 | 2026-09-02 12:43:19 | 54.14267 | 14.32484 | 91° | 53km/h | 12762m | -9.5m/s | -49.3°C | 0.2% | 176.4hPa | 2.5V | 08:12:56 | 02:16:04 | 00:00:00 | |
| AA1-15 | 2026-09-02 12:43:09 | 54.14264 | 14.32215 | 92° | 58km/h | 12865m | -9.4m/s | -50°C | 0.4% | 173.6hPa | 2.5V | 08:13:47 | 02:15:53 | 00:00:00 | |
| AA1-15 | 2026-09-02 12:42:58 | 54.14272 | 14.31958 | 93° | 60km/h | 12960m | -9.5m/s | -49.2°C | 0.3% | 171.1hPa | 2.5V | 08:13:47 | 02:15:43 | 00:00:00 | |
| AA1-15 | 2026-09-02 12:42:47 | 54.14291 | 14.31663 | 99° | 64km/h | 13066m | -9.8m/s | -49.4°C | 0.2% | 168.4hPa | 2.5V | 08:13:47 | 02:15:32 | 00:00:00 | |
| AA1-15 | 2026-09-02 12:42:36 | 54.14321 | 14.31376 | 100° | 58km/h | 13173m | -9.8m/s | -49.4°C | 0.3% | 165.7hPa | 2.6V | 08:13:47 | 02:15:21 | 00:00:00 | |
| AA1-15 | 2026-09-02 12:42:26 | 54.14350 | 14.31101 | 101° | 60km/h | 13281m | -9.8m/s | -49.4°C | 0.2% | 163hPa | 2.6V | 08:13:47 | 02:15:10 | 00:00:00 | |
| AA1-15 | 2026-09-02 12:42:15 | 54.14385 | 14.30857 | 106° | 55km/h | 13379m | -9.9m/s | -49.4°C | 0.2% | 160.5hPa | 2.6V | 08:14:38 | 02:15:00 | 00:00:00 | |
| DG6HD-11 | 2026-09-02 12:42:12 | 54.14395 | 14.30789 | 106° | 53km/h | 13409m | -9.9m/s | -49.3°C | 3.2% | 159.8hPa | 2.6V | 00:00:00 | 00:00:00 | 00:00:00 | |
| DB0DAN | 2026-09-02 12:42:10 | 54.14402 | 14.30745 | 104° | 51km/h | 13429m | -10m/s | 0°C | 0% | 0hPa | 2.6V | 00:00:00 | 00:00:00 | 00:00:00 | |
| AA1-15 | 2026-09-02 12:42:04 | 54.14421 | 14.30612 | 102° | 51km/h | 13489m | -10.1m/s | -49.7°C | 0.2% | 157.9hPa | 2.6V | 08:14:38 | 02:14:49 | 00:00:00 | |
| AA1-15 | 2026-09-02 12:41:53 | 54.14439 | 14.30371 | 96° | 55km/h | 13600m | -10.1m/s | -50.1°C | 0.2% | 155.2hPa | 2.6V | 08:14:38 | 02:14:38 | 00:00:00 | |
| SP3WXH-11 | 2026-09-02 12:41:53 | 54.14439 | 14.30371 | 96° | 55km/h | 13600m | -10.1m/s | -50.1°C | 1.2% | 155.2hPa | 2.5V | 00:00:00 | 00:00:00 | 00:00:00 | |
| AM1SDL-15 | 2026-09-02 12:41:46 | 54.14449 | 14.30203 | 96° | 57km/h | 13671m | -10.2m/s | -50.0°C | 3.3% | 153.5hPa | 2.5V | 00:00:00 | 02:14:31 | 00:00:00 | |
| DL1XH-15 | 2026-09-02 12:41:45 | 54.14458 | 14.30081 | 97° | 57km/h | 13723m | -10.5m/s | -49.8°C | 3.2% | 152.4hPa | 2.5V | 08:30:00 | 02:14:26 | 00:00:00 | |
| AA1-15 | 2026-09-02 12:41:42 | 54.14458 | 14.30081 | 98° | 57km/h | 13723m | -10.5m/s | -49.8°C | 0.2% | 152.4hPa | 2.5V | 08:14:38 | 02:14:26 | 00:00:00 | |
| AA1-15 | 2026-09-02 12:41:32 | 54.14481 | 14.29846 | 104° | 55km/h | 13826m | -10.5m/s | -49.8°C | 0.1% | 149.9hPa | 2.6V | 08:15:29 | 02:14:16 | 00:00:00 | |
| S3001 | 2026-09-02 12:41:30 | 54.14488 | 14.29802 | 105° | 51km/h | 13847m | -10.5m/s | -49.7°C | 1.2% | 149.5hPa | 2.6V | 00:00:00 | 00:00:00 | 00:00:00 | |
| MECKS9 | 2026-09-02 12:41:27 | 54.14492 | 14.29780 | 106° | 51km/h | 13858m | -10.5m/s | -49.8°C | 1.2% | 149.2hPa | 2.6V | 08:15:00 | 00:00:00 | 00:00:00 | |
| DB0DAN | 2026-09-02 12:41:25 | 54.14500 | 14.29719 | 102° | 46km/h | 13889m | -10.3m/s | 0°C | 0% | 0hPa | 2.6V | 00:00:00 | 00:00:00 | 00:00:00 | |
| AA1-15 | 2026-09-02 12:41:20 | 54.14509 | 14.29620 | 94° | 46km/h | 13941m | -10.6m/s | -50.1°C | 0.2% | 147.4hPa | 2.6V | 08:15:29 | 02:14:05 | 00:00:00 | |
| MECKS9 | 2026-09-02 12:41:16 | 54.14510 | 14.29559 | 91° | 47km/h | 13973m | -10.5m/s | -50.1°C | 1.1% | 146.6hPa | 2.6V | 08:15:00 | 00:00:00 | 00:00:00 | |
| DL1XH-15 | 2026-09-02 12:41:12 | 54.14512 | 14.29356 | 91° | 49km/h | 14078m | -10.6m/s | -50.4°C | 3.3% | 144.3hPa | 2.6V | 08:30:00 | 02:13:52 | 00:00:00 | |
| AA1-15 | 2026-09-02 12:41:10 | 54.14511 | 14.29418 | 91° | 47km/h | 14046m | -10.6m/s | -50.4°C | 0.2% | 145hPa | 2.5V | 08:15:29 | 02:13:55 | 00:00:00 | |
| DB0DAN | 2026-09-02 12:41:10 | 54.14511 | 14.29418 | 91° | 46km/h | 14046m | -10.6m/s | 0°C | 0% | 0hPa | 2.5V | 00:00:00 | 00:00:00 | 00:00:00 | |
| AA1-15 | 2026-09-02 12:40:59 | 54.14513 | 14.29185 | 88° | 53km/h | 14163m | -10.8m/s | -50.6°C | 0.2% | 142.4hPa | 2.5V | 08:15:29 | 02:13:44 | 00:00:00 | |
| AA1-15 | 2026-09-02 12:40:49 | 54.14503 | 14.28958 | 87° | 53km/h | 14270m | -10.8m/s | -49.8°C | 0% | 140.1hPa | 2.5V | 08:15:29 | 02:13:34 | 00:00:00 | |
| AA1-15 | 2026-09-02 12:40:38 | 54.14501 | 14.28697 | 89° | 58km/h | 14389m | -10.9m/s | -49.7°C | 0.1% | 137.6hPa | 2.6V | 08:16:20 | 02:13:23 | 00:00:00 | |
| AA1-15 | 2026-09-02 12:40:28 | 54.14500 | 14.28425 | 91° | 58km/h | 14508m | -10.9m/s | -49.3°C | 0% | 135.1hPa | 2.6V | 08:16:20 | 02:13:12 | 00:00:00 | |
| AA1-15 | 2026-09-02 12:40:17 | 54.14509 | 14.28196 | 95° | 47km/h | 14618m | -11.2m/s | -49.3°C | 0% | 132.9hPa | 2.6V | 08:16:20 | 02:13:02 | 00:00:00 | |
| AA1-15 | 2026-09-02 12:40:06 | 54.14523 | 14.27976 | 99° | 49km/h | 14740m | -10.9m/s | -49.5°C | 0% | 130.4hPa | 2.6V | 08:16:20 | 02:12:51 | 00:00:00 | |
| AA1-15 | 2026-09-02 12:39:56 | 54.14544 | 14.27741 | 94° | 53km/h | 14861m | -11.2m/s | -49.4°C | 0% | 128.1hPa | 2.5V | 08:16:20 | 02:12:40 | 00:00:00 | |
| AA1-15 | 2026-09-02 12:39:46 | 54.14558 | 14.27508 | 99° | 57km/h | 14973m | -11.3m/s | -49.8°C | 0% | 125.9hPa | 2.5V | 08:17:11 | 02:12:30 | 00:00:00 | |
| AA1-15 | 2026-09-02 12:39:35 | 54.14591 | 14.27274 | 105° | 53km/h | 15085m | -11.3m/s | -49.6°C | 0% | 123.8hPa | 2.6V | 08:17:11 | 02:12:20 | 00:00:00 | |
| AM1SDL-15 | 2026-09-02 12:39:34 | 54.14594 | 14.27252 | 104° | 55km/h | 15096m | -11.2m/s | -49.6°C | 3.0% | 123.5hPa | 2.5V | 00:00:00 | 02:12:19 | 08:30:00 | |
| DJ2DS-15 | 2026-09-02 12:39:27 | 54.14617 | 14.27091 | 101° | 55km/h | 15175m | -11.3m/s | -49.9°C | 1.0% | 122.0hPa | 2.6V | 00:00:00 | 00:00:00 | 00:00:00 | |
| DB0DAN | 2026-09-02 12:39:25 | 54.14622 | 14.27045 | 101° | 51km/h | 15197m | -11.2m/s | 0°C | 0% | 0hPa | 2.6V | 00:00:00 | 00:00:00 | 00:00:00 | |
| AA1-15 | 2026-09-02 12:39:25 | 54.14627 | 14.26999 | 100° | 53km/h | 15220m | -11.3m/s | -49.8°C | 0% | 121.2hPa | 2.5V | 08:17:11 | 02:12:08 | 00:00:00 | |
| AA1-15 | 2026-09-02 12:39:14 | 54.14645 | 14.26779 | 95° | 51km/h | 15334m | -11.7m/s | -49.8°C | 0% | 119.1hPa | 2.6V | 08:17:11 | 02:11:58 | 00:00:00 | |
| AA1-15 | 2026-09-02 12:39:03 | 54.14646 | 14.26564 | 87° | 51km/h | 15449m | -11.7m/s | -50.4°C | 0.2% | 117.1hPa | 2.5V | 08:17:11 | 02:11:48 | 00:00:00 | |
| AA1-15 | 2026-09-02 12:38:53 | 54.14630 | 14.26291 | 87° | 57km/h | 15589m | -11.7m/s | -50.2°C | 0.2% | 114.6hPa | 2.5V | 08:18:02 | 02:11:36 | 00:00:00 | |
| SP3WXH-11 | 2026-09-02 12:38:47 | 54.14630 | 14.26191 | 93° | 57km/h | 15636m | -11.9m/s | -50.3°C | 1.0% | 113.7hPa | 2.5V | 00:00:00 | 00:00:00 | 00:00:00 | |
| AA1-15 | 2026-09-02 12:38:40 | 54.14647 | 14.26023 | 105° | 55km/h | 15719m | -11.8m/s | -49.7°C | 0.1% | 112.3hPa | 2.5V | 08:18:02 | 02:11:25 | 00:00:00 | |
| AA1-15 | 2026-09-02 12:38:30 | 54.14686 | 14.25806 | 108° | 42km/h | 15848m | -12.1m/s | -49.4°C | 0% | 110.1hPa | 2.5V | 08:18:02 | 02:11:14 | 00:00:00 | |
| AA1-15 | 2026-09-02 12:38:18 | 54.14714 | 14.25633 | 96° | 38km/h | 15980m | -12m/s | -49.9°C | 0% | 107.9hPa | 2.5V | 08:18:02 | 02:11:03 | 00:00:00 | |
| AA1-15 | 2026-09-02 12:38:08 | 54.14725 | 14.25432 | 100° | 37km/h | 16114m | -12m/s | -50.3°C | 0.1% | 105.7hPa | 2.5V | 08:18:53 | 02:10:52 | 00:00:00 | |
| AA1-15 | 2026-09-02 12:37:56 | 54.14728 | 14.25244 | 102° | 51km/h | 16248m | -11.9m/s | -50.2°C | 0% | 103.5hPa | 2.5V | 08:18:53 | 02:10:41 | 00:00:00 | |
| AA1-15 | 2026-09-02 12:37:46 | 54.14779 | 14.25077 | 102° | 27km/h | 16382m | -12.2m/s | -49.7°C | 0% | 101.5hPa | 2.5V | 08:18:53 | 02:10:30 | 00:00:00 | |
| SP3WXH-11 | 2026-09-02 12:37:45 | 54.14780 | 14.25065 | 92° | 29km/h | 16394m | -11.9m/s | -49.7°C | 0.8% | 101.3hPa | 2.6V | 00:00:00 | 00:00:00 | 00:00:00 | |
| AA1-15 | 2026-09-02 12:37:35 | 54.14805 | 14.24898 | 125° | 29km/h | 16516m | -11.9m/s | -50.6°C | 0% | 99.4hPa | 2.6V | 08:18:53 | 02:10:19 | 00:00:00 | |
| AA1-15 | 2026-09-02 12:37:23 | 54.14798 | 14.24774 | 75° | 44km/h | 16652m | -12.6m/s | -50.4°C | 0% | 97.3hPa | 2.5V | 08:18:53 | 02:10:08 | 00:00:00 | |
| AA1-15 | 2026-09-02 12:37:12 | 54.14785 | 14.24623 | 55° | 35km/h | 16789m | -12.6m/s | -50.5°C | 0.1% | 95.3hPa | 2.5V | 08:19:44 | 02:09:57 | 00:00:00 | |
| AA1-15 | 2026-09-02 12:37:01 | 54.14770 | 14.24427 | 105° | 33km/h | 16928m | -13.1m/s | -50°C | 0% | 93.4hPa | 2.5V | 08:19:44 | 02:09:46 | 00:00:00 | |
| AA1-15 | 2026-09-02 12:36:51 | 54.14765 | 14.24226 | 104° | 58km/h | 17068m | -13m/s | -50.7°C | 0% | 91.3hPa | 2.5V | 08:19:44 | 02:09:35 | 00:00:00 | |
| S3001 | 2026-09-02 12:36:50 | 54.14765 | 14.24226 | 104° | 57km/h | 17068m | -13.0m/s | -50.7°C | 0.9% | 91.3hPa | 2.6V | 00:00:00 | 00:00:00 | 00:00:00 | |
| AA1-15 | 2026-09-02 12:36:39 | 54.14818 | 14.24050 | 101° | 27km/h | 17210m | -13.3m/s | -50.1°C | 0% | 89.4hPa | 2.6V | 08:19:44 | 02:09:24 | 00:00:00 | |
| AA1-15 | 2026-09-02 12:36:28 | 54.14858 | 14.23876 | 137° | 31km/h | 17352m | -12.9m/s | -50.3°C | 0% | 87.4hPa | 2.5V | 08:19:44 | 02:09:13 | 00:00:00 | |
| AA1-15 | 2026-09-02 12:36:18 | 54.14855 | 14.23748 | 85° | 40km/h | 17511m | -13.4m/s | -50°C | 0% | 85.3hPa | 2.6V | 08:20:35 | 02:09:01 | 00:00:00 | |
| AA1-15 | 2026-09-02 12:36:07 | 54.14849 | 14.23622 | 57° | 35km/h | 17642m | -13.1m/s | -49.8°C | 0% | 83.7hPa | 2.6V | 08:20:35 | 02:08:51 | 00:00:00 | |
| AA1-15 | 2026-09-02 12:35:56 | 54.14838 | 14.23497 | 97° | 7km/h | 17778m | -13.7m/s | -48.8°C | 0% | 81.9hPa | 2.6V | 08:20:35 | 02:08:41 | 00:00:00 | |
| AA1-15 | 2026-09-02 12:35:46 | 54.14812 | 14.23370 | 103° | 38km/h | 17943m | -14.3m/s | -49.3°C | 0% | 79.9hPa | 2.6V | 08:20:35 | 02:08:29 | 00:00:00 | |
| AA1-15 | 2026-09-02 12:35:36 | 54.14819 | 14.23267 | 79° | 31km/h | 18093m | -14.1m/s | -49.4°C | 0% | 78.1hPa | 2.5V | 08:21:26 | 02:08:18 | 00:00:00 | |
| AA1-15 | 2026-09-02 12:35:25 | 54.14834 | 14.23179 | 111° | 4km/h | 18219m | -14.1m/s | -49.9°C | 0% | 76.6hPa | 2.6V | 08:21:26 | 02:08:09 | 00:00:00 | |
| AA1-15 | 2026-09-02 12:35:15 | 54.14804 | 14.23089 | 88° | 38km/h | 18359m | -14.5m/s | -50.1°C | 0% | 75hPa | 2.6V | 08:21:26 | 02:07:59 | 00:00:00 | |
| DB0DAN | 2026-09-02 12:35:10 | 54.14812 | 14.23030 | 118° | 29km/h | 18418m | -14.2m/s | 0°C | 0% | 0hPa | 2.5V | 00:00:00 | 00:00:00 | 00:00:00 | |
| AA1-15 | 2026-09-02 12:35:04 | 54.14825 | 14.22983 | 65° | 16km/h | 18518m | -14.3m/s | -49.6°C | 0% | 73.2hPa | 2.6V | 08:21:26 | 02:07:48 | 00:00:00 | |
| AA1-15 | 2026-09-02 12:34:54 | 54.14830 | 14.22838 | 122° | 26km/h | 18678m | -15m/s | -49.8°C | 0% | 71.5hPa | 2.6V | 08:21:26 | 02:07:37 | 00:00:00 | |
| S3001 | 2026-09-02 12:34:46 | 54.14825 | 14.22773 | 65° | 35km/h | 18780m | -15.0m/s | -49.8°C | 0.8% | 70.3hPa | 2.5V | 00:00:00 | 00:00:00 | 00:00:00 | |
| AA1-15 | 2026-09-02 12:34:43 | 54.14819 | 14.22741 | 78° | 44km/h | 18810m | -14.9m/s | -49.7°C | 0% | 70hPa | 2.5V | 08:22:17 | 02:07:28 | 00:00:00 | |
| AA1-15 | 2026-09-02 12:34:32 | 54.14829 | 14.22607 | 27° | 16km/h | 18986m | -15.4m/s | -49.7°C | 0% | 68.2hPa | 2.5V | 08:22:17 | 02:07:16 | 00:00:00 | |
| AA1-15 | 2026-09-02 12:34:22 | 54.14796 | 14.22428 | 91° | 22km/h | 19183m | -14.5m/s | -49.8°C | 0% | 66.1hPa | 2.5V | 08:22:17 | 02:07:03 | 00:00:00 | |
| AA1-15 | 2026-09-02 12:34:10 | 54.14761 | 14.22290 | 92° | 44km/h | 19350m | -15.7m/s | -49.8°C | 0% | 64.5hPa | 2.5V | 08:22:17 | 02:06:52 | 00:00:00 | |
| AA1-15 | 2026-09-02 12:33:58 | 54.14769 | 14.22197 | 52° | 22km/h | 19487m | -15.6m/s | -49.7°C | 0% | 63.1hPa | 2.6V | 08:22:17 | 02:06:43 | 00:00:00 | |
| AA1-15 | 2026-09-02 12:33:48 | 54.14750 | 14.22083 | 341° | 2km/h | 19660m | -15m/s | -49.3°C | 0% | 61.5hPa | 2.6V | 08:23:08 | 02:06:32 | 00:00:00 | |
| DG6HD-15 | 2026-09-02 12:33:46 | 54.14751 | 14.22083 | 342° | 2km/h | 19660m | -15.0m/s | -49.3°C | 0.8% | 61.5hPa | 2.5V | 08:23:00 | 00:00:00 | 00:00:00 | |
| S3001 | 2026-09-02 12:33:44 | 54.14737 | 14.22089 | 1° | 20km/h | 19722m | -16.3m/s | -49.6°C | 0.8% | 60.9hPa | 2.5V | 00:00:00 | 00:00:00 | 00:00:00 | |
| DJ2DS-15 | 2026-09-02 12:33:42 | 54.14732 | 14.22088 | 12° | 27km/h | 19738m | -15.9m/s | -49.7°C | 3.0% | 60.7hPa | 2.5V | 00:00:00 | 02:06:27 | 08:30:00 | |
| DB0DAN | 2026-09-02 12:33:40 | 54.14721 | 14.22081 | 35° | 24km/h | 19768m | -15.1m/s | 0°C | 0% | 0hPa | 2.6V | 00:00:00 | 00:00:00 | 00:00:00 | |
| AA1-15 | 2026-09-02 12:33:36 | 54.14710 | 14.22054 | 77° | 11km/h | 19832m | -16.8m/s | -49.9°C | 0% | 59.9hPa | 2.5V | 08:23:08 | 02:06:21 | 00:00:00 | |
| AA1-15 | 2026-09-02 12:33:25 | 54.14657 | 14.22037 | 30° | 38km/h | 20010m | -16.5m/s | -50.6°C | 0% | 58.2hPa | 2.5V | 08:23:08 | 02:06:10 | 00:00:00 | |
| AA1-15 | 2026-09-02 12:33:15 | 54.14623 | 14.21955 | 10° | 15km/h | 20172m | -16.2m/s | -51.4°C | 0.3% | 56.8hPa | 2.6V | 08:23:08 | 02:06:00 | 00:00:00 | |
| AA1-15 | 2026-09-02 12:33:04 | 54.14535 | 14.21828 | 74° | 49km/h | 20351m | -17.2m/s | -51.8°C | 0.3% | 55.3hPa | 2.6V | 08:23:08 | 02:05:49 | 00:00:00 | |
| AA1-15 | 2026-09-02 12:32:54 | 54.14521 | 14.21692 | 53° | 33km/h | 20534m | -17.3m/s | -50.3°C | 0.1% | 53.8hPa | 2.7V | 08:23:59 | 02:05:38 | 00:00:00 | |
| DJ2DS-15 | 2026-09-02 12:32:51 | 54.14506 | 14.21628 | 84° | 47km/h | 20601m | -17.7m/s | -50.2°C | -1.0% | -1.0hPa | 2.6V | 00:00:00 | 00:00:00 | 00:00:00 | |
| AA1-15 | 2026-09-02 12:32:42 | 54.14532 | 14.21498 | 133° | 35km/h | 20722m | -16.9m/s | -50.3°C | 0.1% | 52.2hPa | 2.6V | 08:23:59 | 02:05:27 | 00:00:00 | |
| AA1-15 | 2026-09-02 12:32:31 | 54.14534 | 14.21394 | 88° | 38km/h | 20907m | -17m/s | -50.6°C | 0.1% | 50.8hPa | 2.6V | 08:23:59 | 02:05:16 | 00:00:00 | |
| AA1-15 | 2026-09-02 12:32:20 | 54.14564 | 14.21298 | 49° | 18km/h | 21115m | -17.4m/s | -50.9°C | 0.2% | 49.2hPa | 2.5V | 08:23:59 | 02:05:04 | 00:00:00 | |
| AA1-15 | 2026-09-02 12:32:09 | 54.14564 | 14.21176 | 141° | 16km/h | 21308m | -18.1m/s | -51.2°C | 0.3% | 47.8hPa | 2.5V | 08:25:41 | 02:04:53 | 00:00:00 | |
| AA1-15 | 2026-09-02 12:31:57 | 54.14531 | 14.21144 | 69° | 24km/h | 21503m | -18.6m/s | -51°C | 0.1% | 46.3hPa | 2.6V | 08:25:41 | 02:04:42 | 00:00:00 | |
| AA1-15 | 2026-09-02 12:31:46 | 54.14519 | 14.21079 | 41° | 35km/h | 21737m | -18.4m/s | -51.1°C | 0.2% | 44.7hPa | 2.5V | 08:25:41 | 02:04:29 | 00:00:00 | |
| AA1-15 | 2026-09-02 12:31:35 | 54.14495 | 14.20969 | 112° | 11km/h | 21904m | -17.9m/s | -51.4°C | 0.3% | 43.6hPa | 2.7V | 08:25:41 | 02:04:20 | 00:00:00 | |
| AA1-15 | 2026-09-02 12:31:25 | 54.14492 | 14.20872 | 128° | 42km/h | 22111m | -19.5m/s | -51.1°C | 0.2% | 42.2hPa | 2.6V | 08:25:41 | 02:04:09 | 00:00:00 | |
| AA1-15 | 2026-09-02 12:31:15 | 54.14532 | 14.20844 | 43° | 11km/h | 22300m | -19.6m/s | -50.8°C | 0.2% | 41hPa | 2.5V | 08:25:41 | 02:03:59 | 00:00:00 | |
| AA1-15 | 2026-09-02 12:31:03 | 54.14562 | 14.20804 | 239° | 18km/h | 22533m | -19.5m/s | -50.5°C | 0.1% | 39.6hPa | 2.6V | 08:25:41 | 02:03:47 | 00:00:00 | |
| AA1-15 | 2026-09-02 12:30:52 | 54.14540 | 14.20770 | 92° | 38km/h | 22729m | -20.6m/s | -51.2°C | 0.2% | 38.4hPa | 2.7V | 08:25:41 | 02:03:37 | 00:00:00 | |
| AA1-15 | 2026-09-02 12:30:42 | 54.14581 | 14.20708 | 243° | 11km/h | 22926m | -20.1m/s | -50.9°C | 0.2% | 37.2hPa | 2.7V | 08:25:41 | 02:03:27 | 00:00:00 | |
| AA1-15 | 2026-09-02 12:30:32 | 54.14593 | 14.20724 | 241° | 26km/h | 23167m | -20.7m/s | -51.6°C | 0.3% | 35.9hPa | 2.7V | 08:25:41 | 02:03:15 | 00:00:00 | |
| AA1-15 | 2026-09-02 12:30:22 | 54.14559 | 14.20771 | 80° | 24km/h | 23394m | -22.1m/s | -51.6°C | 0.2% | 34.7hPa | 2.6V | 08:26:32 | 02:03:04 | 00:00:00 | |
| AA1-15 | 2026-09-02 12:30:10 | 54.14580 | 14.20748 | 322° | 16km/h | 23605m | -21.1m/s | -51.7°C | 0.3% | 33.6hPa | 2.7V | 08:26:32 | 02:02:54 | 00:00:00 | |
| AA1-15 | 2026-09-02 12:29:59 | 54.14573 | 14.20681 | 171° | 24km/h | 23841m | -22m/s | -51°C | 0.2% | 32.4hPa | 2.7V | 08:26:32 | 02:02:43 | 00:00:00 | |
| AA1-15 | 2026-09-02 12:29:46 | 54.14529 | 14.20691 | 48° | 29km/h | 24101m | -22.7m/s | -51.5°C | 0.3% | 31.1hPa | 2.7V | 08:26:32 | 02:02:31 | 00:00:00 | |
| AA1-15 | 2026-09-02 12:29:35 | 54.14525 | 14.20658 | 1° | 20km/h | 24342m | -22.5m/s | -50.5°C | 0.2% | 30hPa | 2.6V | 08:27:23 | 02:02:20 | 00:00:00 | |
| AA1-15 | 2026-09-02 12:29:25 | 54.14520 | 14.20563 | 164° | 24km/h | 24591m | -22.6m/s | -50.4°C | 0.2% | 28.9hPa | 2.6V | 08:27:23 | 02:02:09 | 00:00:00 | |
| AA1-15 | 2026-09-02 12:29:14 | 54.14521 | 14.20533 | 84° | 26km/h | 24820m | -23.7m/s | -50.5°C | 0.1% | 27.9hPa | 2.7V | 08:27:23 | 02:01:59 | 00:00:00 | |
| AA1-15 | 2026-09-02 12:29:03 | 54.14517 | 14.20493 | 19° | 27km/h | 25077m | -24.1m/s | -50.6°C | 0.3% | 26.8hPa | 2.7V | 08:27:23 | 02:01:48 | 00:00:00 | |
| AA1-15 | 2026-09-02 12:28:53 | 54.14502 | 14.20379 | 135° | 33km/h | 25321m | -24.6m/s | -50°C | 0.3% | 25.9hPa | 2.6V | 08:27:23 | 02:01:38 | 00:00:00 | |
| AA1-15 | 2026-09-02 12:28:42 | 54.14565 | 14.20347 | 189° | 20km/h | 25595m | -26.2m/s | -48.8°C | 0% | 24.8hPa | 2.7V | 08:28:14 | 02:01:27 | 00:00:00 | |
| AA1-15 | 2026-09-02 12:28:31 | 54.14604 | 14.20374 | 168° | 5km/h | 25880m | -26.5m/s | -48.7°C | 0.1% | 23.7hPa | 2.6V | 08:28:14 | 02:01:16 | 00:00:00 | |
| AA1-15 | 2026-09-02 12:28:20 | 54.14639 | 14.20358 | 166° | 24km/h | 26174m | -27.4m/s | -48.2°C | 0% | 22.7hPa | 2.6V | 08:28:14 | 02:01:05 | 00:00:00 | |
| AA1-15 | 2026-09-02 12:28:09 | 54.14687 | 14.20332 | 161° | 15km/h | 26474m | -28.1m/s | -48.3°C | 0% | 21.7hPa | 2.6V | 08:28:14 | 02:00:54 | 00:00:00 | |
| AA1-15 | 2026-09-02 12:27:58 | 54.14731 | 14.20333 | 199° | 9km/h | 26782m | -28.7m/s | -48.4°C | 0% | 20.7hPa | 2.7V | 08:28:14 | 02:00:43 | 00:00:00 | |
| AA1-15 | 2026-09-02 12:27:49 | 54.14736 | 14.20337 | 311° | 4km/h | 27067m | -28.4m/s | -48.1°C | 0.1% | 19.8hPa | 2.6V | 08:29:05 | 02:00:33 | 00:00:00 | |
| AA1-15 | 2026-09-02 12:27:38 | 54.14740 | 14.20282 | 83° | 31km/h | 27342m | -26.6m/s | -47.7°C | 0.2% | 19hPa | 2.7V | 08:29:05 | 02:00:23 | 00:00:00 | |
| AA1-15 | 2026-09-02 12:27:27 | 54.14757 | 14.20235 | 154° | 40km/h | 27628m | -25.1m/s | -46.3°C | 0% | 18.2hPa | 2.6V | 08:29:05 | 02:00:12 | 00:00:00 | |
| AA1-15 | 2026-09-02 12:27:17 | 54.14755 | 14.20136 | 313° | 13km/h | 27895m | -25.3m/s | -44.3°C | 0% | 17.5hPa | 2.6V | 08:29:05 | 02:00:01 | 00:00:00 | |
| AA1-15 | 2026-09-02 12:27:05 | 54.14753 | 14.20037 | 53° | 47km/h | 28167m | -25m/s | -44.5°C | 0% | 16.8hPa | 2.6V | 18:12:15 | 01:59:50 | 00:00:00 | |
| AA1-15 | 2026-09-02 12:26:54 | 54.14726 | 14.19969 | 121° | 26km/h | 28429m | -24.5m/s | -45.1°C | 0% | 16.1hPa | 2.7V | 18:12:15 | 01:59:39 | 00:00:00 | |
| SP3WXH-11 | 2026-09-02 12:26:53 | 54.14729 | 14.19959 | 117° | 27km/h | 28454m | -24.4m/s | -45.2°C | 0.6% | 16.1hPa | 2.6V | 00:00:00 | 00:00:00 | 00:00:00 | |
| AA1-15 | 2026-09-02 12:26:44 | 54.14759 | 14.19912 | 172° | 22km/h | 28739m | -30.7m/s | -45.4°C | 0% | 15.4hPa | 2.6V | 18:12:15 | 01:59:28 | 00:00:00 | |
| AA1-15 | 2026-09-02 12:26:32 | 54.14755 | 14.19873 | 35° | 20km/h | 29082m | -32.3m/s | -44.4°C | 0% | 14.7hPa | 2.7V | 18:12:15 | 01:59:17 | 00:00:00 | |
| AA1-15 | 2026-09-02 12:26:21 | 54.14711 | 14.19777 | 71° | 26km/h | 29446m | -31.8m/s | -44.3°C | 0% | 13.9hPa | 2.7V | 18:12:15 | 01:59:06 | 00:00:00 | |
| AA1-15 | 2026-09-02 12:26:10 | 54.14707 | 14.19665 | 103° | 33km/h | 29810m | -35.5m/s | -43.7°C | 0% | 13.1hPa | 2.7V | 18:12:15 | 01:58:55 | 00:00:00 | |
| AA1-15 | 2026-09-02 12:25:57 | 54.14732 | 14.19599 | 175° | 7km/h | 30282m | -36.3m/s | -41.9°C | 0% | 12.2hPa | 2.7V | 18:12:15 | 01:58:42 | 00:00:00 | |
| AA1-15 | 2026-09-02 12:25:46 | 54.14735 | 14.19483 | 114° | 18km/h | 30746m | -35.6m/s | -41.4°C | 0% | 11.4hPa | 2.7V | 18:12:15 | 01:58:31 | 00:00:00 | |
| AA1-15 | 2026-09-02 12:25:35 | 54.14761 | 14.19433 | 94° | 11km/h | 30802m | 5.2m/s | -41.2°C | 0% | 11.3hPa | 2.6V | 18:12:15 | 01:58:20 | 00:00:00 | |
| AA1-15 | 2026-09-02 12:25:24 | 54.14783 | 14.19395 | 123° | 11km/h | 30739m | 6.4m/s | -41.5°C | 0% | 11.4hPa | 2.7V | 18:12:15 | 01:58:09 | 00:00:00 | |
| AA1-15 | 2026-09-02 12:25:14 | 54.14796 | 14.19318 | 131° | 15km/h | 30675m | 6.2m/s | -41.4°C | 0% | 11.5hPa | 2.6V | 18:12:15 | 01:57:58 | 00:00:00 | |
| AA1-15 | 2026-09-02 12:25:03 | 54.14806 | 14.19216 | 96° | 29km/h | 30618m | 4.7m/s | -41.1°C | 0% | 11.6hPa | 2.7V | 18:12:15 | 01:57:48 | 00:00:00 | |
| AA1-15 | 2026-09-02 12:24:53 | 54.14812 | 14.19124 | 104° | 26km/h | 30560m | 6.5m/s | -41.5°C | 0% | 11.7hPa | 2.7V | 18:12:15 | 01:57:38 | 00:00:00 | |
| SP3WXH-11 | 2026-09-02 12:24:49 | 54.14812 | 14.19062 | 92° | 27km/h | 30531m | 5.8m/s | -41.5°C | 0.5% | 11.8hPa | 2.7V | 00:00:00 | 00:00:00 | 00:00:00 | |
| AA1-15 | 2026-09-02 12:24:42 | 54.14810 | 14.19020 | 71° | 7km/h | 30496m | 5.1m/s | -41.4°C | 0% | 11.8hPa | 2.7V | 18:12:15 | 01:57:27 | 00:00:00 | |
| AA1-15 | 2026-09-02 12:24:32 | 54.14815 | 14.18928 | 102° | 22km/h | 30432m | 5.4m/s | -41.9°C | 0% | 11.9hPa | 2.6V | 18:12:15 | 01:57:16 | 00:00:00 | |
| AA1-15 | 2026-09-02 12:24:21 | 54.14820 | 14.18897 | 106° | 13km/h | 30374m | 6.2m/s | -41.8°C | 0% | 12hPa | 2.6V | 18:12:15 | 01:57:06 | 00:00:00 | |
| AA1-15 | 2026-09-02 12:24:11 | 54.14823 | 14.18854 | 39° | 7km/h | 30316m | 6.5m/s | -41.9°C | 0% | 12.1hPa | 2.7V | 18:12:15 | 01:56:56 | 00:00:00 | |
| AA1-15 | 2026-09-02 12:23:59 | 54.14826 | 14.18782 | 147° | 5km/h | 30246m | 7.1m/s | -42.1°C | 0% | 12.2hPa | 2.7V | 18:12:15 | 01:56:44 | 00:00:00 | |
| AA1-15 | 2026-09-02 12:23:49 | 54.14840 | 14.18762 | 135° | 18km/h | 30187m | 5m/s | -42.4°C | 0% | 12.3hPa | 2.7V | 18:12:15 | 01:56:34 | 00:00:00 | |
| SP3WXH-11 | 2026-09-02 12:23:47 | 54.14849 | 14.18739 | 108° | 24km/h | 30169m | 6.4m/s | -42.5°C | 0.5% | 12.4hPa | 2.6V | 00:00:00 | 00:00:00 | 00:00:00 | |
| AA1-15 | 2026-09-02 12:23:39 | 54.14874 | 14.18681 | 124° | 24km/h | 30122m | 6.2m/s | -42.4°C | 0% | 12.5hPa | 2.6V | 18:12:15 | 01:56:23 | 00:00:00 | |
| AA1-15 | 2026-09-02 12:23:28 | 54.14892 | 14.18592 | 118° | 20km/h | 30063m | 6.6m/s | -42.5°C | 0% | 12.6hPa | 2.6V | 18:12:15 | 01:56:13 | 00:00:00 | |
| AA1-15 | 2026-09-02 12:23:17 | 54.14926 | 14.18478 | 111° | 22km/h | 30001m | 5.1m/s | -42.7°C | 0% | 12.7hPa | 2.6V | 18:12:15 | 01:56:02 | 00:00:00 | |
| AA1-15 | 2026-09-02 12:23:06 | 54.14941 | 14.18360 | 88° | 35km/h | 29931m | 5.1m/s | -43.2°C | 0% | 12.8hPa | 2.6V | 18:12:15 | 01:55:50 | 00:00:00 | |
| AA1-15 | 2026-09-02 12:22:54 | 54.14948 | 14.18235 | 105° | 26km/h | 29869m | 5.4m/s | -43.9°C | 0% | 12.9hPa | 2.6V | 18:12:15 | 01:55:39 | 00:00:00 | |
| SP3WXH-11 | 2026-09-02 12:22:45 | 54.14950 | 14.18127 | 85° | 16km/h | 29814m | 6.2m/s | -44.1°C | 0.5% | 13.1hPa | 2.7V | 00:00:00 | 00:00:00 | 00:00:00 | |
| AA1-15 | 2026-09-02 12:22:43 | 54.14950 | 14.18119 | 83° | 20km/h | 29807m | 6.6m/s | -44.1°C | 0% | 13.1hPa | 2.7V | 18:12:15 | 01:55:28 | 00:00:00 | |
| AA1-15 | 2026-09-02 12:22:32 | 54.14957 | 14.17978 | 81° | 33km/h | 29745m | 5.1m/s | -44.3°C | 0% | 13.2hPa | 2.7V | 18:12:15 | 01:55:17 | 00:00:00 | |
| AA1-15 | 2026-09-02 12:22:21 | 54.14945 | 14.17874 | 100° | 24km/h | 29683m | 4.8m/s | -44.2°C | 0% | 13.3hPa | 2.7V | 18:12:15 | 01:55:06 | 00:00:00 | |
| AA1-15 | 2026-09-02 12:22:10 | 54.14928 | 14.17768 | 85° | 20km/h | 29622m | 6.2m/s | -44.1°C | 0% | 13.4hPa | 2.6V | 18:12:15 | 01:54:55 | 00:00:00 | |
| AA1-15 | 2026-09-02 12:22:00 | 54.14919 | 14.17650 | 62° | 22km/h | 29562m | 6.3m/s | -44.1°C | 0% | 13.6hPa | 2.6V | 18:12:15 | 01:54:44 | 00:00:00 | |
| AA1-15 | 2026-09-02 12:21:49 | 54.14910 | 14.17550 | 77° | 27km/h | 29505m | 5.2m/s | -44.2°C | 0% | 13.7hPa | 2.7V | 18:12:15 | 01:54:34 | 00:00:00 | |
| AA1-15 | 2026-09-02 12:21:39 | 54.14874 | 14.17458 | 80° | 31km/h | 29446m | 6.6m/s | -44.5°C | 0% | 13.8hPa | 2.7V | 18:12:15 | 01:54:23 | 00:00:00 | |
| AA1-15 | 2026-09-02 12:21:28 | 54.14851 | 14.17353 | 38° | 33km/h | 29390m | 5m/s | -44.2°C | 0% | 13.9hPa | 2.6V | 18:12:15 | 01:54:13 | 00:00:00 | |
| AA1-15 | 2026-09-02 12:21:18 | 54.14821 | 14.17252 | 57° | 22km/h | 29336m | 6.2m/s | -44.5°C | 0% | 14hPa | 2.6V | 18:12:15 | 01:54:03 | 00:00:00 | |
| AA1-15 | 2026-09-02 12:21:08 | 54.14767 | 14.17181 | 86° | 18km/h | 29283m | 5.2m/s | -44°C | 0% | 14.1hPa | 2.7V | 18:12:15 | 01:53:53 | 00:00:00 | |
| AA1-15 | 2026-09-02 12:20:57 | 54.14722 | 14.17130 | 36° | 20km/h | 29224m | 6.5m/s | -44.3°C | 0% | 14.2hPa | 2.7V | 18:12:15 | 01:53:42 | 00:00:00 | |
| AA1-15 | 2026-09-02 12:20:47 | 54.14696 | 14.17092 | 26° | 20km/h | 29170m | 4.5m/s | -44.3°C | 0% | 14.3hPa | 2.6V | 18:12:15 | 01:53:32 | 00:00:00 | |
| AA1-15 | 2026-09-02 12:20:36 | 54.14664 | 14.17098 | 359° | 13km/h | 29110m | 6m/s | -44.7°C | 0% | 14.5hPa | 2.6V | 18:12:15 | 01:53:21 | 00:00:00 | |
| AA1-15 | 2026-09-02 12:20:25 | 54.14634 | 14.17096 | 274° | 16km/h | 29053m | 4.4m/s | -44.8°C | 0% | 14.6hPa | 2.7V | 18:12:15 | 01:53:10 | 00:00:00 | |
| AA1-15 | 2026-09-02 12:20:15 | 54.14631 | 14.17094 | 278° | 7km/h | 28996m | 5.7m/s | -44.8°C | 0% | 14.8hPa | 2.7V | 18:12:15 | 01:52:59 | 00:00:00 | |
| AA1-15 | 2026-09-02 12:20:04 | 54.14650 | 14.17111 | 140° | 13km/h | 28942m | 6.5m/s | -44.9°C | 0% | 14.9hPa | 2.6V | 18:12:15 | 01:52:49 | 00:00:00 | |
| AA1-15 | 2026-09-02 12:19:53 | 54.14668 | 14.17095 | 195° | 11km/h | 28880m | 6.1m/s | -45.3°C | 0% | 15hPa | 2.6V | 18:12:15 | 01:52:38 | 00:00:00 | |
| AA1-15 | 2026-09-02 12:19:43 | 54.14712 | 14.17078 | 176° | 13km/h | 28820m | 6.1m/s | -45.6°C | 0% | 15.2hPa | 2.6V | 18:12:15 | 01:52:27 | 00:00:00 | |
| AA1-15 | 2026-09-02 12:19:32 | 54.14746 | 14.17054 | 141° | 22km/h | 28765m | 6m/s | -45.7°C | 0% | 15.3hPa | 2.7V | 18:12:15 | 01:52:17 | 00:00:00 | |
| AA1-15 | 2026-09-02 12:19:21 | 54.14789 | 14.17010 | 173° | 9km/h | 28702m | 6.8m/s | -45.5°C | 0% | 15.4hPa | 2.7V | 18:12:15 | 01:52:06 | 00:00:00 | |
| AA1-15 | 2026-09-02 12:19:10 | 54.14811 | 14.16960 | 136° | 13km/h | 28639m | 5.7m/s | -45.3°C | 0% | 15.6hPa | 2.6V | 18:12:15 | 01:51:55 | 00:00:00 | |
| AA1-15 | 2026-09-02 12:19:00 | 54.14826 | 14.16917 | 99° | 20km/h | 28582m | 5.2m/s | -45.2°C | 0% | 15.7hPa | 2.6V | 18:12:15 | 01:51:45 | 00:00:00 | |
| AA1-15 | 2026-09-02 12:18:49 | 54.14832 | 14.16842 | 77° | 13km/h | 28520m | 6.4m/s | -45.3°C | 0% | 15.9hPa | 2.7V | 18:12:15 | 01:51:34 | 00:00:00 | |
| AA1-15 | 2026-09-02 12:18:39 | 54.14820 | 14.16754 | 85° | 24km/h | 28463m | 5.1m/s | -45°C | 0% | 16hPa | 2.7V | 18:12:15 | 01:51:24 | 00:00:00 | |
| AA1-15 | 2026-09-02 12:18:28 | 54.14800 | 14.16645 | 75° | 27km/h | 28401m | 4.6m/s | -44.9°C | 0% | 16.1hPa | 2.6V | 18:12:15 | 01:51:13 | 00:00:00 | |
| AA1-15 | 2026-09-02 12:18:17 | 54.14771 | 14.16533 | 39° | 26km/h | 28338m | 5.1m/s | -44.7°C | 0% | 16.3hPa | 2.6V | 18:12:15 | 01:51:02 | 00:00:00 | |
| AA1-15 | 2026-09-02 12:18:06 | 54.14740 | 14.16444 | 79° | 22km/h | 28275m | 5m/s | -44.6°C | 0% | 16.4hPa | 2.6V | 18:12:15 | 01:50:51 | 00:00:00 | |
| AA1-15 | 2026-09-02 12:17:55 | 54.14718 | 14.16377 | 50° | 18km/h | 28214m | 6.2m/s | -44.6°C | 0% | 16.6hPa | 2.7V | 18:12:15 | 01:50:40 | 00:00:00 | |
| AA1-15 | 2026-09-02 12:17:44 | 54.14686 | 14.16299 | 76° | 18km/h | 28152m | 4.7m/s | -44.5°C | 0% | 16.7hPa | 2.7V | 18:12:15 | 01:50:29 | 00:00:00 | |
| AA1-15 | 2026-09-02 12:17:33 | 54.14667 | 14.16238 | 39° | 20km/h | 28091m | 5.3m/s | -44.5°C | 0% | 16.9hPa | 2.7V | 18:12:15 | 01:50:18 | 00:00:00 | |
| AA1-15 | 2026-09-02 12:17:22 | 54.14653 | 14.16182 | 64° | 11km/h | 28028m | 4.9m/s | -44.6°C | 0% | 17.1hPa | 2.6V | 18:12:15 | 01:50:07 | 00:00:00 | |
| AA1-15 | 2026-09-02 12:17:11 | 54.14649 | 14.16139 | 169° | 7km/h | 27968m | 4.8m/s | -44.5°C | 0% | 17.2hPa | 2.6V | 18:12:15 | 01:49:56 | 00:00:00 | |
| AA1-15 | 2026-09-02 12:17:02 | 54.14649 | 14.16093 | 55° | 15km/h | 27913m | 6.2m/s | -45.3°C | 0% | 17.3hPa | 2.7V | 18:12:15 | 01:49:46 | 00:00:00 | |
| AA1-15 | 2026-09-02 12:16:50 | 54.14673 | 14.16045 | 93° | 15km/h | 27853m | 6.3m/s | -45.3°C | 0% | 17.5hPa | 2.7V | 18:12:15 | 01:49:35 | 00:00:00 | |
| AA1-15 | 2026-09-02 12:16:40 | 54.14673 | 14.15996 | 138° | 15km/h | 27795m | 4.7m/s | -45.7°C | 0% | 17.6hPa | 2.6V | 18:12:15 | 01:49:24 | 00:00:00 | |
| AA1-15 | 2026-09-02 12:16:28 | 54.14689 | 14.15925 | 157° | 16km/h | 27732m | 6.1m/s | -46.5°C | 0% | 17.8hPa | 2.6V | 18:12:15 | 01:49:13 | 00:00:00 | |
| AA1-15 | 2026-09-02 12:16:18 | 54.14716 | 14.15847 | 98° | 22km/h | 27670m | 4.5m/s | -46.7°C | 0% | 18hPa | 2.6V | 18:12:15 | 01:49:02 | 00:00:00 | |
| AA1-15 | 2026-09-02 12:16:06 | 54.14745 | 14.15768 | 88° | 15km/h | 27610m | 4.8m/s | -47.2°C | 0% | 18.2hPa | 2.6V | 18:12:15 | 01:48:51 | 00:00:00 | |
| AA1-15 | 2026-09-02 12:15:55 | 54.14754 | 14.15689 | 128° | 22km/h | 27549m | 4.8m/s | -47.1°C | 0% | 18.3hPa | 2.6V | 18:12:15 | 01:48:40 | 00:00:00 | |
| AA1-15 | 2026-09-02 12:15:46 | 54.14759 | 14.15629 | 88° | 13km/h | 27492m | 5.1m/s | -47.4°C | 0% | 18.5hPa | 2.7V | 18:12:15 | 01:48:30 | 00:00:00 | |
| AA1-15 | 2026-09-02 12:15:34 | 54.14758 | 14.15552 | 61° | 20km/h | 27431m | 4.7m/s | -47.6°C | 0% | 18.7hPa | 2.7V | 18:12:15 | 01:48:19 | 00:00:00 | |
| AA1-15 | 2026-09-02 12:15:25 | 54.14741 | 14.15497 | 52° | 11km/h | 27375m | 5.6m/s | -48.2°C | 0% | 18.8hPa | 2.6V | 18:12:15 | 01:48:09 | 00:00:00 | |
| AA1-15 | 2026-09-02 12:15:13 | 54.14722 | 14.15455 | 85° | 13km/h | 27314m | 4.3m/s | -47.8°C | 0% | 19hPa | 2.6V | 18:12:15 | 01:47:58 | 00:00:00 | |
| AA1-15 | 2026-09-02 12:15:02 | 54.14714 | 14.15415 | 128° | 9km/h | 27254m | 4.3m/s | -48°C | 0% | 19.2hPa | 2.7V | 18:12:15 | 01:47:47 | 00:00:00 | |
| AA1-15 | 2026-09-02 12:14:51 | 54.14693 | 14.15371 | 114° | 11km/h | 27194m | 5.4m/s | -48°C | 0% | 19.4hPa | 2.6V | 18:12:15 | 01:47:36 | 00:00:00 | |
| AA1-15 | 2026-09-02 12:14:40 | 54.14688 | 14.15346 | 2° | 13km/h | 27131m | 4.7m/s | -48.1°C | 0% | 19.5hPa | 2.6V | 18:12:15 | 01:47:25 | 00:00:00 | |
| AA1-15 | 2026-09-02 12:14:29 | 54.14692 | 14.15346 | 349° | 5km/h | 27069m | 6.4m/s | -48.4°C | 0.1% | 19.7hPa | 2.6V | 18:12:15 | 01:47:14 | 00:00:00 | |
| AA1-15 | 2026-09-02 12:14:18 | 54.14679 | 14.15377 | 238° | 13km/h | 27006m | 6.1m/s | -48.7°C | 0.1% | 19.9hPa | 2.7V | 18:12:15 | 01:47:03 | 00:00:00 | |
| AA1-15 | 2026-09-02 12:14:07 | 54.14692 | 14.15401 | 237° | 16km/h | 26941m | 6m/s | -48.6°C | 0.1% | 20.1hPa | 2.7V | 18:12:15 | 01:46:52 | 00:00:00 | |
| AA1-15 | 2026-09-02 12:13:57 | 54.14715 | 14.15435 | 121° | 4km/h | 26882m | 5.7m/s | -48.7°C | 0.1% | 20.3hPa | 2.6V | 18:12:15 | 01:46:42 | 00:00:00 | |
| AA1-15 | 2026-09-02 12:13:46 | 54.14737 | 14.15453 | 209° | 13km/h | 26823m | 6.1m/s | -48.7°C | 0.1% | 20.5hPa | 2.6V | 18:12:15 | 01:46:31 | 00:00:00 | |
| AA1-15 | 2026-09-02 12:13:35 | 54.14778 | 14.15459 | 206° | 15km/h | 26762m | 6m/s | -48.5°C | 0% | 20.7hPa | 2.7V | 18:12:15 | 01:46:20 | 00:00:00 | |
| AA1-15 | 2026-09-02 12:13:24 | 54.14830 | 14.15443 | 192° | 20km/h | 26699m | 6.6m/s | -48.7°C | 0% | 20.9hPa | 2.6V | 18:12:15 | 01:46:09 | 00:00:00 | |
| AA1-15 | 2026-09-02 12:13:14 | 54.14867 | 14.15467 | 177° | 16km/h | 26636m | 6.6m/s | -48.5°C | 0.1% | 21.1hPa | 2.6V | 18:12:15 | 01:45:58 | 00:00:00 | |
| AA1-15 | 2026-09-02 12:13:02 | 54.14911 | 14.15444 | 125° | 4km/h | 26573m | 6.1m/s | -48.4°C | 0.1% | 21.3hPa | 2.6V | 18:12:15 | 01:45:47 | 00:00:00 | |
| AA1-15 | 2026-09-02 12:12:51 | 54.14945 | 14.15431 | 147° | 20km/h | 26510m | 5.5m/s | -48.7°C | 0.1% | 21.5hPa | 2.7V | 18:12:15 | 01:45:36 | 00:00:00 | |
| AA1-15 | 2026-09-02 12:12:40 | 54.14989 | 14.15424 | 174° | 27km/h | 26435m | 6.3m/s | -48.8°C | 0.2% | 21.7hPa | 2.6V | 18:12:15 | 01:45:23 | 00:00:00 | |
| AA1-15 | 2026-09-02 12:12:29 | 54.15021 | 14.15416 | 156° | 13km/h | 26383m | 4.3m/s | -48.6°C | 0% | 21.9hPa | 2.7V | 18:12:15 | 01:45:14 | 00:00:00 | |
| AA1-15 | 2026-09-02 12:12:18 | 54.15072 | 14.15401 | 159° | 13km/h | 26324m | 4.7m/s | -48.4°C | 0% | 22.1hPa | 2.7V | 18:12:15 | 01:45:03 | 00:00:00 | |
| AA1-15 | 2026-09-02 12:12:07 | 54.15121 | 14.15390 | 179° | 20km/h | 26266m | 6.2m/s | -48.5°C | 0.1% | 22.3hPa | 2.7V | 18:12:15 | 01:44:52 | 00:00:00 | |
| AA1-15 | 2026-09-02 12:11:56 | 54.15159 | 14.15395 | 179° | 22km/h | 26200m | 5.5m/s | -48.3°C | 0% | 22.5hPa | 2.7V | 18:12:15 | 01:44:40 | 00:00:00 | |
| AA1-15 | 2026-09-02 12:11:44 | 54.15201 | 14.15374 | 168° | 4km/h | 26139m | 5.2m/s | -48.4°C | 0% | 22.7hPa | 2.6V | 18:12:15 | 01:44:29 | 00:00:00 | |
| AA1-15 | 2026-09-02 12:11:34 | 54.15224 | 14.15368 | 162° | 7km/h | 26078m | 4.4m/s | -48.5°C | 0% | 22.9hPa | 2.6V | 18:12:15 | 01:44:18 | 00:00:00 | |
| AA1-15 | 2026-09-02 12:11:23 | 54.15242 | 14.15345 | 196° | 9km/h | 26017m | 4.8m/s | -48.6°C | 0.1% | 23.1hPa | 2.6V | 18:12:15 | 01:44:07 | 00:00:00 | |
| AA1-15 | 2026-09-02 12:11:13 | 54.15254 | 14.15351 | 236° | 9km/h | 25957m | 5m/s | -48.6°C | 0.1% | 23.4hPa | 2.6V | 18:12:15 | 01:43:56 | 00:00:00 | |
| AA1-15 | 2026-09-02 12:11:01 | 54.15274 | 14.15392 | 188° | 11km/h | 25901m | 4.7m/s | -48.7°C | 0.1% | 23.5hPa | 2.7V | 18:12:15 | 01:43:46 | 00:00:00 | |
| AA1-15 | 2026-09-02 12:10:51 | 54.15298 | 14.15425 | 225° | 22km/h | 25847m | 4.2m/s | -48.7°C | 0% | 23.7hPa | 2.6V | 18:12:15 | 01:43:36 | 00:00:00 | |
| SP3WXH-11 | 2026-09-02 12:10:51 | 54.15302 | 14.15431 | 216° | 20km/h | 25842m | 5.7m/s | -48.8°C | 0.7% | 23.8hPa | 2.6V | 00:00:00 | 00:00:00 | 00:00:00 | |
| DJ2DS-15 | 2026-09-02 12:10:48 | 54.15310 | 14.15436 | 186° | 16km/h | 25831m | 5.3m/s | -48.9°C | 3.1% | 23.8hPa | 2.6V | 00:00:00 | 01:43:33 | 00:00:00 | |
| DL1XH-15 | 2026-09-02 12:10:46 | 54.15334 | 14.15443 | 189° | 18km/h | 25791m | 5m/s | -48.7°C | 3.1% | 23.9hPa | 2.6V | 08:30:00 | 01:43:26 | 00:00:00 | |
| AA1-15 | 2026-09-02 12:10:41 | 54.15339 | 14.15444 | 195° | 20km/h | 25786m | 5.1m/s | -48.7°C | 0.1% | 24hPa | 2.6V | 18:12:15 | 01:43:25 | 00:00:00 | |
| AA1-15 | 2026-09-02 12:10:30 | 54.15387 | 14.15458 | 197° | 15km/h | 25727m | 5.9m/s | -48.8°C | 0% | 24.2hPa | 2.7V | 18:12:15 | 01:43:14 | 00:00:00 | |
| DL1XH-15 | 2026-09-02 12:10:28 | 54.15400 | 14.15465 | 202° | 20km/h | 25709m | 6.2m/s | -48.8°C | 3% | 24.3hPa | 2.7V | 08:30:00 | 01:43:11 | 00:00:00 | |
| AA1-15 | 2026-09-02 12:10:20 | 54.15429 | 14.15482 | 173° | 18km/h | 25677m | 5.2m/s | -48.8°C | 0.1% | 24.4hPa | 2.7V | 18:12:15 | 01:43:05 | 00:00:00 | |
| SP3WXH-11 | 2026-09-02 12:10:20 | 54.15434 | 14.15481 | 174° | 16km/h | 25671m | 6.2m/s | -48.9°C | 0.8% | 24.4hPa | 2.6V | 00:00:00 | 00:00:00 | 00:00:00 | |
| DG6HD-11 | 2026-09-02 12:10:16 | 54.15445 | 14.15482 | 183° | 26km/h | 25656m | 5.4m/s | -48.8°C | 3.1% | 24.4hPa | 2.6V | 00:00:00 | 00:00:00 | 00:00:00 | |
| DB0DAN | 2026-09-02 12:10:10 | 54.15475 | 14.15493 | 207° | 26km/h | 25623m | 4.2m/s | -49.1°C | 0.7% | 24.56hPa | 2.6V | 00:00:00 | 00:00:00 | 00:00:00 | |
| AA1-15 | 2026-09-02 12:10:09 | 54.15481 | 14.15498 | 202° | 27km/h | 25618m | 4.8m/s | -49°C | 0.1% | 24.6hPa | 2.7V | 18:12:15 | 01:42:54 | 00:00:00 | |
| DJ2DS-15 | 2026-09-02 12:10:08 | 54.15488 | 14.15501 | 192° | 27km/h | 25613m | 6.1m/s | -48.8°C | 3.1% | 24.6hPa | 2.6V | 00:00:00 | 01:42:53 | 00:00:00 | |
| DG6HD-15 | 2026-09-02 12:10:06 | 54.15501 | 14.15501 | 172° | 24km/h | 25603m | 4.6m/s | -48.8°C | 0.8% | 24.7hPa | 2.6V | 00:00:00 | 00:00:00 | 00:00:00 | |
| DL1XH-15 | 2026-09-02 12:10:04 | 54.15545 | 14.15493 | 177° | 31km/h | 25566m | 4.6m/s | -49.1°C | 3% | 24.8hPa | 2.6V | 08:30:00 | 01:42:44 | 00:00:00 | |
| AA1-15 | 2026-09-02 12:09:58 | 54.15552 | 14.15493 | 180° | 29km/h | 25561m | 6.4m/s | -49.2°C | 0% | 24.8hPa | 2.6V | 18:12:15 | 01:42:43 | 00:00:00 | |
| S3001 | 2026-09-02 12:09:55 | 54.15572 | 14.15490 | 165° | 26km/h | 25544m | 6.3m/s | -49.1°C | 0.7% | 24.9hPa | 2.7V | 00:00:00 | 00:00:00 | 00:00:00 | |
| DL1XH-15 | 2026-09-02 12:09:52 | 54.15609 | 14.15454 | 147° | 29km/h | 25511m | 5.2m/s | -49.5°C | 3.2% | 25hPa | 2.7V | 08:30:00 | 01:42:34 | 00:00:00 | |
| AA1-15 | 2026-09-02 12:09:47 | 54.15623 | 14.15440 | 151° | 35km/h | 25498m | 5.6m/s | -49.6°C | 0.2% | 25.1hPa | 2.6V | 18:12:15 | 01:42:32 | 00:00:00 | |
| DG6HD-11 | 2026-09-02 12:09:46 | 54.15630 | 14.15433 | 153° | 33km/h | 25493m | 5.0m/s | -49.6°C | 3.2% | 25.0hPa | 2.6V | 00:00:00 | 00:00:00 | 08:30:00 | |
| DL1XH-15 | 2026-09-02 12:09:44 | 54.15684 | 14.15381 | 139° | 35km/h | 25456m | 6.3m/s | -49.9°C | 3.2% | 25.2hPa | 2.7V | 08:30:00 | 01:42:24 | 00:00:00 | |
| AA1-15 | 2026-09-02 12:09:37 | 54.15705 | 14.15339 | 124° | 33km/h | 25434m | 6.1m/s | -49.9°C | 0.1% | 25.3hPa | 2.6V | 18:12:15 | 01:42:20 | 00:00:00 | |
| DL1XH-15 | 2026-09-02 12:09:32 | 54.15731 | 14.15275 | 133° | 29km/h | 25402m | 6.3m/s | -49.9°C | 3.2% | 25.4hPa | 2.6V | 08:30:00 | 01:42:14 | 00:00:00 | |
| AA1-15 | 2026-09-02 12:09:26 | 54.15747 | 14.15247 | 130° | 29km/h | 25386m | 6.2m/s | -50°C | 0.1% | 25.5hPa | 2.7V | 18:12:15 | 01:42:11 | 00:00:00 | |
| DL1XH-15 | 2026-09-02 12:09:24 | 54.15775 | 14.15161 | 111° | 33km/h | 25351m | 6.1m/s | -50°C | 3.3% | 25.6hPa | 2.6V | 08:30:00 | 01:42:04 | 00:00:00 | |
| AA1-15 | 2026-09-02 12:09:15 | 54.15780 | 14.15115 | 93° | 27km/h | 25329m | 5.8m/s | -50°C | 0.1% | 25.7hPa | 2.7V | 18:12:15 | 01:42:00 | 00:00:00 | |
| DL1XH-15 | 2026-09-02 12:09:08 | 54.15782 | 14.15012 | 104° | 26km/h | 25282m | 4.7m/s | -50.4°C | 3.3% | 25.9hPa | 2.6V | 08:30:00 | 01:41:51 | 00:00:00 | |
| AA1-15 | 2026-09-02 12:09:05 | 54.15783 | 14.15002 | 102° | 24km/h | 25277m | 6.3m/s | -50.5°C | 0.2% | 25.9hPa | 2.6V | 18:12:15 | 01:41:50 | 00:00:00 | |
| DG6HD-15 | 2026-09-02 12:09:03 | 54.15784 | 14.14992 | 96° | 22km/h | 25271m | 5.5m/s | -50.6°C | 0.8% | 26.0hPa | 2.7V | 00:00:00 | 00:00:00 | 00:00:00 | |
| DL1XH-15 | 2026-09-02 12:08:58 | 54.15763 | 14.14910 | 53° | 26km/h | 25223m | 5.6m/s | -51°C | 3.4% | 26.1hPa | 2.7V | 08:30:00 | 01:41:40 | 00:00:00 | |
| AA1-15 | 2026-09-02 12:08:54 | 54.15760 | 14.14900 | 64° | 27km/h | 25217m | 5.5m/s | -50.8°C | 0.2% | 26.1hPa | 2.6V | 18:12:15 | 01:41:39 | 00:00:00 | |
| S3001 | 2026-09-02 12:08:53 | 54.15757 | 14.14889 | 69° | 27km/h | 25213m | 4.0m/s | -50.8°C | 0.8% | 26.2hPa | 2.7V | 00:00:00 | 00:00:00 | 00:00:00 | |
| DL1XH-15 | 2026-09-02 12:08:48 | 54.15732 | 14.14803 | 58° | 26km/h | 25172m | 4.4m/s | -50.9°C | 3.4% | 26.3hPa | 2.7V | 08:30:00 | 01:41:30 | 00:00:00 | |
| DJ2DS-15 | 2026-09-02 12:08:48 | 54.15738 | 14.14824 | 64° | 26km/h | 25182m | 5.3m/s | -50.9°C | 0.8% | 26.3hPa | 2.7V | 00:00:00 | 00:00:00 | 00:00:00 | |
| SP3WXH-11 | 2026-09-02 12:08:47 | 54.15735 | 14.14813 | 63° | 26km/h | 25177m | 4.5m/s | -50.9°C | 0.8% | 26.3hPa | 2.7V | 00:00:00 | 00:00:00 | 00:00:00 | |
| AA1-15 | 2026-09-02 12:08:43 | 54.15723 | 14.14787 | 38° | 27km/h | 25161m | 5.7m/s | -51°C | 0.3% | 26.4hPa | 2.7V | 18:12:15 | 01:41:28 | 00:00:00 | |
| DG6HD-15 | 2026-09-02 12:08:42 | 54.15723 | 14.14786 | 39° | 27km/h | 25161m | 5.7m/s | -51.0°C | 0.8% | 26.4hPa | 2.7V | 00:00:00 | 00:00:00 | 00:00:00 | |
| DL1XH-15 | 2026-09-02 12:08:39 | 54.15691 | 14.14729 | 49° | 26km/h | 25120m | 5.3m/s | -50.9°C | 3.4% | 26.5hPa | 2.7V | 08:30:00 | 01:41:20 | 00:00:00 | |
| AA1-15 | 2026-09-02 12:08:32 | 54.15679 | 14.14705 | 54° | 22km/h | 25104m | 5.3m/s | -50.8°C | 0.3% | 26.6hPa | 2.6V | 18:12:15 | 01:41:17 | 00:00:00 | |
| AA1-15 | 2026-09-02 12:08:21 | 54.15639 | 14.14656 | 37° | 16km/h | 25045m | 4.8m/s | -50.8°C | 0.3% | 26.9hPa | 2.6V | 18:12:15 | 01:41:06 | 00:00:00 | |
| AA1-15 | 2026-09-02 12:08:10 | 54.15622 | 14.14630 | 66° | 9km/h | 24988m | 4.5m/s | -50.7°C | 0.3% | 27.1hPa | 2.6V | 18:12:15 | 01:40:55 | 00:00:00 | |
| AA1-15 | 2026-09-02 12:07:59 | 54.15629 | 14.14606 | 166° | 11km/h | 24930m | 6m/s | -50.7°C | 0.3% | 27.3hPa | 2.6V | 18:12:15 | 01:40:44 | 00:00:00 | |
| AA1-15 | 2026-09-02 12:07:48 | 54.15639 | 14.14566 | 144° | 18km/h | 24877m | 4.5m/s | -50.6°C | 0.3% | 27.6hPa | 2.7V | 18:12:15 | 01:40:33 | 00:00:00 | |
| SP3WXH-11 | 2026-09-02 12:07:45 | 54.15652 | 14.14550 | 133° | 13km/h | 24856m | 5.0m/s | -50.6°C | 0.8% | 27.7hPa | 2.7V | 00:00:00 | 00:00:00 | 00:00:00 | |
| AA1-15 | 2026-09-02 12:07:38 | 54.15662 | 14.14499 | 102° | 20km/h | 24818m | 5.9m/s | -50.7°C | 0.3% | 27.8hPa | 2.7V | 18:12:15 | 01:40:22 | 00:00:00 | |
| AA1-15 | 2026-09-02 12:07:26 | 54.15693 | 14.14425 | 126° | 26km/h | 24763m | 4.4m/s | -50.7°C | 0.3% | 28.1hPa | 2.6V | 18:12:15 | 01:40:11 | 00:00:00 | |
| AA1-15 | 2026-09-02 12:07:13 | 54.15729 | 14.14332 | 109° | 26km/h | 24696m | 3.9m/s | -50.6°C | 0.2% | 28.3hPa | 2.6V | 18:12:15 | 01:39:58 | 00:00:00 | |
| AA1-15 | 2026-09-02 12:07:03 | 54.15742 | 14.14260 | 101° | 15km/h | 24636m | 6.1m/s | -50.3°C | 0.3% | 28.6hPa | 2.6V | 18:12:15 | 01:39:47 | 00:00:00 | |
| AA1-15 | 2026-09-02 12:06:52 | 54.15747 | 14.14185 | 108° | 13km/h | 24584m | 5.8m/s | -50.3°C | 0.2% | 28.8hPa | 2.7V | 18:12:15 | 01:39:37 | 00:00:00 | |
| S3001 | 2026-09-02 12:06:49 | 54.15750 | 14.14171 | 117° | 11km/h | 24567m | 5.4m/s | -50.3°C | 0.8% | 28.9hPa | 2.6V | 00:00:00 | 00:00:00 | 00:00:00 | |
| AA1-15 | 2026-09-02 12:06:42 | 54.15749 | 14.14114 | 100° | 22km/h | 24525m | 4.5m/s | -50.4°C | 0.2% | 29.1hPa | 2.6V | 18:12:15 | 01:39:26 | 00:00:00 | |
| AA1-15 | 2026-09-02 12:06:31 | 54.15751 | 14.14039 | 79° | 15km/h | 24462m | 5.2m/s | -50.6°C | 0.3% | 29.4hPa | 2.7V | 18:12:15 | 01:39:14 | 00:00:00 | |
| AA1-15 | 2026-09-02 12:06:20 | 54.15757 | 14.13984 | 127° | 7km/h | 24415m | 5.6m/s | -50.4°C | 0.3% | 29.6hPa | 2.6V | 18:12:15 | 01:39:05 | 00:00:00 | |
| AA1-15 | 2026-09-02 12:06:09 | 54.15753 | 14.13916 | 75° | 18km/h | 24358m | 5.9m/s | -50.2°C | 0.3% | 29.9hPa | 2.7V | 18:12:15 | 01:38:54 | 00:00:00 | |
| AA1-15 | 2026-09-02 12:05:59 | 54.15754 | 14.13850 | 95° | 13km/h | 24306m | 4.8m/s | -50.4°C | 0.2% | 30.1hPa | 2.6V | 18:12:15 | 01:38:44 | 00:00:00 | |
| AA1-15 | 2026-09-02 12:05:49 | 54.15753 | 14.13784 | 78° | 13km/h | 24247m | 6.2m/s | -50.5°C | 0.3% | 30.4hPa | 2.6V | 18:12:15 | 01:38:33 | 00:00:00 | |
| S3001 | 2026-09-02 12:05:47 | 54.15750 | 14.13776 | 48° | 9km/h | 24236m | 5.0m/s | -50.6°C | 0.8% | 30.4hPa | 2.7V | 00:00:00 | 00:00:00 | 00:00:00 | |
| AA1-15 | 2026-09-02 12:05:37 | 54.15722 | 14.13734 | 34° | 18km/h | 24187m | 6.2m/s | -50.8°C | 0.2% | 30.6hPa | 2.7V | 18:12:15 | 01:38:22 | 00:00:00 | |
| AA1-15 | 2026-09-02 12:05:26 | 54.15677 | 14.13702 | 6° | 18km/h | 24127m | 4.3m/s | -51.1°C | 0.3% | 30.9hPa | 2.7V | 18:12:15 | 01:38:11 | 00:00:00 | |
| AA1-15 | 2026-09-02 12:05:15 | 54.15630 | 14.13694 | 14° | 18km/h | 24068m | 4.5m/s | -51°C | 0.3% | 31.2hPa | 2.7V | 18:12:15 | 01:38:00 | 00:00:00 | |
| AA1-15 | 2026-09-02 12:05:04 | 54.15594 | 14.13698 | 24° | 11km/h | 24007m | 6.4m/s | -51°C | 0.3% | 31.5hPa | 2.6V | 18:12:15 | 01:37:49 | 00:00:00 | |
| AA1-15 | 2026-09-02 12:04:53 | 54.15563 | 14.13687 | 26° | 11km/h | 23946m | 4.7m/s | -50.7°C | 0.3% | 31.8hPa | 2.6V | 18:12:15 | 01:37:38 | 00:00:00 | |
| S3001 | 2026-09-02 12:04:45 | 54.15557 | 14.13661 | 54° | 2km/h | 23901m | 6.2m/s | -50.5°C | 0.9% | 32.0hPa | 2.7V | 00:00:00 | 00:00:00 | 00:00:00 | |
| AA1-15 | 2026-09-02 12:04:43 | 54.15556 | 14.13658 | 49° | 5km/h | 23890m | 5m/s | -50.4°C | 0.3% | 32.1hPa | 2.7V | 18:12:15 | 01:37:28 | 00:00:00 | |
| AA1-15 | 2026-09-02 12:04:32 | 54.15542 | 14.13600 | 127° | 15km/h | 23828m | 6.4m/s | -50.5°C | 0.3% | 32.4hPa | 2.6V | 18:12:15 | 01:37:17 | 00:00:00 | |
| AA1-15 | 2026-09-02 12:04:21 | 54.15539 | 14.13539 | 93° | 16km/h | 23766m | 6.1m/s | -50.3°C | 0.1% | 32.7hPa | 2.6V | 18:12:15 | 01:37:06 | 00:00:00 | |
| AA1-15 | 2026-09-02 12:04:10 | 54.15536 | 14.13494 | 49° | 20km/h | 23695m | 5.2m/s | -50.9°C | 0.2% | 33hPa | 2.6V | 18:12:15 | 01:36:53 | 00:00:00 | |
| AA1-15 | 2026-09-02 12:03:58 | 54.15537 | 14.13444 | 58° | 7km/h | 23640m | 6m/s | -51.2°C | 0.3% | 33.3hPa | 2.6V | 18:12:15 | 01:36:43 | 00:00:00 | |
| AA1-15 | 2026-09-02 12:03:47 | 54.15507 | 14.13399 | 62° | 5km/h | 23580m | 5m/s | -51.1°C | 0.3% | 33.6hPa | 2.7V | 18:12:15 | 01:36:32 | 00:00:00 | |
| AA1-15 | 2026-09-02 12:03:37 | 54.15493 | 14.13355 | 63° | 16km/h | 23519m | 6.4m/s | -51°C | 0.3% | 34hPa | 2.7V | 18:12:15 | 01:36:21 | 00:00:00 | |
| AA1-15 | 2026-09-02 12:03:25 | 54.15493 | 14.13309 | 117° | 13km/h | 23461m | 4.7m/s | -51.2°C | 0.4% | 34.3hPa | 2.6V | 18:12:15 | 01:36:10 | 00:00:00 | |
| AA1-15 | 2026-09-02 12:03:14 | 54.15484 | 14.13252 | 37° | 7km/h | 23403m | 5.5m/s | -51.1°C | 0.3% | 34.5hPa | 2.6V | 18:12:15 | 01:35:59 | 00:00:00 | |
| AA1-15 | 2026-09-02 12:03:03 | 54.15474 | 14.13234 | 339° | 4km/h | 23346m | 5.7m/s | -51.1°C | 0.3% | 34.9hPa | 2.7V | 18:12:15 | 01:35:48 | 00:00:00 | |
| AA1-15 | 2026-09-02 12:02:53 | 54.15455 | 14.13232 | 25° | 7km/h | 23290m | 4.2m/s | -51°C | 0.3% | 35.2hPa | 2.7V | 18:12:15 | 01:35:37 | 00:00:00 | |
| AA1-15 | 2026-09-02 12:02:41 | 54.15429 | 14.13251 | 355° | 9km/h | 23233m | 5.3m/s | -50.9°C | 0.3% | 35.5hPa | 2.6V | 18:12:15 | 01:35:26 | 00:00:00 | |
| AA1-15 | 2026-09-02 12:02:31 | 54.15404 | 14.13282 | 302° | 15km/h | 23184m | 5.6m/s | -51.1°C | 0.4% | 35.8hPa | 2.6V | 18:12:15 | 01:35:16 | 00:00:00 | |
| AA1-15 | 2026-09-02 12:02:18 | 54.15399 | 14.13344 | 238° | 11km/h | 23117m | 5.3m/s | -50.9°C | 0.4% | 36.1hPa | 2.7V | 18:12:15 | 01:35:03 | 00:00:00 | |
| AA1-15 | 2026-09-02 12:02:07 | 54.15416 | 14.13380 | 222° | 15km/h | 23061m | 4.7m/s | -50.7°C | 0.3% | 36.4hPa | 2.6V | 18:12:15 | 01:34:52 | 00:00:00 | |
| AA1-15 | 2026-09-02 12:01:56 | 54.15443 | 14.13402 | 194° | 5km/h | 23006m | 5.3m/s | -50.7°C | 0.3% | 36.7hPa | 2.6V | 18:12:15 | 01:34:41 | 00:00:00 | |
| AA1-15 | 2026-09-02 12:01:45 | 54.15473 | 14.13382 | 123° | 11km/h | 22951m | 6.1m/s | -50.8°C | 0.3% | 37.1hPa | 2.6V | 18:12:15 | 01:34:30 | 00:00:00 | |
| AA1-15 | 2026-09-02 12:01:35 | 54.15485 | 14.13336 | 121° | 16km/h | 22902m | 4.6m/s | -51°C | 0.3% | 37.3hPa | 2.7V | 18:12:15 | 01:34:20 | 00:00:00 | |
| AA1-15 | 2026-09-02 12:01:25 | 54.15496 | 14.13232 | 96° | 18km/h | 22847m | 6m/s | -51.3°C | 0.4% | 37.7hPa | 2.7V | 18:12:15 | 01:34:09 | 00:00:00 | |
| AA1-15 | 2026-09-02 12:01:14 | 54.15490 | 14.13135 | 81° | 26km/h | 22796m | 4.4m/s | -51.1°C | 0.3% | 38hPa | 2.7V | 18:12:15 | 01:33:59 | 00:00:00 | |
| AA1-15 | 2026-09-02 12:01:03 | 54.15477 | 14.13043 | 75° | 20km/h | 22736m | 4.7m/s | -51.1°C | 0.3% | 38.3hPa | 2.7V | 18:12:15 | 01:33:47 | 00:00:00 | |
| AA1-15 | 2026-09-02 12:00:53 | 54.15480 | 14.12993 | 128° | 5km/h | 22690m | 5.3m/s | -51.2°C | 0.4% | 38.6hPa | 2.6V | 18:12:15 | 01:33:38 | 00:00:00 | |
| AA1-15 | 2026-09-02 12:00:42 | 54.15485 | 14.12939 | 120° | 15km/h | 22634m | 5m/s | -51.1°C | 0.4% | 38.9hPa | 2.7V | 18:12:15 | 01:33:27 | 00:00:00 | |
| AA1-15 | 2026-09-02 12:00:32 | 54.15498 | 14.12927 | 78° | 5km/h | 22585m | 4.5m/s | -50.9°C | 0.3% | 39.2hPa | 2.6V | 18:12:15 | 01:33:17 | 00:00:00 | |
| AA1-15 | 2026-09-02 12:00:21 | 54.15516 | 14.12896 | 113° | 4km/h | 22529m | 6.1m/s | -50.8°C | 0.3% | 39.6hPa | 2.7V | 18:12:15 | 01:33:06 | 00:00:00 | |
| AA1-15 | 2026-09-02 12:00:10 | 54.15520 | 14.12870 | 152° | 11km/h | 22472m | 4.8m/s | -50.6°C | 0.3% | 39.9hPa | 2.6V | 18:12:15 | 01:32:55 | 00:00:00 | |
| AA1-15 | 2026-09-02 11:59:59 | 54.15541 | 14.12835 | 153° | 15km/h | 22406m | 5.2m/s | -50.7°C | 0.2% | 40.3hPa | 2.7V | 18:12:15 | 01:32:42 | 00:00:00 | |
| AA1-15 | 2026-09-02 11:59:47 | 54.15578 | 14.12788 | 143° | 18km/h | 22348m | 5.9m/s | -50.8°C | 0.3% | 40.7hPa | 2.7V | 18:12:15 | 01:32:31 | 00:00:00 | |
| AA1-15 | 2026-09-02 11:59:37 | 54.15611 | 14.12721 | 132° | 26km/h | 22296m | 5.1m/s | -50.7°C | 0.3% | 41hPa | 2.6V | 18:12:15 | 01:32:21 | 00:00:00 | |
| AA1-15 | 2026-09-02 11:59:26 | 54.15632 | 14.12633 | 116° | 18km/h | 22244m | 5.9m/s | -50.7°C | 0.2% | 41.3hPa | 2.7V | 18:12:15 | 01:32:11 | 00:00:00 | |
| AA1-15 | 2026-09-02 11:59:15 | 54.15671 | 14.12535 | 102° | 29km/h | 22188m | 4.8m/s | -50.8°C | 0.2% | 41.7hPa | 2.7V | 18:12:15 | 01:32:00 | 00:00:00 | |
| AA1-15 | 2026-09-02 11:59:04 | 54.15689 | 14.12417 | 98° | 26km/h | 22132m | 5.2m/s | -51.3°C | 0.4% | 42hPa | 2.7V | 18:12:15 | 01:31:49 | 00:00:00 | |
| AA1-15 | 2026-09-02 11:58:53 | 54.15694 | 14.12291 | 90° | 29km/h | 22075m | 5.2m/s | -51.4°C | 0.4% | 42.4hPa | 2.6V | 18:12:15 | 01:31:38 | 00:00:00 | |
| MECKS9 | 2026-09-02 11:58:50 | 54.15690 | 14.12253 | 69° | 31km/h | 22060m | 4.7m/s | -51.2°C | 0.9% | 42.5hPa | 2.6V | 00:00:00 | 00:00:00 | 00:00:00 | |
| AA1-15 | 2026-09-02 11:58:30 | 54.15638 | 14.12052 | 63° | 22km/h | 21961m | 5.7m/s | -51.5°C | 0.3% | 43.1hPa | 2.6V | 18:12:15 | 01:31:15 | 00:00:00 | |
| AA1-15 | 2026-09-02 11:58:19 | 54.15605 | 14.11961 | 63° | 27km/h | 21904m | 4.9m/s | -51.6°C | 0.4% | 43.5hPa | 2.6V | 18:12:15 | 01:31:04 | 00:00:00 | |
| AA1-15 | 2026-09-02 11:58:08 | 54.15563 | 14.11861 | 40° | 22km/h | 21849m | 5.5m/s | -51.4°C | 0.4% | 43.9hPa | 2.7V | 18:12:15 | 01:30:53 | 00:00:00 | |
| AA1-15 | 2026-09-02 11:57:57 | 54.15523 | 14.11783 | 51° | 24km/h | 21792m | 4.4m/s | -51.1°C | 0.4% | 44.3hPa | 2.6V | 18:12:15 | 01:30:42 | 00:00:00 | |
| AA1-15 | 2026-09-02 11:57:46 | 54.15493 | 14.11732 | 58° | 18km/h | 21737m | 6m/s | -51.1°C | 0.3% | 44.6hPa | 2.7V | 18:12:15 | 01:30:31 | 00:00:00 | |
| AA1-15 | 2026-09-02 11:57:36 | 54.15470 | 14.11685 | 8° | 7km/h | 21686m | 5.5m/s | -50.8°C | 0.2% | 45hPa | 2.7V | 18:12:15 | 01:30:21 | 00:00:00 | |
| AA1-15 | 2026-09-02 11:57:26 | 54.15447 | 14.11649 | 33° | 5km/h | 21633m | 4.9m/s | -51°C | 0.4% | 45.4hPa | 2.7V | 18:12:15 | 01:30:10 | 00:00:00 | |
| AA1-15 | 2026-09-02 11:57:14 | 54.15438 | 14.11608 | 76° | 15km/h | 21578m | 4m/s | -51°C | 0.3% | 45.8hPa | 2.7V | 18:12:15 | 01:29:59 | 00:00:00 | |
| AA1-15 | 2026-09-02 11:57:03 | 54.15425 | 14.11565 | 32° | 11km/h | 21522m | 4.7m/s | -51.2°C | 0.3% | 46.2hPa | 2.7V | 18:12:15 | 01:29:48 | 00:00:00 | |
| AA1-15 | 2026-09-02 11:56:52 | 54.15403 | 14.11516 | 57° | 5km/h | 21468m | 4.7m/s | -51.3°C | 0.4% | 46.6hPa | 2.6V | 18:12:15 | 01:29:37 | 00:00:00 | |
| AA1-15 | 2026-09-02 11:56:41 | 54.15385 | 14.11472 | 73° | 20km/h | 21411m | 4.5m/s | -51.7°C | 0.4% | 47hPa | 2.6V | 18:12:15 | 01:29:26 | 00:00:00 | |
| AA1-15 | 2026-09-02 11:56:30 | 54.15377 | 14.11405 | 63° | 15km/h | 21356m | 5.1m/s | -51.6°C | 0.4% | 47.4hPa | 2.6V | 18:12:15 | 01:29:15 | 00:00:00 | |
| AA1-15 | 2026-09-02 11:56:19 | 54.15371 | 14.11339 | 78° | 11km/h | 21302m | 4.8m/s | -51.2°C | 0.3% | 47.8hPa | 2.7V | 18:12:15 | 01:29:04 | 00:00:00 | |
| AA1-15 | 2026-09-02 11:56:08 | 54.15367 | 14.11269 | 86° | 20km/h | 21248m | 5.6m/s | -51°C | 0.4% | 48.2hPa | 2.7V | 18:12:15 | 01:28:53 | 00:00:00 | |
| AA1-15 | 2026-09-02 11:55:57 | 54.15370 | 14.11198 | 101° | 18km/h | 21192m | 6m/s | -50.6°C | 0.3% | 48.6hPa | 2.7V | 18:12:15 | 01:28:42 | 00:00:00 | |
| AA1-15 | 2026-09-02 11:55:47 | 54.15381 | 14.11112 | 110° | 13km/h | 21141m | 4.9m/s | -50.6°C | 0.4% | 49hPa | 2.6V | 18:12:15 | 01:28:32 | 00:00:00 | |
| AA1-15 | 2026-09-02 11:55:37 | 54.15396 | 14.11051 | 103° | 24km/h | 21090m | 4.6m/s | -50.6°C | 0.3% | 49.4hPa | 2.6V | 18:12:15 | 01:28:22 | 00:00:00 | |
| AA1-15 | 2026-09-02 11:55:26 | 54.15404 | 14.10953 | 93° | 20km/h | 21035m | 5.6m/s | -50.4°C | 0.3% | 49.8hPa | 2.7V | 18:12:15 | 01:28:11 | 00:00:00 | |
| AA1-15 | 2026-09-02 11:55:15 | 54.15404 | 14.10871 | 86° | 16km/h | 20982m | 4.8m/s | -50.3°C | 0.3% | 50.2hPa | 2.7V | 18:12:15 | 01:28:00 | 00:00:00 | |
| AA1-15 | 2026-09-02 11:55:04 | 54.15401 | 14.10788 | 91° | 20km/h | 20927m | 4.3m/s | -50.3°C | 0.2% | 50.6hPa | 2.6V | 18:12:15 | 01:27:49 | 00:00:00 | |
| AA1-15 | 2026-09-02 11:54:53 | 54.15403 | 14.10707 | 105° | 18km/h | 20873m | 4.1m/s | -50.7°C | 0.3% | 51hPa | 2.7V | 18:12:15 | 01:27:38 | 00:00:00 | |
| SP3WXH-11 | 2026-09-02 11:54:49 | 54.15411 | 14.10663 | 115° | 24km/h | 20850m | 3.8m/s | -50.7°C | 0.9% | 51.2hPa | 2.7V | 00:00:00 | 00:00:00 | 00:00:00 | |
| AA1-15 | 2026-09-02 11:54:42 | 54.15416 | 14.10607 | 94° | 22km/h | 20820m | 4.3m/s | -50.5°C | 0.3% | 51.5hPa | 2.7V | 18:12:15 | 01:27:27 | 00:00:00 | |
| AA1-15 | 2026-09-02 11:54:31 | 54.15429 | 14.10469 | 93° | 31km/h | 20766m | 5.5m/s | -50.2°C | 0.2% | 51.9hPa | 2.7V | 18:12:15 | 01:27:16 | 00:00:00 | |
| AA1-15 | 2026-09-02 11:54:21 | 54.15435 | 14.10349 | 94° | 27km/h | 20718m | 4.6m/s | -50.2°C | 0.2% | 52.2hPa | 2.6V | 18:12:15 | 01:27:06 | 00:00:00 | |
| AA1-15 | 2026-09-02 11:54:10 | 54.15435 | 14.10224 | 85° | 18km/h | 20663m | 4.9m/s | -50.4°C | 0.3% | 52.7hPa | 2.6V | 18:12:15 | 01:26:55 | 00:00:00 | |
| AA1-15 | 2026-09-02 11:54:00 | 54.15414 | 14.10117 | 86° | 27km/h | 20615m | 5.1m/s | -50.9°C | 0.3% | 53.1hPa | 2.7V | 18:12:15 | 01:26:45 | 00:00:00 | |
| AA1-15 | 2026-09-02 11:53:50 | 54.15397 | 14.10003 | 66° | 38km/h | 20560m | 5.4m/s | -51.2°C | 0.2% | 53.5hPa | 2.7V | 18:12:15 | 01:26:34 | 00:00:00 | |
| SP3WXH-11 | 2026-09-02 11:53:47 | 54.15385 | 14.09959 | 63° | 33km/h | 20546m | 4.5m/s | -51.2°C | 0.9% | 53.6hPa | 2.6V | 00:00:00 | 00:00:00 | 00:00:00 | |
| AA1-15 | 2026-09-02 11:53:38 | 54.15357 | 14.09877 | 56° | 24km/h | 20507m | 5m/s | -51.7°C | 0.4% | 53.9hPa | 2.6V | 18:12:15 | 01:26:23 | 00:00:00 | |
| AA1-15 | 2026-09-02 11:53:27 | 54.15294 | 14.09724 | 47° | 37km/h | 20454m | 4.9m/s | -51.8°C | 0.4% | 54.4hPa | 2.6V | 18:12:15 | 01:26:12 | 00:00:00 | |
| AA1-15 | 2026-09-02 11:53:17 | 54.15221 | 14.09605 | 44° | 37km/h | 20401m | 4.6m/s | -51.7°C | 0.4% | 54.8hPa | 2.6V | 18:12:15 | 01:26:01 | 00:00:00 | |
| AA1-15 | 2026-09-02 11:53:05 | 54.15139 | 14.09507 | 34° | 37km/h | 20347m | 4.7m/s | -51.9°C | 0.5% | 55.3hPa | 2.7V | 18:12:15 | 01:25:50 | 00:00:00 | |
| AA1-15 | 2026-09-02 11:52:54 | 54.15050 | 14.09424 | 30° | 37km/h | 20295m | 4.8m/s | -51.6°C | 0.4% | 55.8hPa | 2.7V | 18:12:15 | 01:25:39 | 00:00:00 | |
| AA1-15 | 2026-09-02 11:52:44 | 54.14974 | 14.09375 | 15° | 31km/h | 20247m | 4.8m/s | -51.4°C | 0.4% | 56.2hPa | 2.6V | 18:12:15 | 01:25:29 | 00:00:00 | |
| AA1-15 | 2026-09-02 11:52:33 | 54.14896 | 14.09346 | 12° | 33km/h | 20194m | 4.9m/s | -51.1°C | 0.4% | 56.6hPa | 2.6V | 18:12:15 | 01:25:18 | 00:00:00 | |
| AA1-15 | 2026-09-02 11:52:23 | 54.14829 | 14.09319 | 20° | 27km/h | 20146m | 4.1m/s | -50.9°C | 0.4% | 57hPa | 2.7V | 18:12:15 | 01:25:08 | 00:00:00 | |
| AA1-15 | 2026-09-02 11:52:12 | 54.14770 | 14.09272 | 34° | 22km/h | 20092m | 4.1m/s | -50.5°C | 0.2% | 57.5hPa | 2.7V | 18:12:15 | 01:24:57 | 00:00:00 | |
| AA1-15 | 2026-09-02 11:52:01 | 54.14708 | 14.09232 | 55° | 11km/h | 20037m | 4.5m/s | -50.5°C | 0.4% | 58hPa | 2.7V | 18:12:15 | 01:24:46 | 00:00:00 | |
| AA1-15 | 2026-09-02 11:51:51 | 54.14660 | 14.09200 | 25° | 22km/h | 19984m | 5.2m/s | -50.4°C | 0.2% | 58.5hPa | 2.6V | 18:12:15 | 01:24:35 | 00:00:00 | |
| S3001 | 2026-09-02 11:51:48 | 54.14652 | 14.09192 | 36° | 15km/h | 19975m | 4.9m/s | -50.4°C | 0.9% | 58.6hPa | 2.6V | 00:00:00 | 00:00:00 | 00:00:00 | |
| AA1-15 | 2026-09-02 11:51:39 | 54.14613 | 14.09173 | 3° | 29km/h | 19931m | 4.3m/s | -51.1°C | 0.3% | 59hPa | 2.6V | 18:12:15 | 01:24:24 | 00:00:00 | |
| AA1-15 | 2026-09-02 11:51:29 | 54.14575 | 14.09152 | 28° | 9km/h | 19876m | 4.2m/s | -50.7°C | 0.3% | 59.5hPa | 2.6V | 18:12:15 | 01:24:13 | 00:00:00 | |
| AA1-15 | 2026-09-02 11:51:19 | 54.14542 | 14.09122 | 75° | 11km/h | 19829m | 4.4m/s | -50.7°C | 0.2% | 59.9hPa | 2.7V | 18:12:15 | 01:24:03 | 00:00:00 | |
| AA1-15 | 2026-09-02 11:51:08 | 54.14516 | 14.09069 | 60° | 15km/h | 19774m | 4.5m/s | -51.4°C | 0.4% | 60.4hPa | 2.7V | 18:12:15 | 01:23:52 | 00:00:00 | |
| AA1-15 | 2026-09-02 11:50:56 | 54.14492 | 14.08983 | 64° | 24km/h | 19721m | 5.7m/s | -51.2°C | 0.4% | 60.9hPa | 2.6V | 18:12:15 | 01:23:41 | 00:00:00 | |
| DJ2DS-15 | 2026-09-02 11:50:56 | 54.14492 | 14.08983 | 64° | 20km/h | 19721m | 5.6m/s | -51.1°C | 3.5% | 60.8hPa | 2.7V | 00:00:00 | 01:23:41 | 00:00:00 | |
| DL1XH-15 | 2026-09-02 11:50:51 | 54.14469 | 14.08915 | 63° | 29km/h | 19685m | 4.2m/s | -50.8°C | 3.5% | 61.2hPa | 2.7V | 08:30:00 | 01:23:34 | 00:00:00 | |
| AA1-15 | 2026-09-02 11:50:45 | 54.14456 | 14.08875 | 64° | 24km/h | 19665m | 5.6m/s | -50.8°C | 0.3% | 61.4hPa | 2.6V | 18:12:15 | 01:23:30 | 00:00:00 | |
| AA1-15 | 2026-09-02 11:50:34 | 54.14432 | 14.08796 | 58° | 22km/h | 19609m | 4.2m/s | -50.5°C | 0.3% | 61.9hPa | 2.6V | 18:12:15 | 01:23:19 | 00:00:00 | |
| AA1-15 | 2026-09-02 11:50:23 | 54.14415 | 14.08709 | 67° | 16km/h | 19555m | 4.8m/s | -50.4°C | 0.3% | 62.5hPa | 2.7V | 18:12:15 | 01:23:08 | 00:00:00 | |
| DL1XH-15 | 2026-09-02 11:50:21 | 54.14412 | 14.08683 | 86° | 15km/h | 19535m | 6.1m/s | -50.3°C | 3.4% | 62.6hPa | 2.7V | 08:30:00 | 01:23:04 | 00:00:00 | |
| AA1-15 | 2026-09-02 11:50:12 | 54.14415 | 14.08625 | 84° | 24km/h | 19499m | 4.9m/s | -50.3°C | 0.3% | 63hPa | 2.7V | 18:12:15 | 01:22:57 | 00:00:00 | |
| AA1-15 | 2026-09-02 11:50:01 | 54.14412 | 14.08510 | 90° | 29km/h | 19445m | 5.2m/s | -50.4°C | 0.3% | 63.5hPa | 2.7V | 18:12:15 | 01:22:46 | 00:00:00 | |
| DL1XH-15 | 2026-09-02 11:50:00 | 54.14401 | 14.08433 | 68° | 29km/h | 19417m | 5.1m/s | -50.2°C | 3.4% | 63.8hPa | 2.7V | 08:30:00 | 01:22:40 | 00:00:00 | |
| AA1-15 | 2026-09-02 11:49:50 | 54.14392 | 14.08387 | 90° | 20km/h | 19393m | 4.3m/s | -50°C | 0.3% | 64hPa | 2.6V | 18:12:15 | 01:22:35 | 00:00:00 | |
| S3001 | 2026-09-02 11:49:45 | 54.14388 | 14.08336 | 66° | 26km/h | 19363m | 4.4m/s | -49.9°C | 0.9% | 64.3hPa | 2.6V | 00:00:00 | 00:00:00 | 00:00:00 | |
| AA1-15 | 2026-09-02 11:49:40 | 54.14375 | 14.08298 | 60° | 26km/h | 19343m | 5.5m/s | -49.8°C | 0.3% | 64.5hPa | 2.6V | 18:12:15 | 01:22:25 | 00:00:00 | |
| SP3WXH-11 | 2026-09-02 11:49:39 | 54.14369 | 14.08278 | 65° | 24km/h | 19333m | 4.1m/s | -49.6°C | 0.9% | 64.6hPa | 2.7V | 00:00:00 | 00:00:00 | 00:00:00 | |
| DJ2DS-15 | 2026-09-02 11:49:32 | 54.14361 | 14.08234 | 83° | 27km/h | 19303m | 4.2m/s | -49.6°C | 3.3% | 64.9hPa | 2.7V | 00:00:00 | 01:22:17 | 00:00:00 | |
| DL1XH-15 | 2026-09-02 11:49:30 | 54.14338 | 14.08156 | 57° | 37km/h | 19267m | 5.1m/s | -49.4°C | 3.2% | 65.3hPa | 2.7V | 08:30:00 | 01:22:10 | 00:00:00 | |
| AA1-15 | 2026-09-02 11:49:30 | 54.14356 | 14.08209 | 61° | 27km/h | 19288m | 4.6m/s | -49.5°C | 0.2% | 65hPa | 2.7V | 18:12:15 | 01:22:14 | 00:00:00 | |
| AA1-15 | 2026-09-02 11:49:19 | 54.14321 | 14.08093 | 68° | 22km/h | 19237m | 5.1m/s | -49.6°C | 0.2% | 65.5hPa | 2.7V | 18:12:15 | 01:22:04 | 00:00:00 | |
| DL1XH-15 | 2026-09-02 11:49:18 | 54.14310 | 14.08053 | 63° | 31km/h | 19218m | 4.6m/s | -49.6°C | 3.3% | 65.7hPa | 2.6V | 08:30:00 | 01:22:00 | 00:00:00 | |
| AA1-15 | 2026-09-02 11:49:08 | 54.14277 | 14.07970 | 53° | 31km/h | 19183m | 5.5m/s | -49.5°C | 0.3% | 66.1hPa | 2.6V | 18:12:15 | 01:21:53 | 00:00:00 | |
| DG6HD-15 | 2026-09-02 11:49:07 | 54.14277 | 14.07970 | 54° | 31km/h | 19183m | 5.5m/s | -49.5°C | 1.0% | 66.1hPa | 2.7V | 00:00:00 | 00:00:00 | 00:00:00 | |
| DL1XH-15 | 2026-09-02 11:49:00 | 54.14215 | 14.07833 | 44° | 29km/h | 19119m | 4.9m/s | -49.5°C | 3.3% | 66.7hPa | 2.7V | 08:30:00 | 01:21:40 | 00:00:00 | |
| AA1-15 | 2026-09-02 11:48:58 | 54.14230 | 14.07865 | 55° | 33km/h | 19134m | 4.4m/s | -49.4°C | 0.2% | 66.6hPa | 2.6V | 18:12:15 | 01:21:43 | 00:00:00 | |
| AA1-15 | 2026-09-02 11:48:48 | 54.14183 | 14.07772 | 54° | 27km/h | 19087m | 4.3m/s | -49.2°C | 0.2% | 67.1hPa | 2.7V | 18:12:15 | 01:21:33 | 00:00:00 | |
| DL1XH-15 | 2026-09-02 11:48:48 | 54.14172 | 14.07740 | 64° | 29km/h | 19074m | 3.9m/s | -49.1°C | 3.2% | 67.2hPa | 2.6V | 08:30:00 | 01:21:30 | 00:00:00 | |
| AA1-15 | 2026-09-02 11:48:38 | 54.14148 | 14.07677 | 49° | 18km/h | 19041m | 5.3m/s | -49°C | 0.2% | 67.6hPa | 2.6V | 18:12:15 | 01:21:23 | 00:00:00 | |
| DL1XH-15 | 2026-09-02 11:48:38 | 54.14141 | 14.07658 | 68° | 18km/h | 19027m | 3.6m/s | -49.1°C | 3.2% | 67.7hPa | 2.7V | 08:30:00 | 01:21:20 | 00:00:00 | |
| SP3WXH-11 | 2026-09-02 11:48:37 | 54.14143 | 14.07665 | 60° | 16km/h | 19031m | 5.3m/s | -49.0°C | 0.9% | 67.7hPa | 2.7V | 00:00:00 | 00:00:00 | 00:00:00 | |
| DJ2DS-15 | 2026-09-02 11:48:34 | 54.14139 | 14.07650 | 69° | 18km/h | 19023m | 4.7m/s | -49.1°C | 3.2% | 67.7hPa | 2.7V | 00:00:00 | 01:21:19 | 00:00:00 | |
| DL1XH-15 | 2026-09-02 11:48:31 | 54.14120 | 14.07579 | 55° | 15km/h | 18981m | 4.2m/s | -49.3°C | 3.2% | 68.1hPa | 2.7V | 08:30:00 | 01:21:10 | 00:00:00 | |
| AA1-15 | 2026-09-02 11:48:27 | 54.14124 | 14.07591 | 61° | 18km/h | 18990m | 5.3m/s | -49.4°C | 0.2% | 68.1hPa | 2.6V | 18:12:15 | 01:21:12 | 00:00:00 | |
| AA1-15 | 2026-09-02 11:48:17 | 54.14104 | 14.07526 | 76° | 22km/h | 18939m | 3.7m/s | -49°C | 0.2% | 68.6hPa | 2.6V | 18:12:15 | 01:21:01 | 00:00:00 | |
| AA1-15 | 2026-09-02 11:48:06 | 54.14095 | 14.07452 | 82° | 16km/h | 18892m | 5.3m/s | -49.2°C | 0.2% | 69.2hPa | 2.7V | 18:12:15 | 01:20:51 | 00:00:00 | |
| SP3WXH-11 | 2026-09-02 11:48:05 | 54.14094 | 14.07445 | 91° | 16km/h | 18887m | 4.8m/s | -49.2°C | 0.9% | 69.2hPa | 2.7V | 00:00:00 | 00:00:00 | 00:00:00 | |
| DL1XH-15 | 2026-09-02 11:48:01 | 54.14096 | 14.07389 | 92° | 27km/h | 18860m | 4.1m/s | -49.2°C | 3.1% | 69.5hPa | 2.7V | 08:30:00 | 01:20:44 | 00:00:00 | |
| AA1-15 | 2026-09-02 11:47:56 | 54.14094 | 14.07351 | 79° | 31km/h | 18846m | 3.6m/s | -49.2°C | 0.2% | 69.6hPa | 2.6V | 18:12:15 | 01:20:41 | 00:00:00 | |
| DL1XH-15 | 2026-09-02 11:47:53 | 54.14088 | 14.07263 | 86° | 29km/h | 18813m | 5.3m/s | -49.2°C | 3.3% | 70hPa | 2.7V | 08:30:00 | 01:20:34 | 00:00:00 | |
| AA1-15 | 2026-09-02 11:47:46 | 54.14088 | 14.07220 | 88° | 38km/h | 18800m | 5.4m/s | -49.3°C | 0.2% | 70.1hPa | 2.6V | 18:12:15 | 01:20:31 | 00:00:00 | |
| DJ2DS-15 | 2026-09-02 11:47:45 | 54.14087 | 14.07185 | 87° | 40km/h | 18791m | 4.5m/s | -49.2°C | 0.9% | 70.2hPa | 2.7V | 00:00:00 | 00:00:00 | 00:00:00 | |
| AA1-15 | 2026-09-02 11:47:35 | 54.14085 | 14.07059 | 89° | 22km/h | 18751m | 3.7m/s | -49.1°C | 0.2% | 70.6hPa | 2.7V | 18:12:15 | 01:20:20 | 00:00:00 | |
| SP3WXH-11 | 2026-09-02 11:47:34 | 54.14084 | 14.07050 | 85° | 22km/h | 18747m | 5.4m/s | -49.1°C | 0.9% | 70.7hPa | 2.7V | 00:00:00 | 00:00:00 | 00:00:00 | |
| DL1XH-15 | 2026-09-02 11:47:31 | 54.14083 | 14.06990 | 94° | 31km/h | 18725m | 3.8m/s | -49.1°C | 3.2% | 70.9hPa | 2.7V | 08:30:00 | 01:20:14 | 00:00:00 | |
| AA1-15 | 2026-09-02 11:47:25 | 54.14081 | 14.06906 | 83° | 27km/h | 18698m | 4m/s | -49.5°C | 0.2% | 71.2hPa | 2.7V | 18:12:15 | 01:20:08 | 00:00:00 | |
| AA1-15 | 2026-09-02 11:47:12 | 54.14069 | 14.06776 | 76° | 37km/h | 18650m | 4.7m/s | -49.3°C | 0.3% | 71.7hPa | 2.7V | 18:12:15 | 01:19:57 | 00:00:00 | |
| AA1-15 | 2026-09-02 11:47:01 | 54.14043 | 14.06637 | 79° | 29km/h | 18601m | 5.5m/s | -49°C | 0.2% | 72.2hPa | 2.7V | 18:12:15 | 01:19:46 | 00:00:00 | |
| AA1-15 | 2026-09-02 11:46:50 | 54.14046 | 14.06518 | 85° | 26km/h | 18548m | 4.3m/s | -49.2°C | 0.1% | 72.9hPa | 2.6V | 18:12:15 | 01:19:35 | 00:00:00 | |
| DG6HD-11 | 2026-09-02 11:46:46 | 54.14044 | 14.06468 | 90° | 29km/h | 18529m | 4.6m/s | -49.3°C | 3.2% | 73.0hPa | 2.6V | 00:00:00 | 00:00:00 | 00:00:00 | |
| DG6HD-15 | 2026-09-02 11:46:44 | 54.14044 | 14.06456 | 99° | 27km/h | 18525m | 3.4m/s | -49.2°C | 0.9% | 73.1hPa | 2.6V | 00:00:00 | 00:00:00 | 00:00:00 | |
| DL1XH-15 | 2026-09-02 11:46:41 | 54.14064 | 14.06389 | 118° | 26km/h | 18496m | 4.2m/s | -49.1°C | 3.1% | 73.4hPa | 2.6V | 08:30:00 | 01:19:24 | 00:00:00 | |
| AA1-15 | 2026-09-02 11:46:39 | 54.14064 | 14.06389 | 119° | 26km/h | 18496m | 4.2m/s | -49.2°C | 0.1% | 73.4hPa | 2.6V | 18:12:15 | 01:19:24 | 00:00:00 | |
| S3001 | 2026-09-02 11:46:38 | 54.14067 | 14.06378 | 111° | 26km/h | 18492m | 4.6m/s | -49.2°C | 0.9% | 73.4hPa | 2.7V | 00:00:00 | 00:00:00 | 00:00:00 | |
| DL1XH-15 | 2026-09-02 11:46:33 | 54.14082 | 14.06261 | 105° | 27km/h | 18452m | 5m/s | -49.3°C | 3.2% | 73.9hPa | 2.7V | 08:30:00 | 01:19:14 | 00:00:00 | |
| AA1-15 | 2026-09-02 11:46:28 | 54.14083 | 14.06251 | 104° | 22km/h | 18447m | 5m/s | -49.3°C | 0.2% | 74hPa | 2.6V | 18:12:15 | 01:19:13 | 00:00:00 | |
| AA1-15 | 2026-09-02 11:46:17 | 54.14097 | 14.06131 | 85° | 31km/h | 18400m | 4m/s | -49.1°C | 0.2% | 74.5hPa | 2.7V | 18:12:15 | 01:19:02 | 00:00:00 | |
| DG6HD-11 | 2026-09-02 11:46:16 | 54.14096 | 14.06118 | 79° | 24km/h | 18396m | 4.6m/s | -49.1°C | 3.2% | 74.5hPa | 2.6V | 00:00:00 | 00:00:00 | 00:00:00 | |
| DL1XH-15 | 2026-09-02 11:46:08 | 54.14078 | 14.05986 | 76° | 24km/h | 18337m | 3.9m/s | -49.4°C | 3.2% | 75.2hPa | 2.6V | 08:30:00 | 01:18:48 | 00:00:00 | |
| AA1-15 | 2026-09-02 11:46:06 | 54.14081 | 14.06018 | 85° | 26km/h | 18350m | 4.3m/s | -49.4°C | 0.1% | 75.1hPa | 2.7V | 18:12:15 | 01:18:51 | 00:00:00 | |
| DG6HD-15 | 2026-09-02 11:46:03 | 54.14079 | 14.05996 | 82° | 24km/h | 18342m | 5.8m/s | -49.5°C | 0.9% | 75.2hPa | 2.7V | 00:00:00 | 00:00:00 | 00:00:00 | |
| SP3WXH-11 | 2026-09-02 11:46:01 | 54.14075 | 14.05967 | 71° | 24km/h | 18329m | 4.9m/s | -49.5°C | 0.9% | 75.3hPa | 2.7V | 00:00:00 | 00:00:00 | 00:00:00 | |
| DL1XH-15 | 2026-09-02 11:45:58 | 54.14069 | 14.05898 | 86° | 20km/h | 18295m | 4.5m/s | -49.2°C | 3.2% | 75.7hPa | 2.7V | 08:30:00 | 01:18:38 | 00:00:00 | |
| AA1-15 | 2026-09-02 11:45:56 | 54.14069 | 14.05920 | 86° | 16km/h | 18308m | 3.8m/s | -49.5°C | 0.2% | 75.6hPa | 2.6V | 18:12:15 | 01:18:41 | 00:00:00 | |
| DK1YY | 2026-09-02 11:45:51 | 54.14061 | 14.05844 | 62° | 26km/h | 18268m | 4.0m/s | -49.5°C | 0.9% | 76.0hPa | 2.7V | 00:00:00 | 00:00:00 | 00:00:00 | |
| DL1XH-15 | 2026-09-02 11:45:48 | 54.14050 | 14.05815 | 67° | 15km/h | 18250m | 5.2m/s | -49.4°C | 3.3% | 76.2hPa | 2.7V | 08:30:00 | 01:18:28 | 00:00:00 | |
| AA1-15 | 2026-09-02 11:45:45 | 54.14055 | 14.05827 | 55° | 20km/h | 18259m | 4.6m/s | -49.6°C | 0.2% | 76.1hPa | 2.6V | 18:12:15 | 01:18:30 | 00:00:00 | |
| DG6HD-15 | 2026-09-02 11:45:43 | 54.14052 | 14.05821 | 59° | 16km/h | 18255m | 4.2m/s | -49.5°C | 0.9% | 76.2hPa | 2.6V | 00:00:00 | 00:00:00 | 00:00:00 | |
| DL1XH-15 | 2026-09-02 11:45:37 | 54.14063 | 14.05726 | 80° | 24km/h | 18206m | 4.3m/s | -49.4°C | 3.2% | 76.8hPa | 2.6V | 08:30:00 | 01:18:18 | 00:00:00 | |
| AA1-15 | 2026-09-02 11:45:34 | 54.14063 | 14.05737 | 91° | 26km/h | 18211m | 5.1m/s | -49.4°C | 0.2% | 76.7hPa | 2.6V | 18:12:15 | 01:18:19 | 00:00:00 | |
| AA1-15 | 2026-09-02 11:45:24 | 54.14058 | 14.05651 | 107° | 24km/h | 18165m | 3.2m/s | -49.2°C | 0.3% | 77.2hPa | 2.7V | 18:12:15 | 01:18:09 | 00:00:00 | |
| AA1-15 | 2026-09-02 11:45:14 | 54.14052 | 14.05551 | 81° | 18km/h | 18117m | 4.7m/s | -48.7°C | 0.1% | 77.8hPa | 2.7V | 18:12:15 | 01:17:58 | 00:00:00 | |
| DL1XH-15 | 2026-09-02 11:45:07 | 54.14071 | 14.05487 | 115° | 27km/h | 18085m | 5.1m/s | -48.4°C | 3.1% | 78.2hPa | 2.7V | 08:30:00 | 01:17:51 | 00:00:00 | |
| AA1-15 | 2026-09-02 11:45:02 | 54.14077 | 14.05442 | 96° | 24km/h | 18066m | 5.1m/s | -48.4°C | 0.1% | 78.4hPa | 2.6V | 18:12:15 | 01:17:47 | 00:00:00 | |
| DL1XH-15 | 2026-09-02 11:45:01 | 54.14088 | 14.05384 | 110° | 29km/h | 18039m | 4.1m/s | -48.6°C | 3% | 78.7hPa | 2.6V | 08:30:00 | 01:17:41 | 00:00:00 | |
| AA1-15 | 2026-09-02 11:44:51 | 54.14095 | 14.05328 | 94° | 29km/h | 18016m | 5.8m/s | -49°C | 0.1% | 79hPa | 2.6V | 18:12:15 | 01:17:36 | 00:00:00 | |
| AA1-15 | 2026-09-02 11:44:41 | 54.14123 | 14.05176 | 104° | 37km/h | 17969m | 4.5m/s | -48.9°C | 0.2% | 79.6hPa | 2.7V | 18:12:15 | 01:17:26 | 00:00:00 | |
| DL1XH-15 | 2026-09-02 11:44:41 | 54.14132 | 14.05100 | 104° | 35km/h | 17948m | 5.3m/s | -48.8°C | 3.1% | 79.8hPa | 2.7V | 08:30:00 | 01:17:21 | 00:00:00 | |
| AA1-15 | 2026-09-02 11:44:30 | 54.14148 | 14.05017 | 109° | 33km/h | 17920m | 5.2m/s | -48.6°C | 0.1% | 80.2hPa | 2.7V | 18:12:15 | 01:17:15 | 00:00:00 | |
| AA1-15 | 2026-09-02 11:44:19 | 54.14159 | 14.04867 | 98° | 33km/h | 17871m | 5.4m/s | -48.5°C | 0.1% | 80.8hPa | 2.7V | 18:12:15 | 01:17:04 | 00:00:00 | |
| DG6HD-11 | 2026-09-02 11:44:16 | 54.14162 | 14.04827 | 98° | 26km/h | 17858m | 5.2m/s | -48.3°C | 3.0% | 80.9hPa | 2.7V | 00:00:00 | 00:00:00 | 00:00:00 | |
| DJ2DS-15 | 2026-09-02 11:44:14 | 54.14165 | 14.04801 | 101° | 24km/h | 17848m | 4.4m/s | -48.4°C | 3.0% | 81.0hPa | 2.7V | 00:00:00 | 01:16:59 | 00:00:00 | |
| DL1XH-15 | 2026-09-02 11:44:13 | 54.14167 | 14.04778 | 98° | 24km/h | 17839m | 3.9m/s | -48.6°C | 3% | 81.2hPa | 2.7V | 08:30:00 | 01:16:57 | 00:00:00 | |
| AA1-15 | 2026-09-02 11:44:08 | 54.14170 | 14.04736 | 96° | 26km/h | 17820m | 5.7m/s | -48.7°C | 0.1% | 81.4hPa | 2.6V | 18:12:15 | 01:16:53 | 00:00:00 | |
| AA1-15 | 2026-09-02 11:43:57 | 54.14176 | 14.04617 | 99° | 16km/h | 17770m | 5.2m/s | -48.7°C | 0.1% | 82hPa | 2.6V | 18:12:15 | 01:16:42 | 00:00:00 | |
| DB0DAN | 2026-09-02 11:43:55 | 54.14176 | 14.04603 | 86° | 16km/h | 17762m | 3.7m/s | -48.7°C | 0.9% | 82.11hPa | 2.7V | 00:00:00 | 00:00:00 | 00:00:00 | |
| DJ2DS-15 | 2026-09-02 11:43:54 | 54.14175 | 14.04595 | 86° | 29km/h | 17758m | 5.2m/s | -48.7°C | 3.1% | 82.1hPa | 2.7V | 00:00:00 | 01:16:39 | 00:00:00 | |
| DL1XH-15 | 2026-09-02 11:43:53 | 54.14175 | 14.04576 | 84° | 24km/h | 17749m | 4m/s | -48.8°C | 3.1% | 82.3hPa | 2.6V | 08:30:00 | 01:16:37 | 00:00:00 | |
| MECKS9 | 2026-09-02 11:43:50 | 54.14174 | 14.04566 | 86° | 22km/h | 17745m | 5.0m/s | -48.8°C | 0.9% | 82.3hPa | 2.7V | 00:00:00 | 00:00:00 | 00:00:00 | |
| DL1XH-15 | 2026-09-02 11:43:47 | 54.14188 | 14.04467 | 87° | 29km/h | 17702m | 6.6m/s | -49°C | 3% | 82.9hPa | 2.7V | 08:30:00 | 01:16:27 | 00:00:00 | |
| AA1-15 | 2026-09-02 11:43:46 | 54.14181 | 14.04512 | 116° | 31km/h | 17722m | 4.4m/s | -48.7°C | 0.1% | 82.6hPa | 2.6V | 18:12:15 | 01:16:31 | 00:00:00 | |
| AA1-15 | 2026-09-02 11:43:35 | 54.14183 | 14.04366 | 89° | 40km/h | 17664m | 6.3m/s | -49.7°C | 0.2% | 83.3hPa | 2.7V | 18:12:15 | 01:16:20 | 00:00:00 | |
| DL1XH-15 | 2026-09-02 11:43:34 | 54.14184 | 14.04312 | 95° | 40km/h | 17647m | 5.2m/s | -49.8°C | 3.3% | 83.6hPa | 2.6V | 08:30:00 | 01:16:17 | 00:00:00 | |
| S3001 | 2026-09-02 11:43:32 | 54.14185 | 14.04295 | 94° | 40km/h | 17643m | 4.2m/s | -49.9°C | 1.0% | 83.6hPa | 2.6V | 00:00:00 | 00:00:00 | 00:00:00 | |
| DL1XH-15 | 2026-09-02 11:43:27 | 54.14178 | 14.04161 | 87° | 33km/h | 17600m | 5.2m/s | -50.1°C | 3.3% | 84.1hPa | 2.6V | 08:30:00 | 01:16:07 | 00:00:00 | |
| AA1-15 | 2026-09-02 11:43:24 | 54.14180 | 14.04189 | 81° | 31km/h | 17610m | 4.7m/s | -50.1°C | 0.3% | 84.1hPa | 2.7V | 18:12:15 | 01:16:09 | 00:00:00 | |
| AA1-15 | 2026-09-02 11:43:13 | 54.14178 | 14.04027 | 84° | 37km/h | 17558m | 4.5m/s | -49.8°C | 0.2% | 84.7hPa | 2.7V | 18:12:15 | 01:15:58 | 00:00:00 | |
| DL1XH-15 | 2026-09-02 11:43:13 | 54.14177 | 14.04010 | 86° | 40km/h | 17553m | 3.6m/s | -49.9°C | 3.3% | 84.8hPa | 2.7V | 08:30:00 | 01:15:57 | 00:00:00 | |
| DL1XH-15 | 2026-09-02 11:43:07 | 54.14193 | 14.03842 | 101° | 35km/h | 17508m | 4.9m/s | -49.9°C | 3.2% | 85.4hPa | 2.6V | 08:30:00 | 01:15:47 | 00:00:00 | |
| AA1-15 | 2026-09-02 11:43:02 | 54.14193 | 14.03842 | 101° | 35km/h | 17508m | 4.9m/s | -49.9°C | 0.2% | 85.4hPa | 2.6V | 18:12:15 | 01:15:47 | 00:00:00 | |
| S3001 | 2026-09-02 11:43:00 | 54.14195 | 14.03812 | 92° | 35km/h | 17498m | 4.3m/s | -49.9°C | 1.0% | 85.5hPa | 2.7V | 00:00:00 | 00:00:00 | 00:00:00 | |
| SP3WXH-11 | 2026-09-02 11:42:55 | 54.14198 | 14.03736 | 94° | 37km/h | 17475m | 4.1m/s | -49.8°C | 1.0% | 85.8hPa | 2.7V | 00:00:00 | 00:00:00 | 00:00:00 | |
| DJ2DS-15 | 2026-09-02 11:42:54 | 54.14199 | 14.03720 | 99° | 37km/h | 17471m | 4.3m/s | -49.8°C | 3.3% | 85.8hPa | 2.7V | 00:00:00 | 01:15:39 | 08:30:00 | |
| DL1XH-15 | 2026-09-02 11:42:53 | 54.14203 | 14.03691 | 109° | 35km/h | 17461m | 3.4m/s | -50°C | 3.3% | 85.9hPa | 2.6V | 08:30:00 | 01:15:37 | 00:00:00 | |
| AA1-15 | 2026-09-02 11:42:52 | 54.14206 | 14.03677 | 108° | 35km/h | 17457m | 4.9m/s | -50°C | 0.3% | 86hPa | 2.6V | 18:12:15 | 01:15:36 | 00:00:00 | |
| DL1XH-15 | 2026-09-02 11:42:47 | 54.14229 | 14.03545 | 111° | 38km/h | 17415m | 5.1m/s | -50°C | 3.3% | 86.6hPa | 2.7V | 08:30:00 | 01:15:27 | 00:00:00 | |
| AA1-15 | 2026-09-02 11:42:40 | 54.14237 | 14.03513 | 113° | 42km/h | 17407m | 4.3m/s | -49.9°C | 0.3% | 86.7hPa | 2.6V | 18:12:15 | 01:15:25 | 00:00:00 | |
| DG6HD-15 | 2026-09-02 11:42:37 | 54.14244 | 14.03480 | 111° | 40km/h | 17398m | 4.3m/s | -50.0°C | 1.0% | 86.8hPa | 2.6V | 00:00:00 | 00:00:00 | 00:00:00 | |
| DJ2DS-15 | 2026-09-02 11:42:34 | 54.14259 | 14.03418 | 112° | 42km/h | 17380m | 5.2m/s | -49.9°C | 3.3% | 87.0hPa | 2.6V | 00:00:00 | 01:15:19 | 00:00:00 | |
| DL1XH-15 | 2026-09-02 11:42:33 | 54.14266 | 14.03386 | 111° | 42km/h | 17371m | 4.5m/s | -49.8°C | 3.3% | 87.1hPa | 2.6V | 08:30:00 | 01:15:17 | 00:00:00 | |
| AA1-15 | 2026-09-02 11:42:30 | 54.14275 | 14.03352 | 116° | 44km/h | 17361m | 4m/s | -49.8°C | 0.2% | 87.3hPa | 2.7V | 18:12:15 | 01:15:15 | 00:00:00 | |
| S3001 | 2026-09-02 11:42:29 | 54.14280 | 14.03335 | 115° | 46km/h | 17357m | 4.2m/s | -49.9°C | 1.0% | 87.3hPa | 2.6V | 00:00:00 | 00:00:00 | 00:00:00 | |
| DL1XH-15 | 2026-09-02 11:42:27 | 54.14316 | 14.03201 | 111° | 46km/h | 17325m | 4.1m/s | -50.1°C | 3.3% | 87.8hPa | 2.6V | 08:30:00 | 01:15:07 | 00:00:00 | |
| AA1-15 | 2026-09-02 11:42:19 | 54.14327 | 14.03154 | 109° | 33km/h | 17311m | 4m/s | -50.1°C | 0.3% | 88hPa | 2.7V | 18:12:15 | 01:15:04 | 00:00:00 | |
| DG6HD-11 | 2026-09-02 11:42:16 | 54.14332 | 14.03113 | 99° | 44km/h | 17298m | 3.9m/s | -50.0°C | 3.3% | 88.1hPa | 2.6V | 00:00:00 | 00:00:00 | 00:00:00 | |
| DJ2DS-15 | 2026-09-02 11:42:14 | 54.14336 | 14.03082 | 103° | 42km/h | 17289m | 5.0m/s | -49.9°C | 3.3% | 88.2hPa | 2.7V | 00:00:00 | 01:14:59 | 00:00:00 | |
| DL1XH-15 | 2026-09-02 11:42:13 | 54.14341 | 14.03050 | 108° | 42km/h | 17280m | 3.8m/s | -49.9°C | 3.3% | 88.4hPa | 2.7V | 08:30:00 | 01:14:57 | 00:00:00 | |
| AA1-15 | 2026-09-02 11:42:08 | 54.14355 | 14.02980 | 110° | 40km/h | 17262m | 4.8m/s | -50°C | 0.3% | 88.6hPa | 2.6V | 18:12:15 | 01:14:53 | 00:00:00 | |
| AA1-15 | 2026-09-02 11:41:57 | 54.14392 | 14.02791 | 110° | 47km/h | 17211m | 4.9m/s | -50.2°C | 0.2% | 89.3hPa | 2.6V | 18:12:15 | 01:14:42 | 00:00:00 | |
| DG6HD-15 | 2026-09-02 11:41:55 | 54.14397 | 14.02772 | 113° | 47km/h | 17207m | 4.8m/s | -50.1°C | 1.0% | 89.4hPa | 2.7V | 00:00:00 | 00:00:00 | 00:00:00 | |
| DJ2DS-15 | 2026-09-02 11:41:54 | 54.14406 | 14.02734 | 114° | 53km/h | 17198m | 4.8m/s | -50.0°C | 3.3% | 89.5hPa | 2.7V | 00:00:00 | 01:14:39 | 00:00:00 | |
| DL1XH-15 | 2026-09-02 11:41:53 | 54.14417 | 14.02692 | 111° | 53km/h | 17188m | 3.7m/s | -50.1°C | 3.3% | 89.6hPa | 2.6V | 08:30:00 | 01:14:37 | 00:00:00 | |
| SP3WXH-11 | 2026-09-02 11:41:53 | 54.14411 | 14.02713 | 112° | 53km/h | 17193m | 5.3m/s | -50.1°C | 1.0% | 89.6hPa | 2.7V | 00:00:00 | 00:00:00 | 00:00:00 | |
| DL1XH-15 | 2026-09-02 11:41:47 | 54.14453 | 14.02480 | 101° | 53km/h | 17143m | 5.2m/s | -50.6°C | 3.4% | 90.3hPa | 2.7V | 08:30:00 | 01:14:27 | 00:00:00 | |
| AA1-15 | 2026-09-02 11:41:46 | 54.14441 | 14.02565 | 105° | 51km/h | 17161m | 4.1m/s | -50.4°C | 0.3% | 90hPa | 2.6V | 18:12:15 | 01:14:31 | 00:00:00 | |
| DG6HD-11 | 2026-09-02 11:41:46 | 54.14441 | 14.02565 | 105° | 53km/h | 17162m | 4.0m/s | -50.3°C | 3.4% | 90.0hPa | 2.6V | 00:00:00 | 00:00:00 | 00:00:00 | |
| DJ2DS-15 | 2026-09-02 11:41:44 | 54.14450 | 14.02502 | 102° | 49km/h | 17148m | 4.4m/s | -50.6°C | 1.0% | 90.2hPa | 2.6V | 00:00:00 | 00:00:00 | 00:00:00 | |
| DL1XH-15 | 2026-09-02 11:41:35 | 54.14477 | 14.02248 | 97° | 57km/h | 17099m | 4.2m/s | -50.5°C | 3.4% | 90.9hPa | 2.6V | 08:30:00 | 01:14:17 | 00:00:00 | |
| AA1-15 | 2026-09-02 11:41:34 | 54.14473 | 14.02295 | 101° | 55km/h | 17107m | 5.3m/s | -50.5°C | 0.3% | 90.8hPa | 2.6V | 18:12:15 | 01:14:19 | 00:00:00 | |
| AA1-15 | 2026-09-02 11:41:23 | 54.14479 | 14.02042 | 91° | 47km/h | 17059m | 5.4m/s | -50.4°C | 0.4% | 91.4hPa | 2.7V | 18:12:15 | 01:14:08 | 00:00:00 | |
| DL1XH-15 | 2026-09-02 11:41:23 | 54.14479 | 14.02022 | 92° | 46km/h | 17054m | 4.8m/s | -50.4°C | 3.5% | 91.5hPa | 2.6V | 08:30:00 | 01:14:07 | 00:00:00 | |
| SP3WXH-11 | 2026-09-02 11:41:22 | 54.14479 | 14.02021 | 92° | 46km/h | 17054m | 4.8m/s | -50.4°C | 1.1% | 91.5hPa | 2.7V | 00:00:00 | 00:00:00 | 00:00:00 | |
| DL1XH-15 | 2026-09-02 11:41:17 | 54.14486 | 14.01815 | 83° | 47km/h | 17010m | 5.3m/s | -50°C | 3.3% | 92.1hPa | 2.7V | 08:30:00 | 01:13:57 | 00:00:00 | |
| AA1-15 | 2026-09-02 11:41:12 | 54.14486 | 14.01815 | 84° | 47km/h | 17010m | 5.3m/s | -50.1°C | 0.3% | 92.2hPa | 2.7V | 18:12:15 | 01:13:57 | 00:00:00 | |
| DJ2DS-15 | 2026-09-02 11:41:08 | 54.14475 | 14.01716 | 78° | 46km/h | 16986m | 4.8m/s | -49.9°C | 1.0% | 92.5hPa | 2.6V | 00:00:00 | 00:00:00 | 00:00:00 | |
| DL1XH-15 | 2026-09-02 11:41:06 | 54.14467 | 14.01619 | 85° | 46km/h | 16964m | 3.6m/s | -49.7°C | 3.3% | 92.8hPa | 2.6V | 08:30:00 | 01:13:47 | 00:00:00 | |
| AA1-15 | 2026-09-02 11:41:01 | 54.14466 | 14.01600 | 83° | 46km/h | 16960m | 4.9m/s | -49.7°C | 0.3% | 92.8hPa | 2.7V | 18:12:15 | 01:13:46 | 00:00:00 | |
| S3001 | 2026-09-02 11:40:56 | 54.14458 | 14.01514 | 85° | 38km/h | 16938m | 4.2m/s | -49.8°C | 1.0% | 93.2hPa | 2.7V | 00:00:00 | 00:00:00 | 00:00:00 | |
| DJ2DS-15 | 2026-09-02 11:40:54 | 54.14456 | 14.01482 | 83° | 42km/h | 16928m | 4.3m/s | -49.6°C | 3.1% | 93.2hPa | 2.7V | 00:00:00 | 01:13:39 | 00:00:00 | |
| DL1XH-15 | 2026-09-02 11:40:53 | 54.14454 | 14.01447 | 83° | 44km/h | 16919m | 5.1m/s | -49.7°C | 3.1% | 93.4hPa | 2.6V | 08:30:00 | 01:13:37 | 00:00:00 | |
| AA1-15 | 2026-09-02 11:40:50 | 54.14451 | 14.01407 | 81° | 47km/h | 16909m | 5m/s | -49.9°C | 0.2% | 93.5hPa | 2.6V | 18:12:15 | 01:13:35 | 00:00:00 | |
| DG6HD-11 | 2026-09-02 11:40:46 | 54.14443 | 14.01330 | 83° | 38km/h | 16891m | 4.2m/s | -50.0°C | 3.2% | 93.8hPa | 2.6V | 00:00:00 | 00:00:00 | 08:30:00 | |
| MECKS9 | 2026-09-02 11:40:44 | 54.14441 | 14.01313 | 82° | 38km/h | 16887m | 5.0m/s | -50.2°C | 1.0% | 93.9hPa | 2.7V | 00:00:00 | 00:00:00 | 00:00:00 | |
| DL1XH-15 | 2026-09-02 11:40:43 | 54.14437 | 14.01271 | 82° | 31km/h | 16873m | 5.4m/s | -50.4°C | 3.3% | 94.1hPa | 2.7V | 08:30:00 | 01:13:27 | 00:00:00 | |
| AA1-15 | 2026-09-02 11:40:39 | 54.14435 | 14.01226 | 83° | 38km/h | 16859m | 5.2m/s | -50.4°C | 0.2% | 94.3hPa | 2.6V | 18:12:15 | 01:13:24 | 00:00:00 | |
| DJ2DS-15 | 2026-09-02 11:40:34 | 54.14427 | 14.01134 | 79° | 38km/h | 16836m | 4.9m/s | -50.6°C | 3.4% | 94.6hPa | 2.6V | 00:00:00 | 01:13:19 | 00:00:00 | |
| DL1XH-15 | 2026-09-02 11:40:33 | 54.14421 | 14.01098 | 74° | 40km/h | 16827m | 3.5m/s | -50.7°C | 3.5% | 94.7hPa | 2.6V | 08:30:00 | 01:13:17 | 00:00:00 | |
| AA1-15 | 2026-09-02 11:40:28 | 54.14414 | 14.01036 | 80° | 35km/h | 16809m | 4.5m/s | -50.5°C | 0.3% | 95hPa | 2.6V | 18:12:15 | 01:13:13 | 00:00:00 | |
| DL1XH-15 | 2026-09-02 11:40:28 | 54.14396 | 14.00926 | 73° | 42km/h | 16777m | 4.2m/s | -50.6°C | 3.4% | 95.5hPa | 2.7V | 08:30:00 | 01:13:06 | 00:00:00 | |
| AA1-15 | 2026-09-02 11:40:18 | 54.14389 | 14.00873 | 81° | 40km/h | 16764m | 3.7m/s | -50.5°C | 0.3% | 95.7hPa | 2.7V | 18:12:15 | 01:13:03 | 00:00:00 | |
| DL1XH-15 | 2026-09-02 11:40:16 | 54.14375 | 14.00769 | 81° | 37km/h | 16734m | 4.3m/s | -50.8°C | 3.4% | 96.1hPa | 2.7V | 08:30:00 | 01:12:56 | 00:00:00 | |
| AA1-15 | 2026-09-02 11:40:08 | 54.14361 | 14.00654 | 79° | 37km/h | 16702m | 4.6m/s | -50.7°C | 0.4% | 96.6hPa | 2.7V | 18:12:15 | 01:12:49 | 00:00:00 | |
| DL1XH-15 | 2026-09-02 11:40:06 | 54.14357 | 14.00613 | 87° | 29km/h | 16689m | 3.9m/s | -50.7°C | 3.4% | 96.8hPa | 2.6V | 08:30:00 | 01:12:46 | 00:00:00 | |
| DL1XH-15 | 2026-09-02 11:39:54 | 54.14359 | 14.00465 | 93° | 35km/h | 16645m | 4.8m/s | -50.7°C | 3.3% | 97.4hPa | 2.6V | 08:30:00 | 01:12:36 | 00:00:00 | |
| AA1-15 | 2026-09-02 11:39:54 | 54.14358 | 14.00512 | 87° | 37km/h | 16659m | 4.4m/s | -50.6°C | 0.3% | 97.2hPa | 2.7V | 18:12:15 | 01:12:39 | 00:00:00 | |
| S3001 | 2026-09-02 11:39:54 | 54.14358 | 14.00512 | 87° | 35km/h | 16659m | 4.4m/s | -50.6°C | 1.1% | 97.2hPa | 2.7V | 00:00:00 | 00:00:00 | 00:00:00 | |
| SP3WXH-11 | 2026-09-02 11:39:49 | 54.14359 | 14.00437 | 93° | 31km/h | 16636m | 3.7m/s | -50.6°C | 1.0% | 97.6hPa | 2.7V | 00:00:00 | 00:00:00 | 00:00:00 | |
| DG6HD-11 | 2026-09-02 11:39:46 | 54.14363 | 14.00395 | 103° | 42km/h | 16622m | 4.0m/s | -50.7°C | 3.5% | 97.7hPa | 2.7V | 00:00:00 | 00:00:00 | 00:00:00 | |
| DL1XH-15 | 2026-09-02 11:39:44 | 54.14371 | 14.00315 | 99° | 44km/h | 16599m | 4.1m/s | -51°C | 3.6% | 98.1hPa | 2.7V | 08:30:00 | 01:12:26 | 00:00:00 | |
| AA1-15 | 2026-09-02 11:39:43 | 54.14367 | 14.00350 | 98° | 38km/h | 16609m | 4.3m/s | -50.9°C | 0.4% | 98hPa | 2.6V | 18:12:15 | 01:12:28 | 00:00:00 | |
| AA1-15 | 2026-09-02 11:39:33 | 54.14383 | 14.00149 | 100° | 37km/h | 16559m | 3.6m/s | -50.6°C | 0.3% | 98.7hPa | 2.6V | 18:12:15 | 01:12:17 | 00:00:00 | |
| DL1XH-15 | 2026-09-02 11:39:33 | 54.14384 | 14.00135 | 104° | 35km/h | 16555m | 5.3m/s | -50.7°C | 3.4% | 98.8hPa | 2.6V | 08:30:00 | 01:12:16 | 00:00:00 | |
| DG6HD-15 | 2026-09-02 11:39:29 | 54.14387 | 14.00120 | 108° | 37km/h | 16550m | 4.6m/s | -50.6°C | 1.1% | 98.9hPa | 2.7V | 00:00:00 | 00:00:00 | 00:00:00 | |
| DL1XH-15 | 2026-09-02 11:39:25 | 54.14405 | 13.99957 | 93° | 49km/h | 16509m | 4.6m/s | -50.6°C | 3.4% | 99.5hPa | 2.7V | 08:30:00 | 01:12:06 | 00:00:00 | |
| AA1-15 | 2026-09-02 11:39:23 | 54.14405 | 13.99978 | 96° | 51km/h | 16514m | 4.8m/s | -50.6°C | 0.4% | 99.4hPa | 2.6V | 18:12:15 | 01:12:07 | 00:00:00 | |
| DJ2DS-15 | 2026-09-02 11:39:20 | 54.14408 | 13.99917 | 97° | 44km/h | 16501m | 5.4m/s | -50.6°C | 1.1% | 99.6hPa | 2.7V | 00:00:00 | 00:00:00 | 00:00:00 | |
| SP3WXH-11 | 2026-09-02 11:39:18 | 54.14409 | 13.99899 | 99° | 42km/h | 16496m | 4.2m/s | -50.6°C | 1.1% | 99.7hPa | 2.7V | 00:00:00 | 00:00:00 | 00:00:00 | |
| DG6HD-11 | 2026-09-02 11:39:16 | 54.14412 | 13.99864 | 99° | 44km/h | 16487m | 4.7m/s | -50.5°C | 3.4% | 99.7hPa | 2.7V | 00:00:00 | 00:00:00 | 00:00:00 | |
| DL1XH-15 | 2026-09-02 11:39:14 | 54.14421 | 13.99778 | 98° | 46km/h | 16465m | 5.1m/s | -50.5°C | 3.4% | 100.2hPa | 2.7V | 08:30:00 | 01:11:56 | 00:00:00 | |
| AA1-15 | 2026-09-02 11:39:12 | 54.14423 | 13.99758 | 97° | 47km/h | 16461m | 3.9m/s | -50.5°C | 0.4% | 100.3hPa | 2.6V | 18:12:15 | 01:11:55 | 00:00:00 | |
| DG6HD-15 | 2026-09-02 11:39:09 | 54.14423 | 13.99758 | 98° | 47km/h | 16461m | 3.9m/s | -50.5°C | 1.1% | 100.3hPa | 2.7V | 00:00:00 | 00:00:00 | 00:00:00 | |
| MECKS9 | 2026-09-02 11:39:06 | 54.14428 | 13.99697 | 101° | 47km/h | 16448m | 4.2m/s | -50.8°C | 1.1% | 100.4hPa | 2.7V | 00:00:00 | 00:00:00 | 00:00:00 | |
| DL1XH-15 | 2026-09-02 11:39:04 | 54.14438 | 13.99584 | 101° | 42km/h | 16420m | 5.2m/s | -50.7°C | 3.5% | 100.8hPa | 2.7V | 08:30:00 | 01:11:46 | 00:00:00 | |
| AA1-15 | 2026-09-02 11:39:01 | 54.14438 | 13.99584 | 101° | 42km/h | 16420m | 5.2m/s | -50.7°C | 0.4% | 100.9hPa | 2.7V | 18:12:15 | 01:11:46 | 00:00:00 | |
| MECKS9 | 2026-09-02 11:38:55 | 54.14450 | 13.99494 | 103° | 44km/h | 16397m | 5.2m/s | -50.6°C | 1.1% | 101.2hPa | 2.6V | 00:00:00 | 00:00:00 | 00:00:00 | |
| DL1XH-15 | 2026-09-02 11:38:54 | 54.14460 | 13.99398 | 99° | 46km/h | 16375m | 4m/s | -50.6°C | 3.4% | 101.5hPa | 2.6V | 08:30:00 | 01:11:36 | 00:00:00 | |
| AA1-15 | 2026-09-02 11:38:50 | 54.14461 | 13.99378 | 96° | 46km/h | 16371m | 4.8m/s | -50.6°C | 0.3% | 101.6hPa | 2.6V | 18:12:15 | 01:11:35 | 00:00:00 | |
| SP3WXH-11 | 2026-09-02 11:38:47 | 54.14465 | 13.99323 | 99° | 38km/h | 16358m | 5.0m/s | -50.4°C | 1.1% | 101.8hPa | 2.7V | 00:00:00 | 00:00:00 | 00:00:00 | |
| DG6HD-11 | 2026-09-02 11:38:46 | 54.14467 | 13.99306 | 103° | 42km/h | 16353m | 4.3m/s | -50.3°C | 3.4% | 101.9hPa | 2.7V | 00:00:00 | 00:00:00 | 00:00:00 | |
| DJ2DS-15 | 2026-09-02 11:38:43 | 54.14472 | 13.99260 | 102° | 37km/h | 16340m | 4.2m/s | -50.2°C | 1.1% | 102.1hPa | 2.7V | 00:00:00 | 00:00:00 | 00:00:00 | |
| DL1XH-15 | 2026-09-02 11:38:42 | 54.14477 | 13.99227 | 103° | 42km/h | 16331m | 3.8m/s | -50.3°C | 3.4% | 102.2hPa | 2.7V | 08:30:00 | 01:11:26 | 00:00:00 | |
| AA1-15 | 2026-09-02 11:38:39 | 54.14481 | 13.99190 | 98° | 44km/h | 16322m | 5.1m/s | -50.2°C | 0.4% | 102.4hPa | 2.6V | 18:12:15 | 01:11:24 | 00:00:00 | |
| DL1XH-15 | 2026-09-02 11:38:37 | 54.14495 | 13.99043 | 99° | 40km/h | 16286m | 4.2m/s | -50°C | 3.4% | 103hPa | 2.6V | 08:30:00 | 01:11:16 | 00:00:00 | |
| AA1-15 | 2026-09-02 11:38:28 | 54.14502 | 13.98988 | 102° | 47km/h | 16273m | 5.2m/s | -50.1°C | 0.4% | 103.1hPa | 2.6V | 18:12:15 | 01:11:13 | 00:00:00 | |
| AA1-15 | 2026-09-02 11:38:18 | 54.14524 | 13.98775 | 92° | 35km/h | 16219m | 3.9m/s | -49.9°C | 0.4% | 104hPa | 2.6V | 18:12:15 | 01:11:01 | 00:00:00 | |
| AA1-15 | 2026-09-02 11:38:05 | 54.14526 | 13.98592 | 91° | 29km/h | 16170m | 4.9m/s | -49.9°C | 0.4% | 104.8hPa | 2.6V | 18:12:15 | 01:10:50 | 00:00:00 | |
| DL1XH-15 | 2026-09-02 11:38:02 | 54.14528 | 13.98542 | 89° | 31km/h | 16153m | 5m/s | -50.2°C | 3.4% | 105.1hPa | 2.7V | 08:30:00 | 01:10:46 | 00:00:00 | |
| AA1-15 | 2026-09-02 11:37:55 | 54.14529 | 13.98437 | 92° | 47km/h | 16125m | 5.2m/s | -50.3°C | 0.5% | 105.5hPa | 2.6V | 18:12:15 | 01:10:40 | 00:00:00 | |
| DL1XH-15 | 2026-09-02 11:37:55 | 54.14532 | 13.98362 | 94° | 40km/h | 16107m | 4.1m/s | -50.4°C | 3.5% | 105.8hPa | 2.6V | 08:30:00 | 01:10:36 | 00:00:00 | |
| DB0DAN | 2026-09-02 11:37:55 | 54.14529 | 13.98437 | 92° | 46km/h | 16125m | 5.2m/s | -50.3°C | 1.2% | 105.5hPa | 2.6V | 00:00:00 | 00:00:00 | 00:00:00 | |
| S3001 | 2026-09-02 11:37:50 | 54.14533 | 13.98345 | 91° | 38km/h | 16102m | 5.5m/s | -50.4°C | 1.2% | 105.9hPa | 2.8V | 00:00:00 | 00:00:00 | 00:00:00 | |
| SP3WXH-11 | 2026-09-02 11:37:45 | 54.14529 | 13.98259 | 85° | 42km/h | 16079m | 4.8m/s | -50.2°C | 1.1% | 106.2hPa | 2.8V | 00:00:00 | 00:00:00 | 00:00:00 | |
| AA1-15 | 2026-09-02 11:37:44 | 54.14528 | 13.98221 | 87° | 46km/h | 16070m | 4.5m/s | -50.2°C | 0.5% | 106.4hPa | 2.8V | 18:12:15 | 01:10:28 | 00:00:00 | |
| DL1XH-15 | 2026-09-02 11:37:43 | 54.14528 | 13.98180 | 92° | 47km/h | 16060m | 3.6m/s | -50.1°C | 3.4% | 106.6hPa | 2.7V | 08:30:00 | 01:10:26 | 00:00:00 | |
| AA1-15 | 2026-09-02 11:37:33 | 54.14532 | 13.98012 | 95° | 40km/h | 16021m | 4.5m/s | -50.3°C | 0.5% | 107.2hPa | 2.6V | 18:12:15 | 01:10:17 | 00:00:00 | |
| DL1XH-15 | 2026-09-02 11:37:32 | 54.14533 | 13.97995 | 96° | 40km/h | 16016m | 5.2m/s | -50.2°C | 3.5% | 107.3hPa | 2.8V | 08:30:00 | 01:10:16 | 00:00:00 | |
| DJ2DS-15 | 2026-09-02 11:37:31 | 54.14533 | 13.97995 | 96° | 38km/h | 16016m | 5.2m/s | -50.2°C | 1.2% | 107.3hPa | 2.6V | 00:00:00 | 00:00:00 | 00:00:00 | |
| DL1XH-15 | 2026-09-02 11:37:25 | 54.14538 | 13.97825 | 90° | 38km/h | 15971m | 3.7m/s | -50.1°C | 3.5% | 108hPa | 2.6V | 08:30:00 | 01:10:06 | 00:00:00 | |
| AA1-15 | 2026-09-02 11:37:22 | 54.14538 | 13.97842 | 89° | 38km/h | 15975m | 4m/s | -50.2°C | 0.5% | 108hPa | 2.6V | 18:12:15 | 01:10:07 | 00:00:00 | |
| S3001 | 2026-09-02 11:37:19 | 54.14540 | 13.97791 | 100° | 38km/h | 15962m | 4.2m/s | -50.1°C | 1.2% | 108.2hPa | 2.8V | 00:00:00 | 00:00:00 | 00:00:00 | |
| MECKS9 | 2026-09-02 11:37:17 | 54.14542 | 13.97775 | 105° | 38km/h | 15959m | 3.3m/s | -50.2°C | 1.2% | 108.2hPa | 2.8V | 00:00:00 | 00:00:00 | 00:00:00 | |
| DJ2DS-15 | 2026-09-02 11:37:14 | 54.14549 | 13.97712 | 99° | 46km/h | 15943m | 4.3m/s | -50.1°C | 3.5% | 108.4hPa | 2.8V | 00:00:00 | 01:09:59 | 00:00:00 | |
| DL1XH-15 | 2026-09-02 11:37:12 | 54.14553 | 13.97659 | 95° | 42km/h | 15929m | 5m/s | -49.9°C | 3.5% | 108.7hPa | 2.8V | 08:30:00 | 01:09:56 | 00:00:00 | |
| AA1-15 | 2026-09-02 11:37:11 | 54.14554 | 13.97641 | 93° | 42km/h | 15925m | 4.6m/s | -50°C | 0.5% | 108.8hPa | 2.7V | 18:12:15 | 01:09:55 | 00:00:00 | |
| MECKS9 | 2026-09-02 11:37:07 | 54.14556 | 13.97604 | 95° | 46km/h | 15916m | 5.0m/s | -49.9°C | 1.2% | 108.9hPa | 2.6V | 00:00:00 | 00:00:00 | 00:00:00 | |
| DL1XH-15 | 2026-09-02 11:37:05 | 54.14563 | 13.97457 | 99° | 51km/h | 15885m | 3.8m/s | -49.7°C | 3.4% | 109.5hPa | 2.6V | 08:30:00 | 01:09:46 | 00:00:00 | |
| AA1-15 | 2026-09-02 11:36:59 | 54.14568 | 13.97415 | 100° | 47km/h | 15875m | 4.2m/s | -49.7°C | 0.4% | 109.6hPa | 2.7V | 18:12:15 | 01:09:44 | 00:00:00 | |
| DJ2DS-15 | 2026-09-02 11:36:55 | 54.14577 | 13.97336 | 98° | 46km/h | 15858m | 5.3m/s | -49.7°C | 1.2% | 109.9hPa | 2.7V | 00:00:00 | 00:00:00 | 00:00:00 | |
| DJ2DS-15 | 2026-09-02 11:36:54 | 54.14578 | 13.97316 | 95° | 55km/h | 15853m | 4.4m/s | -49.6°C | 3.4% | 109.9hPa | 2.7V | 00:00:00 | 01:09:39 | 08:30:00 | |
| DL1XH-15 | 2026-09-02 11:36:53 | 54.14581 | 13.97227 | 92° | 55km/h | 15835m | 4.9m/s | -49.5°C | 3.4% | 110.3hPa | 2.6V | 08:30:00 | 01:09:35 | 00:00:00 | |
| AA1-15 | 2026-09-02 11:36:49 | 54.14583 | 13.97179 | 93° | 57km/h | 15826m | 3.6m/s | -49.5°C | 0.4% | 110.5hPa | 2.7V | 18:12:15 | 01:09:33 | 00:00:00 | |
| S3001 | 2026-09-02 11:36:48 | 54.14584 | 13.97154 | 95° | 57km/h | 15822m | 5.5m/s | -49.5°C | 1.2% | 110.5hPa | 2.7V | 00:00:00 | 00:00:00 | 00:00:00 | |
| DL1XH-15 | 2026-09-02 11:36:45 | 54.14597 | 13.96993 | 95° | 53km/h | 15790m | 3.1m/s | -49.5°C | 3.4% | 111hPa | 2.7V | 08:30:00 | 01:09:25 | 00:00:00 | |
| AA1-15 | 2026-09-02 11:36:38 | 54.14597 | 13.96925 | 86° | 55km/h | 15778m | 4.2m/s | -49.5°C | 0.4% | 111.3hPa | 2.6V | 18:12:15 | 01:09:22 | 00:00:00 | |
| MECKS9 | 2026-09-02 11:36:35 | 54.14596 | 13.96901 | 88° | 57km/h | 15774m | 4.7m/s | -49.5°C | 1.1% | 111.4hPa | 2.7V | 00:00:00 | 00:00:00 | 00:00:00 | |
| DJ2DS-15 | 2026-09-02 11:36:34 | 54.14595 | 13.96853 | 89° | 57km/h | 15765m | 4.0m/s | -49.3°C | 3.3% | 111.4hPa | 2.7V | 00:00:00 | 01:09:19 | 00:00:00 | |
| DK1YY | 2026-09-02 11:36:33 | 54.14595 | 13.96806 | 88° | 53km/h | 15757m | 3.7m/s | -49.2°C | 1.1% | 111.6hPa | 2.7V | 00:00:00 | 00:00:00 | 00:00:00 | |
| DL1XH-15 | 2026-09-02 11:36:32 | 54.14595 | 13.96759 | 92° | 57km/h | 15747m | 4.8m/s | -49.2°C | 3.3% | 111.8hPa | 2.7V | 08:30:00 | 01:09:15 | 00:00:00 | |
| AA1-15 | 2026-09-02 11:36:28 | 54.14596 | 13.96709 | 92° | 58km/h | 15739m | 4.9m/s | -49.2°C | 0.4% | 111.9hPa | 2.8V | 18:12:15 | 01:09:13 | 00:00:00 | |
| DG6HD-11 | 2026-09-02 11:36:28 | 54.14596 | 13.96709 | 93° | 55km/h | 15739m | 4.9m/s | -49.2°C | 3.3% | 111.9hPa | 2.6V | 00:00:00 | 00:00:00 | 00:00:00 | |
| DL1XH-15 | 2026-09-02 11:36:26 | 54.14597 | 13.96512 | 86° | 57km/h | 15702m | 5.3m/s | -49.2°C | 3.3% | 112.6hPa | 2.6V | 08:30:00 | 01:09:05 | 00:00:00 | |
| AA1-15 | 2026-09-02 11:36:17 | 54.14593 | 13.96440 | 84° | 55km/h | 15689m | 4.9m/s | -49.2°C | 0.4% | 112.8hPa | 2.7V | 18:12:15 | 01:09:02 | 00:00:00 | |
| S3001 | 2026-09-02 11:36:17 | 54.14592 | 13.96416 | 85° | 55km/h | 15685m | 4.1m/s | -49.3°C | 1.1% | 112.8hPa | 2.6V | 00:00:00 | 00:00:00 | 00:00:00 | |
| DJ2DS-15 | 2026-09-02 11:36:14 | 54.14591 | 13.96368 | 91° | 51km/h | 15676m | 3.4m/s | -49.4°C | 3.3% | 112.9hPa | 2.6V | 00:00:00 | 01:08:59 | 00:00:00 | |
| DL1XH-15 | 2026-09-02 11:36:12 | 54.14590 | 13.96273 | 86° | 53km/h | 15659m | 3.7m/s | -49.5°C | 3.2% | 113.3hPa | 2.6V | 08:30:00 | 01:08:55 | 00:00:00 | |
| AA1-15 | 2026-09-02 11:36:06 | 54.14587 | 13.96183 | 87° | 51km/h | 15643m | 4.2m/s | -49.7°C | 0.3% | 113.6hPa | 2.7V | 18:12:15 | 01:08:51 | 00:00:00 | |
| DL1XH-15 | 2026-09-02 11:36:05 | 54.14578 | 13.96052 | 83° | 49km/h | 15617m | 5m/s | -49.6°C | 3.4% | 114hPa | 2.7V | 08:30:00 | 01:08:45 | 00:00:00 | |
| AA1-15 | 2026-09-02 11:35:55 | 54.14578 | 13.95949 | 94° | 47km/h | 15596m | 4.3m/s | -49.7°C | 0.4% | 114.4hPa | 2.8V | 18:12:15 | 01:08:40 | 00:00:00 | |
| AA1-15 | 2026-09-02 11:35:45 | 54.14557 | 13.95745 | 80° | 46km/h | 15551m | 4.2m/s | -49.9°C | 0.4% | 115.2hPa | 2.6V | 18:12:15 | 01:08:30 | 00:00:00 | |
| AA1-15 | 2026-09-02 11:35:34 | 54.14531 | 13.95544 | 69° | 46km/h | 15503m | 3.6m/s | -49.9°C | 0.3% | 116hPa | 2.6V | 18:12:15 | 01:08:19 | 00:00:00 | |
| DJ2DS-15 | 2026-09-02 11:35:34 | 54.14531 | 13.95544 | 69° | 44km/h | 15503m | 3.5m/s | -49.8°C | 3.3% | 116.0hPa | 2.7V | 00:00:00 | 01:08:19 | 00:00:00 | |
| DL1XH-15 | 2026-09-02 11:35:32 | 54.14516 | 13.95475 | 73° | 42km/h | 15485m | 5.5m/s | -49.8°C | 3.4% | 116.3hPa | 2.7V | 08:30:00 | 01:08:15 | 00:00:00 | |
| DK1YY | 2026-09-02 11:35:30 | 54.14516 | 13.95475 | 73° | 42km/h | 15485m | 5.5m/s | -49.8°C | 1.2% | 116.4hPa | 2.6V | 00:00:00 | 00:00:00 | 00:00:00 | |
| DG6HD-11 | 2026-09-02 11:35:28 | 54.14511 | 13.95439 | 83° | 46km/h | 15476m | 4.3m/s | -49.6°C | 3.4% | 116.4hPa | 2.6V | 00:00:00 | 00:00:00 | 08:30:00 | |
| DL1XH-15 | 2026-09-02 11:35:25 | 54.14497 | 13.95288 | 78° | 44km/h | 15440m | 4.4m/s | -49.8°C | 3.2% | 117.1hPa | 2.6V | 08:30:00 | 01:08:05 | 00:00:00 | |
| AA1-15 | 2026-09-02 11:35:24 | 54.14506 | 13.95362 | 79° | 47km/h | 15458m | 3.6m/s | -49.7°C | 0.3% | 116.8hPa | 2.6V | 18:12:15 | 01:08:09 | 00:00:00 | |
| AA1-15 | 2026-09-02 11:35:13 | 54.14488 | 13.95106 | 90° | 47km/h | 15398m | 4.6m/s | -49.9°C | 0.3% | 117.9hPa | 2.8V | 18:12:15 | 01:07:56 | 00:00:00 | |
| DL1XH-15 | 2026-09-02 11:35:13 | 54.14487 | 13.95086 | 90° | 46km/h | 15394m | 3.6m/s | -49.8°C | 3.3% | 118hPa | 2.7V | 08:30:00 | 01:07:55 | 00:00:00 | |
| AA1-15 | 2026-09-02 11:35:03 | 54.14490 | 13.94948 | 94° | 46km/h | 15363m | 4.7m/s | -50.1°C | 0.5% | 118.6hPa | 2.6V | 18:12:15 | 01:07:48 | 00:00:00 | |
| DL1XH-15 | 2026-09-02 11:35:02 | 54.14493 | 13.94891 | 95° | 44km/h | 15351m | 3.6m/s | -50.1°C | 3.4% | 118.8hPa | 2.7V | 08:30:00 | 01:07:45 | 00:00:00 | |
| AA1-15 | 2026-09-02 11:34:52 | 54.14504 | 13.94711 | 95° | 46km/h | 15312m | 4.5m/s | -50°C | 0.3% | 119.5hPa | 2.8V | 18:12:15 | 01:07:36 | 00:00:00 | |
| DL1XH-15 | 2026-09-02 11:34:51 | 54.14505 | 13.94691 | 94° | 46km/h | 15308m | 3.5m/s | -50°C | 3.4% | 119.6hPa | 2.6V | 08:30:00 | 01:07:35 | 00:00:00 | |
| S3001 | 2026-09-02 11:34:44 | 54.14512 | 13.94551 | 95° | 46km/h | 15279m | 4.8m/s | -50.0°C | 1.2% | 120.1hPa | 2.8V | 00:00:00 | 00:00:00 | 00:00:00 | |
| DL1XH-15 | 2026-09-02 11:34:41 | 54.14515 | 13.94491 | 94° | 46km/h | 15266m | 4.6m/s | -50°C | 3.4% | 120.3hPa | 2.8V | 08:30:00 | 01:07:25 | 00:00:00 | |
| DG6HD-15 | 2026-09-02 11:34:40 | 54.14514 | 13.94510 | 96° | 47km/h | 15271m | 4.3m/s | -50.0°C | 1.2% | 120.3hPa | 2.7V | 00:00:00 | 00:00:00 | 00:00:00 | |
| AA1-15 | 2026-09-02 11:34:40 | 54.14515 | 13.94491 | 95° | 46km/h | 15266m | 4.6m/s | -50°C | 0.4% | 120.3hPa | 2.8V | 18:12:15 | 01:07:25 | 00:00:00 | |
| SP3WXH-11 | 2026-09-02 11:34:39 | 54.14517 | 13.94452 | 92° | 46km/h | 15258m | 5.1m/s | -49.9°C | 1.2% | 120.5hPa | 2.7V | 00:00:00 | 00:00:00 | 00:00:00 | |
| AM1SDL-15 | 2026-09-02 11:34:36 | 54.14518 | 13.94411 | 93° | 49km/h | 15249m | 4.4m/s | -49.9°C | 3.4% | 120.6hPa | 2.7V | 00:00:00 | 01:07:21 | 00:00:00 | |
| DJ2DS-15 | 2026-09-02 11:34:34 | 54.14520 | 13.94370 | 98° | 49km/h | 15239m | 4.0m/s | -49.8°C | 3.4% | 120.7hPa | 2.7V | 00:00:00 | 01:07:19 | 00:00:00 | |
| DL1XH-15 | 2026-09-02 11:34:31 | 54.14529 | 13.94282 | 103° | 53km/h | 15222m | 5.3m/s | -49.9°C | 3.4% | 121.1hPa | 2.7V | 08:30:00 | 01:07:15 | 00:00:00 | |
| AA1-15 | 2026-09-02 11:34:30 | 54.14532 | 13.94260 | 105° | 53km/h | 15217m | 4.2m/s | -49.9°C | 0.4% | 121.2hPa | 2.6V | 18:12:15 | 01:07:14 | 00:00:00 | |
| DL1XH-15 | 2026-09-02 11:34:25 | 54.14548 | 13.94071 | 89° | 47km/h | 15178m | 4.2m/s | -49.6°C | 3.3% | 121.9hPa | 2.8V | 08:30:00 | 01:07:05 | 00:00:00 | |
| AA1-15 | 2026-09-02 11:34:19 | 54.14549 | 13.94031 | 94° | 47km/h | 15168m | 4.3m/s | -49.6°C | 0.3% | 122.1hPa | 2.8V | 18:12:15 | 01:07:03 | 00:00:00 | |
| DJ2DS-15 | 2026-09-02 11:34:14 | 54.14555 | 13.93946 | 101° | 51km/h | 15151m | 5.5m/s | -49.5°C | 3.4% | 122.4hPa | 2.7V | 00:00:00 | 01:06:59 | 00:00:00 | |
| DL1XH-15 | 2026-09-02 11:34:13 | 54.14565 | 13.93858 | 95° | 55km/h | 15132m | 3.4m/s | -49.6°C | 3.4% | 122.8hPa | 2.7V | 08:30:00 | 01:06:55 | 00:00:00 | |
| AA1-15 | 2026-09-02 11:34:08 | 54.14566 | 13.93791 | 90° | 51km/h | 15119m | 4.3m/s | -49.5°C | 0.4% | 123.1hPa | 2.7V | 18:12:15 | 01:06:52 | 00:00:00 | |
| SP3WXH-11 | 2026-09-02 11:34:08 | 54.14566 | 13.93791 | 89° | 49km/h | 15119m | 4.3m/s | -49.5°C | 1.2% | 123.1hPa | 2.7V | 00:00:00 | 00:00:00 | 00:00:00 | |
| DL1XH-15 | 2026-09-02 11:34:05 | 54.14570 | 13.93636 | 102° | 55km/h | 15086m | 4.2m/s | -49.4°C | 3.3% | 123.7hPa | 2.7V | 08:30:00 | 01:06:45 | 00:00:00 | |
| AA1-15 | 2026-09-02 11:33:58 | 54.14583 | 13.93550 | 102° | 47km/h | 15069m | 4m/s | -49.3°C | 0.3% | 124hPa | 2.6V | 18:12:15 | 01:06:41 | 00:00:00 | |
| AA1-15 | 2026-09-02 11:33:46 | 54.14592 | 13.93340 | 102° | 42km/h | 15022m | 4.8m/s | -49.2°C | 0.3% | 124.9hPa | 2.7V | 18:12:15 | 01:06:30 | 00:00:00 | |
| AA1-15 | 2026-09-02 11:33:34 | 54.14602 | 13.93131 | 91° | 46km/h | 14975m | 5m/s | -49°C | 0.2% | 125.8hPa | 2.7V | 18:12:15 | 01:06:19 | 00:00:00 | |
| DJ2DS-15 | 2026-09-02 11:33:34 | 54.14602 | 13.93131 | 91° | 44km/h | 14975m | 4.9m/s | -48.9°C | 3.2% | 125.7hPa | 2.7V | 00:00:00 | 01:06:19 | 00:00:00 | |
| MECKS9 | 2026-09-02 11:33:30 | 54.14606 | 13.93075 | 103° | 44km/h | 14962m | 5.2m/s | -48.9°C | 1.1% | 126.0hPa | 2.7V | 00:00:00 | 00:00:00 | 00:00:00 | |
| DG6HD-11 | 2026-09-02 11:33:28 | 54.14614 | 13.93018 | 103° | 44km/h | 14949m | 5.1m/s | -48.7°C | 3.3% | 126.3hPa | 2.7V | 00:00:00 | 00:00:00 | 00:00:00 | |
| DK1YY | 2026-09-02 11:33:26 | 54.14618 | 13.92982 | 97° | 42km/h | 14940m | 4.5m/s | -48.7°C | 1.1% | 126.4hPa | 2.7V | 00:00:00 | 00:00:00 | 00:00:00 | |
| DL1XH-15 | 2026-09-02 11:33:25 | 54.14622 | 13.92856 | 96° | 46km/h | 14908m | 3.5m/s | -48.9°C | 3.2% | 127.1hPa | 2.7V | 08:30:00 | 01:06:04 | 00:00:00 | |
| AA1-15 | 2026-09-02 11:33:24 | 54.14620 | 13.92945 | 94° | 42km/h | 14931m | 4.1m/s | -48.7°C | 0.2% | 126.6hPa | 2.7V | 18:12:15 | 01:06:09 | 00:00:00 | |
| AA1-15 | 2026-09-02 11:33:14 | 54.14632 | 13.92758 | 100° | 49km/h | 14885m | 3.1m/s | -48.8°C | 0.4% | 127.6hPa | 2.7V | 18:12:15 | 01:05:59 | 00:00:00 | |
| DJ2DS-15 | 2026-09-02 11:33:14 | 54.14632 | 13.92758 | 101° | 46km/h | 14885m | 3.1m/s | -48.8°C | 3.3% | 127.5hPa | 2.8V | 00:00:00 | 01:05:59 | 00:00:00 | |
| DL1XH-15 | 2026-09-02 11:33:12 | 54.14637 | 13.92681 | 92° | 42km/h | 14866m | 5.4m/s | -49°C | 3.3% | 127.9hPa | 2.8V | 08:30:00 | 01:05:55 | 00:00:00 | |
| S3001 | 2026-09-02 11:33:11 | 54.14637 | 13.92681 | 92° | 42km/h | 14866m | 5.4m/s | -49.0°C | 1.2% | 127.9hPa | 2.8V | 00:00:00 | 00:00:00 | 00:00:00 | |
| AM1SDL-15 | 2026-09-02 11:33:10 | 54.14637 | 13.92681 | 93° | 44km/h | 14866m | 5.3m/s | -49.0°C | 3.3% | 127.9hPa | 2.8V | 00:00:00 | 01:05:55 | 00:00:00 | |
| DL1XH-15 | 2026-09-02 11:33:06 | 54.14643 | 13.92508 | 96° | 49km/h | 14814m | 4.1m/s | -49°C | 3.3% | 128.9hPa | 2.8V | 08:30:00 | 01:05:45 | 00:00:00 | |
| AA1-15 | 2026-09-02 11:33:03 | 54.14640 | 13.92567 | 93° | 42km/h | 14830m | 4.9m/s | -49°C | 0.3% | 128.5hPa | 2.7V | 18:12:15 | 01:05:48 | 00:00:00 | |
| AA1-15 | 2026-09-02 11:32:52 | 54.14646 | 13.92325 | 90° | 55km/h | 14776m | 4m/s | -48.9°C | 0.3% | 129.7hPa | 2.7V | 18:12:15 | 01:05:37 | 00:00:00 | |
| DL1XH-15 | 2026-09-02 11:32:52 | 54.14647 | 13.92278 | 91° | 55km/h | 14767m | 3.8m/s | -48.9°C | 3.3% | 129.8hPa | 2.8V | 08:30:00 | 01:05:35 | 00:00:00 | |
| MECKS9 | 2026-09-02 11:32:49 | 54.14647 | 13.92278 | 93° | 55km/h | 14768m | 3.8m/s | -48.9°C | 1.2% | 129.8hPa | 2.8V | 00:00:00 | 00:00:00 | 00:00:00 | |
| DL1XH-15 | 2026-09-02 11:32:45 | 54.14643 | 13.92054 | 85° | 49km/h | 14725m | 4.4m/s | -48.8°C | 3.3% | 130.7hPa | 2.8V | 08:30:00 | 01:05:25 | 00:00:00 | |
| AA1-15 | 2026-09-02 11:32:42 | 54.14645 | 13.92099 | 87° | 55km/h | 14735m | 4.6m/s | -48.9°C | 0.3% | 130.4hPa | 2.7V | 18:12:15 | 01:05:27 | 00:00:00 | |
| S3001 | 2026-09-02 11:32:39 | 54.14643 | 13.92033 | 88° | 47km/h | 14722m | 4.0m/s | -48.8°C | 1.2% | 130.7hPa | 2.7V | 00:00:00 | 00:00:00 | 00:00:00 | |
| SP3WXH-11 | 2026-09-02 11:32:35 | 54.14645 | 13.91924 | 91° | 47km/h | 14699m | 3.9m/s | -48.6°C | 1.2% | 131.2hPa | 2.7V | 00:00:00 | 00:00:00 | 00:00:00 | |
| DJ2DS-15 | 2026-09-02 11:32:34 | 54.14645 | 13.91924 | 92° | 49km/h | 14699m | 3.9m/s | -48.5°C | 3.2% | 131.2hPa | 2.7V | 00:00:00 | 01:05:19 | 00:00:00 | |
| DL1XH-15 | 2026-09-02 11:32:32 | 54.14647 | 13.91839 | 91° | 49km/h | 14681m | 4.2m/s | -48.5°C | 3.2% | 131.5hPa | 2.7V | 08:30:00 | 01:05:15 | 00:00:00 | |
| AA1-15 | 2026-09-02 11:32:32 | 54.14647 | 13.91839 | 92° | 49km/h | 14681m | 4.2m/s | -48.5°C | 0.2% | 131.5hPa | 2.7V | 18:12:15 | 01:05:15 | 00:00:00 | |
| DG6HD-11 | 2026-09-02 11:32:28 | 54.14647 | 13.91797 | 89° | 49km/h | 14672m | 3.6m/s | -48.4°C | 3.2% | 131.6hPa | 2.7V | 00:00:00 | 00:00:00 | 00:00:00 | |
| DL1XH-15 | 2026-09-02 11:32:25 | 54.14654 | 13.91602 | 95° | 47km/h | 14634m | 5m/s | -48.4°C | 3.2% | 132.5hPa | 2.8V | 08:30:00 | 01:05:04 | 00:00:00 | |
| AA1-15 | 2026-09-02 11:32:21 | 54.14652 | 13.91643 | 93° | 49km/h | 14643m | 3.8m/s | -48.4°C | 0.3% | 132.3hPa | 2.7V | 18:12:15 | 01:05:06 | 00:00:00 | |
| AM1SDL-15 | 2026-09-02 11:32:20 | 54.14653 | 13.91623 | 93° | 47km/h | 14639m | 4.2m/s | -48.4°C | 3.2% | 132.3hPa | 2.7V | 00:00:00 | 01:05:05 | 00:00:00 | |
| MECKS9 | 2026-09-02 11:32:19 | 54.14653 | 13.91623 | 94° | 47km/h | 14639m | 4.2m/s | -48.4°C | 1.1% | 132.4hPa | 2.7V | 00:00:00 | 00:00:00 | 00:00:00 | |
| DG6HD-15 | 2026-09-02 11:32:15 | 54.14657 | 13.91527 | 93° | 42km/h | 14616m | 4.0m/s | -48.8°C | 1.2% | 132.8hPa | 2.7V | 00:00:00 | 00:00:00 | 00:00:00 | |
| DJ2DS-15 | 2026-09-02 11:32:14 | 54.14657 | 13.91509 | 93° | 51km/h | 14612m | 4.6m/s | -48.7°C | 3.3% | 132.9hPa | 2.7V | 00:00:00 | 01:04:59 | 00:00:00 | |
| DL1XH-15 | 2026-09-02 11:32:11 | 54.14659 | 13.91426 | 92° | 51km/h | 14594m | 4.5m/s | -48.7°C | 3.2% | 133.3hPa | 2.7V | 08:30:00 | 01:04:55 | 00:00:00 | |
| AA1-15 | 2026-09-02 11:32:11 | 54.14659 | 13.91426 | 92° | 51km/h | 14594m | 4.5m/s | -48.7°C | 0.3% | 133.3hPa | 2.7V | 18:12:15 | 01:04:55 | 00:00:00 | |
| S3001 | 2026-09-02 11:32:09 | 54.14661 | 13.91380 | 96° | 53km/h | 14585m | 3.8m/s | -48.6°C | 1.2% | 133.5hPa | 2.7V | 00:00:00 | 00:00:00 | 00:00:00 | |
| DL1XH-15 | 2026-09-02 11:32:05 | 54.14665 | 13.91210 | 87° | 49km/h | 14550m | 5.2m/s | -48.6°C | 3.2% | 134.2hPa | 2.7V | 08:30:00 | 01:04:45 | 00:00:00 | |
| AA1-15 | 2026-09-02 11:31:59 | 54.14664 | 13.91188 | 86° | 51km/h | 14545m | 4.2m/s | -48.7°C | 0.3% | 134.3hPa | 2.8V | 18:12:15 | 01:04:44 | 00:00:00 | |
| DK1YY | 2026-09-02 11:31:53 | 54.14659 | 13.91039 | 86° | 55km/h | 14519m | 3.9m/s | -48.8°C | 1.2% | 134.8hPa | 2.7V | 00:00:00 | 00:00:00 | 00:00:00 | |
| DL1XH-15 | 2026-09-02 11:31:52 | 54.14657 | 13.90974 | 84° | 47km/h | 14507m | 4.3m/s | -48.7°C | 3.3% | 135.1hPa | 2.7V | 08:30:00 | 01:04:35 | 00:00:00 | |
| AA1-15 | 2026-09-02 11:31:49 | 54.14653 | 13.90933 | 79° | 49km/h | 14498m | 4.5m/s | -48.7°C | 0.3% | 135.2hPa | 2.7V | 18:12:15 | 01:04:33 | 00:00:00 | |
| DL1XH-15 | 2026-09-02 11:31:46 | 54.14631 | 13.90727 | 78° | 55km/h | 14458m | 5.1m/s | -48.5°C | 3.2% | 136.1hPa | 2.7V | 08:30:00 | 01:04:24 | 00:00:00 | |
| AA1-15 | 2026-09-02 11:31:37 | 54.14627 | 13.90681 | 83° | 53km/h | 14449m | 4.2m/s | -48.5°C | 0.3% | 136.2hPa | 2.8V | 18:12:15 | 01:04:22 | 00:00:00 | |
| AA1-15 | 2026-09-02 11:31:27 | 54.14618 | 13.90447 | 77° | 49km/h | 14405m | 3.4m/s | -48.4°C | 0.3% | 137.2hPa | 2.7V | 18:12:15 | 01:04:12 | 00:00:00 | |
| DL1XH-15 | 2026-09-02 11:31:26 | 54.14610 | 13.90309 | 91° | 51km/h | 14376m | 5m/s | -48.9°C | 3.3% | 137.8hPa | 2.8V | 08:30:00 | 01:04:05 | 00:00:00 | |
| AA1-15 | 2026-09-02 11:31:14 | 54.14612 | 13.90167 | 90° | 58km/h | 14351m | 4.8m/s | -48.9°C | 0.4% | 138.3hPa | 2.8V | 18:12:15 | 01:03:59 | 00:00:00 | |
| DJ2DS-15 | 2026-09-02 11:31:14 | 54.14612 | 13.90167 | 90° | 49km/h | 14351m | 4.8m/s | -48.9°C | 3.3% | 138.2hPa | 2.7V | 00:00:00 | 01:03:59 | 00:00:00 | |
| DL1XH-15 | 2026-09-02 11:31:12 | 54.14610 | 13.90072 | 85° | 51km/h | 14334m | 4.2m/s | -49°C | 3.4% | 138.7hPa | 2.7V | 08:30:00 | 01:03:55 | 00:00:00 | |
| DL1XH-15 | 2026-09-02 11:31:05 | 54.14604 | 13.89870 | 87° | 47km/h | 14290m | 5.1m/s | -49.1°C | 3.3% | 139.6hPa | 2.8V | 08:30:00 | 01:03:45 | 00:00:00 | |
| AA1-15 | 2026-09-02 11:31:03 | 54.14605 | 13.89929 | 87° | 44km/h | 14303m | 5.3m/s | -49.1°C | 0.5% | 139.3hPa | 2.8V | 18:12:15 | 01:03:48 | 00:00:00 | |
| AA1-15 | 2026-09-02 11:30:52 | 54.14594 | 13.89712 | 81° | 40km/h | 14253m | 4m/s | -49°C | 0.4% | 140.4hPa | 2.8V | 18:12:15 | 01:03:37 | 00:00:00 | |
| DL1XH-15 | 2026-09-02 11:30:52 | 54.14591 | 13.89679 | 79° | 40km/h | 14244m | 4.5m/s | -49°C | 3.3% | 140.5hPa | 2.7V | 08:30:00 | 01:03:35 | 00:00:00 | |
| DK1YY | 2026-09-02 11:30:51 | 54.14593 | 13.89695 | 80° | 38km/h | 14248m | 4.3m/s | -48.9°C | 1.2% | 140.5hPa | 2.7V | 00:00:00 | 00:00:00 | 00:00:00 | |
| DL1XH-15 | 2026-09-02 11:30:46 | 54.14586 | 13.89504 | 85° | 42km/h | 14199m | 4.8m/s | -49.1°C | 3.4% | 141.5hPa | 2.7V | 08:30:00 | 01:03:25 | 00:00:00 | |
| AA1-15 | 2026-09-02 11:30:41 | 54.14586 | 13.89522 | 88° | 42km/h | 14204m | 4.6m/s | -49.1°C | 0.5% | 141.4hPa | 2.8V | 18:12:15 | 01:03:26 | 00:00:00 | |
| MECKS9 | 2026-09-02 11:30:39 | 54.14586 | 13.89504 | 87° | 42km/h | 14199m | 4.8m/s | -49.1°C | 1.3% | 141.5hPa | 2.8V | 00:00:00 | 00:00:00 | 00:00:00 | |
| DL1XH-15 | 2026-09-02 11:30:35 | 54.14584 | 13.89324 | 89° | 42km/h | 14151m | 3.9m/s | -49.5°C | 3.5% | 142.6hPa | 2.8V | 08:30:00 | 01:03:14 | 00:00:00 | |
| AA1-15 | 2026-09-02 11:30:28 | 54.14584 | 13.89307 | 90° | 42km/h | 14146m | 5m/s | -49.4°C | 0.6% | 142.7hPa | 2.7V | 18:12:15 | 01:03:13 | 00:00:00 | |
| DG6HD-11 | 2026-09-02 11:30:28 | 54.14584 | 13.89306 | 90° | 53km/h | 14146m | 4.9m/s | -49.4°C | 3.5% | 142.6hPa | 2.8V | 00:00:00 | 00:00:00 | 00:00:00 | |
| DL1XH-15 | 2026-09-02 11:30:24 | 54.14592 | 13.89150 | 97° | 40km/h | 14106m | 3.9m/s | -49.2°C | 3.4% | 143.6hPa | 2.8V | 08:30:00 | 01:03:04 | 00:00:00 | |
| AA1-15 | 2026-09-02 11:30:18 | 54.14596 | 13.89097 | 95° | 44km/h | 14094m | 5.3m/s | -49.2°C | 0.6% | 143.8hPa | 2.7V | 18:12:15 | 01:03:01 | 00:00:00 | |
| AM1SDL-15 | 2026-09-02 11:30:17 | 54.14595 | 13.89116 | 97° | 46km/h | 14098m | 3.5m/s | -49.1°C | 3.4% | 143.7hPa | 2.7V | 00:00:00 | 01:03:02 | 00:00:00 | |
| DL1XH-15 | 2026-09-02 11:30:14 | 54.14600 | 13.88959 | 95° | 47km/h | 14062m | 4.3m/s | -49.4°C | 3.5% | 144.5hPa | 2.8V | 08:30:00 | 01:02:54 | 00:00:00 | |
| AA1-15 | 2026-09-02 11:30:05 | 54.14607 | 13.88881 | 102° | 49km/h | 14044m | 4.3m/s | -49.5°C | 0.6% | 144.9hPa | 2.8V | 18:12:15 | 01:02:50 | 00:00:00 | |
| AA1-15 | 2026-09-02 11:29:55 | 54.14628 | 13.88659 | 100° | 42km/h | 13995m | 4.6m/s | -49.6°C | 0.7% | 146.1hPa | 2.8V | 18:12:15 | 01:02:39 | 00:00:00 | |
| DL1XH-15 | 2026-09-02 11:29:54 | 54.14635 | 13.88566 | 95° | 44km/h | 13975m | 4.2m/s | -49.6°C | 3.6% | 146.5hPa | 2.8V | 08:30:00 | 01:02:34 | 00:00:00 | |
| AA1-15 | 2026-09-02 11:29:43 | 54.14640 | 13.88447 | 91° | 46km/h | 13950m | 3.6m/s | -49.8°C | 0.8% | 147.1hPa | 2.8V | 18:12:15 | 01:02:28 | 00:00:00 | |
| DL1XH-15 | 2026-09-02 11:29:43 | 54.14639 | 13.88366 | 88° | 47km/h | 13933m | 5.1m/s | -49.7°C | 3.6% | 147.4hPa | 2.8V | 08:30:00 | 01:02:24 | 00:00:00 | |
| AM1SDL-15 | 2026-09-02 11:29:41 | 54.14640 | 13.88407 | 90° | 49km/h | 13942m | 4.3m/s | -49.7°C | 3.6% | 147.2hPa | 2.7V | 00:00:00 | 01:02:26 | 00:00:00 | |
| DJ2DS-15 | 2026-09-02 11:29:34 | 54.14639 | 13.88263 | 96° | 49km/h | 13911m | 5.2m/s | -49.5°C | 3.6% | 147.9hPa | 2.8V | 00:00:00 | 01:02:19 | 00:00:00 | |
| DL1XH-15 | 2026-09-02 11:29:33 | 54.14650 | 13.88160 | 100° | 49km/h | 13887m | 5.1m/s | -49.5°C | 3.5% | 148.4hPa | 2.8V | 08:30:00 | 01:02:14 | 00:00:00 | |
| AA1-15 | 2026-09-02 11:29:32 | 54.14643 | 13.88223 | 100° | 49km/h | 13903m | 5.2m/s | -49.6°C | 0.7% | 148.1hPa | 2.7V | 18:12:15 | 01:02:17 | 00:00:00 | |
| DG6HD-15 | 2026-09-02 11:29:29 | 54.14648 | 13.88181 | 103° | 51km/h | 13892m | 4.6m/s | -49.5°C | 1.4% | 148.4hPa | 2.8V | 00:00:00 | 00:00:00 | 00:00:00 | |
| SP3WXH-11 | 2026-09-02 11:29:28 | 54.14652 | 13.88139 | 100° | 47km/h | 13882m | 4.1m/s | -49.4°C | 1.4% | 148.6hPa | 2.8V | 00:00:00 | 00:00:00 | 00:00:00 | |
| MECKS9 | 2026-09-02 11:29:25 | 54.14660 | 13.88077 | 104° | 53km/h | 13870m | 4.8m/s | -49.5°C | 1.4% | 148.9hPa | 2.8V | 00:00:00 | 00:00:00 | 00:00:00 | |
| DL1XH-15 | 2026-09-02 11:29:23 | 54.14679 | 13.87950 | 106° | 53km/h | 13844m | 3.9m/s | -49.4°C | 3.6% | 149.4hPa | 2.8V | 08:30:00 | 01:02:04 | 00:00:00 | |
| AA1-15 | 2026-09-02 11:29:21 | 54.14672 | 13.87993 | 106° | 49km/h | 13853m | 3.5m/s | -49.5°C | 0.7% | 149.2hPa | 2.7V | 18:12:15 | 01:02:06 | 00:00:00 | |
| AA1-15 | 2026-09-02 11:29:10 | 54.14714 | 13.87755 | 105° | 53km/h | 13808m | 3.4m/s | -49.3°C | 0.7% | 150.3hPa | 2.7V | 18:12:15 | 01:01:55 | 00:00:00 | |
| DL1XH-15 | 2026-09-02 11:29:10 | 54.14717 | 13.87733 | 104° | 55km/h | 13804m | 4.7m/s | -49.3°C | 3.5% | 150.4hPa | 2.8V | 08:30:00 | 01:01:54 | 00:00:00 | |
| DG6HD-15 | 2026-09-02 11:29:08 | 54.14717 | 13.87733 | 105° | 55km/h | 13804m | 4.7m/s | -49.3°C | 1.4% | 150.4hPa | 2.8V | 00:00:00 | 00:00:00 | 00:00:00 | |
| DJ2DS-15 | 2026-09-02 11:29:07 | 54.14727 | 13.87665 | 102° | 53km/h | 13791m | 3.8m/s | -49.2°C | 1.4% | 150.6hPa | 2.8V | 00:00:00 | 00:00:00 | 00:00:00 | |
| DL1XH-15 | 2026-09-02 11:29:04 | 54.14750 | 13.87503 | 103° | 55km/h | 13762m | 3.2m/s | -49°C | 3.5% | 151.3hPa | 2.8V | 08:30:00 | 01:01:44 | 00:00:00 | |
| AA1-15 | 2026-09-02 11:28:59 | 54.14750 | 13.87503 | 103° | 55km/h | 13762m | 3.2m/s | -49°C | 0.6% | 151.3hPa | 2.8V | 18:12:15 | 01:01:44 | 00:00:00 | |
| SP3WXH-11 | 2026-09-02 11:28:58 | 54.14756 | 13.87459 | 103° | 49km/h | 13754m | 4.2m/s | -49.0°C | 1.4% | 151.5hPa | 2.7V | 00:00:00 | 00:00:00 | 00:00:00 | |
| DJ2DS-15 | 2026-09-02 11:28:54 | 54.14765 | 13.87394 | 105° | 53km/h | 13742m | 3.3m/s | -48.9°C | 3.5% | 151.7hPa | 2.7V | 00:00:00 | 01:01:39 | 00:00:00 | |
| DL1XH-15 | 2026-09-02 11:28:52 | 54.14779 | 13.87282 | 99° | 57km/h | 13723m | 4.5m/s | -49°C | 3.5% | 152.2hPa | 2.8V | 08:30:00 | 01:01:34 | 00:00:00 | |
| AA1-15 | 2026-09-02 11:28:48 | 54.14782 | 13.87258 | 99° | 57km/h | 13719m | 3.7m/s | -49°C | 0.6% | 152.3hPa | 2.8V | 18:12:15 | 01:01:33 | 00:00:00 | |
| DK1YY | 2026-09-02 11:28:47 | 54.14785 | 13.87211 | 96° | 53km/h | 13710m | 3.7m/s | -49.1°C | 1.4% | 152.5hPa | 2.8V | 00:00:00 | 00:00:00 | 00:00:00 | |
| DL1XH-15 | 2026-09-02 11:28:40 | 54.14798 | 13.87056 | 94° | 53km/h | 13682m | 4.4m/s | -49°C | 3.4% | 153.2hPa | 2.8V | 08:30:00 | 01:01:24 | 00:00:00 | |
| DB0DAN | 2026-09-02 11:28:40 | 54.14796 | 13.87078 | 96° | 47km/h | 13686m | 3.3m/s | -49.1°C | 1.4% | 153.02hPa | 2.7V | 00:00:00 | 00:00:00 | 00:00:00 | |
| AA1-15 | 2026-09-02 11:28:37 | 54.14799 | 13.87009 | 92° | 57km/h | 13675m | 3.5m/s | -49°C | 0.5% | 153.3hPa | 2.7V | 18:12:15 | 01:01:22 | 00:00:00 | |
| DL1XH-15 | 2026-09-02 11:28:34 | 54.14803 | 13.86822 | 91° | 51km/h | 13644m | 3.5m/s | -48.8°C | 3.5% | 154hPa | 2.8V | 08:30:00 | 01:01:14 | 00:00:00 | |
| AA1-15 | 2026-09-02 11:28:26 | 54.14804 | 13.86754 | 91° | 51km/h | 13633m | 4.2m/s | -48.9°C | 0.6% | 154.3hPa | 2.7V | 18:12:15 | 01:01:11 | 00:00:00 | |
| AM1SDL-15 | 2026-09-02 11:28:26 | 54.14804 | 13.86754 | 92° | 51km/h | 13633m | 4.1m/s | -48.9°C | 3.4% | 154.3hPa | 2.7V | 00:00:00 | 01:01:11 | 00:00:00 | |
| MECKS9 | 2026-09-02 11:28:24 | 54.14804 | 13.86732 | 91° | 49km/h | 13629m | 3.8m/s | -49.0°C | 1.4% | 154.4hPa | 2.7V | 00:00:00 | 00:00:00 | 00:00:00 | |
| DL1XH-15 | 2026-09-02 11:28:22 | 54.14806 | 13.86600 | 94° | 49km/h | 13606m | 3.8m/s | -49.2°C | 3.5% | 154.9hPa | 2.7V | 08:30:00 | 01:01:04 | 00:00:00 | |
| DL1XH-west | 2026-09-02 11:28:15 | 54.14812 | 13.86513 | 96° | 51km/h | 13590m | 4.7m/s | -49.2°C | 0.6% | 155.3hPa | 2.7V | 18:12:15 | 01:01:00 | 00:00:00 | |
| DJ2DS-15 | 2026-09-02 11:28:14 | 54.14813 | 13.86491 | 97° | 47km/h | 13586m | 3.4m/s | -49.2°C | 3.4% | 155.4hPa | 2.8V | 00:00:00 | 01:00:59 | 00:00:00 | |
| MECKS9 | 2026-09-02 11:28:13 | 54.14813 | 13.86491 | 97° | 51km/h | 13586m | 3.5m/s | -49.3°C | 1.4% | 155.5hPa | 2.8V | 00:00:00 | 00:00:00 | 00:00:00 | |
| DL1XH-15 | 2026-09-02 11:28:10 | 54.14822 | 13.86383 | 98° | 49km/h | 13564m | 3.6m/s | -49°C | 3.6% | 155.9hPa | 2.8V | 08:30:00 | 01:00:54 | 00:00:00 | |
| DL1XH-west | 2026-09-02 11:28:05 | 54.14829 | 13.86299 | 96° | 46km/h | 13548m | 3.8m/s | -49.1°C | 0.7% | 156.3hPa | 2.8V | 18:12:15 | 01:00:50 | 00:00:00 | |
| AA1-15 | 2026-09-02 11:28:04 | 54.14830 | 13.86279 | 95° | 46km/h | 13544m | 3.3m/s | -49.2°C | 0.7% | 156.4hPa | 2.8V | 18:12:15 | 01:00:49 | 00:00:00 | |
| AM1SDL-15 | 2026-09-02 11:28:02 | 54.14832 | 13.86239 | 96° | 46km/h | 13536m | 3.3m/s | -49.1°C | 3.4% | 156.6hPa | 2.7V | 00:00:00 | 01:00:47 | 00:00:00 | |
| S3001 | 2026-09-02 11:28:00 | 54.14834 | 13.86200 | 94° | 42km/h | 13528m | 4.1m/s | -49.2°C | 1.4% | 156.8hPa | 2.8V | 00:00:00 | 00:00:00 | 00:00:00 | |
| DL1XH1-15 | 2026-09-02 11:27:59 | 54.14843 | 13.86090 | 99° | 46km/h | 13503m | 4.5m/s | -49.3°C | 3.6% | 157.3hPa | 2.8V | 08:30:00 | 01:00:39 | 00:00:00 | |
| DL1XH-west | 2026-09-02 11:27:54 | 54.14851 | 13.85987 | 98° | 49km/h | 13483m | 4.7m/s | -49.3°C | 0.8% | 157.8hPa | 2.7V | 18:12:15 | 01:00:34 | 00:00:00 | |
| AA1-15 | 2026-09-02 11:27:54 | 54.14843 | 13.86090 | 100° | 46km/h | 13503m | 4.5m/s | -49.3°C | 0.7% | 157.3hPa | 2.8V | 18:12:15 | 01:00:39 | 00:00:00 | |
| DJ2DS-15 | 2026-09-02 11:27:54 | 54.14843 | 13.86090 | 100° | 47km/h | 13504m | 4.4m/s | -49.3°C | 3.6% | 157.3hPa | 2.7V | 00:00:00 | 01:00:39 | 08:30:00 | |
| DL1XH-15 | 2026-09-02 11:27:51 | 54.14851 | 13.85987 | 97° | 49km/h | 13483m | 4.7m/s | -49.3°C | 3.6% | 157.8hPa | 2.7V | 08:30:00 | 01:00:34 | 00:00:00 | |
| AM1SDL-15 | 2026-09-02 11:27:49 | 54.14851 | 13.85987 | 98° | 47km/h | 13483m | 4.6m/s | -49.2°C | 3.6% | 157.8hPa | 2.7V | 00:00:00 | 01:00:34 | 00:00:00 | |
| DL1XH1-15 | 2026-09-02 11:27:46 | 54.14861 | 13.85884 | 102° | 49km/h | 13463m | 4.9m/s | -49.4°C | 3.5% | 158.3hPa | 2.7V | 08:30:00 | 01:00:29 | 00:00:00 | |
| DL1XH-15 | 2026-09-02 11:27:44 | 54.14875 | 13.85783 | 105° | 47km/h | 13444m | 4.1m/s | -49.6°C | 3.7% | 158.8hPa | 2.8V | 08:30:00 | 01:00:24 | 00:00:00 | |
| AA1-15 | 2026-09-02 11:27:43 | 54.14864 | 13.85864 | 105° | 49km/h | 13458m | 3.5m/s | -49.5°C | 0.7% | 158.5hPa | 2.8V | 18:12:15 | 01:00:28 | 00:00:00 | |
| DL1XH-west | 2026-09-02 11:27:42 | 54.14867 | 13.85843 | 104° | 49km/h | 13455m | 4.3m/s | -49.5°C | 0.7% | 158.6hPa | 2.8V | 18:12:15 | 01:00:27 | 00:00:00 | |
| AM1SDL-15 | 2026-09-02 11:27:37 | 54.14882 | 13.85744 | 109° | 49km/h | 13435m | 4.1m/s | -49.5°C | 3.6% | 159.0hPa | 2.8V | 00:00:00 | 01:00:22 | 00:00:00 | |
| SP3BTT-10 | 2026-09-02 11:27:36 | 54.14886 | 13.85724 | 110° | 60km/h | 13431m | 4.8m/s | -49.4°C | 3.6% | 159.1hPa | 2.8V | 00:00:00 | 00:00:00 | 00:00:00 | |
| DJ2DS-15 | 2026-09-02 11:27:34 | 54.14894 | 13.85686 | 110° | 55km/h | 13423m | 2.8m/s | -49.5°C | 3.7% | 159.3hPa | 2.8V | 00:00:00 | 01:00:19 | 00:00:00 | |
| DL1XH1-15 | 2026-09-02 11:27:32 | 54.14906 | 13.85624 | 106° | 51km/h | 13411m | 3.7m/s | -49.5°C | 3.7% | 159.6hPa | 2.8V | 08:30:00 | 01:00:16 | 00:00:00 | |
| DL1XH-west | 2026-09-02 11:27:32 | 54.14902 | 13.85645 | 108° | 51km/h | 13415m | 4.2m/s | -49.4°C | 0.8% | 159.5hPa | 2.8V | 18:12:15 | 01:00:17 | 00:00:00 | |
| DL1XH-15 | 2026-09-02 11:27:30 | 54.14913 | 13.85582 | 102° | 51km/h | 13402m | 3.3m/s | -49.4°C | 3.6% | 159.8hPa | 2.7V | 08:30:00 | 01:00:14 | 00:00:00 | |
| S3001 | 2026-09-02 11:27:29 | 54.14916 | 13.85561 | 101° | 51km/h | 13398m | 4.5m/s | -49.5°C | 1.5% | 159.9hPa | 2.7V | 00:00:00 | 00:00:00 | 00:00:00 | |
| AM1SDL-15 | 2026-09-02 11:27:25 | 54.14923 | 13.85493 | 102° | 57km/h | 13387m | 4.8m/s | -49.4°C | 3.6% | 160.1hPa | 2.7V | 00:00:00 | 01:00:10 | 00:00:00 | |
| DL1XH-15 | 2026-09-02 11:27:24 | 54.14948 | 13.85355 | 110° | 57km/h | 13361m | 3.3m/s | -49.3°C | 3.6% | 160.8hPa | 2.7V | 08:30:00 | 01:00:04 | 00:00:00 | |
| DL1XH-west | 2026-09-02 11:27:21 | 54.14938 | 13.85402 | 109° | 58km/h | 13370m | 3.5m/s | -49.4°C | 0.8% | 160.6hPa | 2.8V | 18:12:15 | 01:00:06 | 00:00:00 | |
| DJ2DS-15 | 2026-09-02 11:27:14 | 54.14970 | 13.85233 | 105° | 62km/h | 13342m | 3.9m/s | -49.2°C | 3.6% | 161.3hPa | 2.7V | 00:00:00 | 00:59:59 | 00:00:00 | |
| DL1XH-15 | 2026-09-02 11:27:13 | 54.14989 | 13.85109 | 104° | 58km/h | 13321m | 3.6m/s | -49.3°C | 3.6% | 161.8hPa | 2.7V | 08:30:00 | 00:59:54 | 00:00:00 | |
| DL1XH-west | 2026-09-02 11:27:10 | 54.14985 | 13.85134 | 105° | 60km/h | 13325m | 4.6m/s | -49.2°C | 0.8% | 161.7hPa | 2.7V | 18:12:15 | 00:59:55 | 00:00:00 | |
| AM1SDL-15 | 2026-09-02 11:27:01 | 54.15017 | 13.84899 | 101° | 64km/h | 13290m | 3.4m/s | -49.1°C | 3.6% | 162.5hPa | 2.7V | 00:00:00 | 00:59:46 | 00:00:00 | |
| DL1XH-15 | 2026-09-02 11:27:00 | 54.15022 | 13.84846 | 100° | 60km/h | 13281m | 3.5m/s | -49°C | 3.6% | 162.8hPa | 2.7V | 08:30:00 | 00:59:44 | 00:00:00 | |
| DL1XH-west | 2026-09-02 11:26:59 | 54.15022 | 13.84846 | 101° | 60km/h | 13281m | 3.5m/s | -49°C | 0.8% | 162.8hPa | 2.7V | 18:12:15 | 00:59:44 | 00:00:00 | |
| S3001 | 2026-09-02 11:26:58 | 54.15025 | 13.84820 | 101° | 62km/h | 13278m | 3.7m/s | -49.0°C | 1.5% | 162.9hPa | 2.7V | 00:00:00 | 00:00:00 | 00:00:00 | |
| DL1XH-15 | 2026-09-02 11:26:54 | 54.15060 | 13.84579 | 102° | 60km/h | 13242m | 4.7m/s | -48.9°C | 3.5% | 163.8hPa | 2.7V | 08:30:00 | 00:59:34 | 00:00:00 | |
| DL1XH-west | 2026-09-02 11:26:49 | 54.15061 | 13.84579 | 103° | 60km/h | 13242m | 4.7m/s | -48.9°C | 0.7% | 163.8hPa | 2.7V | 18:12:15 | 00:59:34 | 00:00:00 | |
| AA1-15 | 2026-09-02 11:26:48 | 54.15064 | 13.84554 | 102° | 60km/h | 13238m | 3.6m/s | -48.8°C | 0.7% | 163.9hPa | 2.7V | 18:12:15 | 00:59:33 | 00:00:00 | |
| DL1XH1-15 | 2026-09-02 11:26:47 | 54.15083 | 13.84397 | 100° | 62km/h | 13214m | 3.6m/s | -48.8°C | 3.5% | 164.5hPa | 2.7V | 08:30:00 | 00:59:27 | 00:00:00 | |
| DL1XH-15 | 2026-09-02 11:26:43 | 54.15092 | 13.84315 | 100° | 64km/h | 13202m | 4.6m/s | -48.8°C | 3.6% | 164.8hPa | 2.8V | 08:30:00 | 00:59:24 | 00:00:00 | |
| DL1XH-west | 2026-09-02 11:26:39 | 54.15092 | 13.84315 | 101° | 64km/h | 13202m | 4.6m/s | -48.8°C | 0.8% | 164.8hPa | 2.8V | 18:12:15 | 00:59:24 | 00:00:00 | |
| AA1-15 | 2026-09-02 11:26:37 | 54.15098 | 13.84262 | 102° | 62km/h | 13194m | 3.1m/s | -48.7°C | 0.7% | 165hPa | 2.7V | 18:12:15 | 00:59:22 | 00:00:00 | |
| AM1SDL-15 | 2026-09-02 11:26:37 | 54.15098 | 13.84262 | 102° | 64km/h | 13194m | 3.1m/s | -48.7°C | 3.5% | 164.9hPa | 2.8V | 00:00:00 | 00:59:22 | 00:00:00 | |
| DJ2DS-15 | 2026-09-02 11:26:34 | 54.15108 | 13.84182 | 101° | 64km/h | 13183m | 4.2m/s | -48.7°C | 3.5% | 165.2hPa | 2.8V | 00:00:00 | 00:59:19 | 00:00:00 | |
| DL1XH-15 | 2026-09-02 11:26:32 | 54.15119 | 13.84048 | 97° | 62km/h | 13163m | 5m/s | -48.7°C | 3.4% | 165.7hPa | 2.8V | 08:30:00 | 00:59:14 | 00:00:00 | |
| DL1XH-west | 2026-09-02 11:26:28 | 54.15121 | 13.84022 | 98° | 62km/h | 13159m | 3.7m/s | -48.8°C | 0.7% | 165.8hPa | 2.8V | 18:12:15 | 00:59:13 | 00:00:00 | |
| AA1-15 | 2026-09-02 11:26:27 | 54.15124 | 13.83995 | 100° | 64km/h | 13155m | 4.2m/s | -48.8°C | 0.6% | 166hPa | 2.7V | 18:12:15 | 00:59:12 | 00:00:00 | |
| DB0DAN | 2026-09-02 11:26:25 | 54.15130 | 13.83939 | 101° | 64km/h | 13147m | 2.1m/s | -48.9°C | 1.4% | 166.14hPa | 2.8V | 00:00:00 | 00:00:00 | 00:00:00 | |
| SP3WXH-11 | 2026-09-02 11:26:22 | 54.15138 | 13.83857 | 96° | 62km/h | 13135m | 4.0m/s | -49.0°C | 1.4% | 166.5hPa | 2.7V | 00:00:00 | 00:00:00 | 00:00:00 | |
| SP3BTT-10 | 2026-09-02 11:26:21 | 54.15140 | 13.83830 | 95° | 66km/h | 13131m | 3.8m/s | -49.0°C | 3.5% | 166.5hPa | 2.7V | 00:00:00 | 00:00:00 | 00:00:00 | |
| DL1XH-15 | 2026-09-02 11:26:20 | 54.15143 | 13.83773 | 95° | 68km/h | 13123m | 3.7m/s | -49.1°C | 3.5% | 166.8hPa | 2.8V | 08:30:00 | 00:59:04 | 00:00:00 | |
| DL1XH-west | 2026-09-02 11:26:18 | 54.15144 | 13.83745 | 95° | 68km/h | 13118m | 4.7m/s | -49.1°C | 0.7% | 166.9hPa | 2.7V | 18:12:15 | 00:59:03 | 00:00:00 | |
| AA1-15 | 2026-09-02 11:26:16 | 54.15146 | 13.83688 | 93° | 64km/h | 13109m | 3.9m/s | -49.1°C | 0.7% | 167.1hPa | 2.7V | 18:12:15 | 00:59:01 | 00:00:00 | |
| DL1XH-15 | 2026-09-02 11:26:14 | 54.15154 | 13.83485 | 93° | 71km/h | 13081m | 3.8m/s | -49°C | 3.5% | 167.8hPa | 2.8V | 08:30:00 | 00:58:54 | 00:00:00 | |
| DJ2DS-15 | 2026-09-02 11:26:14 | 54.15149 | 13.83632 | 96° | 69km/h | 13102m | 3.2m/s | -49.0°C | 3.6% | 167.3hPa | 2.7V | 00:00:00 | 00:58:59 | 00:00:00 | |
| AM1SDL-15 | 2026-09-02 11:26:13 | 54.15150 | 13.83604 | 95° | 69km/h | 13098m | 4.5m/s | -49.0°C | 3.5% | 167.3hPa | 2.7V | 00:00:00 | 00:58:58 | 00:00:00 | |
| DB0DAN | 2026-09-02 11:26:10 | 54.15153 | 13.83516 | 93° | 68km/h | 13086m | 4.8m/s | -49.1°C | 1.5% | 167.66hPa | 2.8V | 00:00:00 | 00:00:00 | 00:00:00 | |
| DL1XH-west | 2026-09-02 11:26:07 | 54.15156 | 13.83424 | 92° | 71km/h | 13074m | 4.7m/s | -49.1°C | 0.7% | 168hPa | 2.7V | 18:12:15 | 00:58:52 | 00:00:00 | |
| AA1-15 | 2026-09-02 11:26:06 | 54.15156 | 13.83394 | 90° | 69km/h | 13070m | 3.2m/s | -49°C | 0.7% | 168.2hPa | 2.7V | 18:12:15 | 00:58:51 | 00:00:00 | |
| DL1XH-15 | 2026-09-02 11:26:01 | 54.15159 | 13.83184 | 92° | 71km/h | 13043m | 4.3m/s | -49.2°C | 3.5% | 168.8hPa | 2.8V | 08:30:00 | 00:58:44 | 00:00:00 | |
| DL1XH-west | 2026-09-02 11:25:56 | 54.15160 | 13.83093 | 90° | 68km/h | 13031m | 3.9m/s | -49.2°C | 0.8% | 169.2hPa | 2.7V | 18:12:15 | 00:58:41 | 00:00:00 | |
| AA1-15 | 2026-09-02 11:25:55 | 54.15160 | 13.83064 | 92° | 68km/h | 13027m | 3.6m/s | -49.2°C | 0.8% | 169.3hPa | 2.8V | 18:12:15 | 00:58:40 | 00:00:00 | |
| SP3WXH-11 | 2026-09-02 11:25:51 | 54.15163 | 13.82951 | 91° | 62km/h | 13010m | 3.7m/s | -49.2°C | 1.5% | 169.7hPa | 2.7V | 00:00:00 | 00:00:00 | 00:00:00 | |
| DL1XH1-15 | 2026-09-02 11:25:50 | 54.15165 | 13.82786 | 90° | 66km/h | 12986m | 4.5m/s | -49.5°C | 3.6% | 170.3hPa | 2.7V | 08:30:00 | 00:58:30 | 00:00:00 | |
| DL1XH-west | 2026-09-02 11:25:46 | 54.15165 | 13.82814 | 89° | 66km/h | 12990m | 3m/s | -49.4°C | 0.8% | 170.2hPa | 2.7V | 18:12:15 | 00:58:31 | 00:00:00 | |
| AA1-15 | 2026-09-02 11:25:44 | 54.15165 | 13.82757 | 92° | 68km/h | 12982m | 4.6m/s | -49.5°C | 0.8% | 170.5hPa | 2.8V | 18:12:15 | 00:58:29 | 00:00:00 | |
| DG6HD-11 | 2026-09-02 11:25:41 | 54.15168 | 13.82669 | 93° | 64km/h | 12971m | 4.4m/s | -49.5°C | 3.7% | 170.6hPa | 2.7V | 00:00:00 | 00:00:00 | 00:00:00 | |
| DL1XH-15 | 2026-09-02 11:25:40 | 54.15168 | 13.82609 | 89° | 69km/h | 12963m | 3.6m/s | -49.5°C | 3.7% | 170.9hPa | 2.7V | 08:30:00 | 00:58:24 | 00:00:00 | |
| DG6HD-15 | 2026-09-02 11:25:38 | 54.15168 | 13.82609 | 90° | 69km/h | 12964m | 3.6m/s | -49.5°C | 1.6% | 170.9hPa | 2.7V | 00:00:00 | 00:00:00 | 00:00:00 | |
| DL1XH1-15 | 2026-09-02 11:25:36 | 54.15166 | 13.82494 | 85° | 64km/h | 12947m | 4.3m/s | -49.5°C | 3.7% | 171.3hPa | 2.7V | 08:30:00 | 00:58:20 | 00:00:00 | |
| DL1XH-west | 2026-09-02 11:25:35 | 54.15167 | 13.82494 | 86° | 64km/h | 12947m | 4.3m/s | -49.5°C | 0.9% | 171.3hPa | 2.7V | 18:12:15 | 00:58:20 | 00:00:00 | |
| DL1XH-15 | 2026-09-02 11:25:34 | 54.15161 | 13.82297 | 88° | 66km/h | 12920m | 4.5m/s | -49.5°C | 3.6% | 172hPa | 2.7V | 08:30:00 | 00:58:13 | 00:00:00 | |
| AA1-15 | 2026-09-02 11:25:33 | 54.15165 | 13.82439 | 88° | 64km/h | 12940m | 4.5m/s | -49.5°C | 0.9% | 171.5hPa | 2.8V | 18:12:15 | 00:58:18 | 00:00:00 | |
| DJ2DS-15 | 2026-09-02 11:25:33 | 54.15164 | 13.82439 | 88° | 62km/h | 12940m | 4.4m/s | -49.4°C | 3.6% | 171.5hPa | 2.8V | 00:00:00 | 00:58:18 | 00:00:00 | |
| DL1XH1-15 | 2026-09-02 11:25:30 | 54.15160 | 13.82214 | 88° | 62km/h | 12909m | 4.1m/s | -49.4°C | 3.7% | 172.3hPa | 2.8V | 08:30:00 | 00:58:10 | 00:00:00 | |
| DL1XH-west | 2026-09-02 11:25:24 | 54.15160 | 13.82187 | 88° | 62km/h | 12905m | 3.6m/s | -49.4°C | 1% | 172.4hPa | 2.7V | 18:12:15 | 00:58:09 | 00:00:00 | |
| AA1-15 | 2026-09-02 11:25:22 | 54.15159 | 13.82134 | 91° | 62km/h | 12897m | 4.1m/s | -49.6°C | 1% | 172.6hPa | 2.8V | 18:12:15 | 00:58:07 | 00:00:00 | |
| SP3BTT-10 | 2026-09-02 11:25:21 | 54.15160 | 13.82107 | 91° | 62km/h | 12893m | 3.2m/s | -49.5°C | 3.7% | 172.7hPa | 2.7V | 00:00:00 | 00:00:00 | 00:00:00 | |
| SP3WXH-11 | 2026-09-02 11:25:20 | 54.15160 | 13.82080 | 89° | 62km/h | 12889m | 4.1m/s | -49.5°C | 1.6% | 172.8hPa | 2.7V | 00:00:00 | 00:00:00 | 00:00:00 | |
| DG6HD-15 | 2026-09-02 11:25:18 | 54.15159 | 13.82053 | 89° | 62km/h | 12885m | 4.1m/s | -49.4°C | 1.6% | 172.9hPa | 2.7V | 00:00:00 | 00:00:00 | 00:00:00 | |
| DL1XH1-15 | 2026-09-02 11:25:16 | 54.15158 | 13.81901 | 89° | 57km/h | 12863m | 4.1m/s | -49.7°C | 3.8% | 173.5hPa | 2.7V | 08:30:00 | 00:57:58 | 00:00:00 | |
| DL1XH-west | 2026-09-02 11:25:14 | 54.15159 | 13.81925 | 91° | 57km/h | 12867m | 4m/s | -49.7°C | 1% | 173.4hPa | 2.8V | 18:12:15 | 00:57:59 | 00:00:00 | |
| DJ2DS-15 | 2026-09-02 11:25:13 | 54.15158 | 13.81901 | 90° | 55km/h | 12863m | 4.1m/s | -49.7°C | 3.8% | 173.5hPa | 2.7V | 00:00:00 | 00:57:58 | 00:00:00 | |
| AM1SDL-15 | 2026-09-02 11:25:12 | 54.15158 | 13.81877 | 90° | 55km/h | 12859m | 3.1m/s | -49.7°C | 3.7% | 173.6hPa | 2.7V | 00:00:00 | 00:57:57 | 00:00:00 | |
| DG6HD-11 | 2026-09-02 11:25:11 | 54.15158 | 13.81853 | 91° | 55km/h | 12855m | 4.9m/s | -49.9°C | 3.7% | 173.7hPa | 2.7V | 00:00:00 | 00:00:00 | 00:00:00 | |
| AA1-15 | 2026-09-02 11:25:11 | 54.15158 | 13.81853 | 91° | 55km/h | 12855m | 4.9m/s | -49.9°C | 1% | 173.7hPa | 2.8V | 18:12:15 | 00:57:56 | 00:00:00 | |
| DL1XH-15 | 2026-09-02 11:25:03 | 54.15170 | 13.81572 | 95° | 55km/h | 12805m | 4.6m/s | -49.8°C | 3.9% | 175.1hPa | 2.8V | 08:30:00 | 00:57:44 | 00:00:00 | |
| DL1XH-west | 2026-09-02 11:25:03 | 54.15165 | 13.81666 | 95° | 57km/h | 12821m | 3.8m/s | -49.8°C | 1.1% | 174.6hPa | 2.8V | 18:12:15 | 00:57:48 | 00:00:00 | |
| AA1-15 | 2026-09-02 11:25:00 | 54.15169 | 13.81596 | 96° | 55km/h | 12810m | 4.3m/s | -49.8°C | 1.1% | 175hPa | 2.8V | 18:12:15 | 00:57:45 | 00:00:00 | |
| DJ2DS-15 | 2026-09-02 11:24:54 | 54.15178 | 13.81460 | 97° | 51km/h | 12783m | 3.8m/s | -49.8°C | 1.7% | 175.6hPa | 2.8V | 00:00:00 | 00:00:00 | 00:00:00 | |
| DL1XH-15 | 2026-09-02 11:24:53 | 54.15189 | 13.81351 | 99° | 55km/h | 12762m | 3.6m/s | -49.7°C | 3.7% | 176.2hPa | 2.8V | 08:30:00 | 00:57:34 | 00:00:00 | |
| DL1XH-west | 2026-09-02 11:24:53 | 54.15180 | 13.81438 | 99° | 51km/h | 12779m | 3.8m/s | -49.7°C | 0.9% | 175.8hPa | 2.8V | 18:12:15 | 00:57:38 | 00:00:00 | |
| AA1-15 | 2026-09-02 11:24:49 | 54.15189 | 13.81351 | 99° | 55km/h | 12762m | 3.6m/s | -49.7°C | 1% | 176.2hPa | 2.8V | 18:12:15 | 00:57:34 | 00:00:00 | |
| DL1XH-west | 2026-09-02 11:24:42 | 54.15209 | 13.81187 | 103° | 57km/h | 12733m | 5.5m/s | -49.6°C | 1.1% | 177hPa | 2.8V | 18:12:15 | 00:57:27 | 00:00:00 | |
| DG6HD-11 | 2026-09-02 11:24:41 | 54.15212 | 13.81164 | 104° | 58km/h | 12729m | 3.8m/s | -49.6°C | 3.8% | 177.0hPa | 2.7V | 00:00:00 | 00:57:26 | 00:00:00 | |
| DL1XH-15 | 2026-09-02 11:24:40 | 54.15219 | 13.81119 | 102° | 55km/h | 12721m | 4.9m/s | -49.6°C | 3.8% | 177.3hPa | 2.7V | 08:30:00 | 00:57:24 | 00:00:00 | |
| AA1-15 | 2026-09-02 11:24:38 | 54.15222 | 13.81096 | 101° | 55km/h | 12716m | 4.1m/s | -49.6°C | 1.1% | 177.4hPa | 2.8V | 18:12:15 | 00:57:23 | 00:00:00 | |
| DG6HD-15 | 2026-09-02 11:24:37 | 54.15221 | 13.81096 | 102° | 55km/h | 12716m | 4.1m/s | -49.6°C | 1.7% | 177.4hPa | 2.7V | 00:00:00 | 00:00:00 | 00:00:00 | |
| DL1XH-15 | 2026-09-02 11:24:34 | 54.15258 | 13.80847 | 107° | 66km/h | 12674m | 3.4m/s | -49.5°C | 3.8% | 178.6hPa | 2.7V | 08:30:00 | 00:57:13 | 00:00:00 | |
| DL1XH-west | 2026-09-02 11:24:32 | 54.15240 | 13.80952 | 104° | 62km/h | 12691m | 4.5m/s | -49.6°C | 1.1% | 178.1hPa | 2.8V | 18:12:15 | 00:57:17 | 00:00:00 | |
| AA1-15 | 2026-09-02 11:24:28 | 54.15258 | 13.80847 | 107° | 66km/h | 12674m | 3.4m/s | -49.5°C | 1.1% | 178.6hPa | 2.7V | 18:12:15 | 00:57:13 | 00:00:00 | |
| MECKS9 | 2026-09-02 11:24:24 | 54.15276 | 13.80747 | 105° | 58km/h | 12658m | 4.6m/s | -49.5°C | 1.8% | 179.0hPa | 2.8V | 00:00:00 | 00:00:00 | 00:00:00 | |
| DL1XH-15 | 2026-09-02 11:24:23 | 54.15290 | 13.80624 | 101° | 57km/h | 12638m | 2.7m/s | -49.7°C | 3.9% | 179.6hPa | 2.8V | 08:30:00 | 00:57:04 | 00:00:00 | |
| DL1XH-west | 2026-09-02 11:24:22 | 54.15285 | 13.80672 | 100° | 58km/h | 12646m | 4.5m/s | -49.6°C | 1.2% | 179.3hPa | 2.8V | 18:12:15 | 00:57:06 | 00:00:00 | |
| AA1-15 | 2026-09-02 11:24:17 | 54.15296 | 13.80575 | 101° | 60km/h | 12630m | 5m/s | -49.7°C | 1.2% | 179.8hPa | 2.7V | 18:12:15 | 00:57:02 | 00:00:00 | |
| DJ2DS-15 | 2026-09-02 11:24:13 | 54.15307 | 13.80471 | 100° | 60km/h | 12613m | 3.0m/s | -49.6°C | 3.8% | 180.2hPa | 2.8V | 00:00:00 | 00:56:58 | 00:00:00 | |
| DL1XH-15 | 2026-09-02 11:24:11 | 54.15313 | 13.80361 | 93° | 62km/h | 12597m | 4.4m/s | -49.6°C | 4% | 180.7hPa | 2.8V | 08:30:00 | 00:56:54 | 00:00:00 | |
| DL1XH-west | 2026-09-02 11:24:10 | 54.15312 | 13.80388 | 93° | 64km/h | 12601m | 3.5m/s | -49.6°C | 1.3% | 180.6hPa | 2.8V | 18:12:15 | 00:56:55 | 00:00:00 | |
| AA1-15 | 2026-09-02 11:24:06 | 54.15316 | 13.80285 | 93° | 58km/h | 12585m | 4.7m/s | -49.7°C | 1.4% | 181.1hPa | 2.7V | 18:12:15 | 00:56:51 | 00:00:00 | |
| SP3BTT-10 | 2026-09-02 11:24:06 | 54.15316 | 13.80285 | 93° | 60km/h | 12585m | 4.6m/s | -49.7°C | 4.0% | 181.0hPa | 2.7V | 00:00:00 | 00:00:00 | 00:00:00 | |
| DL1XH-15 | 2026-09-02 11:24:04 | 54.15322 | 13.80107 | 91° | 62km/h | 12558m | 3.5m/s | -49.7°C | 4.1% | 181.8hPa | 2.7V | 08:30:00 | 00:56:44 | 00:00:00 | |
| DL1XH-west | 2026-09-02 11:23:55 | 54.15325 | 13.80001 | 93° | 60km/h | 12542m | 3.4m/s | -49.8°C | 1.5% | 182.2hPa | 2.7V | 18:12:15 | 00:56:40 | 00:00:00 | |
| S3001 | 2026-09-02 11:23:52 | 54.15325 | 13.79897 | 92° | 58km/h | 12527m | 4.6m/s | -49.8°C | 2.0% | 182.7hPa | 2.7V | 00:00:00 | 00:00:00 | 00:00:00 | |
| SP3WXH-11 | 2026-09-02 11:23:47 | 54.15329 | 13.79794 | 92° | 60km/h | 12510m | 3.5m/s | -49.6°C | 2.0% | 183.2hPa | 2.7V | 00:00:00 | 00:00:00 | 00:00:00 | |
| AM1SDL-15 | 2026-09-02 11:23:44 | 54.15331 | 13.79715 | 93° | 60km/h | 12497m | 5.0m/s | -49.5°C | 4.2% | 183.4hPa | 2.7V | 00:00:00 | 00:56:29 | 00:00:00 | |
| AA1-15 | 2026-09-02 11:23:44 | 54.15331 | 13.79715 | 93° | 62km/h | 12497m | 5m/s | -49.6°C | 1.7% | 183.5hPa | 2.7V | 18:12:15 | 00:56:29 | 00:00:00 | |
| DG6HD-11 | 2026-09-02 11:23:41 | 54.15333 | 13.79635 | 95° | 60km/h | 12485m | 4.4m/s | -49.5°C | 4.1% | 183.8hPa | 2.7V | 00:00:00 | 00:00:00 | 08:30:00 | |
| DL1XH-15 | 2026-09-02 11:23:40 | 54.15335 | 13.79584 | 92° | 58km/h | 12475m | 5.3m/s | -49.7°C | 4.3% | 184.1hPa | 2.8V | 08:30:00 | 00:56:24 | 00:00:00 | |
| SP3BTT-10 | 2026-09-02 11:23:36 | 54.15337 | 13.79507 | 95° | 60km/h | 12462m | 3.9m/s | -49.6°C | 4.2% | 184.4hPa | 2.7V | 00:00:00 | 00:00:00 | 00:00:00 | |
| DL1XH-15 | 2026-09-02 11:23:34 | 54.15347 | 13.79319 | 96° | 62km/h | 12434m | 4.4m/s | -49.7°C | 4.2% | 185.2hPa | 2.8V | 08:30:00 | 00:56:14 | 00:00:00 | |
| AA1-15 | 2026-09-02 11:23:33 | 54.15340 | 13.79427 | 93° | 64km/h | 12450m | 3.5m/s | -49.7°C | 1.7% | 184.8hPa | 2.7V | 18:12:15 | 00:56:18 | 00:00:00 | |
| DJ2DS-15 | 2026-09-02 11:23:33 | 54.15340 | 13.79427 | 94° | 58km/h | 12450m | 3.4m/s | -49.6°C | 4.1% | 184.8hPa | 2.8V | 00:00:00 | 00:56:18 | 00:00:00 | |
| AM1SDL-15 | 2026-09-02 11:23:32 | 54.15342 | 13.79399 | 95° | 60km/h | 12446m | 4.7m/s | -49.7°C | 4.2% | 184.8hPa | 2.8V | 00:00:00 | 00:56:17 | 00:00:00 | |
| DB0DAN | 2026-09-02 11:23:25 | 54.15352 | 13.79215 | 95° | 55km/h | 12418m | 3.4m/s | -49.7°C | 2.1% | 185.73hPa | 2.8V | 00:00:00 | 00:00:00 | 00:00:00 | |
| AA1-15 | 2026-09-02 11:23:23 | 54.15354 | 13.79141 | 91° | 57km/h | 12405m | 3.4m/s | -49.7°C | 1.9% | 186.1hPa | 2.7V | 18:12:15 | 00:56:07 | 00:00:00 | |
| DL1XH-15 | 2026-09-02 11:23:22 | 54.15356 | 13.79069 | 92° | 55km/h | 12393m | 3.3m/s | -49.7°C | 4.3% | 186.4hPa | 2.8V | 08:30:00 | 00:56:04 | 00:00:00 | |
| AA1-15 | 2026-09-02 11:23:11 | 54.15350 | 13.78866 | 86° | 62km/h | 12361m | 4.6m/s | -50.1°C | 1.9% | 187.3hPa | 2.7V | 18:12:15 | 00:55:56 | 00:00:00 | |
| DL1XH-15 | 2026-09-02 11:23:10 | 54.15348 | 13.78813 | 86° | 60km/h | 12352m | 4.1m/s | -50°C | 4.3% | 187.6hPa | 2.7V | 08:30:00 | 00:55:54 | 00:00:00 | |
| DG6HD-11 | 2026-09-02 11:23:10 | 54.15349 | 13.78839 | 87° | 55km/h | 12357m | 4.0m/s | -49.9°C | 4.3% | 187.4hPa | 2.8V | 00:00:00 | 00:00:00 | 00:00:00 | |
| DJ2DS-15 | 2026-09-02 11:23:06 | 54.15345 | 13.78718 | 84° | 51km/h | 12336m | 4.1m/s | -49.8°C | 2.2% | 188.1hPa | 2.8V | 00:00:00 | 00:00:00 | 00:00:00 | |
| DL1XH-15 | 2026-09-02 11:23:05 | 54.15337 | 13.78593 | 84° | 51km/h | 12311m | 4.6m/s | -49.6°C | 4.3% | 188.8hPa | 2.8V | 08:30:00 | 00:55:44 | 00:00:00 | |
| DL1XH-west | 2026-09-02 11:23:02 | 54.15341 | 13.78656 | 84° | 47km/h | 12323m | 4.1m/s | -49.7°C | 1.7% | 188.4hPa | 2.7V | 18:12:15 | 00:55:47 | 00:00:00 | |
| AA1-15 | 2026-09-02 11:23:00 | 54.15338 | 13.78614 | 82° | 49km/h | 12315m | 3.3m/s | -49.6°C | 1.8% | 188.7hPa | 2.8V | 18:12:15 | 00:55:45 | 00:00:00 | |
| DB0DAN | 2026-09-02 11:22:55 | 54.15333 | 13.78496 | 86° | 57km/h | 12295m | 3m/s | -49.6°C | 2.1% | 189.25hPa | 2.8V | 00:00:00 | 00:00:00 | 00:00:00 | |
| DG6HD-15 | 2026-09-02 11:22:54 | 54.15333 | 13.78496 | 87° | 58km/h | 12295m | 3.0m/s | -49.6°C | 2.1% | 189.3hPa | 2.7V | 00:00:00 | 00:00:00 | 00:00:00 | |
| DJ2DS-15 | 2026-09-02 11:22:53 | 54.15332 | 13.78446 | 91° | 58km/h | 12286m | 4.0m/s | -49.6°C | 4.3% | 189.5hPa | 2.7V | 00:00:00 | 00:55:38 | 00:00:00 | |
| DL1XH-15 | 2026-09-02 11:22:52 | 54.15332 | 13.78353 | 91° | 51km/h | 12268m | 5m/s | -49.6°C | 4.3% | 190hPa | 2.8V | 08:30:00 | 00:55:34 | 00:00:00 | |
| DL1XH-west | 2026-09-02 11:22:51 | 54.15332 | 13.78398 | 89° | 53km/h | 12276m | 4.5m/s | -49.6°C | 1.8% | 189.8hPa | 2.7V | 18:12:15 | 00:55:36 | 00:00:00 | |
| AA1-15 | 2026-09-02 11:22:49 | 54.15332 | 13.78353 | 92° | 51km/h | 12268m | 5m/s | -49.6°C | 1.8% | 190hPa | 2.8V | 18:12:15 | 00:55:34 | 00:00:00 | |
| SP3WXH-11 | 2026-09-02 11:22:45 | 54.15335 | 13.78256 | 91° | 60km/h | 12250m | 3.5m/s | -49.6°C | 2.2% | 190.6hPa | 2.8V | 00:00:00 | 00:00:00 | 00:00:00 | |
| DL1XH-15 | 2026-09-02 11:22:41 | 54.15339 | 13.78104 | 90° | 62km/h | 12222m | 4.2m/s | -49.6°C | 4.3% | 191.3hPa | 2.8V | 08:30:00 | 00:55:24 | 00:00:00 | |
| DL1XH-west | 2026-09-02 11:22:40 | 54.15339 | 13.78130 | 92° | 60km/h | 12227m | 4.9m/s | -49.7°C | 1.8% | 191.2hPa | 2.7V | 18:12:15 | 00:55:25 | 00:00:00 | |
| AA1-15 | 2026-09-02 11:22:38 | 54.15339 | 13.78077 | 91° | 64km/h | 12219m | 3.8m/s | -49.6°C | 1.8% | 191.5hPa | 2.8V | 18:12:15 | 00:55:23 | 00:00:00 | |
| AM1SDL-15 | 2026-09-02 11:22:38 | 54.15339 | 13.78077 | 92° | 57km/h | 12219m | 3.7m/s | -49.5°C | 4.3% | 191.4hPa | 2.8V | 00:00:00 | 00:55:23 | 00:00:00 | |
| DK1YY | 2026-09-02 11:22:34 | 54.15344 | 13.77967 | 93° | 62km/h | 12202m | 6.3m/s | -49.5°C | 2.2% | 191.9hPa | 2.8V | 00:00:00 | 00:00:00 | 00:00:00 | |
| DJ2DS-15 | 2026-09-02 11:22:33 | 54.15344 | 13.77941 | 93° | 53km/h | 12196m | 4.7m/s | -49.4°C | 4.4% | 192.0hPa | 2.8V | 00:00:00 | 00:55:18 | 00:00:00 | |
| DL1XH1-15 | 2026-09-02 11:22:31 | 54.15348 | 13.77808 | 92° | 53km/h | 12168m | 3.3m/s | -49.4°C | 4.4% | 192.9hPa | 2.8V | 08:30:00 | 00:55:12 | 00:00:00 | |
| DL1XH-15 | 2026-09-02 11:22:30 | 54.15347 | 13.77852 | 92° | 49km/h | 12177m | 5.4m/s | -49.5°C | 4.5% | 192.7hPa | 2.7V | 08:30:00 | 00:55:14 | 00:00:00 | |
| DL1XH-west | 2026-09-02 11:22:29 | 54.15347 | 13.77852 | 93° | 49km/h | 12177m | 5.4m/s | -49.5°C | 2% | 192.7hPa | 2.7V | 18:12:15 | 00:55:14 | 00:00:00 | |
| AA1-15 | 2026-09-02 11:22:27 | 54.15348 | 13.77808 | 93° | 53km/h | 12168m | 3.3m/s | -49.4°C | 2% | 192.9hPa | 2.8V | 18:12:15 | 00:55:12 | 00:00:00 | |
| DL1XH-15 | 2026-09-02 11:22:24 | 54.15355 | 13.77613 | 95° | 57km/h | 12135m | 5.7m/s | -49.3°C | 4.4% | 193.9hPa | 2.8V | 08:30:00 | 00:55:04 | 00:00:00 | |
| AM1SDL-15 | 2026-09-02 11:22:24 | 54.15350 | 13.77739 | 92° | 53km/h | 12155m | 5.4m/s | -49.3°C | 4.3% | 193.3hPa | 2.7V | 00:00:00 | 00:55:09 | 00:00:00 | |
| DL1XH1-15 | 2026-09-02 11:22:22 | 54.15357 | 13.77566 | 94° | 53km/h | 12125m | 4.7m/s | -49.4°C | 4.6% | 194.2hPa | 2.7V | 08:30:00 | 00:55:02 | 00:00:00 | |
| DL1XH-west | 2026-09-02 11:22:19 | 54.15355 | 13.77613 | 95° | 57km/h | 12136m | 5.7m/s | -49.3°C | 2% | 193.9hPa | 2.8V | 18:12:15 | 00:55:04 | 00:00:00 | |
| AA1-15 | 2026-09-02 11:22:17 | 54.15357 | 13.77566 | 95° | 53km/h | 12125m | 4.7m/s | -49.4°C | 2.1% | 194.2hPa | 2.7V | 18:12:15 | 00:55:02 | 00:00:00 | |
| SP3WXH-11 | 2026-09-02 11:22:14 | 54.15361 | 13.77500 | 95° | 47km/h | 12112m | 4.4m/s | -49.3°C | -1.0% | -1.0hPa | 2.8V | 00:00:00 | 00:00:00 | 00:00:00 | |
| DG6HD-15 | 2026-09-02 11:22:13 | 54.15361 | 13.77500 | 97° | 49km/h | 12112m | 4.4m/s | -49.3°C | 2.4% | 194.6hPa | 2.8V | 00:00:00 | 00:00:00 | 00:00:00 | |
| DL1XH-15 | 2026-09-02 11:22:11 | 54.15364 | 13.77398 | 94° | 47km/h | 12091m | 3.6m/s | -49.2°C | 4.5% | 195.2hPa | 2.8V | 08:30:00 | 00:54:54 | 00:00:00 | |
| DL1XH1-15 | 2026-09-02 11:22:10 | 54.15366 | 13.77355 | 92° | 51km/h | 12079m | 5.9m/s | -49.1°C | 4.5% | 195.5hPa | 2.8V | 08:30:00 | 00:54:52 | 00:00:00 | |
| DL1XH-west | 2026-09-02 11:22:09 | 54.15365 | 13.77398 | 95° | 47km/h | 12091m | 3.6m/s | -49.2°C | 2.2% | 195.2hPa | 2.8V | 18:12:15 | 00:54:54 | 00:00:00 | |
| AA1-15 | 2026-09-02 11:22:07 | 54.15367 | 13.77333 | 95° | 51km/h | 12075m | 3m/s | -49.1°C | 2.2% | 195.7hPa | 2.7V | 18:12:15 | 00:54:51 | 00:00:00 | |
| DL1XH-15 | 2026-09-02 11:22:04 | 54.15389 | 13.77162 | 95° | 51km/h | 12030m | 6m/s | -48.9°C | 4.4% | 197hPa | 2.7V | 08:30:00 | 00:54:43 | 00:00:00 | |
| DK1YY | 2026-09-02 11:22:03 | 54.15374 | 13.77270 | 107° | 47km/h | 12057m | 5.6m/s | -49.0°C | 2.3% | 196.3hPa | 2.8V | 00:00:00 | 00:00:00 | 00:00:00 | |
| DL1XH1-15 | 2026-09-02 11:22:02 | 54.15391 | 13.77120 | 95° | 47km/h | 12019m | 5.2m/s | -49°C | 4.5% | 197.4hPa | 2.8V | 08:30:00 | 00:54:41 | 00:00:00 | |
| DL1XH-west | 2026-09-02 11:21:59 | 54.15387 | 13.77185 | 99° | 53km/h | 12035m | 5.9m/s | -48.8°C | 2.3% | 196.8hPa | 2.7V | 18:12:15 | 00:54:44 | 00:00:00 | |
| AA1-15 | 2026-09-02 11:21:57 | 54.15391 | 13.77120 | 96° | 47km/h | 12019m | 5.2m/s | -49°C | 2.4% | 197.4hPa | 2.8V | 18:12:15 | 00:54:41 | 00:00:00 | |
| DM0DOS-11 | 2026-09-02 11:21:57 | 54.15400 | 13.77009 | 98° | 55km/h | 11997m | 4.5m/s | -49.5°C | 0% | 198hPa | 2.8V | 08:30:00 | 00:54:36 | 00:00:00 | |
| DJ2DS-15 | 2026-09-02 11:21:53 | 54.15397 | 13.77056 | 98° | 53km/h | 12006m | 4.8m/s | -49.4°C | 2.6% | 197.7hPa | 2.8V | 00:00:00 | 00:00:00 | 00:00:00 | |
| DL1XH-15 | 2026-09-02 11:21:52 | 54.15405 | 13.76963 | 99° | 55km/h | 11988m | 3.7m/s | -49.7°C | 4.6% | 198.3hPa | 2.8V | 08:30:00 | 00:54:34 | 00:00:00 | |
| DL1XH1-15 | 2026-09-02 11:21:50 | 54.15408 | 13.76915 | 96° | 57km/h | 11980m | 3.4m/s | -50°C | 4.7% | 198.5hPa | 2.7V | 08:30:00 | 00:54:32 | 00:00:00 | |
| DL1XH-west | 2026-09-02 11:21:48 | 54.15407 | 13.76939 | 97° | 55km/h | 11984m | 5m/s | -49.8°C | 2.5% | 198.4hPa | 2.7V | 18:12:15 | 00:54:33 | 00:00:00 | |
| DJ2DS-15 | 2026-09-02 11:21:48 | 54.15406 | 13.76939 | 98° | 64km/h | 11984m | 5.0m/s | -49.8°C | 4.6% | 198.3hPa | 2.7V | 00:00:00 | 00:54:33 | 08:30:00 | |
| DM0DOS-11 | 2026-09-02 11:21:47 | 54.15424 | 13.76766 | 103° | 64km/h | 11956m | 4.1m/s | 0°C | 0% | 0hPa | 2.7V | 08:30:00 | 00:54:26 | 00:00:00 | |
| AA1-15 | 2026-09-02 11:21:45 | 54.15412 | 13.76867 | 100° | 57km/h | 11972m | 4.6m/s | -50°C | 2.5% | 198.8hPa | 2.8V | 18:12:15 | 00:54:30 | 00:00:00 | |
| DL1XH-15 | 2026-09-02 11:21:44 | 54.15433 | 13.76711 | 106° | 68km/h | 11948m | 2.5m/s | -50°C | 4.8% | 199.5hPa | 2.7V | 08:30:00 | 00:54:24 | 00:00:00 | |
| SP3WXH-11 | 2026-09-02 11:21:43 | 54.15418 | 13.76818 | 101° | 58km/h | 11964m | 4.8m/s | 0°C | -1.0% | -1.0hPa | 2.8V | 00:00:00 | 00:00:00 | 00:00:00 | |
| DL1XH1-15 | 2026-09-02 11:21:42 | 54.15447 | 13.76625 | 103° | 71km/h | 11937m | 3m/s | -50.1°C | 4.9% | 199.9hPa | 2.8V | 08:30:00 | 00:54:21 | 00:00:00 | |
| DL1XH-west | 2026-09-02 11:21:37 | 54.15442 | 13.76654 | 105° | 71km/h | 11941m | 4.3m/s | -50.1°C | 2.7% | 199.7hPa | 2.8V | 18:12:15 | 00:54:22 | 00:00:00 | |
| DM0DOS-11 | 2026-09-02 11:21:37 | 54.15467 | 13.76483 | 101° | 68km/h | 11918m | 4m/s | 0°C | 0% | 0hPa | 2.8V | 00:00:00 | 00:54:16 | 00:00:00 | |
| AA1-15 | 2026-09-02 11:21:34 | 54.15455 | 13.76567 | 105° | 68km/h | 11930m | 3.9m/s | -50.1°C | 2.8% | 200.1hPa | 2.7V | 18:12:15 | 00:54:19 | 00:00:00 | |
| DK1YY | 2026-09-02 11:21:32 | 54.15463 | 13.76512 | 102° | 66km/h | 11923m | 4.8m/s | 0°C | -1.0% | 200.3hPa | 2.8V | 00:00:00 | 00:00:00 | 00:00:00 | |
| DL1XH-15 | 2026-09-02 11:21:31 | 54.15473 | 13.76427 | 100° | 66km/h | 11910m | 5.2m/s | -50°C | 5% | 200.7hPa | 2.8V | 08:30:00 | 00:54:14 | 00:00:00 | |
| DL1XH1-15 | 2026-09-02 11:21:31 | 54.15479 | 13.76372 | 99° | 64km/h | 11902m | 3m/s | -50°C | 5% | 200.9hPa | 2.7V | 08:30:00 | 00:54:12 | 00:00:00 | |
| DJ2DS-15 | 2026-09-02 11:21:28 | 54.15476 | 13.76399 | 101° | 62km/h | 11906m | 3.7m/s | -50.0°C | 5.1% | 200.7hPa | 2.7V | 00:00:00 | 00:54:13 | 00:00:00 | |
| DM0DOS-11 | 2026-09-02 11:21:26 | 54.15491 | 13.76206 | 94° | 66km/h | 11875m | 5m/s | 0°C | 0% | 0hPa | 2.7V | 00:00:00 | 00:54:06 | 00:00:00 | |
| DL1XH-west | 2026-09-02 11:21:26 | 54.15482 | 13.76345 | 99° | 64km/h | 11898m | 5m/s | -50.1°C | 3% | 201hPa | 2.8V | 18:12:15 | 00:54:11 | 00:00:00 | |
| AA1-15 | 2026-09-02 11:21:24 | 54.15486 | 13.76289 | 98° | 64km/h | 11889m | 5.4m/s | -50.1°C | 3.1% | 201.3hPa | 2.8V | 18:12:15 | 00:54:09 | 00:00:00 | |
| DL1XH1-15 | 2026-09-02 11:21:22 | 54.15498 | 13.76100 | 99° | 57km/h | 11860m | 3.9m/s | -50.4°C | 5.2% | 202.2hPa | 2.8V | 08:30:00 | 00:54:02 | 00:00:00 | |
| DL1XH-west | 2026-09-02 11:21:16 | 54.15500 | 13.76076 | 98° | 55km/h | 11856m | 3.1m/s | -50.4°C | 3.4% | 202.3hPa | 2.7V | 18:12:15 | 00:54:01 | 00:00:00 | |
| AA1-15 | 2026-09-02 11:21:14 | 54.15506 | 13.75978 | 94° | 60km/h | 11841m | 4.1m/s | -50.4°C | 3.6% | 202.8hPa | 2.8V | 18:12:15 | 00:53:57 | 00:00:00 | |
| DL1XH-15 | 2026-09-02 11:21:12 | 54.15508 | 13.75899 | 90° | 60km/h | 11830m | 4m/s | -50.7°C | 5.8% | 203.2hPa | 2.7V | 08:30:00 | 00:53:54 | 00:00:00 | |
| DG6HD-15 | 2026-09-02 11:21:11 | 54.15506 | 13.75978 | 95° | 60km/h | 11841m | 4.1m/s | -50.4°C | 3.2% | 202.8hPa | 2.8V | 00:00:00 | 00:00:00 | 00:00:00 | |
| DL1XH1-15 | 2026-09-02 11:21:10 | 54.15507 | 13.75847 | 88° | 62km/h | 11821m | 4.9m/s | -50.8°C | 5.8% | 203.4hPa | 2.8V | 08:30:00 | 00:53:52 | 00:00:00 | |
| DL1XH-west | 2026-09-02 11:21:06 | 54.15507 | 13.75820 | 90° | 62km/h | 11816m | 4.8m/s | -50.9°C | 4% | 203.6hPa | 2.8V | 18:12:15 | 00:53:51 | 00:00:00 | |
| DL1XH-15 | 2026-09-02 11:21:05 | 54.15510 | 13.75649 | 95° | 53km/h | 11784m | 3.8m/s | -51.1°C | 6.1% | 204.6hPa | 2.7V | 08:30:00 | 00:53:44 | 00:00:00 | |
| AA1-15 | 2026-09-02 11:21:03 | 54.15507 | 13.75743 | 91° | 57km/h | 11803m | 5m/s | -51°C | 4.2% | 204hPa | 2.8V | 18:12:15 | 00:53:48 | 00:00:00 | |
| DL1XH-west | 2026-09-02 11:20:56 | 54.15511 | 13.75577 | 88° | 58km/h | 11771m | 4.1m/s | -51.2°C | 4.5% | 205hPa | 2.8V | 18:12:15 | 00:53:41 | 00:00:00 | |
| DB0DAN | 2026-09-02 11:20:55 | 54.15510 | 13.75552 | 86° | 57km/h | 11764m | 8.3m/s | -51.3°C | 3.8% | 205.19hPa | 2.8V | 00:00:00 | 00:00:00 | 00:00:00 | |
| AA1-15 | 2026-09-02 11:20:53 | 54.15509 | 13.75473 | 90° | 62km/h | 11748m | 6.6m/s | -51.4°C | 4.9% | 205.7hPa | 2.7V | 18:12:15 | 00:53:37 | 00:00:00 | |
| DL1XH-15 | 2026-09-02 11:20:53 | 54.15507 | 13.75394 | 85° | 60km/h | 11731m | 6.1m/s | -51.5°C | 6.5% | 206.2hPa | 2.8V | 08:30:00 | 00:53:34 | 00:00:00 | |
| DL1XH1-15 | 2026-09-02 11:20:52 | 54.15501 | 13.75319 | 82° | 57km/h | 11714m | 6.3m/s | -51.5°C | 6.7% | 206.8hPa | 2.7V | 08:30:00 | 00:53:31 | 00:00:00 | |
| DL1XH-west | 2026-09-02 11:20:46 | 54.15501 | 13.75319 | 82° | 58km/h | 11714m | 6.3m/s | -51.5°C | 5.3% | 206.8hPa | 2.7V | 18:12:15 | 00:53:31 | 00:00:00 | |
| DJ2DS-15 | 2026-09-02 11:20:45 | 54.15499 | 13.75294 | 83° | 58km/h | 11710m | 3.7m/s | -51.4°C | 6.8% | 207.0hPa | 2.7V | 00:00:00 | 00:53:30 | 00:00:00 | |
| DL1XH-15 | 2026-09-02 11:20:44 | 54.15490 | 13.75142 | 85° | 57km/h | 11676m | 7.1m/s | -52°C | 7.5% | 208hPa | 2.7V | 08:30:00 | 00:53:24 | 00:00:00 | |
| DL1XH1-15 | 2026-09-02 11:20:41 | 54.15486 | 13.75070 | 84° | 58km/h | 11658m | 5.6m/s | -52°C | 7.8% | 208.6hPa | 2.8V | 08:30:00 | 00:53:21 | 00:00:00 | |
| AA1-15 | 2026-09-02 11:20:41 | 54.15493 | 13.75192 | 84° | 60km/h | 11686m | 7.1m/s | -51.8°C | 5.8% | 207.7hPa | 2.8V | 18:12:15 | 00:53:26 | 00:00:00 | |
| DL1XH-west | 2026-09-02 11:20:35 | 54.15484 | 13.75045 | 82° | 62km/h | 11653m | 6.5m/s | -52.1°C | 6.7% | 208.8hPa | 2.8V | 18:12:15 | 00:53:20 | 00:00:00 | |
| DL1XH-15 | 2026-09-02 11:20:32 | 54.15466 | 13.74893 | 76° | 58km/h | 11621m | 7.2m/s | -52.1°C | 8.5% | 209.8hPa | 2.8V | 08:30:00 | 00:53:14 | 00:00:00 | |
| DL1XH1-15 | 2026-09-02 11:20:31 | 54.15459 | 13.74821 | 82° | 55km/h | 11607m | 5.5m/s | -52.4°C | 8.9% | 210.2hPa | 2.8V | 08:30:00 | 00:53:11 | 00:00:00 | |
| AA1-15 | 2026-09-02 11:20:31 | 54.15469 | 13.74917 | 77° | 60km/h | 11628m | 5.2m/s | -52.1°C | 7.3% | 209.6hPa | 2.7V | 18:12:15 | 00:53:15 | 00:00:00 | |
| DL1XH-west | 2026-09-02 11:20:25 | 54.15458 | 13.74798 | 84° | 57km/h | 11601m | 6.6m/s | -52.5°C | 8.2% | 210.4hPa | 2.7V | 18:12:15 | 00:53:10 | 00:00:00 | |
| DJ2DS-15 | 2026-09-02 11:20:24 | 54.15456 | 13.74773 | 81° | 49km/h | 11595m | 5.5m/s | -52.5°C | 9.2% | 210.5hPa | 2.7V | 00:00:00 | 00:53:09 | 00:00:00 | |
| SP3BTT-10 | 2026-09-02 11:20:22 | 54.15450 | 13.74726 | 76° | 53km/h | 11584m | 7.9m/s | -52.4°C | 9.5% | 210.9hPa | 2.7V | 00:00:00 | 00:00:00 | 08:30:00 | |
| DL1XH1-15 | 2026-09-02 11:20:21 | 54.15433 | 13.74617 | 76° | 42km/h | 11553m | 5.1m/s | -52.4°C | 9.9% | 211.9hPa | 2.7V | 08:30:00 | 00:53:01 | 00:00:00 | |
| AA1-15 | 2026-09-02 11:20:19 | 54.15441 | 13.74666 | 74° | 40km/h | 11568m | 5.2m/s | -52.4°C | 9.1% | 211.5hPa | 2.8V | 18:12:15 | 00:53:04 | 00:00:00 | |
| DL1XH-west | 2026-09-02 11:20:14 | 54.15428 | 13.74576 | 78° | 55km/h | 11542m | 5m/s | -52.4°C | 9.9% | 212.3hPa | 2.8V | 18:12:15 | 00:52:59 | 00:00:00 | |
| AA1-15 | 2026-09-02 11:20:09 | 54.15413 | 13.74460 | 77° | 51km/h | 11517m | 4.1m/s | -52.3°C | 11.1% | 213.1hPa | 2.7V | 18:12:15 | 00:52:54 | 00:00:00 | |
| DL1XH1-15 | 2026-09-02 11:20:09 | 54.15403 | 13.74399 | 75° | 47km/h | 11502m | 5.3m/s | -52.5°C | 11.9% | 213.6hPa | 2.8V | 08:30:00 | 00:52:51 | 00:00:00 | |
| DL1XH-west | 2026-09-02 11:20:03 | 54.15396 | 13.74336 | 82° | 53km/h | 11489m | 7.1m/s | -52.8°C | 12.8% | 214.1hPa | 2.7V | 18:12:15 | 00:52:48 | 00:00:00 | |
| DJ2DS-15 | 2026-09-02 11:20:03 | 54.15396 | 13.74336 | 82° | 49km/h | 11489m | 7.0m/s | -52.7°C | 12.6% | 214.1hPa | 2.8V | 00:00:00 | 00:52:48 | 00:00:00 | |
| DL1XH1-15 | 2026-09-02 11:19:59 | 54.15384 | 13.74185 | 88° | 42km/h | 11453m | 7.3m/s | -53°C | 14% | 215.2hPa | 2.8V | 08:30:00 | 00:52:41 | 00:00:00 | |
| AA1-15 | 2026-09-02 11:19:59 | 54.15387 | 13.74242 | 82° | 51km/h | 11468m | 7.1m/s | -52.8°C | 14.1% | 214.8hPa | 2.8V | 18:12:15 | 00:52:44 | 00:00:00 | |
| DL1XH-west | 2026-09-02 11:19:53 | 54.15381 | 13.74131 | 80° | 44km/h | 11437m | 6.2m/s | -53°C | 16% | 215.8hPa | 2.8V | 18:12:15 | 00:52:38 | 00:00:00 | |
| DL1XH-15 | 2026-09-02 11:19:53 | 54.15372 | 13.74046 | 83° | 55km/h | 11415m | 6.1m/s | -53.1°C | 15.6% | 216.6hPa | 2.8V | 08:30:00 | 00:52:34 | 00:00:00 | |
| AA1-15 | 2026-09-02 11:19:48 | 54.15371 | 13.74023 | 85° | 55km/h | 11409m | 6.4m/s | -53.2°C | 17.9% | 216.7hPa | 2.8V | 18:12:15 | 00:52:33 | 00:00:00 | |
| DG6HD-15 | 2026-09-02 11:19:48 | 54.15371 | 13.74023 | 85° | 55km/h | 11409m | 6.4m/s | -53.2°C | 12.4% | 216.7hPa | 2.8V | 00:00:00 | 00:00:00 | 00:00:00 | |
| DL1XH1-15 | 2026-09-02 11:19:46 | 54.15371 | 13.73932 | 91° | 51km/h | 11387m | 5.6m/s | -53.5°C | 17.4% | 217.4hPa | 2.8V | 08:30:00 | 00:52:29 | 00:00:00 | |
| DL1XH-15 | 2026-09-02 11:19:44 | 54.15371 | 13.73815 | 88° | 58km/h | 11361m | 7m/s | -54.2°C | 20.3% | 218.3hPa | 2.7V | 08:30:00 | 00:52:24 | 00:00:00 | |
| DL1XH-west | 2026-09-02 11:19:43 | 54.15371 | 13.73910 | 90° | 51km/h | 11382m | 4.3m/s | -53.5°C | 20.1% | 217.6hPa | 2.8V | 18:12:15 | 00:52:28 | 00:00:00 | |
| AA1-15 | 2026-09-02 11:19:37 | 54.15369 | 13.73763 | 86° | 60km/h | 11349m | 5.2m/s | -54.5°C | 23.1% | 218.8hPa | 2.8V | 18:12:15 | 00:52:22 | 00:00:00 | |
| DL1XH1-15 | 2026-09-02 11:19:34 | 54.15365 | 13.73663 | 86° | 57km/h | 11328m | 7m/s | -55.4°C | 24.2% | 219.5hPa | 2.7V | 08:30:00 | 00:52:18 | 00:00:00 | |
| DL1XH-15 | 2026-09-02 11:19:32 | 54.15359 | 13.73564 | 82° | 58km/h | 11303m | 6.2m/s | -55.5°C | 24.7% | 220.2hPa | 2.8V | 08:30:00 | 00:52:14 | 00:00:00 | |
| DL1XH-west | 2026-09-02 11:19:32 | 54.15364 | 13.73639 | 85° | 57km/h | 11321m | 6.1m/s | -55.4°C | 25% | 219.7hPa | 2.8V | 18:12:15 | 00:52:17 | 00:00:00 | |
| MECKS9 | 2026-09-02 11:19:30 | 54.15363 | 13.73614 | 85° | 58km/h | 11316m | 4.2m/s | -55.4°C | 20.0% | 219.9hPa | 2.8V | 00:00:00 | 00:00:00 | 00:00:00 | |
| DJ2DS-15 | 2026-09-02 11:19:29 | 54.15360 | 13.73564 | 82° | 57km/h | 11303m | 6.2m/s | -55.5°C | 20.1% | 220.3hPa | 2.8V | 00:00:00 | 00:00:00 | 00:00:00 | |
| DL1XH1-15 | 2026-09-02 11:19:28 | 54.15352 | 13.73406 | 90° | 60km/h | 11268m | 5.7m/s | -55.5°C | 26.2% | 221.5hPa | 2.8V | 08:30:00 | 00:52:08 | 00:00:00 | |
| AA1-15 | 2026-09-02 11:19:26 | 54.15354 | 13.73487 | 85° | 62km/h | 11286m | 5.7m/s | -55.5°C | 25.9% | 220.9hPa | 2.7V | 18:12:15 | 00:52:11 | 00:00:00 | |
| DL1XH-15 | 2026-09-02 11:19:24 | 54.15358 | 13.73284 | 93° | 55km/h | 11240m | 5.8m/s | -55.4°C | 26.6% | 222.5hPa | 2.8V | 08:30:00 | 00:52:03 | 00:00:00 | |
| DL1XH-west | 2026-09-02 11:19:22 | 54.15353 | 13.73381 | 94° | 57km/h | 11263m | 3m/s | -55.5°C | 26.4% | 221.7hPa | 2.7V | 18:12:15 | 00:52:07 | 00:00:00 | |
| DL1XH1-15 | 2026-09-02 11:19:16 | 54.15360 | 13.73151 | 90° | 49km/h | 11207m | 6.2m/s | -55.3°C | 26.1% | 223.7hPa | 2.7V | 08:30:00 | 00:51:57 | 00:00:00 | |
| AA1-15 | 2026-09-02 11:19:15 | 54.15359 | 13.73217 | 90° | 49km/h | 11223m | 6m/s | -55.4°C | 26.7% | 223.1hPa | 2.8V | 18:12:15 | 00:52:00 | 00:00:00 | |
| DL1XH-west | 2026-09-02 11:19:12 | 54.15360 | 13.73151 | 90° | 49km/h | 11207m | 6.2m/s | -55.3°C | 26.9% | 223.7hPa | 2.7V | 18:12:15 | 00:51:57 | 00:00:00 | |
| S3001 | 2026-09-02 11:19:12 | 54.15360 | 13.73151 | 90° | 49km/h | 11207m | 6.2m/s | -55.3°C | 21.4% | 223.7hPa | 2.7V | 00:00:00 | 00:00:00 | 00:00:00 | |
| DG6HD-11 | 2026-09-02 11:19:10 | 54.15360 | 13.73107 | 93° | 60km/h | 11194m | 5.5m/s | -55.1°C | 26.3% | 224.0hPa | 2.7V | 00:00:00 | 00:00:00 | 08:30:00 | |
| SONDE2-11 | 2026-09-02 11:19:06 | 54.15366 | 13.72937 | 92° | 55km/h | 11155m | 5.3m/s | -55.0°C | 22.4% | 225.5hPa | 2.8V | 00:00:00 | 00:00:00 | 00:00:00 | |
| DL1XH-15 | 2026-09-02 11:19:04 | 54.15366 | 13.72840 | 88° | 57km/h | 11134m | 4.4m/s | -54.9°C | 28% | 226.3hPa | 2.8V | 08:30:00 | 00:51:44 | 00:00:00 | |
| AA1-15 | 2026-09-02 11:19:04 | 54.15365 | 13.72961 | 94° | 55km/h | 11161m | 7.3m/s | -55°C | 27.9% | 225.3hPa | 2.8V | 18:12:15 | 00:51:49 | 00:00:00 | |
| DL1XH-west | 2026-09-02 11:19:01 | 54.15366 | 13.72889 | 91° | 57km/h | 11145m | 7.4m/s | -55°C | 28.7% | 225.9hPa | 2.7V | 18:12:15 | 00:51:46 | 00:00:00 | |
| AA1-15 | 2026-09-02 11:18:53 | 54.15365 | 13.72682 | 93° | 62km/h | 11097m | 4.1m/s | -55.1°C | 30.6% | 227.6hPa | 2.8V | 18:12:15 | 00:51:38 | 00:00:00 | |
| DL1XH-15 | 2026-09-02 11:18:52 | 54.15367 | 13.72576 | 88° | 62km/h | 11074m | 7.9m/s | -55.2°C | 30.6% | 228.4hPa | 2.8V | 08:30:00 | 00:51:34 | 00:00:00 | |
| DL1XH-west | 2026-09-02 11:18:50 | 54.15367 | 13.72602 | 90° | 60km/h | 11080m | 3.8m/s | -55.2°C | 31.4% | 228.2hPa | 2.8V | 18:12:15 | 00:51:35 | 00:00:00 | |
| DG6HD-15 | 2026-09-02 11:18:45 | 54.15362 | 13.72495 | 83° | 64km/h | 11057m | 5.2m/s | -55.3°C | 26.2% | 229.1hPa | 2.8V | 00:00:00 | 00:00:00 | 00:00:00 | |
| DL1XH-15 | 2026-09-02 11:18:44 | 54.15351 | 13.72309 | 86° | 64km/h | 11017m | 7.5m/s | -55.4°C | 31.9% | 230.5hPa | 2.8V | 08:30:00 | 00:51:24 | 00:00:00 | |
| AA1-15 | 2026-09-02 11:18:42 | 54.15355 | 13.72389 | 86° | 60km/h | 11033m | 7.8m/s | -55.4°C | 32.2% | 229.9hPa | 2.7V | 18:12:15 | 00:51:27 | 00:00:00 | |
| DL1XH1-15 | 2026-09-02 11:18:42 | 54.15354 | 13.72363 | 84° | 62km/h | 11027m | 5m/s | -55.4°C | 31.7% | 230.1hPa | 2.7V | 08:30:00 | 00:51:26 | 00:00:00 | |
| DL1XH-west | 2026-09-02 11:18:39 | 54.15352 | 13.72309 | 87° | 64km/h | 11017m | 7.5m/s | -55.4°C | 32.4% | 230.5hPa | 2.8V | 18:12:15 | 00:51:24 | 00:00:00 | |
| DL1XH1-15 | 2026-09-02 11:18:36 | 54.15341 | 13.72057 | 85° | 68km/h | 10969m | 8.2m/s | -55.5°C | 32.8% | 232.4hPa | 2.8V | 08:30:00 | 00:51:15 | 00:00:00 | |
| SONDE2-11 | 2026-09-02 11:18:35 | 54.15347 | 13.72199 | 86° | 64km/h | 10994m | 5.3m/s | -55.4°C | 27.1% | 231.3hPa | 2.8V | 00:00:00 | 00:00:00 | 00:00:00 | |
| DL1XH-15 | 2026-09-02 11:18:32 | 54.15339 | 13.72027 | 84° | 68km/h | 10962m | 6m/s | -55.4°C | 32.7% | 232.6hPa | 2.8V | 08:30:00 | 00:51:14 | 00:00:00 | |
| AA1-15 | 2026-09-02 11:18:31 | 54.15342 | 13.72086 | 85° | 68km/h | 10974m | 3.4m/s | -55.4°C | 32.6% | 232.2hPa | 2.7V | 18:12:15 | 00:51:16 | 00:00:00 | |
| DL1XH-west | 2026-09-02 11:18:29 | 54.15339 | 13.72027 | 85° | 68km/h | 10962m | 6m/s | -55.4°C | 32.5% | 232.6hPa | 2.8V | 18:12:15 | 00:51:14 | 00:00:00 | |
| DK1YY | 2026-09-02 11:18:26 | 54.15332 | 13.71889 | 83° | 62km/h | 10934m | 4.7m/s | 0°C | -1.0% | -1.0hPa | 2.8V | 00:00:00 | 00:00:00 | 00:00:00 | |
| DL1XH1-15 | 2026-09-02 11:18:25 | 54.15323 | 13.71750 | 83° | 66km/h | 10905m | 5.3m/s | -55.2°C | 32.8% | 234.7hPa | 2.8V | 08:30:00 | 00:51:04 | 00:00:00 | |
| DL1XH-15 | 2026-09-02 11:18:25 | 54.15323 | 13.71750 | 83° | 66km/h | 10905m | 5.3m/s | -55.2°C | 32.8% | 234.7hPa | 2.8V | 08:30:00 | 00:51:04 | 00:00:00 | |
| AA1-15 | 2026-09-02 11:18:21 | 54.15326 | 13.71806 | 85° | 66km/h | 10917m | 3.1m/s | -55.2°C | 32.5% | 234.3hPa | 2.7V | 18:12:15 | 00:51:06 | 00:00:00 | |
| DL1XH-west | 2026-09-02 11:18:18 | 54.15321 | 13.71721 | 83° | 71km/h | 10900m | 4.2m/s | -55.1°C | 32.6% | 234.9hPa | 2.8V | 18:12:15 | 00:51:03 | 00:00:00 | |
| DL1XH1-15 | 2026-09-02 11:18:12 | 54.15294 | 13.71453 | 81° | 58km/h | 10847m | 6.3m/s | -54.8°C | 32.4% | 236.8hPa | 2.7V | 08:30:00 | 00:50:54 | 00:00:00 | |
| AA1-15 | 2026-09-02 11:18:10 | 54.15296 | 13.71478 | 80° | 60km/h | 10855m | 8.3m/s | -54.9°C | 33.1% | 236.6hPa | 2.7V | 18:12:15 | 00:50:55 | 00:00:00 | |
| DL1XH-west | 2026-09-02 11:18:08 | 54.15291 | 13.71428 | 84° | 58km/h | 10843m | 3.4m/s | -54.8°C | 33.2% | 237hPa | 2.8V | 18:12:15 | 00:50:53 | 00:00:00 | |
| DG6HD-15 | 2026-09-02 11:18:04 | 54.15287 | 13.71350 | 85° | 66km/h | 10826m | 6.3m/s | -54.7°C | 27.6% | 237.5hPa | 2.7V | 00:00:00 | 00:00:00 | 00:00:00 | |
| DL1XH1-15 | 2026-09-02 11:18:00 | 54.15266 | 13.71175 | 72° | 60km/h | 10794m | 4.4m/s | -54.5°C | 33.5% | 238.8hPa | 2.7V | 08:30:00 | 00:50:44 | 00:00:00 | |
| AA1-15 | 2026-09-02 11:17:59 | 54.15265 | 13.71175 | 73° | 60km/h | 10794m | 4.4m/s | -54.5°C | 34.2% | 238.8hPa | 2.7V | 18:12:15 | 00:50:44 | 00:00:00 | |
| DL1XH-west | 2026-09-02 11:17:58 | 54.15261 | 13.71150 | 74° | 58km/h | 10788m | 7.4m/s | -54.5°C | 34.3% | 239hPa | 2.7V | 18:12:15 | 00:50:43 | 00:00:00 | |
| DK1YY | 2026-09-02 11:17:55 | 54.15245 | 13.71052 | 76° | 64km/h | 10766m | 5.9m/s | 0°C | -1.0% | -1.0hPa | 2.8V | 00:00:00 | 00:00:00 | 00:00:00 | |
| DL1XH1-15 | 2026-09-02 11:17:52 | 54.15223 | 13.70905 | 73° | 69km/h | 10734m | 6m/s | -54.4°C | 36% | 241hPa | 2.8V | 08:30:00 | 00:50:34 | 00:00:00 | |
| DL1XH-west | 2026-09-02 11:17:48 | 54.15218 | 13.70876 | 73° | 69km/h | 10730m | 3.8m/s | -54.4°C | 36.1% | 241.2hPa | 2.8V | 18:12:15 | 00:50:33 | 00:00:00 | |
| DG6HD-15 | 2026-09-02 11:17:44 | 54.15204 | 13.70790 | 76° | 69km/h | 10712m | 7.2m/s | -54.4°C | 30.0% | 241.8hPa | 2.8V | 00:00:00 | 00:00:00 | 00:00:00 | |
| DL1XH1-15 | 2026-09-02 11:17:41 | 54.15181 | 13.70612 | 68° | 73km/h | 10682m | 3.4m/s | -54.3°C | 36.5% | 242.9hPa | 2.8V | 08:30:00 | 00:50:24 | 00:00:00 | |
| DL1XH-west | 2026-09-02 11:17:37 | 54.15167 | 13.70554 | 66° | 73km/h | 10669m | 7.8m/s | -54.3°C | 37.2% | 243.3hPa | 2.8V | 18:12:15 | 00:50:22 | 00:00:00 | |
| SP3BTT-10 | 2026-09-02 11:17:34 | 54.15143 | 13.70477 | 60° | 68km/h | 10651m | 6.1m/s | -54.5°C | 37.4% | 244.1hPa | 2.7V | 00:00:00 | 00:00:00 | 00:00:00 | |
| SONDE2-11 | 2026-09-02 11:17:33 | 54.15128 | 13.70430 | 61° | 60km/h | 10638m | 4.7m/s | -54.5°C | 31.9% | 244.6hPa | 2.8V | 00:00:00 | 00:00:00 | 00:00:00 | |
| DL1XH-15 | 2026-09-02 11:17:31 | 54.15107 | 13.70360 | 64° | 62km/h | 10621m | 5.9m/s | -54.4°C | 37.2% | 245.2hPa | 2.8V | 08:30:00 | 00:50:14 | 00:00:00 | |
| DL1XH-west | 2026-09-02 11:17:26 | 54.15085 | 13.70285 | 63° | 66km/h | 10604m | 7m/s | -54.3°C | 37.5% | 245.8hPa | 2.8V | 18:12:15 | 00:50:11 | 00:00:00 | |
| DB0DAN | 2026-09-02 11:17:25 | 54.15077 | 13.70260 | 61° | 64km/h | 10598m | 4.7m/s | -54.2°C | 32.3% | 246.1hPa | 2.7V | 00:00:00 | 00:00:00 | 00:00:00 | |
| DG6HD-15 | 2026-09-02 11:17:23 | 54.15069 | 13.70235 | 62° | 68km/h | 10594m | 4.2m/s | -54.2°C | 32.5% | 246.4hPa | 2.7V | 00:00:00 | 00:00:00 | 00:00:00 | |
| DL1XH1-15 | 2026-09-02 11:17:20 | 54.15033 | 13.70106 | 69° | 64km/h | 10568m | 5.7m/s | -54°C | 38.3% | 247.3hPa | 2.7V | 08:30:00 | 00:50:04 | 00:00:00 | |
| DL1XH-west | 2026-09-02 11:17:16 | 54.15014 | 13.70029 | 65° | 64km/h | 10552m | 3.7m/s | -54.1°C | 38.6% | 247.9hPa | 2.8V | 18:12:15 | 00:50:01 | 00:00:00 | |
| AA1-15 | 2026-09-02 11:17:15 | 54.15007 | 13.70004 | 64° | 64km/h | 10546m | 8.7m/s | -54.1°C | 38.6% | 248hPa | 2.8V | 18:12:15 | 00:50:00 | 00:00:00 | |
| DB0DAN | 2026-09-02 11:17:10 | 54.14969 | 13.69877 | 65° | 62km/h | 10516m | 4.2m/s | -54°C | 33.8% | 249.28hPa | 2.8V | 00:00:00 | 00:00:00 | 00:00:00 | |
| DL1XH-west | 2026-09-02 11:17:05 | 54.14934 | 13.69748 | 65° | 68km/h | 10488m | 6.2m/s | -53.7°C | 39.6% | 250.3hPa | 2.8V | 18:12:15 | 00:49:50 | 00:00:00 | |
| AA1-15 | 2026-09-02 11:17:04 | 54.14927 | 13.69722 | 66° | 68km/h | 10482m | 6m/s | -53.7°C | 39.7% | 250.6hPa | 2.8V | 18:12:15 | 00:49:49 | 00:00:00 | |
| DG6HD-15 | 2026-09-02 11:17:03 | 54.14927 | 13.69722 | 67° | 68km/h | 10482m | 6.0m/s | -53.7°C | 33.8% | 250.6hPa | 2.8V | 00:00:00 | 00:00:00 | 00:00:00 | |
| DL1XH1-15 | 2026-09-02 11:17:02 | 54.14898 | 13.69590 | 70° | 60km/h | 10457m | 5.4m/s | -53.5°C | 41% | 251.5hPa | 2.8V | 08:30:00 | 00:49:44 | 00:00:00 | |
| DL1XH-west | 2026-09-02 11:16:55 | 54.14868 | 13.69488 | 59° | 71km/h | 10438m | 6.1m/s | -53.5°C | 42.3% | 252.2hPa | 2.9V | 18:12:15 | 00:49:40 | 00:00:00 | |
| DB0DAN | 2026-09-02 11:16:55 | 54.14868 | 13.69488 | 59° | 68km/h | 10438m | 6.1m/s | -53.5°C | 36.1% | 252.23hPa | 2.9V | 00:00:00 | 00:00:00 | 00:00:00 | |
| AA1-15 | 2026-09-02 11:16:53 | 54.14851 | 13.69434 | 66° | 71km/h | 10427m | 4.9m/s | -53.5°C | 42.8% | 252.7hPa | 2.8V | 18:12:15 | 00:49:38 | 00:00:00 | |
| DL1XH-15 | 2026-09-02 11:16:52 | 54.14825 | 13.69318 | 67° | 73km/h | 10405m | 3.1m/s | -53.5°C | 44.4% | 253.7hPa | 2.9V | 08:30:00 | 00:49:34 | 00:00:00 | |
| DL1XH-west | 2026-09-02 11:16:44 | 54.14788 | 13.69184 | 60° | 66km/h | 10379m | 7.4m/s | -53.4°C | 45.8% | 254.6hPa | 2.9V | 18:12:15 | 00:49:29 | 00:00:00 | |
| AA1-15 | 2026-09-02 11:16:42 | 54.14770 | 13.69136 | 58° | 68km/h | 10367m | 4.2m/s | -53.4°C | 46.5% | 255.1hPa | 2.8V | 18:12:15 | 00:49:27 | 00:00:00 | |
| DB0DAN | 2026-09-02 11:16:40 | 54.14753 | 13.69087 | 59° | 64km/h | 10357m | 7.8m/s | -53.4°C | 41% | 255.51hPa | 2.8V | 00:00:00 | 00:00:00 | 00:00:00 | |
| DL1XH-west | 2026-09-02 11:16:34 | 54.14706 | 13.68933 | 60° | 64km/h | 10323m | 4.7m/s | -53.3°C | 49.8% | 257hPa | 2.8V | 18:12:15 | 00:49:19 | 00:00:00 | |
| DL1XH-15 | 2026-09-02 11:16:31 | 54.14664 | 13.68820 | 56° | 64km/h | 10293m | 7.1m/s | -53.3°C | 53.9% | 258.1hPa | 2.8V | 08:30:00 | 00:49:14 | 00:00:00 | |
| AA1-15 | 2026-09-02 11:16:31 | 54.14681 | 13.68865 | 57° | 62km/h | 10306m | 4.6m/s | -53.3°C | 51.5% | 257.7hPa | 2.8V | 18:12:15 | 00:49:16 | 00:00:00 | |
| DL1XH-15 | 2026-09-02 11:16:24 | 54.14585 | 13.68587 | 56° | 64km/h | 10237m | 7.5m/s | -53°C | 64.8% | 260.4hPa | 2.9V | 08:30:00 | 00:49:04 | 00:00:00 | |
| DL1XH-west | 2026-09-02 11:16:23 | 54.14617 | 13.68679 | 61° | 60km/h | 10260m | 8.3m/s | -53.2°C | 58% | 259.4hPa | 2.8V | 18:12:15 | 00:49:08 | 00:00:00 | |
| AA1-15 | 2026-09-02 11:16:20 | 54.14593 | 13.68611 | 59° | 64km/h | 10243m | 4.9m/s | -53°C | 61.6% | 260.2hPa | 2.9V | 18:12:15 | 00:49:05 | 00:00:00 | |
| DL1XH-15 | 2026-09-02 11:16:11 | 54.14509 | 13.68364 | 52° | 64km/h | 10186m | 4.5m/s | -52.9°C | 81% | 262.4hPa | 2.9V | 08:30:00 | 00:48:54 | 00:00:00 | |
| AA1-15 | 2026-09-02 11:16:10 | 54.14518 | 13.68385 | 53° | 60km/h | 10190m | 5.2m/s | -52.9°C | 74.1% | 262.3hPa | 2.9V | 18:12:15 | 00:48:55 | 00:00:00 | |
| DG6HD-11 | 2026-09-02 11:16:10 | 54.14518 | 13.68385 | 54° | 66km/h | 10190m | 5.2m/s | -52.8°C | 79.4% | 262.3hPa | 2.9V | 00:00:00 | 00:00:00 | 00:00:00 | |
| S3001 | 2026-09-02 11:16:06 | 54.14469 | 13.68270 | 55° | 66km/h | 10162m | 5.3m/s | -52.9°C | 78.7% | 263.4hPa | 2.9V | 00:00:00 | 00:00:00 | 00:00:00 | |
| DL1XH-15 | 2026-09-02 11:16:04 | 54.14418 | 13.68137 | 55° | 58km/h | 10131m | 8.9m/s | -52.6°C | 89.3% | 264.8hPa | 2.9V | 08:30:00 | 00:48:44 | 00:00:00 | |
| AA1-15 | 2026-09-02 11:15:59 | 54.14418 | 13.68137 | 55° | 58km/h | 10131m | 8.9m/s | -52.6°C | 81.9% | 264.8hPa | 2.9V | 18:12:15 | 00:48:44 | 00:00:00 | |
| DL1XH-15 | 2026-09-02 11:15:51 | 54.14331 | 13.67913 | 56° | 60km/h | 10072m | 5m/s | -52.2°C | 91.4% | 267hPa | 2.7V | 08:30:00 | 00:48:34 | 00:00:00 | |
| DL1XH-west | 2026-09-02 11:15:51 | 54.14348 | 13.67957 | 57° | 62km/h | 10083m | 7.3m/s | -52.3°C | 85% | 266.6hPa | 2.9V | 18:12:15 | 00:48:36 | 00:00:00 | |
| AA1-15 | 2026-09-02 11:15:48 | 54.14323 | 13.67891 | 58° | 62km/h | 10067m | 5.4m/s | -52.1°C | 85.5% | 267.3hPa | 2.8V | 18:12:15 | 00:48:33 | 00:00:00 | |
| DL1XH-15 | 2026-09-02 11:15:44 | 54.14228 | 13.67670 | 51° | 68km/h | 10014m | 7.7m/s | -51.6°C | 92.8% | 269.4hPa | 2.9V | 08:30:00 | 00:48:24 | 00:00:00 | |
| AA1-15 | 2026-09-02 11:15:37 | 54.14207 | 13.67626 | 53° | 64km/h | 10001m | 5.1m/s | -51.5°C | 86.6% | 270hPa | 2.8V | 18:12:15 | 00:48:22 | 00:00:00 | |
| S3001 | 2026-09-02 11:15:35 | 54.14177 | 13.67561 | 48° | 66km/h | 9984m | 4.7m/s | -51.4°C | 86.6% | 270.6hPa | 2.9V | 00:00:00 | 00:00:00 | 00:00:00 | |
| DL1XH1-15 | 2026-09-02 11:15:31 | 54.14095 | 13.67399 | 51° | 66km/h | 9944m | 6m/s | -51°C | 94.2% | 272.3hPa | 2.9V | 08:30:00 | 00:48:12 | 00:00:00 | |
| AA1-15 | 2026-09-02 11:15:26 | 54.14085 | 13.67377 | 51° | 64km/h | 9940m | 3.6m/s | -51°C | 87.3% | 272.6hPa | 2.9V | 18:12:15 | 00:48:11 | 00:00:00 | |
| DL1XH-west | 2026-09-02 11:15:24 | 54.14064 | 13.67333 | 54° | 66km/h | 9929m | 7m/s | -50.9°C | 87.4% | 273.1hPa | 2.8V | 18:12:15 | 00:48:09 | 00:00:00 | |
| DL1XH1-15 | 2026-09-02 11:15:21 | 54.13998 | 13.67165 | 57° | 73km/h | 9892m | 4.4m/s | -50.5°C | 96% | 274.6hPa | 2.9V | 08:30:00 | 00:48:02 | 00:00:00 | |
| AA1-15 | 2026-09-02 11:15:16 | 54.13977 | 13.67113 | 52° | 75km/h | 9883m | 5.5m/s | -50.5°C | 88% | 275hPa | 2.9V | 18:12:15 | 00:48:00 | 00:00:00 | |
| DL1XH-west | 2026-09-02 11:15:13 | 54.13953 | 13.67066 | 48° | 69km/h | 9871m | 4.6m/s | -50.4°C | 87.5% | 275.5hPa | 2.8V | 18:12:15 | 00:47:58 | 00:00:00 | |
| DL1XH1-15 | 2026-09-02 11:15:10 | 54.13886 | 13.66934 | 51° | 68km/h | 9839m | 7m/s | -50°C | 93% | 276.9hPa | 2.8V | 08:30:00 | 00:47:52 | 00:00:00 | |
| DB0DAN | 2026-09-02 11:15:10 | 54.13918 | 13.67001 | 49° | 62km/h | 9854m | 6.5m/s | -50.2°C | 86.5% | 276.17hPa | 2.9V | 00:00:00 | 00:00:00 | 00:00:00 | |
| AA1-15 | 2026-09-02 11:15:04 | 54.13853 | 13.66864 | 51° | 71km/h | 9820m | 4.6m/s | -49.9°C | 87.6% | 277.7hPa | 2.9V | 18:12:15 | 00:47:49 | 00:00:00 | |
| DL1XH-15 | 2026-09-02 11:15:04 | 54.13797 | 13.66748 | 51° | 66km/h | 9793m | 1.9m/s | -49.6°C | 93.4% | 278.9hPa | 2.8V | 08:30:00 | 00:47:44 | 00:00:00 | |
| DL1XH-west | 2026-09-02 11:15:03 | 54.13842 | 13.66840 | 51° | 69km/h | 9815m | 6.7m/s | -49.9°C | 87.2% | 278hPa | 2.9V | 18:12:15 | 00:47:48 | 00:00:00 | |
| DG6HD-15 | 2026-09-02 11:15:01 | 54.13830 | 13.66817 | 51° | 71km/h | 9808m | 7.6m/s | -49.8°C | 85.4% | 278.2hPa | 2.9V | 00:00:00 | 00:00:00 | 00:00:00 | |
| DL1XH1-15 | 2026-09-02 11:14:59 | 54.13776 | 13.66703 | 50° | 69km/h | 9783m | 6.9m/s | -49.6°C | 93.3% | 279.3hPa | 2.9V | 08:30:00 | 00:47:42 | 00:00:00 | |
| DL1XH-west | 2026-09-02 11:14:53 | 54.13734 | 13.66610 | 54° | 66km/h | 9765m | 3.5m/s | -49.4°C | 85.2% | 280.2hPa | 2.8V | 18:12:15 | 00:47:38 | 00:00:00 | |
| DL1XH-15 | 2026-09-02 11:14:51 | 54.13692 | 13.66520 | 49° | 69km/h | 9745m | 5m/s | -49.3°C | 88.5% | 281hPa | 2.9V | 08:30:00 | 00:47:34 | 00:00:00 | |
| DL1XH-15 | 2026-09-02 11:14:44 | 54.13591 | 13.66284 | 52° | 60km/h | 9683m | 6.2m/s | -48.8°C | 85.9% | 283.6hPa | 2.9V | 08:30:00 | 00:47:24 | 00:00:00 | |
| DL1XH-west | 2026-09-02 11:14:42 | 54.13618 | 13.66350 | 57° | 66km/h | 9700m | 4.5m/s | -48.9°C | 81.4% | 282.8hPa | 2.8V | 18:12:15 | 00:47:27 | 00:00:00 | |
| DL1XH-west | 2026-09-02 11:14:32 | 54.13517 | 13.66129 | 49° | 69km/h | 9641m | 6.2m/s | -48.5°C | 79.2% | 285.4hPa | 2.9V | 18:12:15 | 00:47:17 | 00:00:00 | |
| DL1XH-15 | 2026-09-02 11:14:31 | 54.13485 | 13.66066 | 49° | 62km/h | 9624m | 3.7m/s | -48.3°C | 83.9% | 286.1hPa | 2.8V | 08:30:00 | 00:47:14 | 00:00:00 | |
| AA1-15 | 2026-09-02 11:14:31 | 54.13506 | 13.66107 | 49° | 66km/h | 9635m | 6.6m/s | -48.4°C | 79.2% | 285.6hPa | 2.9V | 18:12:15 | 00:47:16 | 00:00:00 | |
| DB0DAN | 2026-09-02 11:14:25 | 54.13445 | 13.65992 | 49° | 53km/h | 9602m | 5.9m/s | -48.2°C | 80.3% | 287hPa | 2.9V | 00:00:00 | 00:00:00 | 00:00:00 | |
| DL1XH-15 | 2026-09-02 11:14:24 | 54.13401 | 13.65863 | 63° | 60km/h | 9567m | 7.3m/s | -47.9°C | 87.7% | 288.6hPa | 2.9V | 08:30:00 | 00:47:04 | 00:00:00 | |
| DL1XH-west | 2026-09-02 11:14:22 | 54.13415 | 13.65909 | 62° | 58km/h | 9581m | 4.6m/s | -48°C | 80.8% | 288.1hPa | 2.8V | 18:12:15 | 00:47:06 | 00:00:00 | |
| AA1-15 | 2026-09-02 11:14:20 | 54.13408 | 13.65886 | 63° | 60km/h | 9575m | 8.3m/s | -48°C | 80.9% | 288.3hPa | 2.9V | 18:12:15 | 00:47:05 | 00:00:00 | |
| DL1XH-west | 2026-09-02 11:14:11 | 54.13343 | 13.65663 | 63° | 68km/h | 9518m | 6.4m/s | -47.5°C | 82.2% | 290.6hPa | 2.9V | 18:12:15 | 00:46:56 | 00:00:00 | |
| DL1XH-15 | 2026-09-02 11:14:11 | 54.13328 | 13.65612 | 62° | 64km/h | 9508m | 8.2m/s | -47.5°C | 87% | 291.1hPa | 2.8V | 08:30:00 | 00:46:54 | 00:00:00 | |
| AA1-15 | 2026-09-02 11:14:10 | 54.13328 | 13.65612 | 63° | 64km/h | 9508m | 8.2m/s | -47.5°C | 81.4% | 291.1hPa | 2.8V | 18:12:15 | 00:46:54 | 00:00:00 | |
| DG6HD-11 | 2026-09-02 11:14:09 | 54.13328 | 13.65612 | 63° | 57km/h | 9508m | 8.2m/s | -47.4°C | 87.0% | 291.1hPa | 2.9V | 00:00:00 | 00:00:00 | 00:00:00 | |
| S3001 | 2026-09-02 11:14:02 | 54.13276 | 13.65444 | 57° | 51km/h | 9461m | 3.5m/s | -47.0°C | 84.5% | 293.2hPa | 2.9V | 00:00:00 | 00:00:00 | 00:00:00 | |
| DL1XH-15 | 2026-09-02 11:14:00 | 54.13262 | 13.65402 | 59° | 57km/h | 9455m | 5.8m/s | -46.9°C | 90.1% | 293.6hPa | 2.9V | 08:30:00 | 00:46:44 | 00:00:00 | |
| DL1XH-west | 2026-09-02 11:13:59 | 54.13262 | 13.65402 | 59° | 57km/h | 9455m | 5.8m/s | -46.9°C | 81.2% | 293.6hPa | 2.9V | 18:12:15 | 00:46:44 | 00:00:00 | |
| AA1-15 | 2026-09-02 11:13:58 | 54.13254 | 13.65380 | 61° | 60km/h | 9448m | 7.5m/s | -46.9°C | 81.4% | 293.9hPa | 2.9V | 18:12:15 | 00:46:43 | 00:00:00 | |
| SONDE2-11 | 2026-09-02 11:13:55 | 54.13231 | 13.65313 | 55° | 58km/h | 9427m | 8.1m/s | -46.7°C | 81.0% | 294.7hPa | 2.8V | 00:00:00 | 00:00:00 | 00:00:00 | |
| DL1XH-15 | 2026-09-02 11:13:54 | 54.13189 | 13.65200 | 64° | 55km/h | 9391m | 6.2m/s | -46.4°C | 88.2% | 296.3hPa | 2.8V | 08:30:00 | 00:46:34 | 00:00:00 | |
| DL1XH1-15 | 2026-09-02 11:13:49 | 54.13183 | 13.65179 | 68° | 57km/h | 9386m | 5.3m/s | -46.3°C | 87.9% | 296.6hPa | 2.8V | 08:30:00 | 00:46:33 | 00:00:00 | |
| DL1XH-west | 2026-09-02 11:13:48 | 54.13183 | 13.65179 | 68° | 57km/h | 9386m | 5.3m/s | -46.3°C | 82.3% | 296.6hPa | 2.8V | 18:12:15 | 00:46:33 | 00:00:00 | |
| AA1-15 | 2026-09-02 11:13:47 | 54.13178 | 13.65155 | 70° | 60km/h | 9381m | 4.5m/s | -46.2°C | 82.3% | 296.9hPa | 2.9V | 18:12:15 | 00:46:32 | 00:00:00 | |
| AM1SDL-15 | 2026-09-02 11:13:44 | 54.13162 | 13.65079 | 69° | 62km/h | 9363m | 4.4m/s | -46.0°C | 88.7% | 297.5hPa | 2.9V | 00:00:00 | 00:46:29 | 00:00:00 | |
| DL1XH1-15 | 2026-09-02 11:13:42 | 54.13123 | 13.64939 | 59° | 57km/h | 9333m | 3.2m/s | -45.8°C | 85.7% | 299hPa | 2.9V | 08:30:00 | 00:46:23 | 00:00:00 | |
| DL1XH-15 | 2026-09-02 11:13:40 | 54.13130 | 13.64960 | 61° | 55km/h | 9337m | 5.3m/s | -45.8°C | 86.6% | 298.7hPa | 2.9V | 08:30:00 | 00:46:24 | 00:00:00 | |
| DL1XH-west | 2026-09-02 11:13:39 | 54.13123 | 13.64939 | 60° | 57km/h | 9333m | 3.2m/s | -45.8°C | 80.6% | 299hPa | 2.9V | 18:12:15 | 00:46:23 | 00:00:00 | |
| AA1-15 | 2026-09-02 11:13:36 | 54.13108 | 13.64896 | 60° | 60km/h | 9322m | 6.9m/s | -45.7°C | 79% | 299.6hPa | 2.8V | 18:12:15 | 00:46:21 | 00:00:00 | |
| SP3BTT-10 | 2026-09-02 11:13:32 | 54.13076 | 13.64797 | 61° | 58km/h | 9302m | 3.8m/s | -45.4°C | 82.9% | 300.4hPa | 2.8V | 00:00:00 | 00:00:00 | 00:00:00 | |
| DL1XH-15 | 2026-09-02 11:13:30 | 54.13054 | 13.64728 | 63° | 57km/h | 9288m | 7.2m/s | -45.4°C | 81.5% | 301hPa | 2.8V | 08:30:00 | 00:46:14 | 00:00:00 | |
| DL1XH1-15 | 2026-09-02 11:13:29 | 54.13042 | 13.64685 | 69° | 57km/h | 9277m | 5.6m/s | -45.3°C | 80.4% | 301.5hPa | 2.9V | 08:30:00 | 00:46:12 | 00:00:00 | |
| DL1XH-west | 2026-09-02 11:13:28 | 54.13043 | 13.64685 | 70° | 57km/h | 9277m | 5.6m/s | -45.3°C | 73.5% | 301.5hPa | 2.9V | 18:12:15 | 00:46:12 | 00:00:00 | |
| AA1-15 | 2026-09-02 11:13:25 | 54.13031 | 13.64637 | 66° | 64km/h | 9267m | 5.6m/s | -45.2°C | 72.5% | 302hPa | 2.9V | 18:12:15 | 00:46:10 | 00:00:00 | |
| DL1XH-15 | 2026-09-02 11:13:24 | 54.12983 | 13.64502 | 46° | 53km/h | 9239m | 6.7m/s | -44.9°C | 73.8% | 303.2hPa | 2.9V | 08:30:00 | 00:46:04 | 00:00:00 | |
| DL1XH1-15 | 2026-09-02 11:13:23 | 54.12964 | 13.64473 | 41° | 49km/h | 9228m | 4.3m/s | -44.8°C | 73.6% | 303.9hPa | 2.9V | 08:30:00 | 00:46:02 | 00:00:00 | |
| DL1XH-west | 2026-09-02 11:13:17 | 54.12955 | 13.64459 | 40° | 49km/h | 9225m | 2.4m/s | -44.8°C | 68.3% | 303.9hPa | 2.9V | 18:12:15 | 00:46:01 | 00:00:00 | |
| AA1-15 | 2026-09-02 11:13:15 | 54.12945 | 13.64445 | 44° | 53km/h | 9222m | 4.7m/s | -44.7°C | 67.5% | 304.1hPa | 2.8V | 18:12:15 | 00:46:00 | 00:00:00 | |
| DL1XH1-15 | 2026-09-02 11:13:09 | 54.12894 | 13.64255 | 71° | 51km/h | 9179m | 5.5m/s | -44.3°C | 72.8% | 306.2hPa | 2.8V | 08:30:00 | 00:45:52 | 00:00:00 | |
| DL1XH-west | 2026-09-02 11:13:06 | 54.12890 | 13.64235 | 70° | 47km/h | 9173m | 6.5m/s | -44.2°C | 69% | 306.5hPa | 2.9V | 18:12:15 | 00:45:51 | 00:00:00 | |
| DL1XH-15 | 2026-09-02 11:13:05 | 54.12842 | 13.64088 | 65° | 64km/h | 9128m | 6.4m/s | -43.9°C | 78.9% | 308.4hPa | 2.9V | 08:30:00 | 00:45:44 | 00:00:00 | |
| AA1-15 | 2026-09-02 11:13:04 | 54.12880 | 13.64198 | 59° | 49km/h | 9160m | 6.8m/s | -44.1°C | 71.3% | 307.2hPa | 2.9V | 18:12:15 | 00:45:49 | 00:00:00 | |
| DL1XH1-15 | 2026-09-02 11:12:59 | 54.12828 | 13.64040 | 63° | 60km/h | 9118m | 5.1m/s | -43.8°C | 80.7% | 0hPa | 2.9V | 08:30:00 | 00:45:42 | 00:00:00 | |
| DL1XH-west | 2026-09-02 11:12:55 | 54.12814 | 13.63995 | 61° | 57km/h | 9106m | 5.9m/s | -43.7°C | 76.2% | 309.4hPa | 2.9V | 18:12:15 | 00:45:40 | 00:00:00 | |
| AA1-15 | 2026-09-02 11:12:53 | 54.12801 | 13.63951 | 65° | 57km/h | 9091m | 7.6m/s | -43.6°C | 76.6% | 310hPa | 2.8V | 18:12:15 | 00:45:38 | 00:00:00 | |
| DL1XH-15 | 2026-09-02 11:12:50 | 54.12775 | 13.63869 | 53° | 51km/h | 9068m | 5.8m/s | -43.4°C | 83.6% | 311.1hPa | 2.9V | 08:30:00 | 00:45:34 | 00:00:00 | |
| DL1XH-west | 2026-09-02 11:12:44 | 54.12737 | 13.63788 | 58° | 51km/h | 9037m | 8.8m/s | -43.1°C | 76% | 312.5hPa | 2.9V | 18:12:15 | 00:45:29 | 00:00:00 | |
| AA1-15 | 2026-09-02 11:12:42 | 54.12725 | 13.63748 | 67° | 53km/h | 9024m | 4.2m/s | -43°C | 74.7% | 313.1hPa | 2.9V | 18:12:15 | 00:45:27 | 00:00:00 | |
| DL1XH1-15 | 2026-09-02 11:12:39 | 54.12707 | 13.63651 | 72° | 42km/h | 8996m | 6.6m/s | -42.8°C | 77.4% | 0hPa | 2.9V | 08:30:00 | 00:45:22 | 00:00:00 | |
| DL1XH-west | 2026-09-02 11:12:34 | 54.12692 | 13.63600 | 55° | 47km/h | 8977m | 5.6m/s | -42.6°C | 69.5% | 315.2hPa | 2.9V | 18:12:15 | 00:45:19 | 00:00:00 | |
| AA1-15 | 2026-09-02 11:12:31 | 54.12668 | 13.63552 | 44° | 53km/h | 8959m | 5.3m/s | -42.5°C | 67.5% | 316.1hPa | 2.8V | 18:12:15 | 00:45:16 | 00:00:00 | |
| DL1XH1-15 | 2026-09-02 11:12:29 | 54.12631 | 13.63488 | 49° | 51km/h | 8938m | 7.6m/s | -42.2°C | 73.4% | 0hPa | 2.9V | 08:30:00 | 00:45:12 | 00:00:00 | |
| S3001 | 2026-09-02 11:12:28 | 54.12640 | 13.63505 | 46° | 49km/h | 8945m | 6.5m/s | -42.3°C | 68.1% | 316.8hPa | 2.9V | 00:00:00 | 00:00:00 | 00:00:00 | |
| DL1XH-15 | 2026-09-02 11:12:24 | 54.12578 | 13.63341 | 66° | 46km/h | 8883m | 6.4m/s | -41.8°C | 77.2% | 319.5hPa | 2.9V | 08:30:00 | 00:45:04 | 00:00:00 | |
| DL1XH-west | 2026-09-02 11:12:23 | 54.12601 | 13.63413 | 58° | 53km/h | 8914m | 7.8m/s | -42.1°C | 70% | 318.2hPa | 2.9V | 18:12:15 | 00:45:08 | 00:00:00 | |
| AA1-15 | 2026-09-02 11:12:21 | 54.12583 | 13.63359 | 63° | 46km/h | 8890m | 7.2m/s | -41.9°C | 71.6% | 319.2hPa | 2.9V | 18:12:15 | 00:45:05 | 00:00:00 | |
| DL1XH-west | 2026-09-02 11:12:13 | 54.12538 | 13.63231 | 53° | 57km/h | 8846m | 6.2m/s | -41.5°C | 72.1% | 321.2hPa | 2.9V | 18:12:15 | 00:44:58 | 00:00:00 | |
| AA1-15 | 2026-09-02 11:12:10 | 54.12517 | 13.63172 | 65° | 51km/h | 8831m | 5.5m/s | -41.4°C | 74% | 322.1hPa | 2.8V | 18:12:15 | 00:44:55 | 00:00:00 | |
| DL1XH-15 | 2026-09-02 11:12:10 | 54.12512 | 13.63153 | 68° | 49km/h | 8825m | 7.3m/s | -41.4°C | 81.2% | 322.3hPa | 2.8V | 08:30:00 | 00:44:54 | 00:00:00 | |
| DL1XH1-15 | 2026-09-02 11:12:09 | 54.12500 | 13.63087 | 75° | 53km/h | 8808m | 5.9m/s | 0°C | 0% | 0hPa | 2.9V | 08:30:00 | 00:44:51 | 00:00:00 | |
| DG6HD-11 | 2026-09-02 11:12:08 | 54.12508 | 13.63132 | 73° | 49km/h | 8818m | 6.6m/s | -41.3°C | 81.5% | 322.5hPa | 2.9V | 00:00:00 | 00:00:00 | 00:00:00 | |
| AM1SDL-15 | 2026-09-02 11:12:07 | 54.12504 | 13.63109 | 74° | 49km/h | 8813m | 3.5m/s | -41.3°C | 81.9% | 322.8hPa | 2.9V | 00:00:00 | 00:44:52 | 00:00:00 | |
| DL1XH-15 | 2026-09-02 11:12:04 | 54.12474 | 13.62953 | 61° | 53km/h | 8771m | 5.9m/s | -40.9°C | 83.2% | 325.1hPa | 2.9V | 08:30:00 | 00:44:44 | 00:00:00 | |
| DL1XH-west | 2026-09-02 11:12:01 | 54.12485 | 13.62992 | 68° | 46km/h | 8782m | 6.7m/s | -41.1°C | 76.1% | 324.5hPa | 2.9V | 18:12:15 | 00:44:46 | 00:00:00 | |
| AA1-15 | 2026-09-02 11:12:00 | 54.12480 | 13.62973 | 63° | 51km/h | 8776m | 4.2m/s | -41°C | 76.2% | 324.9hPa | 2.9V | 18:12:15 | 00:44:45 | 00:00:00 | |
| S3001 | 2026-09-02 11:11:57 | 54.12459 | 13.62913 | 56° | 53km/h | 8760m | 6.4m/s | -40.9°C | 78.1% | 325.6hPa | 2.9V | 00:00:00 | 00:00:00 | 00:00:00 | |
| AM1SDL-15 | 2026-09-02 11:11:55 | 54.12445 | 13.62879 | 56° | 47km/h | 8750m | 2.6m/s | -40.7°C | 83.7% | 326.1hPa | 2.9V | 00:00:00 | 00:44:40 | 00:00:00 | |
| DL1XH-15 | 2026-09-02 11:11:54 | 54.12422 | 13.62778 | 72° | 53km/h | 8717m | 5.4m/s | -40.5°C | 82.2% | 327.5hPa | 2.9V | 08:30:00 | 00:44:34 | 00:00:00 | |
| AA1-15 | 2026-09-02 11:11:50 | 54.12422 | 13.62778 | 73° | 53km/h | 8717m | 5.4m/s | -40.5°C | 77.2% | 327.5hPa | 2.9V | 18:12:15 | 00:44:34 | 00:00:00 | |
| DL1XH-15 | 2026-09-02 11:11:44 | 54.12370 | 13.62569 | 54° | 53km/h | 8659m | 3.5m/s | -39.9°C | 82.7% | 330.4hPa | 2.8V | 08:30:00 | 00:44:24 | 00:00:00 | |
| AM1SDL-15 | 2026-09-02 11:11:43 | 54.12394 | 13.62643 | 65° | 47km/h | 8684m | 6.9m/s | -40.1°C | 81.8% | 329.3hPa | 2.9V | 00:00:00 | 00:44:28 | 00:00:00 | |
| DB0DAN | 2026-09-02 11:11:40 | 54.12377 | 13.62587 | 58° | 47km/h | 8664m | 6m/s | -40°C | 77.2% | 330.1hPa | 2.8V | 00:00:00 | 00:00:00 | 00:00:00 | |
| AA1-15 | 2026-09-02 11:11:38 | 54.12362 | 13.62551 | 54° | 51km/h | 8655m | 4.9m/s | -39.9°C | 74.8% | 330.6hPa | 2.9V | 18:12:15 | 00:44:23 | 00:00:00 | |
| DG6HD-11 | 2026-09-02 11:11:38 | 54.12362 | 13.62551 | 54° | 51km/h | 8655m | 4.8m/s | -39.8°C | 83.7% | 330.5hPa | 2.9V | 00:00:00 | 00:44:23 | 00:00:00 | |
| AM1SDL-15 | 2026-09-02 11:11:31 | 54.12331 | 13.62428 | 70° | 53km/h | 8614m | 6.6m/s | -39.6°C | 84.1% | 332.4hPa | 2.9V | 00:00:00 | 00:44:16 | 00:00:00 | |
| DL1XH-15 | 2026-09-02 11:11:30 | 54.12325 | 13.62393 | 75° | 44km/h | 8599m | 8.2m/s | -39.5°C | 83.8% | 333.1hPa | 2.9V | 08:30:00 | 00:44:14 | 00:00:00 | |
| AA1-15 | 2026-09-02 11:11:27 | 54.12319 | 13.62355 | 77° | 49km/h | 8583m | 6.6m/s | -39.4°C | 77.2% | 333.8hPa | 2.9V | 18:12:15 | 00:44:12 | 00:00:00 | |
| DB0DAN | 2026-09-02 11:11:25 | 54.12311 | 13.62311 | 68° | 57km/h | 8570m | 7m/s | -39.3°C | 80.7% | 334.49hPa | 2.9V | 00:00:00 | 00:00:00 | 00:00:00 | |
| DL1XH-15 | 2026-09-02 11:11:24 | 54.12268 | 13.62178 | 57° | 44km/h | 8530m | 7m/s | -39.1°C | 80.8% | 336.4hPa | 2.9V | 08:30:00 | 00:44:04 | 00:00:00 | |
| AA1-15 | 2026-09-02 11:11:16 | 54.12252 | 13.62128 | 68° | 49km/h | 8508m | 6.1m/s | -39°C | 77.2% | 337.5hPa | 2.8V | 18:12:15 | 00:44:01 | 00:00:00 | |
| DL1XH-15 | 2026-09-02 11:11:10 | 54.12222 | 13.61963 | 70° | 49km/h | 8469m | 5.3m/s | -38.7°C | 91.8% | 339.5hPa | 2.9V | 08:30:00 | 00:43:54 | 00:00:00 | |
| AA1-15 | 2026-09-02 11:11:05 | 54.12196 | 13.61891 | 50° | 53km/h | 8442m | 7.2m/s | -38.6°C | 82.8% | 340.6hPa | 2.9V | 18:12:15 | 00:43:50 | 00:00:00 | |
| AA1-15 | 2026-09-02 11:10:54 | 54.12142 | 13.61680 | 73° | 51km/h | 8384m | 6.4m/s | -38.1°C | 84.4% | 343.9hPa | 2.9V | 18:12:15 | 00:43:39 | 00:00:00 | |
| DL1XH-15 | 2026-09-02 11:10:50 | 54.12121 | 13.61576 | 60° | 49km/h | 8349m | 6.9m/s | -37.8°C | 94.2% | 345.6hPa | 2.9V | 08:30:00 | 00:43:34 | 00:00:00 | |
| DL1XH-15 | 2026-09-02 11:10:45 | 54.12059 | 13.61384 | 55° | 49km/h | 8289m | 5.6m/s | -37.3°C | 92.6% | 348.8hPa | 2.8V | 08:30:00 | 00:43:24 | 00:00:00 | |
| AA1-15 | 2026-09-02 11:10:43 | 54.12084 | 13.61466 | 66° | 57km/h | 8316m | 5.6m/s | -37.5°C | 86% | 347.3hPa | 2.9V | 18:12:15 | 00:43:28 | 00:00:00 | |
| DB0DAN | 2026-09-02 11:10:40 | 54.12066 | 13.61402 | 58° | 49km/h | 8295m | 6.9m/s | -37.3°C | 87.5% | 348.39hPa | 2.9V | 00:00:00 | 00:00:00 | 00:00:00 | |
| AA1-15 | 2026-09-02 11:10:32 | 54.12016 | 13.61241 | 73° | 57km/h | 8244m | 5.6m/s | -37°C | 84% | 350.9hPa | 2.9V | 18:12:15 | 00:43:17 | 00:00:00 | |
| DL1XH1-15 | 2026-09-02 11:10:29 | 54.12005 | 13.61173 | 77° | 53km/h | 8226m | 7.1m/s | 0°C | 0% | 0hPa | 2.9V | 08:30:00 | 00:43:14 | 00:00:00 | |
| DL1XH-west | 2026-09-02 11:10:25 | 54.11984 | 13.61090 | 56° | 53km/h | 8206m | 5m/s | -36.7°C | 82.7% | 352.8hPa | 2.8V | 18:12:15 | 00:43:10 | 00:00:00 | |
| S3001 | 2026-09-02 11:10:24 | 54.11976 | 13.61071 | 53° | 55km/h | 8200m | 8.0m/s | -36.7°C | 83.8% | 353.1hPa | 2.9V | 00:00:00 | 00:00:00 | 00:00:00 | |
| DL1XH1-15 | 2026-09-02 11:10:22 | 54.11951 | 13.60972 | 79° | 49km/h | 8173m | 5.1m/s | 0°C | 0% | 0hPa | 2.9V | 08:30:00 | 00:43:04 | 00:00:00 | |
| AA1-15 | 2026-09-02 11:10:21 | 54.11956 | 13.61014 | 70° | 49km/h | 8181m | 5.6m/s | -36.6°C | 83.3% | 354hPa | 2.9V | 18:12:15 | 00:43:06 | 00:00:00 | |
| DL1XH-west | 2026-09-02 11:10:14 | 54.11938 | 13.60876 | 73° | 42km/h | 8144m | 5.3m/s | -36.3°C | 84.6% | 0hPa | 2.9V | 18:12:15 | 00:42:59 | 00:00:00 | |
| DL1XH1-15 | 2026-09-02 11:10:11 | 54.11898 | 13.60732 | 72° | 51km/h | 8093m | 8m/s | 0°C | 0% | 0hPa | 2.9V | 08:30:00 | 00:42:51 | 00:00:00 | |
| AA1-15 | 2026-09-02 11:10:10 | 54.11920 | 13.60807 | 59° | 47km/h | 8123m | 5.6m/s | -36.1°C | 85.7% | 357.1hPa | 2.9V | 18:12:15 | 00:42:55 | 00:00:00 | |
| DL1XH-15 | 2026-09-02 11:10:10 | 54.11914 | 13.60790 | 58° | 47km/h | 8116m | 7.5m/s | -36.1°C | 90.8% | 357.4hPa | 2.9V | 08:30:00 | 00:42:54 | 00:00:00 | |
| DG6HD-11 | 2026-09-02 11:10:08 | 54.11908 | 13.60771 | 62° | 47km/h | 8109m | 8.3m/s | -36.0°C | 90.6% | 357.8hPa | 2.9V | 00:00:00 | 00:00:00 | 08:30:00 | |
| AM1SDL-15 | 2026-09-02 11:10:05 | 54.11895 | 13.60711 | 76° | 47km/h | 8086m | 5.7m/s | -35.9°C | 89.9% | 358.8hPa | 2.9V | 00:00:00 | 00:42:50 | 00:00:00 | |
| DL1XH-15 | 2026-09-02 11:10:04 | 54.11872 | 13.60590 | 66° | 49km/h | 8053m | 4.7m/s | -35.6°C | 92.2% | 360.7hPa | 2.9V | 08:30:00 | 00:42:44 | 00:00:00 | |
| DL1XH-west | 2026-09-02 11:10:02 | 54.11885 | 13.60648 | 71° | 49km/h | 8067m | 5.2m/s | -35.8°C | 85.6% | 0hPa | 2.9V | 18:12:15 | 00:42:47 | 00:00:00 | |
| AA1-15 | 2026-09-02 11:09:59 | 54.11872 | 13.60590 | 67° | 49km/h | 8053m | 4.7m/s | -35.6°C | 86.4% | 360.7hPa | 2.9V | 18:12:15 | 00:42:44 | 00:00:00 | |
| DB0DAN | 2026-09-02 11:09:55 | 54.11853 | 13.60518 | 67° | 42km/h | 8031m | 4.5m/s | -35.5°C | 87% | 361.77hPa | 2.8V | 00:00:00 | 00:00:00 | 00:00:00 | |
| DL1XH-west | 2026-09-02 11:09:51 | 54.11838 | 13.60444 | 71° | 46km/h | 8011m | 5.8m/s | -35.5°C | 86.9% | 0hPa | 2.9V | 18:12:15 | 00:42:36 | 00:00:00 | |
| DL1XH-15 | 2026-09-02 11:09:50 | 54.11829 | 13.60407 | 66° | 47km/h | 8002m | 4m/s | -35.4°C | 90.8% | 363.3hPa | 2.9V | 08:30:00 | 00:42:34 | 00:00:00 | |
| AA1-15 | 2026-09-02 11:09:49 | 54.11829 | 13.60407 | 67° | 47km/h | 8002m | 4.1m/s | -35.4°C | 86.3% | 363.3hPa | 2.9V | 18:12:15 | 00:42:34 | 00:00:00 | |
| SONDE2-11 | 2026-09-02 11:09:47 | 54.11820 | 13.60369 | 66° | 47km/h | 7992m | 3.5m/s | -35.4°C | 86.9% | 363.8hPa | 2.9V | 00:00:00 | 00:00:00 | 00:00:00 | |
| DL1XH-15 | 2026-09-02 11:09:44 | 54.11791 | 13.60218 | 80° | 47km/h | 7955m | 2.5m/s | -35.2°C | 91.2% | 365.6hPa | 2.9V | 08:30:00 | 00:42:24 | 00:00:00 | |
| DL1XH-west | 2026-09-02 11:09:40 | 54.11793 | 13.60239 | 82° | 49km/h | 7959m | 4.8m/s | -35.2°C | 81.4% | 0hPa | 2.9V | 18:12:15 | 00:42:25 | 00:00:00 | |
| DB0DAN | 2026-09-02 11:09:40 | 54.11793 | 13.60239 | 82° | 46km/h | 7959m | 4.8m/s | -35.2°C | 86.4% | 365.41hPa | 2.9V | 00:00:00 | 00:00:00 | 00:00:00 | |
| AA1-15 | 2026-09-02 11:09:38 | 54.11788 | 13.60199 | 72° | 46km/h | 7951m | 4.3m/s | -35.2°C | 81.8% | 365.9hPa | 2.8V | 18:12:15 | 00:42:23 | 00:00:00 | |
| DG6HD-11 | 2026-09-02 11:09:38 | 54.11788 | 13.60199 | 73° | 42km/h | 7952m | 4.3m/s | -35.1°C | 90.9% | 365.8hPa | 2.9V | 00:00:00 | 00:00:00 | 00:00:00 | |
| DL1XH1-15 | 2026-09-02 11:09:34 | 54.11734 | 13.60066 | 49° | 49km/h | 7915m | 5.9m/s | 0°C | 0% | 0hPa | 2.9V | 00:00:00 | 00:42:15 | 00:00:00 | |
| SP3BTT-10 | 2026-09-02 11:09:32 | 54.11749 | 13.60099 | 54° | 38km/h | 7926m | 3.1m/s | 0°C | 0% | 0hPa | 2.8V | 00:00:00 | 00:00:00 | 00:00:00 | |
| DL1XH-15 | 2026-09-02 11:09:30 | 54.11726 | 13.60049 | 55° | 47km/h | 7909m | 6.1m/s | -35.1°C | 87.7% | 368hPa | 2.8V | 08:30:00 | 00:42:14 | 00:00:00 | |
| DL1XH-west | 2026-09-02 11:09:29 | 54.11726 | 13.60049 | 55° | 47km/h | 7909m | 6.1m/s | -35.2°C | 82.4% | 0hPa | 2.8V | 18:12:15 | 00:42:14 | 00:00:00 | |
| AA1-15 | 2026-09-02 11:09:27 | 54.11717 | 13.60016 | 73° | 42km/h | 7896m | 7m/s | -35.1°C | 81.7% | 368.6hPa | 2.9V | 18:12:15 | 00:42:12 | 00:00:00 | |
| DB0DAN | 2026-09-02 11:09:25 | 54.11714 | 13.59980 | 87° | 40km/h | 7883m | 6.1m/s | -35°C | 80.9% | 369.2hPa | 2.9V | 00:00:00 | 00:00:00 | 00:00:00 | |
| DL1XH-15 | 2026-09-02 11:09:24 | 54.11693 | 13.59881 | 57° | 38km/h | 7847m | 5.1m/s | -34.7°C | 84.9% | 371.2hPa | 2.8V | 08:30:00 | 00:42:04 | 00:00:00 | |
| DL1XH1-15 | 2026-09-02 11:09:22 | 54.11699 | 13.59895 | 56° | 40km/h | 7853m | 5.8m/s | 0°C | 0% | 0hPa | 2.8V | 00:00:00 | 00:42:05 | 00:00:00 | |
| DL1XH-west | 2026-09-02 11:09:19 | 54.11693 | 13.59881 | 57° | 38km/h | 7847m | 5.1m/s | -34.7°C | 77.5% | 0hPa | 2.8V | 18:12:15 | 00:42:04 | 00:00:00 | |
| AA1-15 | 2026-09-02 11:09:16 | 54.11683 | 13.59843 | 75° | 31km/h | 7829m | 8m/s | -34.6°C | 77.2% | 372.1hPa | 2.9V | 18:12:15 | 00:42:01 | 00:00:00 | |
| SONDE2-11 | 2026-09-02 11:09:16 | 54.11683 | 13.59843 | 75° | 29km/h | 7829m | 8.0m/s | -34.6°C | 79.5% | 372.1hPa | 2.9V | 00:00:00 | 00:00:00 | 00:00:00 | |
| DL1XH1-15 | 2026-09-02 11:09:13 | 54.11668 | 13.59719 | 61° | 40km/h | 7781m | 6m/s | 0°C | 0% | 0hPa | 2.9V | 00:00:00 | 00:41:53 | 00:00:00 | |
| DL1XH-15 | 2026-09-02 11:09:10 | 54.11673 | 13.59735 | 65° | 44km/h | 7786m | 5.1m/s | -34.2°C | 82.9% | 374.4hPa | 2.9V | 08:30:00 | 00:41:54 | 00:00:00 | |
| DL1XH-west | 2026-09-02 11:09:08 | 54.11668 | 13.59719 | 61° | 40km/h | 7781m | 6m/s | -34.2°C | 77.4% | 0hPa | 2.9V | 18:12:15 | 00:41:53 | 00:00:00 | |
| AA1-15 | 2026-09-02 11:09:05 | 54.11653 | 13.59678 | 59° | 37km/h | 7764m | 5.7m/s | -34°C | 76.7% | 375.7hPa | 2.9V | 18:12:15 | 00:41:50 | 00:00:00 | |
| AM1SDL-15 | 2026-09-02 11:09:05 | 54.11653 | 13.59678 | 59° | 37km/h | 7764m | 5.6m/s | -33.9°C | 81.4% | 375.7hPa | 2.9V | 00:00:00 | 00:41:50 | 00:00:00 | |
| DL1XH-15 | 2026-09-02 11:09:04 | 54.11637 | 13.59582 | 83° | 44km/h | 7727m | 3.5m/s | -33.6°C | 79.4% | 377.9hPa | 2.9V | 08:30:00 | 00:41:44 | 00:00:00 | |
| DL1XH1-15 | 2026-09-02 11:09:03 | 54.11635 | 13.59548 | 85° | 35km/h | 7718m | 3.9m/s | 0°C | 0% | 0hPa | 2.9V | 00:00:00 | 00:41:42 | 00:00:00 | |
| DL1XH-west | 2026-09-02 11:08:57 | 54.11635 | 13.59548 | 85° | 35km/h | 7718m | 3.9m/s | 0°C | 0% | 0hPa | 2.9V | 18:12:15 | 00:41:42 | 00:00:00 | |
| AA1-15 | 2026-09-02 11:08:54 | 54.11632 | 13.59507 | 71° | 31km/h | 7699m | 5.5m/s | -33.4°C | 73.2% | 379.3hPa | 2.9V | 18:12:15 | 00:41:39 | 00:00:00 | |
| AM1SDL-15 | 2026-09-02 11:08:53 | 54.11628 | 13.59494 | 63° | 35km/h | 7694m | 4.2m/s | -33.3°C | 77.1% | 379.6hPa | 2.9V | 00:00:00 | 00:41:38 | 00:00:00 | |
| DL1XH1-15 | 2026-09-02 11:08:51 | 54.11609 | 13.59396 | 94° | 31km/h | 7654m | 6.2m/s | 0°C | 0% | 0hPa | 2.9V | 00:00:00 | 00:41:31 | 00:00:00 | |
| DL1XH-15 | 2026-09-02 11:08:50 | 54.11612 | 13.59437 | 71° | 37km/h | 7669m | 5.8m/s | -33.2°C | 75.7% | 381hPa | 2.9V | 08:30:00 | 00:41:34 | 00:00:00 | |
| DL1XH-west | 2026-09-02 11:08:45 | 54.11610 | 13.59383 | 100° | 33km/h | 7648m | 5.7m/s | 0°C | 0% | 0hPa | 2.9V | 18:12:15 | 00:41:30 | 00:00:00 | |
| AA1-15 | 2026-09-02 11:08:44 | 54.11611 | 13.59369 | 95° | 33km/h | 7642m | 7.7m/s | -33°C | 71.1% | 382.6hPa | 2.9V | 18:12:15 | 00:41:29 | 00:00:00 | |
| DB0DAN | 2026-09-02 11:08:40 | 54.11606 | 13.59314 | 67° | 27km/h | 7618m | 5m/s | -32.8°C | 73.6% | 383.79hPa | 2.9V | 00:00:00 | 00:00:00 | 00:00:00 | |
| DL1XH-west | 2026-09-02 11:08:35 | 54.11591 | 13.59248 | 72° | 38km/h | 7588m | 6.2m/s | 0°C | 0% | 0hPa | 2.9V | 18:12:15 | 00:41:20 | 00:00:00 | |
| AA1-15 | 2026-09-02 11:08:33 | 54.11583 | 13.59201 | 78° | 38km/h | 7571m | 4.3m/s | -32.4°C | 72% | 386.3hPa | 2.8V | 18:12:15 | 00:41:17 | 00:00:00 | |
| DL1XH-15 | 2026-09-02 11:08:30 | 54.11577 | 13.59151 | 76° | 40km/h | 7553m | 7.3m/s | -32.3°C | 75.7% | 387.3hPa | 2.9V | 08:30:00 | 00:41:14 | 00:00:00 | |
| AM1SDL-15 | 2026-09-02 11:08:29 | 54.11577 | 13.59151 | 77° | 37km/h | 7553m | 7.2m/s | -32.2°C | 75.7% | 387.3hPa | 2.9V | 00:00:00 | 00:41:14 | 00:00:00 | |
| MECKS9 | 2026-09-02 11:08:26 | 54.11571 | 13.59118 | 75° | 40km/h | 7540m | 6.0m/s | -32.2°C | 72.3% | 388.1hPa | 2.9V | 00:00:00 | 00:00:00 | 00:00:00 | |
| DB0DAN | 2026-09-02 11:08:25 | 54.11567 | 13.59083 | 82° | 38km/h | 7527m | 6m/s | -32°C | 72.8% | 388.72hPa | 2.9V | 00:00:00 | 00:00:00 | 00:00:00 | |
| DL1XH-15 | 2026-09-02 11:08:24 | 54.11559 | 13.58996 | 76° | 31km/h | 7496m | 7m/s | -31.7°C | 76.6% | 390.7hPa | 2.9V | 08:30:00 | 00:41:04 | 00:00:00 | |
| DL1XH-west | 2026-09-02 11:08:23 | 54.11565 | 13.59050 | 87° | 35km/h | 7517m | 4.7m/s | 0°C | 0% | 0hPa | 2.9V | 18:12:15 | 00:41:08 | 00:00:00 | |
| AA1-15 | 2026-09-02 11:08:21 | 54.11563 | 13.59022 | 79° | 29km/h | 7508m | 4.6m/s | -31.8°C | 72.5% | 389.9hPa | 2.8V | 18:12:15 | 00:41:06 | 00:00:00 | |
| S3001 | 2026-09-02 11:08:20 | 54.11561 | 13.59010 | 77° | 29km/h | 7502m | 5.7m/s | -31.8°C | 73.4% | 390.3hPa | 2.9V | 00:00:00 | 00:00:00 | 00:00:00 | |
| AM1SDL-15 | 2026-09-02 11:08:17 | 54.11556 | 13.58969 | 79° | 31km/h | 7482m | 8.4m/s | -31.6°C | 75.8% | 391.4hPa | 2.9V | 00:00:00 | 00:41:02 | 00:00:00 | |
| DG6HD-15 | 2026-09-02 11:08:14 | 54.11553 | 13.58943 | 80° | 29km/h | 7463m | 8.0m/s | -31.5°C | 72.0% | 392.3hPa | 2.9V | 00:00:00 | 00:00:00 | 00:00:00 | |
| DL1XH-15 | 2026-09-02 11:08:10 | 54.11542 | 13.58865 | 69° | 33km/h | 7426m | 5.2m/s | -31.2°C | 77.4% | 394.3hPa | 2.9V | 08:30:00 | 00:40:54 | 00:00:00 | |
| AA1-15 | 2026-09-02 11:08:10 | 54.11545 | 13.58878 | 71° | 31km/h | 7431m | 3.7m/s | -31.2°C | 71.2% | 394.1hPa | 2.8V | 18:12:15 | 00:40:55 | 00:00:00 | |
| DB0DAN | 2026-09-02 11:08:10 | 54.11545 | 13.58878 | 71° | 31km/h | 7431m | 3.7m/s | -31.2°C | 73.8% | 394.07hPa | 2.8V | 00:00:00 | 00:00:00 | 00:00:00 | |
| DL1XH-west | 2026-09-02 11:08:07 | 54.11537 | 13.58841 | 64° | 27km/h | 7419m | 3.9m/s | 0°C | 0% | 0hPa | 2.9V | 18:12:15 | 00:40:52 | 00:00:00 | |
| AM1SDL-15 | 2026-09-02 11:08:05 | 54.11532 | 13.58822 | 61° | 24km/h | 7408m | 4.2m/s | -31.0°C | 78.2% | 395.3hPa | 2.9V | 00:00:00 | 00:40:50 | 00:00:00 | |
| DL1XH-15 | 2026-09-02 11:08:04 | 54.11526 | 13.58770 | 89° | 20km/h | 7377m | 7.4m/s | -30.8°C | 78.4% | 397.1hPa | 2.9V | 08:30:00 | 00:40:44 | 00:00:00 | |
| AA1-15 | 2026-09-02 11:07:59 | 54.11526 | 13.58770 | 90° | 20km/h | 7377m | 7.4m/s | -30.8°C | 74.2% | 397.1hPa | 2.9V | 18:12:15 | 00:40:44 | 00:00:00 | |
| DG6HD-15 | 2026-09-02 11:07:54 | 54.11526 | 13.58723 | 92° | 31km/h | 7352m | 8.0m/s | -30.6°C | 75.0% | 398.5hPa | 2.9V | 00:00:00 | 00:00:00 | 00:00:00 | |
| AM1SDL-15 | 2026-09-02 11:07:53 | 54.11526 | 13.58695 | 86° | 37km/h | 7339m | 5.2m/s | -30.4°C | 78.6% | 399.3hPa | 2.9V | 00:00:00 | 00:40:38 | 00:00:00 | |
| DL1XH-15 | 2026-09-02 11:07:50 | 54.11517 | 13.58629 | 73° | 47km/h | 7315m | 4.6m/s | -30.2°C | 78.1% | 400.6hPa | 2.9V | 08:30:00 | 00:40:34 | 00:00:00 | |
| AA1-15 | 2026-09-02 11:07:48 | 54.11514 | 13.58610 | 72° | 47km/h | 7309m | 5.4m/s | -30.2°C | 73.7% | 401hPa | 2.9V | 18:12:15 | 00:40:33 | 00:00:00 | |
| DL1XH-15 | 2026-09-02 11:07:44 | 54.11491 | 13.58470 | 74° | 27km/h | 7250m | 5.1m/s | -29.8°C | 79.3% | 404.5hPa | 2.8V | 08:30:00 | 00:40:23 | 00:00:00 | |
| AA1-15 | 2026-09-02 11:07:37 | 54.11488 | 13.58458 | 68° | 29km/h | 7245m | 5m/s | -29.7°C | 74.6% | 404.8hPa | 2.9V | 18:12:15 | 00:40:22 | 00:00:00 | |
| DL1XH-15 | 2026-09-02 11:07:33 | 54.11470 | 13.58326 | 80° | 33km/h | 7190m | 7.2m/s | -29.3°C | 81.3% | 407.8hPa | 2.9V | 08:30:00 | 00:40:12 | 00:00:00 | |
| AA1-15 | 2026-09-02 11:07:27 | 54.11469 | 13.58326 | 81° | 33km/h | 7190m | 7.2m/s | -29.3°C | 76% | 407.8hPa | 2.9V | 18:12:15 | 00:40:12 | 00:00:00 | |
| DB0DAN | 2026-09-02 11:07:25 | 54.11466 | 13.58300 | 78° | 29km/h | 7178m | 4.8m/s | -29.3°C | 77.8% | 408.48hPa | 2.9V | 00:00:00 | 00:00:00 | 00:00:00 | |
| DL1XH-15 | 2026-09-02 11:07:22 | 54.11462 | 13.58186 | 82° | 31km/h | 7130m | 7.8m/s | -28.9°C | 81.7% | 411.2hPa | 2.9V | 08:30:00 | 00:40:02 | 00:00:00 | |
| AA1-15 | 2026-09-02 11:07:16 | 54.11461 | 13.58174 | 75° | 27km/h | 7123m | 5.8m/s | -28.9°C | 76.4% | 411.6hPa | 2.9V | 18:12:15 | 00:40:01 | 00:00:00 | |
| DG6HD-15 | 2026-09-02 11:07:13 | 54.11456 | 13.58151 | 64° | 29km/h | 7112m | 8.8m/s | -28.8°C | 79.4% | 412.5hPa | 2.9V | 00:00:00 | 00:00:00 | 00:00:00 | |
| SONDE2-11 | 2026-09-02 11:07:12 | 54.11447 | 13.58127 | 61° | 38km/h | 7097m | 5.7m/s | -28.7°C | 79.2% | 413.1hPa | 2.9V | 00:00:00 | 00:00:00 | 00:00:00 | |
| DB0DAN | 2026-09-02 11:07:10 | 54.11438 | 13.58094 | 67° | 44km/h | 7086m | 6.2m/s | -28.6°C | 79.8% | 413.84hPa | 2.9V | 00:00:00 | 00:00:00 | 00:00:00 | |
| MECKS9 | 2026-09-02 11:07:09 | 54.11438 | 13.58093 | 68° | 46km/h | 7086m | 6.2m/s | -28.6°C | 79.8% | 413.8hPa | 2.9V | 00:00:00 | 00:00:00 | 00:00:00 | |
| DL1XH-15 | 2026-09-02 11:07:08 | 54.11426 | 13.58041 | 68° | 38km/h | 7069m | 3.7m/s | -28.5°C | 86% | 414.8hPa | 2.9V | 08:30:00 | 00:39:52 | 00:00:00 | |
| AA1-15 | 2026-09-02 11:07:07 | 54.11422 | 13.58026 | 69° | 35km/h | 7064m | 7m/s | -28.4°C | 79.5% | 415.1hPa | 2.9V | 18:12:15 | 00:39:51 | 00:00:00 | |
| AM1SDL-15 | 2026-09-02 11:07:05 | 54.11420 | 13.58013 | 77° | 29km/h | 7056m | 7.7m/s | -28.3°C | 84.6% | 415.4hPa | 2.9V | 00:00:00 | 00:39:50 | 00:00:00 | |
| DL1XH-15 | 2026-09-02 11:07:02 | 54.11413 | 13.57912 | 72° | 33km/h | 7004m | 8.8m/s | -28.1°C | 86.7% | 418.6hPa | 2.9V | 08:30:00 | 00:39:42 | 00:00:00 | |
| AA1-15 | 2026-09-02 11:06:55 | 54.11409 | 13.57888 | 68° | 27km/h | 6988m | 6.7m/s | -28°C | 82% | 419.4hPa | 2.9V | 18:12:15 | 00:39:40 | 00:00:00 | |
| DB0DAN | 2026-09-02 11:06:55 | 54.11409 | 13.57888 | 68° | 26km/h | 6988m | 6.7m/s | -28°C | 83% | 419.44hPa | 2.9V | 00:00:00 | 00:00:00 | 00:00:00 | |
| AM1SDL-15 | 2026-09-02 11:06:53 | 54.11403 | 13.57868 | 63° | 37km/h | 6975m | 3.9m/s | -27.8°C | 86.7% | 420.1hPa | 2.9V | 00:00:00 | 00:39:38 | 08:30:00 | |
| DL1XH-15 | 2026-09-02 11:06:52 | 54.11395 | 13.57779 | 85° | 44km/h | 6945m | 5.1m/s | -27.6°C | 87.4% | 422.1hPa | 2.9V | 08:30:00 | 00:39:32 | 00:00:00 | |
| AA1-15 | 2026-09-02 11:06:44 | 54.11389 | 13.57727 | 71° | 38km/h | 6931m | 4.6m/s | -27.5°C | 81.2% | 422.9hPa | 2.9V | 18:12:15 | 00:39:29 | 00:00:00 | |
| DL1XH-15 | 2026-09-02 11:06:42 | 54.11367 | 13.57609 | 69° | 44km/h | 6890m | 6m/s | -27.2°C | 87.8% | 425.4hPa | 2.9V | 08:30:00 | 00:39:22 | 00:00:00 | |
| DL1XH-west | 2026-09-02 11:06:40 | 54.11376 | 13.57661 | 74° | 44km/h | 6906m | 6m/s | 0°C | 0% | 0hPa | 2.8V | 18:12:15 | 00:39:25 | 00:00:00 | |
| DB0DAN | 2026-09-02 11:06:40 | 54.11376 | 13.57661 | 74° | 42km/h | 6906m | 6m/s | -27.3°C | 85.5% | 424.43hPa | 2.8V | 00:00:00 | 00:00:00 | 00:00:00 | |
| AA1-15 | 2026-09-02 11:06:33 | 54.11350 | 13.57543 | 69° | 35km/h | 6862m | 6.4m/s | -27°C | 81.6% | 427.1hPa | 2.9V | 18:12:15 | 00:39:18 | 00:00:00 | |
| DG6HD-15 | 2026-09-02 11:06:31 | 54.11347 | 13.57530 | 79° | 31km/h | 6855m | 7.1m/s | -26.9°C | 84.2% | 427.4hPa | 2.9V | 00:00:00 | 00:00:00 | 00:00:00 | |
| AM1SDL-15 | 2026-09-02 11:06:29 | 54.11347 | 13.57488 | 91° | 33km/h | 6837m | 5.6m/s | -26.7°C | 88.6% | 428.4hPa | 2.9V | 00:00:00 | 00:39:14 | 00:00:00 | |
| MECKS9 | 2026-09-02 11:06:27 | 54.11346 | 13.57472 | 83° | 37km/h | 6831m | 5.7m/s | -26.7°C | 86.0% | 428.9hPa | 2.9V | 00:00:00 | 00:00:00 | 00:00:00 | |
| DB0DAN | 2026-09-02 11:06:25 | 54.11337 | 13.57424 | 69° | 38km/h | 6814m | 9.1m/s | -26.6°C | 84.5% | 429.86hPa | 2.9V | 00:00:00 | 00:00:00 | 00:00:00 | |
| DL1XH-west | 2026-09-02 11:06:24 | 54.11333 | 13.57409 | 70° | 35km/h | 6805m | 9.5m/s | 0°C | 0% | 0hPa | 2.9V | 18:12:15 | 00:39:09 | 00:00:00 | |
| AA1-15 | 2026-09-02 11:06:22 | 54.11328 | 13.57385 | 72° | 26km/h | 6789m | 6.2m/s | -26.4°C | 81.1% | 431.3hPa | 2.9V | 18:12:15 | 00:39:07 | 00:00:00 | |
| AA1-15 | 2026-09-02 11:06:12 | 54.11290 | 13.57220 | 76° | 46km/h | 6728m | 8m/s | -25.9°C | 81.6% | 434.9hPa | 2.9V | 18:12:15 | 00:38:57 | 00:00:00 | |
| DL1XH-15 | 2026-09-02 11:06:12 | 54.11274 | 13.57125 | 83° | 46km/h | 6694m | 6m/s | -25.6°C | 87.4% | 436.9hPa | 2.8V | 08:30:00 | 00:38:52 | 00:00:00 | |
| DL1XH-west | 2026-09-02 11:06:11 | 54.11287 | 13.57202 | 72° | 44km/h | 6721m | 8m/s | 0°C | 0% | 0hPa | 2.9V | 18:12:15 | 00:38:56 | 00:00:00 | |
| DB0DAN | 2026-09-02 11:06:10 | 54.11283 | 13.57183 | 70° | 44km/h | 6713m | 6.9m/s | -25.8°C | 84.4% | 435.83hPa | 2.9V | 00:00:00 | 00:00:00 | 00:00:00 | |
| SONDE2-11 | 2026-09-02 11:06:10 | 54.11283 | 13.57183 | 70° | 46km/h | 6713m | 6.9m/s | -25.8°C | 84.4% | 435.8hPa | 2.9V | 00:00:00 | 00:00:00 | 00:00:00 | |
| DG6HD-11 | 2026-09-02 11:06:08 | 54.11276 | 13.57144 | 76° | 37km/h | 6700m | 4.8m/s | -25.6°C | 87.5% | 436.5hPa | 2.9V | 00:00:00 | 00:00:00 | 00:00:00 | |
| AM1SDL-15 | 2026-09-02 11:06:05 | 54.11273 | 13.57088 | 97° | 37km/h | 6685m | 4.7m/s | -25.5°C | 86.7% | 437.5hPa | 2.9V | 00:00:00 | 00:38:50 | 00:00:00 | |
| DL1XH-15 | 2026-09-02 11:06:02 | 54.11254 | 13.56969 | 44° | 26km/h | 6635m | 4.4m/s | -25.2°C | 87.5% | 440.6hPa | 2.9V | 08:30:00 | 00:38:42 | 00:00:00 | |
| AA1-15 | 2026-09-02 11:06:01 | 54.11273 | 13.57017 | 70° | 40km/h | 6658m | 5.1m/s | -25.3°C | 81.9% | 439.2hPa | 2.9V | 18:12:15 | 00:38:46 | 00:00:00 | |
| DB0DAN | 2026-09-02 11:05:55 | 54.11246 | 13.56950 | 70° | 29km/h | 6625m | 5.5m/s | -25.1°C | 85.9% | 441.2hPa | 2.9V | 00:00:00 | 00:00:00 | 00:00:00 | |
| AA1-15 | 2026-09-02 11:05:50 | 54.11245 | 13.56868 | 98° | 38km/h | 6596m | 6.3m/s | -24.9°C | 81.2% | 442.9hPa | 2.9V | 18:12:15 | 00:38:35 | 00:00:00 | |
| DL1XH-15 | 2026-09-02 11:05:48 | 54.11240 | 13.56827 | 62° | 35km/h | 6578m | 7m/s | -24.7°C | 87.2% | 444hPa | 2.9V | 08:30:00 | 00:38:32 | 00:00:00 | |
| SP3BTT-10 | 2026-09-02 11:05:47 | 54.11240 | 13.56827 | 63° | 37km/h | 6578m | 7.0m/s | 0°C | 0% | 0hPa | 2.9V | 00:00:00 | 00:00:00 | 00:00:00 | |
| MECKS9 | 2026-09-02 11:05:45 | 54.11235 | 13.56814 | 50° | 37km/h | 6572m | 5.5m/s | -24.7°C | 83.8% | 444.5hPa | 2.9V | 00:00:00 | 00:00:00 | 00:00:00 | |
| DL1XH-15 | 2026-09-02 11:05:43 | 54.11210 | 13.56692 | 96° | 27km/h | 6514m | 6.5m/s | -24.2°C | 86.9% | 448hPa | 2.9V | 08:30:00 | 00:38:21 | 00:00:00 | |
| DB0DAN | 2026-09-02 11:05:40 | 54.11209 | 13.56748 | 81° | 31km/h | 6539m | 6.9m/s | -24.4°C | 84.4% | 446.47hPa | 2.9V | 00:00:00 | 00:00:00 | 00:00:00 | |
| AA1-15 | 2026-09-02 11:05:39 | 54.11208 | 13.56733 | 84° | 35km/h | 6532m | 5.8m/s | -24.4°C | 79.1% | 446.9hPa | 2.8V | 18:12:15 | 00:38:24 | 00:00:00 | |
| AA1-15 | 2026-09-02 11:05:28 | 54.11178 | 13.56568 | 64° | 53km/h | 6470m | 5.8m/s | -23.8°C | 80.1% | 450.8hPa | 2.9V | 18:12:15 | 00:38:13 | 00:00:00 | |
| DL1XH-15 | 2026-09-02 11:05:27 | 54.11168 | 13.56530 | 66° | 44km/h | 6460m | 4.5m/s | -23.7°C | 85.4% | 451.5hPa | 2.9V | 08:30:00 | 00:38:11 | 00:00:00 | |
| DL1XH-15 | 2026-09-02 11:05:17 | 54.11152 | 13.56386 | 62° | 37km/h | 6400m | 8.1m/s | -23.4°C | 84.1% | 455.1hPa | 2.9V | 08:30:00 | 00:38:01 | 00:00:00 | |
| AA1-15 | 2026-09-02 11:05:17 | 54.11156 | 13.56400 | 67° | 38km/h | 6408m | 9.1m/s | -23.4°C | 80.6% | 454.7hPa | 2.8V | 18:12:15 | 00:38:02 | 00:00:00 | |
| DG6HD-15 | 2026-09-02 11:05:10 | 54.11134 | 13.56310 | 81° | 35km/h | 6366m | 6.1m/s | -23.2°C | 83.3% | 457.3hPa | 2.9V | 00:00:00 | 00:00:00 | 00:00:00 | |
| DL1XH-15 | 2026-09-02 11:05:07 | 54.11135 | 13.56230 | 94° | 42km/h | 6329m | 5.9m/s | -22.9°C | 86.8% | 459.7hPa | 2.9V | 08:30:00 | 00:37:51 | 00:00:00 | |
| AA1-15 | 2026-09-02 11:05:07 | 54.11134 | 13.56248 | 95° | 37km/h | 6336m | 8m/s | -23°C | 79.6% | 459.3hPa | 2.9V | 18:12:15 | 00:37:52 | 00:00:00 | |
| DG6HD-11 | 2026-09-02 11:05:05 | 54.11136 | 13.56211 | 95° | 46km/h | 6323m | 6.3m/s | -22.8°C | 86.5% | 460.1hPa | 2.9V | 00:00:00 | 00:37:50 | 00:00:00 | |
| MECKS9 | 2026-09-02 11:05:03 | 54.11136 | 13.56191 | 90° | 49km/h | 6316m | 8.5m/s | -22.8°C | 83.7% | 460.5hPa | 2.9V | 00:00:00 | 00:00:00 | 00:00:00 | |
| DL1XH-15 | 2026-09-02 11:04:57 | 54.11149 | 13.56030 | 110° | 47km/h | 6269m | 5.7m/s | -22.5°C | 86.2% | 463.4hPa | 2.9V | 08:30:00 | 00:37:41 | 00:00:00 | |
| AA1-15 | 2026-09-02 11:04:56 | 54.11149 | 13.56030 | 111° | 47km/h | 6269m | 5.7m/s | -22.5°C | 79.8% | 463.4hPa | 2.9V | 18:12:15 | 00:37:41 | 00:00:00 | |
| AM1SDL-15 | 2026-09-02 11:04:53 | 54.11158 | 13.55972 | 100° | 40km/h | 6255m | 5.7m/s | -22.4°C | 88.2% | 464.2hPa | 2.8V | 00:00:00 | 00:37:38 | 00:00:00 | |
| MECKS9 | 2026-09-02 11:04:52 | 54.11158 | 13.55972 | 101° | 40km/h | 6255m | 5.8m/s | -22.4°C | 85.6% | 464.3hPa | 2.8V | 00:00:00 | 00:00:00 | 00:00:00 | |
| DG6HD-15 | 2026-09-02 11:04:49 | 54.11160 | 13.55926 | 89° | 33km/h | 6233m | 7.3m/s | -22.3°C | 85.7% | 465.6hPa | 2.8V | 00:00:00 | 00:00:00 | 00:00:00 | |
| DL1XH-15 | 2026-09-02 11:04:47 | 54.11163 | 13.55865 | 98° | 44km/h | 6202m | 7.6m/s | -22.2°C | 89.2% | 467.4hPa | 2.8V | 08:30:00 | 00:37:31 | 00:00:00 | |
| AA1-15 | 2026-09-02 11:04:46 | 54.11163 | 13.55865 | 99° | 44km/h | 6202m | 7.6m/s | -22.2°C | 82.4% | 467.4hPa | 2.8V | 18:12:15 | 00:37:31 | 00:00:00 | |
| SP3BTT-10 | 2026-09-02 11:04:46 | 54.11162 | 13.55865 | 99° | 47km/h | 6202m | 7.6m/s | 0°C | 0% | 0hPa | 2.9V | 00:00:00 | 00:00:00 | 00:00:00 | |
| DB0DAN | 2026-09-02 11:04:40 | 54.11156 | 13.55740 | 71° | 44km/h | 6170m | 4.4m/s | -21.9°C | 87% | 469.41hPa | 2.9V | 00:00:00 | 00:00:00 | 00:00:00 | |
| DL1XH-15 | 2026-09-02 11:04:37 | 54.11146 | 13.55665 | 91° | 42km/h | 6149m | 6.1m/s | -21.8°C | 90.2% | 470.9hPa | 2.9V | 08:30:00 | 00:37:21 | 00:00:00 | |
| AA1-15 | 2026-09-02 11:04:36 | 54.11146 | 13.55665 | 91° | 42km/h | 6149m | 6.1m/s | -21.8°C | 82.9% | 470.9hPa | 2.9V | 18:12:15 | 00:37:21 | 00:00:00 | |
| AM1SDL-15 | 2026-09-02 11:04:29 | 54.11158 | 13.55543 | 97° | 44km/h | 6112m | 5.6m/s | -21.5°C | 90.1% | 473.1hPa | 2.9V | 00:00:00 | 00:37:14 | 00:00:00 | |
| DL1XH-15 | 2026-09-02 11:04:27 | 54.11159 | 13.55484 | 83° | 42km/h | 6091m | 8.2m/s | -21.4°C | 88.6% | 474.7hPa | 2.9V | 08:30:00 | 00:37:11 | 00:00:00 | |
| AA1-15 | 2026-09-02 11:04:25 | 54.11157 | 13.55468 | 75° | 38km/h | 6083m | 6.5m/s | -21.3°C | 80.6% | 475.1hPa | 2.9V | 18:12:15 | 00:37:10 | 00:00:00 | |
| DB0DAN | 2026-09-02 11:04:25 | 54.11157 | 13.55468 | 75° | 37km/h | 6084m | 6.5m/s | -21.3°C | 85.9% | 475.08hPa | 2.9V | 00:00:00 | 00:00:00 | 00:00:00 | |
| MECKS9 | 2026-09-02 11:04:22 | 54.11149 | 13.55435 | 68° | 44km/h | 6071m | 7.2m/s | -21.3°C | 86.0% | 475.8hPa | 2.9V | 00:00:00 | 00:00:00 | 00:00:00 | |
| DL1XH-15 | 2026-09-02 11:04:17 | 54.11144 | 13.55322 | 93° | 26km/h | 6029m | 4.1m/s | -20.9°C | 87.4% | 478.6hPa | 2.9V | 08:30:00 | 00:37:01 | 00:00:00 | |
| AA1-15 | 2026-09-02 11:04:14 | 54.11145 | 13.55299 | 91° | 29km/h | 6021m | 4.9m/s | -20.8°C | 79.5% | 479.1hPa | 2.8V | 18:12:15 | 00:36:59 | 00:00:00 | |
| MECKS9 | 2026-09-02 11:04:11 | 54.11145 | 13.55268 | 93° | 44km/h | 6009m | 6.5m/s | -20.7°C | 85.6% | 479.7hPa | 2.9V | 00:00:00 | 00:00:00 | 00:00:00 | |
| DL1XH-15 | 2026-09-02 11:04:07 | 54.11132 | 13.55123 | 81° | 60km/h | 5973m | 5m/s | -20.5°C | 86.3% | 482.1hPa | 2.9V | 08:30:00 | 00:36:51 | 00:00:00 | |
| AA1-15 | 2026-09-02 11:04:03 | 54.11129 | 13.55050 | 92° | 53km/h | 5957m | 6.3m/s | -20.3°C | 79.1% | 483.1hPa | 2.9V | 18:12:15 | 00:36:48 | 00:00:00 | |
| DL1XH-15 | 2026-09-02 11:03:57 | 54.11123 | 13.54909 | 80° | 46km/h | 5915m | 8.7m/s | -20.1°C | 86.4% | 485.9hPa | 2.8V | 08:30:00 | 00:36:41 | 00:00:00 | |
| DB0DAN | 2026-09-02 11:03:55 | 54.11121 | 13.54890 | 83° | 38km/h | 5907m | 7.8m/s | -20°C | 83.9% | 486.36hPa | 2.9V | 00:00:00 | 00:00:00 | 00:00:00 | |
| AA1-15 | 2026-09-02 11:03:52 | 54.11117 | 13.54849 | 75° | 29km/h | 5890m | 4.8m/s | -19.8°C | 78% | 487.5hPa | 2.9V | 18:12:15 | 00:36:37 | 00:00:00 | |
| DL1XH-15 | 2026-09-02 11:03:47 | 54.11101 | 13.54744 | 86° | 53km/h | 5857m | 7.4m/s | -19.5°C | 86.8% | 489.8hPa | 2.9V | 08:30:00 | 00:36:31 | 00:00:00 | |
| AA1-15 | 2026-09-02 11:03:41 | 54.11091 | 13.54620 | 78° | 58km/h | 5830m | 3.9m/s | -19.3°C | 80.4% | 491.6hPa | 2.9V | 18:12:15 | 00:36:26 | 00:00:00 | |
| DB0DAN | 2026-09-02 11:03:40 | 54.11088 | 13.54595 | 78° | 57km/h | 5824m | 7.4m/s | -19.3°C | 84.6% | 491.85hPa | 2.9V | 00:00:00 | 00:00:00 | 00:00:00 | |
| AA1-15 | 2026-09-02 11:03:31 | 54.11068 | 13.54448 | 81° | 37km/h | 5763m | 5.1m/s | -18.8°C | 81.2% | 496.1hPa | 2.9V | 18:12:15 | 00:36:16 | 00:00:00 | |
| AM1SDL-15 | 2026-09-02 11:03:29 | 54.11065 | 13.54411 | 83° | 51km/h | 5752m | 5.7m/s | -18.7°C | 87.5% | 496.7hPa | 2.9V | 00:00:00 | 00:36:14 | 00:00:00 | |
| DL1XH-15 | 2026-09-02 11:03:28 | 54.11057 | 13.54343 | 80° | 55km/h | 5734m | 5.2m/s | -18.6°C | 87.2% | 497.9hPa | 2.9V | 08:30:00 | 00:36:11 | 00:00:00 | |
| DG6HD-15 | 2026-09-02 11:03:26 | 54.11060 | 13.54366 | 78° | 57km/h | 5740m | 6.5m/s | -18.7°C | 84.7% | 497.5hPa | 2.9V | 00:00:00 | 00:00:00 | 00:00:00 | |
| DB0DAN | 2026-09-02 11:03:25 | 54.11056 | 13.54319 | 87° | 51km/h | 5729m | 5.3m/s | -18.6°C | 85.2% | 498.19hPa | 2.9V | 00:00:00 | 00:00:00 | 00:00:00 | |
| AA1-15 | 2026-09-02 11:03:20 | 54.11058 | 13.54213 | 86° | 51km/h | 5701m | 7m/s | -18.6°C | 81.3% | 500.1hPa | 2.8V | 18:12:15 | 00:36:05 | 00:00:00 | |
| DL1XH-15 | 2026-09-02 11:03:17 | 54.11046 | 13.54138 | 75° | 37km/h | 5679m | 6.2m/s | -18.5°C | 87.2% | 501.6hPa | 2.9V | 08:30:00 | 00:36:01 | 00:00:00 | |
| AA1-15 | 2026-09-02 11:03:09 | 54.11045 | 13.54013 | 78° | 49km/h | 5646m | 4.8m/s | -18.4°C | 78% | 503.8hPa | 2.9V | 18:12:15 | 00:35:54 | 00:00:00 | |
| DL1XH-15 | 2026-09-02 11:03:07 | 54.11034 | 13.53961 | 64° | 31km/h | 5628m | 6.7m/s | -18.2°C | 83.9% | 505hPa | 2.9V | 08:30:00 | 00:35:51 | 00:00:00 | |
| AA1-15 | 2026-09-02 11:02:58 | 54.11026 | 13.53855 | 70° | 44km/h | 5583m | 6.2m/s | -17.9°C | 78.3% | 508hPa | 2.9V | 18:12:15 | 00:35:43 | 00:00:00 | |
| DL1XH-15 | 2026-09-02 11:02:57 | 54.11016 | 13.53816 | 69° | 53km/h | 5571m | 8m/s | -17.9°C | 81.8% | 508.9hPa | 2.9V | 08:30:00 | 00:35:41 | 00:00:00 | |
| DB0DAN | 2026-09-02 11:02:55 | 54.11013 | 13.53795 | 75° | 47km/h | 5564m | 7.1m/s | -17.8°C | 79.6% | 509.33hPa | 2.9V | 00:00:00 | 00:00:00 | 00:00:00 | |
| AM1SDL-15 | 2026-09-02 11:02:51 | 54.11009 | 13.53728 | 86° | 35km/h | 5542m | 6.5m/s | -17.7°C | 82.1% | 510.9hPa | 2.9V | 00:00:00 | 00:35:36 | 00:00:00 | |
| MECKS9 | 2026-09-02 11:02:49 | 54.11008 | 13.53719 | 70° | 20km/h | 5536m | 5.9m/s | -17.7°C | 80.1% | 511.2hPa | 2.9V | 00:00:00 | 00:00:00 | 00:00:00 | |
| DL1XH-15 | 2026-09-02 11:02:47 | 54.10987 | 13.53677 | 55° | 44km/h | 5519m | 4.6m/s | -17.6°C | 82.2% | 512.7hPa | 2.9V | 08:30:00 | 00:35:31 | 00:00:00 | |
| AA1-15 | 2026-09-02 11:02:47 | 54.10993 | 13.53691 | 46° | 37km/h | 5523m | 3.8m/s | -17.6°C | 77.8% | 512.2hPa | 2.9V | 18:12:15 | 00:35:32 | 00:00:00 | |
| DG6HD-15 | 2026-09-02 11:02:46 | 54.10993 | 13.53691 | 47° | 37km/h | 5523m | 3.8m/s | -17.6°C | 0% | 512.2hPa | 2.9V | 00:00:00 | 00:00:00 | 00:00:00 | |
| DL1XH-15 | 2026-09-02 11:02:41 | 54.10957 | 13.53538 | 54° | 38km/h | 5467m | 5m/s | -17.2°C | 82.5% | 516.2hPa | 2.9V | 08:30:00 | 00:35:21 | 00:00:00 | |
| AA1-15 | 2026-09-02 11:02:36 | 54.10957 | 13.53538 | 55° | 38km/h | 5467m | 5m/s | -17.2°C | 77.8% | 516.2hPa | 2.9V | 18:12:15 | 00:35:21 | 00:00:00 | |
| AA1-15 | 2026-09-02 11:02:26 | 54.10922 | 13.53397 | 61° | 40km/h | 5413m | 4.1m/s | -17°C | 77.1% | 519.9hPa | 2.9V | 18:12:15 | 00:35:11 | 00:00:00 | |
| DG6HD-15 | 2026-09-02 11:02:25 | 54.10922 | 13.53397 | 62° | 40km/h | 5413m | 4.1m/s | -17.0°C | 0% | 519.9hPa | 2.9V | 00:00:00 | 00:00:00 | 00:00:00 | |
| MECKS9 | 2026-09-02 11:02:24 | 54.10917 | 13.53380 | 72° | 46km/h | 5409m | 4.7m/s | -17.0°C | 79.6% | 520.1hPa | 2.9V | 00:00:00 | 00:00:00 | 00:00:00 | |
| DL1XH-15 | 2026-09-02 11:02:20 | 54.10901 | 13.53246 | 71° | 40km/h | 5361m | 4.8m/s | -16.6°C | 82.5% | 523.4hPa | 2.9V | 08:30:00 | 00:35:01 | 00:00:00 | |
| AA1-15 | 2026-09-02 11:02:15 | 54.10900 | 13.53147 | 90° | 26km/h | 5329m | 5.3m/s | -16.4°C | 79.4% | 525.8hPa | 2.9V | 18:12:15 | 00:34:55 | 00:00:00 | |
| DB0DAN | 2026-09-02 11:02:10 | 54.10900 | 13.53147 | 90° | 26km/h | 5329m | 5.3m/s | -16.4°C | 83.1% | 525.76hPa | 2.9V | 00:00:00 | 00:00:00 | 00:00:00 | |
| DL1XH-15 | 2026-09-02 11:02:08 | 54.10888 | 13.53099 | 62° | 42km/h | 5308m | 5.5m/s | -16.2°C | 85% | 527.1hPa | 2.8V | 08:30:00 | 00:34:51 | 00:00:00 | |
| AA1-15 | 2026-09-02 11:02:05 | 54.10883 | 13.53082 | 68° | 47km/h | 5304m | 4.2m/s | -16.2°C | 80.4% | 527.4hPa | 2.9V | 18:12:15 | 00:34:50 | 00:00:00 | |
| DG6HD-11 | 2026-09-02 11:02:01 | 54.10878 | 13.53008 | 97° | 33km/h | 5283m | 4.4m/s | -16.0°C | 84.9% | 528.9hPa | 2.9V | 00:00:00 | 00:00:00 | 00:00:00 | |
| AM1SDL-15 | 2026-09-02 11:01:59 | 54.10879 | 13.52981 | 90° | 35km/h | 5272m | 7.4m/s | -15.9°C | 84.4% | 529.6hPa | 2.9V | 00:00:00 | 00:34:44 | 00:00:00 | |
| DL1XH-15 | 2026-09-02 11:01:57 | 54.10872 | 13.52946 | 61° | 35km/h | 5252m | 5.5m/s | -15.8°C | 83.3% | 531.1hPa | 2.9V | 08:30:00 | 00:34:41 | 00:00:00 | |
| DB0DAN | 2026-09-02 11:01:55 | 54.10867 | 13.52932 | 66° | 37km/h | 5247m | 6.4m/s | -15.8°C | 81.4% | 531.49hPa | 2.9V | 00:00:00 | 00:00:00 | 00:00:00 | |
| AA1-15 | 2026-09-02 11:01:54 | 54.10864 | 13.52915 | 76° | 42km/h | 5241m | 4.6m/s | -15.7°C | 77.9% | 531.8hPa | 2.8V | 18:12:15 | 00:34:39 | 00:00:00 | |
| MECKS9 | 2026-09-02 11:01:53 | 54.10864 | 13.52915 | 77° | 42km/h | 5241m | 4.6m/s | -15.7°C | 81.9% | 531.8hPa | 2.9V | 00:00:00 | 00:00:00 | 00:00:00 | |
| DL1XH-15 | 2026-09-02 11:01:47 | 54.10857 | 13.52787 | 84° | 40km/h | 5193m | 6.7m/s | -15.4°C | 83.8% | 535.2hPa | 2.9V | 08:30:00 | 00:34:31 | 00:00:00 | |
| AA1-15 | 2026-09-02 11:01:43 | 54.10859 | 13.52739 | 106° | 31km/h | 5175m | 5.7m/s | -15.3°C | 79.9% | 536.5hPa | 2.9V | 18:12:15 | 00:34:28 | 00:00:00 | |
| MECKS9 | 2026-09-02 11:01:42 | 54.10859 | 13.52738 | 107° | 31km/h | 5175m | 5.7m/s | -15.3°C | 81.1% | 536.5hPa | 2.9V | 00:00:00 | 00:00:00 | 00:00:00 | |
| DL1XH-15 | 2026-09-02 11:01:37 | 54.10848 | 13.52662 | 68° | 31km/h | 5136m | 4.7m/s | -15.1°C | 84.4% | 539.3hPa | 2.9V | 08:30:00 | 00:34:21 | 00:00:00 | |
| AA1-15 | 2026-09-02 11:01:32 | 54.10837 | 13.52619 | 55° | 27km/h | 5113m | 6.9m/s | -14.9°C | 81% | 540.7hPa | 2.9V | 18:12:15 | 00:34:17 | 00:00:00 | |
| DG6HD-11 | 2026-09-02 11:01:31 | 54.10833 | 13.52608 | 59° | 31km/h | 5108m | 4.2m/s | -14.8°C | 84.2% | 541.3hPa | 2.9V | 00:00:00 | 00:00:00 | 00:00:00 | |
| DL1XH-15 | 2026-09-02 11:01:27 | 54.10823 | 13.52532 | 100° | 33km/h | 5082m | 5.2m/s | -14.7°C | 82.9% | 543.1hPa | 2.9V | 08:30:00 | 00:34:11 | 00:00:00 | |
| DB0DAN | 2026-09-02 11:01:25 | 54.10825 | 13.52519 | 112° | 27km/h | 5077m | 5m/s | -14.6°C | 80.7% | 543.63hPa | 2.9V | 00:00:00 | 00:00:00 | 00:00:00 | |
| AA1-15 | 2026-09-02 11:01:21 | 54.10836 | 13.52471 | 106° | 33km/h | 5059m | 4.6m/s | -14.5°C | 78.9% | 544.8hPa | 2.9V | 18:12:15 | 00:34:06 | 00:00:00 | |
| AA1-15 | 2026-09-02 11:01:11 | 54.10844 | 13.52336 | 103° | 31km/h | 5006m | 6.2m/s | -14.3°C | 76.4% | 548.7hPa | 2.9V | 18:12:15 | 00:33:56 | 00:00:00 | |
| DB0DAN | 2026-09-02 11:01:10 | 54.10845 | 13.52322 | 91° | 31km/h | 5000m | 5m/s | -14.3°C | 77.6% | 549.12hPa | 2.9V | 00:00:00 | 00:00:00 | 00:00:00 | |
| DL1XH-15 | 2026-09-02 11:01:02 | 54.10843 | 13.52232 | 91° | 31km/h | 4955m | 5.3m/s | -14.1°C | 80.3% | 552.3hPa | 2.9V | 08:30:00 | 00:33:46 | 00:00:00 | |
| AA1-15 | 2026-09-02 11:01:00 | 54.10843 | 13.52218 | 81° | 33km/h | 4950m | 5m/s | -14°C | 76.2% | 552.8hPa | 2.9V | 18:12:15 | 00:33:45 | 00:00:00 | |
| DL1XH-15 | 2026-09-02 11:00:56 | 54.10834 | 13.52176 | 68° | 16km/h | 4930m | 5.6m/s | -13.9°C | 79.9% | 554.3hPa | 2.9V | 08:30:00 | 00:33:41 | 00:00:00 | |
| DL1XH-15 | 2026-09-02 11:00:56 | 54.10841 | 13.52128 | 101° | 29km/h | 4904m | 3.3m/s | -13.7°C | 78.8% | 556.1hPa | 2.9V | 08:30:00 | 00:33:36 | 00:00:00 | |
| AA1-15 | 2026-09-02 11:00:50 | 54.10842 | 13.52116 | 101° | 27km/h | 4899m | 5.6m/s | -13.7°C | 75.9% | 556.5hPa | 2.9V | 18:12:15 | 00:33:35 | 00:00:00 | |
| DL1XH-15 | 2026-09-02 11:00:46 | 54.10841 | 13.52081 | 58° | 20km/h | 4871m | 4.9m/s | -13.5°C | 78.9% | 558.6hPa | 2.9V | 08:30:00 | 00:33:31 | 00:00:00 | |
| DL1XH-15 | 2026-09-02 11:00:41 | 54.10835 | 13.52037 | 97° | 20km/h | 4839m | 5.1m/s | -13.3°C | 77.6% | 560.9hPa | 2.9V | 08:30:00 | 00:33:26 | 00:00:00 | |
| DL1XH-15 | 2026-09-02 11:00:41 | 54.10827 | 13.51966 | 53° | 31km/h | 4805m | 5.5m/s | -13°C | 77.5% | 563.4hPa | 2.9V | 08:30:00 | 00:33:20 | 00:00:00 | |
| DB0DAN | 2026-09-02 11:00:40 | 54.10836 | 13.52029 | 98° | 22km/h | 4834m | 5m/s | -13.3°C | 76.4% | 561.12hPa | 2.9V | 00:00:00 | 00:00:00 | 00:00:00 | |
| AA1-15 | 2026-09-02 11:00:39 | 54.10836 | 13.52018 | 96° | 27km/h | 4828m | 7.6m/s | -13.2°C | 74.7% | 561.5hPa | 2.9V | 18:12:15 | 00:33:24 | 00:00:00 | |
| DL1XH-15 | 2026-09-02 11:00:36 | 54.10813 | 13.51940 | 89° | 11km/h | 4780m | 5.5m/s | -12.8°C | 76.9% | 565.2hPa | 2.9V | 08:30:00 | 00:33:15 | 00:00:00 | |
| DG6HD-11 | 2026-09-02 11:00:31 | 54.10814 | 13.51944 | 63° | 26km/h | 4785m | 5.3m/s | -12.8°C | 77.0% | 564.8hPa | 2.7V | 00:00:00 | 00:00:00 | 08:30:00 | |
| DL1XH-15 | 2026-09-02 11:00:30 | 54.10814 | 13.51888 | 84° | 33km/h | 4755m | 6.2m/s | -12.6°C | 76.3% | 567hPa | 2.9V | 08:30:00 | 00:33:10 | 00:00:00 | |
| AA1-15 | 2026-09-02 11:00:28 | 54.10814 | 13.51926 | 99° | 22km/h | 4769m | 4.8m/s | -12.7°C | 74.5% | 566hPa | 2.9V | 18:12:15 | 00:33:13 | 00:00:00 | |
| AM1SDL-15 | 2026-09-02 11:00:28 | 54.10814 | 13.51926 | 99° | 27km/h | 4770m | 4.8m/s | -12.7°C | 77.5% | 566.0hPa | 2.9V | 00:00:00 | 00:33:13 | 08:30:00 | |
| DL1XH-15 | 2026-09-02 11:00:25 | 54.10817 | 13.51818 | 80° | 26km/h | 4723m | 5.2m/s | -12.4°C | 76.8% | 569.5hPa | 2.9V | 08:30:00 | 00:33:04 | 00:00:00 | |
| DB0DAN | 2026-09-02 11:00:25 | 54.10814 | 13.51888 | 84° | 31km/h | 4755m | 6.2m/s | -12.6°C | 74.8% | 567.06hPa | 2.9V | 00:00:00 | 00:00:00 | 00:00:00 | |
| AA1-15 | 2026-09-02 11:00:17 | 54.10813 | 13.51794 | 74° | 31km/h | 4711m | 5.4m/s | -12.3°C | 74.8% | 570.3hPa | 2.9V | 18:12:15 | 00:33:02 | 00:00:00 | |
| AM1SDL-15 | 2026-09-02 11:00:15 | 54.10810 | 13.51769 | 84° | 24km/h | 4700m | 5.5m/s | -12.1°C | 78.0% | 571.2hPa | 2.9V | 00:00:00 | 00:33:00 | 00:00:00 | |
| DL1XH-15 | 2026-09-02 11:00:14 | 54.10801 | 13.51712 | 77° | 29km/h | 4663m | 6.5m/s | -11.9°C | 77.8% | 574hPa | 2.9V | 08:30:00 | 00:32:54 | 00:00:00 | |
| DL1XH-15 | 2026-09-02 11:00:09 | 54.10793 | 13.51657 | 56° | 26km/h | 4633m | 7.2m/s | -11.6°C | 77.3% | 576.3hPa | 2.9V | 08:30:00 | 00:32:48 | 00:00:00 | |
| AA1-15 | 2026-09-02 11:00:07 | 54.10800 | 13.51689 | 87° | 24km/h | 4654m | 4.4m/s | -11.8°C | 75.1% | 574.7hPa | 2.9V | 18:12:15 | 00:32:52 | 00:00:00 | |
| DL1XH-15 | 2026-09-02 11:00:04 | 54.10790 | 13.51582 | 103° | 22km/h | 4599m | 5.4m/s | -11.3°C | 75.7% | 578.8hPa | 2.8V | 08:30:00 | 00:32:42 | 00:00:00 | |
| DG6HD-11 | 2026-09-02 11:00:00 | 54.10786 | 13.51618 | 87° | 26km/h | 4615m | 5.6m/s | -11.4°C | 75.9% | 577.6hPa | 2.9V | 00:00:00 | 00:00:00 | 00:00:00 | |
| DL1XH-15 | 2026-09-02 10:59:58 | 54.10777 | 13.51524 | 74° | 33km/h | 4566m | 6.1m/s | -11.2°C | 74.3% | 581.2hPa | 2.9V | 08:30:00 | 00:32:36 | 00:00:00 | |
| AA1-15 | 2026-09-02 10:59:56 | 54.10791 | 13.51574 | 90° | 18km/h | 4594m | 5.2m/s | -11.3°C | 72.4% | 579.3hPa | 2.9V | 18:12:15 | 00:32:41 | 00:00:00 | |
| DL1XH-15 | 2026-09-02 10:59:52 | 54.10779 | 13.51477 | 109° | 16km/h | 4545m | 4.9m/s | -11°C | 74.2% | 582.8hPa | 2.9V | 08:30:00 | 00:32:32 | 00:00:00 | |
| AM1SDL-15 | 2026-09-02 10:59:49 | 54.10776 | 13.51497 | 101° | 22km/h | 4556m | 4.4m/s | -11.0°C | 74.5% | 582.0hPa | 2.9V | 00:00:00 | 00:32:34 | 00:00:00 | |
| DL1XH-15 | 2026-09-02 10:59:46 | 54.10770 | 13.51454 | 35° | 24km/h | 4517m | 5.9m/s | -10.8°C | 72.8% | 585hPa | 2.9V | 08:30:00 | 00:32:27 | 00:00:00 | |
| AA1-15 | 2026-09-02 10:59:46 | 54.10780 | 13.51467 | 57° | 11km/h | 4535m | 5.3m/s | -11°C | 73.3% | 583.6hPa | 2.9V | 18:12:15 | 00:32:30 | 00:00:00 | |
| DL1XH-15 | 2026-09-02 10:59:40 | 54.10757 | 13.51399 | 91° | 31km/h | 4491m | 6.4m/s | -10.6°C | 74.7% | 586.9hPa | 2.9V | 08:30:00 | 00:32:22 | 00:00:00 | |
| DB0DAN | 2026-09-02 10:59:40 | 54.10761 | 13.51438 | 61° | 27km/h | 4507m | 4.3m/s | -10.7°C | 72.5% | 585.79hPa | 2.9V | 00:00:00 | 00:00:00 | 00:00:00 | |
| AM1SDL-15 | 2026-09-02 10:59:37 | 54.10757 | 13.51399 | 92° | 26km/h | 4491m | 6.4m/s | -10.6°C | 74.7% | 586.8hPa | 2.9V | 00:00:00 | 00:32:22 | 00:00:00 | |
| DL1XH-15 | 2026-09-02 10:59:35 | 54.10752 | 13.51337 | 69° | 33km/h | 4464m | 6m/s | -10.4°C | 79.5% | 589hPa | 2.9V | 08:30:00 | 00:32:17 | 00:00:00 | |
| AA1-15 | 2026-09-02 10:59:34 | 54.10757 | 13.51362 | 77° | 27km/h | 4475m | 4.5m/s | -10.5°C | 74.7% | 588.2hPa | 2.9V | 18:12:15 | 00:32:19 | 00:00:00 | |
| DL1XH-15 | 2026-09-02 10:59:30 | 54.10745 | 13.51285 | 63° | 13km/h | 4433m | 7.1m/s | -10.2°C | 79% | 591.5hPa | 2.9V | 08:30:00 | 00:32:12 | 00:00:00 | |
| DG6HD-11 | 2026-09-02 10:59:30 | 54.10747 | 13.51310 | 81° | 24km/h | 4451m | 7.4m/s | -10.3°C | 79.6% | 590.0hPa | 2.9V | 00:00:00 | 00:00:00 | 00:00:00 | |
| MECKS9 | 2026-09-02 10:59:29 | 54.10747 | 13.51310 | 82° | 29km/h | 4451m | 7.4m/s | -10.3°C | 78.2% | 590.0hPa | 2.9V | 00:00:00 | 00:00:00 | 00:00:00 | |
| DL1XH-15 | 2026-09-02 10:59:25 | 54.10730 | 13.51255 | 61° | 16km/h | 4402m | 6.5m/s | -10.1°C | 79.7% | 0hPa | 2.9V | 08:30:00 | 00:32:07 | 00:00:00 | |
| DB0DAN | 2026-09-02 10:59:25 | 54.10739 | 13.51274 | 43° | 20km/h | 4421m | 4.9m/s | -10.1°C | 77% | 592.39hPa | 2.9V | 00:00:00 | 00:00:00 | 00:00:00 | |
| AA1-15 | 2026-09-02 10:59:25 | 54.10735 | 13.51268 | 46° | 20km/h | 4415m | 6.1m/s | -10.1°C | 76.5% | 592.8hPa | 2.9V | 18:12:15 | 00:32:09 | 00:00:00 | |
| DL1XH-15 | 2026-09-02 10:59:19 | 54.10720 | 13.51211 | 69° | 31km/h | 4369m | 6.7m/s | -9.9°C | 80.9% | 0hPa | 2.8V | 08:30:00 | 00:32:02 | 00:00:00 | |
| MECKS9 | 2026-09-02 10:59:18 | 54.10724 | 13.51232 | 72° | 22km/h | 4384m | 7.6m/s | -10.0°C | 79.9% | 595.3hPa | 2.9V | 00:00:00 | 00:00:00 | 00:00:00 | |
| DL1XH-15 | 2026-09-02 10:59:14 | 54.10707 | 13.51132 | 83° | 37km/h | 4337m | 5.2m/s | -9.7°C | 80.2% | 0hPa | 2.9V | 08:30:00 | 00:31:57 | 00:00:00 | |
| AA1-15 | 2026-09-02 10:59:13 | 54.10709 | 13.51148 | 77° | 40km/h | 4342m | 5.3m/s | -9.7°C | 77.6% | 598.4hPa | 2.9V | 18:12:15 | 00:31:58 | 00:00:00 | |
| DL1XH-15 | 2026-09-02 10:59:09 | 54.10713 | 13.51066 | 89° | 20km/h | 4306m | 4.3m/s | -9.4°C | 81.1% | 0hPa | 2.9V | 08:30:00 | 00:31:51 | 00:00:00 | |
| AA1-15 | 2026-09-02 10:59:02 | 54.10712 | 13.51037 | 96° | 18km/h | 4285m | 6.6m/s | -9.3°C | 77.8% | 602.8hPa | 2.9V | 18:12:15 | 00:31:47 | 00:00:00 | |
| AM1SDL-15 | 2026-09-02 10:59:01 | 54.10712 | 13.51028 | 102° | 20km/h | 4279m | 4.8m/s | -9.2°C | 79.7% | 603.2hPa | 2.9V | 00:00:00 | 00:31:46 | 00:00:00 | |
| DG6HD-11 | 2026-09-02 10:59:00 | 54.10713 | 13.51019 | 96° | 29km/h | 4274m | 5.6m/s | -9.2°C | 79.2% | 603.8hPa | 2.9V | 00:00:00 | 00:00:00 | 00:00:00 | |
| DB0DAN | 2026-09-02 10:58:55 | 54.10707 | 13.50980 | 48° | 18km/h | 4247m | 5.6m/s | -9°C | 73% | 605.82hPa | 2.9V | 00:00:00 | 00:00:00 | 00:00:00 | |
| AA1-15 | 2026-09-02 10:58:51 | 54.10701 | 13.50954 | 89° | 22km/h | 4226m | 4.4m/s | -8.8°C | 73.7% | 607.4hPa | 2.9V | 18:12:15 | 00:31:36 | 00:00:00 | |
| DL1XH-15 | 2026-09-02 10:58:49 | 54.10691 | 13.50850 | 75° | 35km/h | 4188m | 4m/s | -8.6°C | 72.4% | 0hPa | 2.9V | 08:30:00 | 00:31:29 | 00:00:00 | |
| AA1-15 | 2026-09-02 10:58:40 | 54.10680 | 13.50802 | 67° | 31km/h | 4165m | 6.8m/s | -8.5°C | 72.7% | 612.2hPa | 2.9V | 18:12:15 | 00:31:25 | 00:00:00 | |
| DB0DAN | 2026-09-02 10:58:40 | 54.10680 | 13.50802 | 67° | 29km/h | 4165m | 6.8m/s | -8.5°C | 72.1% | 612.22hPa | 2.9V | 00:00:00 | 00:00:00 | 00:00:00 | |
| AM1SDL-15 | 2026-09-02 10:58:37 | 54.10674 | 13.50763 | 84° | 38km/h | 4150m | 5.1m/s | 0°C | 0% | 0hPa | 2.9V | 00:00:00 | 00:31:22 | 08:30:00 | |
| DL1XH-15 | 2026-09-02 10:58:33 | 54.10665 | 13.50629 | 83° | 42km/h | 4117m | 4.3m/s | -8.3°C | 80.9% | 0hPa | 2.9V | 08:30:00 | 00:31:14 | 00:00:00 | |
| AA1-15 | 2026-09-02 10:58:30 | 54.10666 | 13.50648 | 85° | 44km/h | 4122m | 4m/s | -8.3°C | 80.5% | 615.5hPa | 2.9V | 18:12:15 | 00:31:15 | 00:00:00 | |
| DG6HD-11 | 2026-09-02 10:58:30 | 54.10666 | 13.50648 | 86° | 27km/h | 4122m | 3.9m/s | -8.3°C | 80.6% | 615.4hPa | 2.9V | 00:00:00 | 00:00:00 | 00:00:00 | |
| DL1XH-15 | 2026-09-02 10:58:28 | 54.10660 | 13.50568 | 65° | 16km/h | 4090m | 6.3m/s | -8.3°C | 82.8% | 0hPa | 2.9V | 08:30:00 | 00:31:09 | 00:00:00 | |
| DB0DAN | 2026-09-02 10:58:25 | 54.10662 | 13.50576 | 79° | 18km/h | 4097m | 6.8m/s | -8.3°C | 81.5% | 617.37hPa | 2.9V | 00:00:00 | 00:00:00 | 00:00:00 | |
| DL1XH-15 | 2026-09-02 10:58:23 | 54.10660 | 13.50517 | 100° | 33km/h | 4064m | 3.5m/s | -8.2°C | 81.4% | 0hPa | 2.9V | 08:30:00 | 00:31:04 | 00:00:00 | |
| AA1-15 | 2026-09-02 10:58:19 | 54.10660 | 13.50517 | 101° | 33km/h | 4064m | 3.5m/s | -8.2°C | 80.7% | 620.2hPa | 2.9V | 18:12:15 | 00:31:04 | 00:00:00 | |
| DL1XH-15 | 2026-09-02 10:58:13 | 54.10645 | 13.50395 | 67° | 26km/h | 4013m | 4.6m/s | -8°C | 79.5% | 0hPa | 2.9V | 08:30:00 | 00:30:54 | 00:00:00 | |
| AM1SDL-15 | 2026-09-02 10:58:13 | 54.10654 | 13.50433 | 65° | 26km/h | 4036m | 6.6m/s | 0°C | 0% | 0hPa | 2.9V | 00:00:00 | 00:30:58 | 00:00:00 | |
| MECKS9 | 2026-09-02 10:58:11 | 54.10652 | 13.50423 | 66° | 24km/h | 4029m | 5.6m/s | -8.1°C | 77.6% | 622.7hPa | 2.9V | 00:00:00 | 00:00:00 | 00:00:00 | |
| DB0DAN | 2026-09-02 10:58:10 | 54.10647 | 13.50406 | 68° | 22km/h | 4018m | 5.1m/s | -8°C | 77.8% | 623.69hPa | 2.9V | 00:00:00 | 00:00:00 | 00:00:00 | |
| AA1-15 | 2026-09-02 10:58:09 | 54.10645 | 13.50396 | 68° | 26km/h | 4013m | 4.6m/s | -8°C | 79.2% | 624.2hPa | 2.9V | 18:12:15 | 00:30:54 | 00:00:00 | |
| DL1XH-15 | 2026-09-02 10:58:03 | 54.10633 | 13.50322 | 75° | 27km/h | 3986m | 4.2m/s | -7.9°C | 78.6% | 0hPa | 2.9V | 08:30:00 | 00:30:47 | 00:00:00 | |
| AM1SDL-15 | 2026-09-02 10:58:01 | 54.10631 | 13.50309 | 69° | 27km/h | 3982m | 3.6m/s | 0°C | 0% | 0hPa | 2.9V | 00:00:00 | 00:30:46 | 00:00:00 | |
| DG6HD-11 | 2026-09-02 10:58:00 | 54.10628 | 13.50297 | 68° | 33km/h | 3979m | 3.4m/s | -7.8°C | 78.5% | 627.2hPa | 2.9V | 00:00:00 | 00:30:45 | 00:00:00 | |
| DL1XH-15 | 2026-09-02 10:57:58 | 54.10619 | 13.50263 | 69° | 27km/h | 3968m | 2.8m/s | -7.7°C | 78.5% | 0hPa | 2.9V | 08:30:00 | 00:30:42 | 00:00:00 | |
| AA1-15 | 2026-09-02 10:57:58 | 54.10621 | 13.50274 | 66° | 26km/h | 3972m | 3.5m/s | -7.8°C | 75.4% | 627.9hPa | 2.9V | 18:12:15 | 00:30:43 | 00:00:00 | |
| AM1SDL-15 | 2026-09-02 10:57:49 | 54.10624 | 13.50178 | 70° | 31km/h | 3938m | 5.2m/s | 0°C | 0% | 0hPa | 2.9V | 00:00:00 | 00:30:34 | 00:00:00 | |
| DL1XH-15 | 2026-09-02 10:57:48 | 54.10616 | 13.50157 | 55° | 35km/h | 3928m | 5.5m/s | -7.4°C | 74.8% | 0hPa | 2.9V | 08:30:00 | 00:30:32 | 00:00:00 | |
| AA1-15 | 2026-09-02 10:57:47 | 54.10616 | 13.50157 | 56° | 35km/h | 3928m | 5.6m/s | -7.4°C | 74% | 631.3hPa | 2.9V | 18:12:15 | 00:30:32 | 00:00:00 | |
| AA1-15 | 2026-09-02 10:57:36 | 54.10588 | 13.50004 | 68° | 42km/h | 3868m | 4.2m/s | -6.9°C | 72% | 636.1hPa | 2.9V | 18:12:15 | 00:30:21 | 00:00:00 | |
| DL1XH-15 | 2026-09-02 10:57:31 | 54.10558 | 13.49888 | 56° | 24km/h | 3827m | 5.3m/s | -6.6°C | 72.8% | 0hPa | 2.9V | 08:30:00 | 00:30:13 | 00:00:00 | |
| DG6HD-11 | 2026-09-02 10:57:30 | 54.10563 | 13.49909 | 72° | 33km/h | 3838m | 4.9m/s | -6.6°C | 73.5% | 638.6hPa | 2.9V | 00:00:00 | 00:00:00 | 00:00:00 | |
| DL1XH-15 | 2026-09-02 10:57:26 | 54.10547 | 13.49824 | 94° | 42km/h | 3797m | 5.5m/s | -6.4°C | 74.5% | 0hPa | 2.9V | 08:30:00 | 00:30:08 | 00:00:00 | |
| AA1-15 | 2026-09-02 10:57:25 | 54.10548 | 13.49856 | 79° | 33km/h | 3808m | 6.3m/s | -6.5°C | 74.1% | 641.2hPa | 2.9V | 18:12:15 | 00:30:10 | 00:00:00 | |
| DB0DAN | 2026-09-02 10:57:25 | 54.10548 | 13.49856 | 79° | 31km/h | 3808m | 6.3m/s | -6.5°C | 72.8% | 641.16hPa | 2.9V | 00:00:00 | 00:00:00 | 00:00:00 | |
| DL1XH-15 | 2026-09-02 10:57:21 | 54.10533 | 13.49702 | 61° | 24km/h | 3754m | 4.6m/s | -6.1°C | 75% | 0hPa | 2.9V | 08:30:00 | 00:30:00 | 00:00:00 | |
| AA1-15 | 2026-09-02 10:57:15 | 54.10533 | 13.49702 | 61° | 24km/h | 3754m | 4.6m/s | -6.2°C | 74.7% | 645.5hPa | 2.9V | 18:12:15 | 00:30:00 | 00:00:00 | |
| DB0DAN | 2026-09-02 10:57:10 | 54.10516 | 13.49648 | 68° | 27km/h | 3731m | 4.5m/s | -6°C | 74.2% | 647.45hPa | 2.9V | 00:00:00 | 00:00:00 | 00:00:00 | |
| DL1XH-15 | 2026-09-02 10:57:08 | 54.10498 | 13.49555 | 63° | 35km/h | 3700m | 5.7m/s | -5.8°C | 79.4% | 0hPa | 2.9V | 08:30:00 | 00:29:49 | 00:00:00 | |
| AA1-15 | 2026-09-02 10:57:03 | 54.10494 | 13.49542 | 61° | 31km/h | 3695m | 3.9m/s | -5.8°C | 79.6% | 650.5hPa | 2.9V | 18:12:15 | 00:29:48 | 00:00:00 | |
| DG6HD-11 | 2026-09-02 10:57:00 | 54.10482 | 13.49510 | 56° | 33km/h | 3679m | 6.2m/s | -5.6°C | 78.6% | 651.7hPa | 2.9V | 00:00:00 | 00:00:00 | 00:00:00 | |
| DL1XH-15 | 2026-09-02 10:56:58 | 54.10464 | 13.49406 | 103° | 31km/h | 3638m | 3.6m/s | -5.5°C | 79.8% | 0hPa | 2.9V | 08:30:00 | 00:29:37 | 00:00:00 | |
| DB0DAN | 2026-09-02 10:56:55 | 54.10464 | 13.49447 | 76° | 31km/h | 3653m | 5.2m/s | -5.6°C | 81% | 654hPa | 2.9V | 00:00:00 | 00:00:00 | 00:00:00 | |
| AA1-15 | 2026-09-02 10:56:53 | 54.10464 | 13.49406 | 104° | 31km/h | 3638m | 3.6m/s | -5.5°C | 80.1% | 655.5hPa | 2.9V | 18:12:15 | 00:29:37 | 00:00:00 | |
| AA1-15 | 2026-09-02 10:56:42 | 54.10460 | 13.49271 | 84° | 37km/h | 3593m | 3.9m/s | -5.2°C | 80.4% | 659.1hPa | 2.9V | 18:12:15 | 00:29:27 | 00:00:00 | |
| AA1-15 | 2026-09-02 10:56:31 | 54.10453 | 13.49103 | 93° | 37km/h | 3541m | 6.3m/s | -4.9°C | 85.7% | 663.4hPa | 2.9V | 18:12:15 | 00:29:16 | 00:00:00 | |
| DG6HD-11 | 2026-09-02 10:56:30 | 54.10453 | 13.49088 | 96° | 33km/h | 3534m | 7.7m/s | -4.9°C | 85.7% | 663.9hPa | 2.9V | 00:00:00 | 00:00:00 | 00:00:00 | |
| AM1SDL-15 | 2026-09-02 10:56:27 | 54.10456 | 13.49051 | 94° | 29km/h | 3512m | 5.4m/s | 0°C | 0% | 0hPa | 2.9V | 00:00:00 | 00:29:12 | 00:00:00 | |
| DL1XH-15 | 2026-09-02 10:56:26 | 54.10461 | 13.48963 | 95° | 29km/h | 3479m | 6.3m/s | -4.7°C | 88.5% | 0hPa | 2.9V | 08:30:00 | 00:29:05 | 00:00:00 | |
| AA1-15 | 2026-09-02 10:56:21 | 54.10461 | 13.48963 | 96° | 29km/h | 3479m | 6.3m/s | -4.7°C | 87.1% | 668.5hPa | 2.9V | 18:12:15 | 00:29:05 | 00:00:00 | |
| DL1XH-15 | 2026-09-02 10:56:21 | 54.10461 | 13.48914 | 92° | 33km/h | 3457m | 6m/s | -4.6°C | 91.3% | 0hPa | 2.9V | 08:30:00 | 00:29:01 | 00:00:00 | |
| DL1XH-15 | 2026-09-02 10:56:15 | 54.10466 | 13.48830 | 88° | 40km/h | 3436m | 2.5m/s | -4.5°C | 90.5% | 0hPa | 2.9V | 08:30:00 | 00:28:56 | 00:00:00 | |
| DL1XH-15 | 2026-09-02 10:56:10 | 54.10457 | 13.48760 | 67° | 27km/h | 3413m | 4.3m/s | -4.3°C | 90.4% | 0hPa | 2.9V | 00:00:00 | 00:28:51 | 00:00:00 | |
| AA1-15 | 2026-09-02 10:56:10 | 54.10465 | 13.48813 | 82° | 38km/h | 3433m | 4.2m/s | -4.5°C | 87.3% | 672.6hPa | 2.9V | 18:12:15 | 00:28:55 | 00:00:00 | |
| DB0DAN | 2026-09-02 10:56:10 | 54.10465 | 13.48813 | 82° | 37km/h | 3433m | 4.2m/s | -4.5°C | 89.7% | 672.58hPa | 2.9V | 00:00:00 | 00:00:00 | 00:00:00 | |
| MECKS9 | 2026-09-02 10:56:09 | 54.10465 | 13.48813 | 83° | 38km/h | 3433m | 4.2m/s | -4.5°C | 89.7% | 672.6hPa | 2.9V | 00:00:00 | 00:00:00 | 00:00:00 | |
| DL1XH-15 | 2026-09-02 10:56:05 | 54.10443 | 13.48694 | 83° | 46km/h | 3395m | 3.9m/s | -4.2°C | 92.2% | 0hPa | 2.9V | 00:00:00 | 00:28:46 | 00:00:00 | |
| AA1-15 | 2026-09-02 10:55:59 | 54.10442 | 13.48653 | 91° | 47km/h | 3383m | 8.1m/s | -4.1°C | 91.4% | 677hPa | 2.9V | 18:12:15 | 00:28:44 | 00:00:00 | |
| DB0DAN | 2026-09-02 10:55:55 | 54.10447 | 13.48580 | 100° | 38km/h | 3358m | 5.1m/s | -3.9°C | 90.6% | 679.16hPa | 2.9V | 00:00:00 | 00:00:00 | 00:00:00 | |
| AA1-15 | 2026-09-02 10:55:48 | 54.10448 | 13.48464 | 75° | 35km/h | 3321m | 6.2m/s | -3.6°C | 88.9% | 682.4hPa | 2.9V | 18:12:15 | 00:28:33 | 00:00:00 | |
| DB0DAN | 2026-09-02 10:55:40 | 54.10455 | 13.48367 | 92° | 35km/h | 3284m | 4.7m/s | -3.3°C | 88.4% | 685.44hPa | 2.9V | 00:00:00 | 00:00:00 | 00:00:00 | |
| AA1-15 | 2026-09-02 10:55:37 | 54.10452 | 13.48315 | 75° | 40km/h | 3268m | 4.8m/s | -3.2°C | 87.3% | 686.8hPa | 2.9V | 18:12:15 | 00:28:22 | 00:00:00 | |
| AA1-15 | 2026-09-02 10:55:27 | 54.10456 | 13.48201 | 91° | 24km/h | 3213m | 5.2m/s | -2.8°C | 89.7% | 691.5hPa | 2.9V | 18:12:15 | 00:28:12 | 00:00:00 | |
| DB0DAN | 2026-09-02 10:55:25 | 54.10456 | 13.48180 | 87° | 24km/h | 3201m | 5.4m/s | -2.8°C | 89.8% | 692.55hPa | 2.9V | 00:00:00 | 00:00:00 | 00:00:00 | |
| AA1-15 | 2026-09-02 10:55:17 | 54.10460 | 13.48060 | 81° | 42km/h | 3166m | 3.4m/s | -2.5°C | 89.8% | 695.7hPa | 2.9V | 18:12:15 | 00:28:01 | 00:00:00 | |
| AM1SDL-15 | 2026-09-02 10:55:15 | 54.10458 | 13.48043 | 78° | 26km/h | 3162m | 4.3m/s | 0°C | 0% | 0hPa | 2.9V | 00:00:00 | 00:28:00 | 00:00:00 | |
| DB0DAN | 2026-09-02 10:55:10 | 54.10445 | 13.47985 | 74° | 16km/h | 3139m | 5.1m/s | -2.4°C | 89% | 697.93hPa | 2.9V | 00:00:00 | 00:00:00 | 00:00:00 | |
| MECKS9 | 2026-09-02 10:55:07 | 54.10444 | 13.47971 | 92° | 15km/h | 3130m | 5.3m/s | -2.4°C | 87.9% | 698.7hPa | 2.9V | 00:00:00 | 00:00:00 | 00:00:00 | |
| DL1XH-15 | 2026-09-02 10:55:06 | 54.10445 | 13.47928 | 88° | 27km/h | 3107m | 4.8m/s | -2.2°C | 87.8% | 0hPa | 2.9V | 00:00:00 | 00:27:48 | 00:00:00 | |
| AA1-15 | 2026-09-02 10:55:05 | 54.10444 | 13.47949 | 92° | 20km/h | 3116m | 4.4m/s | -2.3°C | 86.9% | 700.1hPa | 2.9V | 18:12:15 | 00:27:50 | 00:00:00 | |
| AM1SDL-15 | 2026-09-02 10:55:03 | 54.10445 | 13.47927 | 89° | 24km/h | 3107m | 4.8m/s | 0°C | 0% | 0hPa | 2.9V | 00:00:00 | 00:27:48 | 00:00:00 | |
| DG6HD-11 | 2026-09-02 10:55:00 | 54.10441 | 13.47888 | 75° | 27km/h | 3091m | 5.1m/s | -2.1°C | 87.2% | 702.1hPa | 2.9V | 00:00:00 | 00:00:00 | 00:00:00 | |
| DL1XH-15 | 2026-09-02 10:54:56 | 54.10438 | 13.47815 | 64° | 16km/h | 3055m | 3.6m/s | -2°C | 80.7% | 0hPa | 2.9V | 00:00:00 | 00:27:37 | 00:00:00 | |
| AA1-15 | 2026-09-02 10:54:56 | 54.10440 | 13.47830 | 88° | 18km/h | 3062m | 4.2m/s | -2°C | 80.8% | 704.5hPa | 2.9V | 18:12:15 | 00:27:39 | 00:00:00 | |
| DB0DAN | 2026-09-02 10:54:55 | 54.10440 | 13.47837 | 94° | 16km/h | 3066m | 3.7m/s | -2°C | 80.7% | 704.45hPa | 2.9V | 00:00:00 | 00:00:00 | 00:00:00 | |
| AM1SDL-15 | 2026-09-02 10:54:51 | 54.10436 | 13.47807 | 69° | 29km/h | 3051m | 4.4m/s | 0°C | 0% | 0hPa | 2.9V | 00:00:00 | 00:27:36 | 00:00:00 | |
| DL1XH-15 | 2026-09-02 10:54:50 | 54.10424 | 13.47767 | 64° | 35km/h | 3030m | 5.4m/s | -1.8°C | 0% | 0hPa | 2.9V | 00:00:00 | 00:27:32 | 00:00:00 | |
| DL1XH-15 | 2026-09-02 10:54:45 | 54.10411 | 13.47696 | 80° | 27km/h | 3006m | 4.8m/s | -1.6°C | 0% | 0hPa | 2.9V | 00:00:00 | 00:27:27 | 00:00:00 | |
| AA1-15 | 2026-09-02 10:54:43 | 54.10412 | 13.47709 | 79° | 33km/h | 3011m | 4.8m/s | -1.6°C | 71.9% | 709.2hPa | 2.9V | 18:12:15 | 00:27:28 | 00:00:00 | |
| DB0DAN | 2026-09-02 10:54:40 | 54.10408 | 13.47677 | 69° | 20km/h | 2995m | 4.9m/s | -1.5°C | 69.9% | 710.34hPa | 2.9V | 00:00:00 | 00:00:00 | 00:00:00 | |
| DL1XH-15 | 2026-09-02 10:54:33 | 54.10406 | 13.47578 | 100° | 22km/h | 2948m | 6.6m/s | 0°C | 0% | 0hPa | 2.9V | 00:00:00 | 00:27:17 | 00:00:00 | |
| AA1-15 | 2026-09-02 10:54:32 | 54.10406 | 13.47578 | 101° | 22km/h | 2948m | 6.6m/s | -1.2°C | 70.9% | 714.7hPa | 2.9V | 18:12:15 | 00:27:17 | 00:00:00 | |
| DG6HD-11 | 2026-09-02 10:54:30 | 54.10407 | 13.47561 | 85° | 29km/h | 2936m | 7.5m/s | -1.0°C | 67.9% | 715.8hPa | 2.9V | 00:00:00 | 00:00:00 | 00:00:00 | |
| DL1XH-15 | 2026-09-02 10:54:28 | 54.10404 | 13.47535 | 84° | 26km/h | 2918m | 4.8m/s | 0°C | 0% | 0hPa | 2.9V | 00:00:00 | 00:27:12 | 00:00:00 | |
| DB0DAN | 2026-09-02 10:54:25 | 54.10403 | 13.47512 | 85° | 27km/h | 2909m | 4.9m/s | -0.9°C | 66.4% | 718.53hPa | 2.9V | 00:00:00 | 00:00:00 | 00:00:00 | |
| AA1-15 | 2026-09-02 10:54:23 | 54.10394 | 13.47462 | 71° | 33km/h | 2891m | 4.5m/s | -0.8°C | 66.7% | 719.9hPa | 2.9V | 18:12:15 | 00:27:06 | 00:00:00 | |
| AA1-15 | 2026-09-02 10:54:10 | 54.10390 | 13.47312 | 72° | 38km/h | 2832m | 4.8m/s | -0.4°C | 65.7% | 725.2hPa | 2.9V | 18:12:15 | 00:26:55 | 00:00:00 | |
| DB0DAN | 2026-09-02 10:54:10 | 54.10390 | 13.47312 | 72° | 37km/h | 2832m | 4.8m/s | -0.4°C | 64.2% | 725.21hPa | 2.9V | 00:00:00 | 00:00:00 | 00:00:00 | |
| AA1-15 | 2026-09-02 10:53:59 | 54.10363 | 13.47186 | 85° | 33km/h | 2776m | 5.8m/s | 0°C | 66% | 730.4hPa | 2.9V | 18:12:15 | 00:26:44 | 00:00:00 | |
| DB0DAN | 2026-09-02 10:53:55 | 54.10351 | 13.47137 | 55° | 33km/h | 2752m | 7.6m/s | 0.3°C | 63.3% | 732.56hPa | 2.9V | 00:00:00 | 00:00:00 | 00:00:00 | |
| AA1-15 | 2026-09-02 10:53:49 | 54.10343 | 13.47053 | 91° | 26km/h | 2709m | 5.8m/s | 0.6°C | 67.5% | 736.4hPa | 2.9V | 18:12:15 | 00:26:33 | 00:00:00 | |
| MECKS9 | 2026-09-02 10:53:44 | 54.10338 | 13.47025 | 64° | 20km/h | 2690m | 6.5m/s | 0.8°C | 64.0% | 738.1hPa | 2.9V | 00:00:00 | 00:00:00 | 00:00:00 | |
| DB0DAN | 2026-09-02 10:53:40 | 54.10332 | 13.46964 | 77° | 35km/h | 2664m | 6.5m/s | 1°C | 60.2% | 740.81hPa | 2.9V | 00:00:00 | 00:00:00 | 00:00:00 | |
| AA1-15 | 2026-09-02 10:53:37 | 54.10323 | 13.46919 | 65° | 33km/h | 2649m | 4.1m/s | 1.1°C | 60.6% | 742.1hPa | 2.9V | 18:12:15 | 00:26:22 | 00:00:00 | |
| AA1-15 | 2026-09-02 10:53:26 | 54.10306 | 13.46807 | 81° | 29km/h | 2589m | 7.5m/s | 1.6°C | 59.1% | 747.6hPa | 2.9V | 18:12:15 | 00:26:11 | 00:00:00 | |
| DB0DAN | 2026-09-02 10:53:25 | 54.10305 | 13.46794 | 82° | 27km/h | 2582m | 6.1m/s | 1.7°C | 56.7% | 748.3hPa | 2.9V | 00:00:00 | 00:00:00 | 00:00:00 | |
| AA1-15 | 2026-09-02 10:53:16 | 54.10298 | 13.46660 | 93° | 33km/h | 2544m | 4.1m/s | 2.1°C | 57% | 751.8hPa | 2.9V | 18:12:15 | 00:26:01 | 00:00:00 | |
| DB0DAN | 2026-09-02 10:53:10 | 54.10292 | 13.46586 | 90° | 29km/h | 2511m | 5.7m/s | 2.4°C | 52.9% | 754.88hPa | 2.9V | 00:00:00 | 00:00:00 | 00:00:00 | |
| AA1-15 | 2026-09-02 10:53:05 | 54.10298 | 13.46521 | 102° | 24km/h | 2490m | 3.7m/s | 2.6°C | 54.6% | 756.9hPa | 2.9V | 18:12:15 | 00:25:50 | 00:00:00 | |
| MECKS9 | 2026-09-02 10:53:03 | 54.10299 | 13.46510 | 99° | 24km/h | 2486m | 4.4m/s | 2.6°C | 52.0% | 757.4hPa | 2.9V | 00:00:00 | 00:00:00 | 00:00:00 | |
| DG6HD-11 | 2026-09-02 10:53:00 | 54.10304 | 13.46464 | 104° | 31km/h | 2461m | 6.7m/s | 0°C | 0% | 0hPa | 2.9V | 00:00:00 | 00:00:00 | 00:00:00 | |
| DB0DAN | 2026-09-02 10:52:55 | 54.10300 | 13.46386 | 73° | 38km/h | 2436m | 4.3m/s | 2.9°C | 50.8% | 761.73hPa | 2.9V | 00:00:00 | 00:00:00 | 00:00:00 | |
| AA1-15 | 2026-09-02 10:52:54 | 54.10297 | 13.46370 | 74° | 40km/h | 2431m | 5.2m/s | 3°C | 54% | 762.4hPa | 2.9V | 18:12:15 | 00:25:39 | 00:00:00 | |
| AA1-15 | 2026-09-02 10:52:43 | 54.10305 | 13.46231 | 102° | 35km/h | 2378m | 3.6m/s | 3.3°C | 54.3% | 767.4hPa | 2.9V | 18:12:15 | 00:25:28 | 00:00:00 | |
| DB0DAN | 2026-09-02 10:52:40 | 54.10310 | 13.46187 | 106° | 31km/h | 2365m | 5.8m/s | 3.4°C | 51.8% | 768.48hPa | 2.9V | 00:00:00 | 00:00:00 | 00:00:00 | |
| AA1-15 | 2026-09-02 10:52:35 | 54.10306 | 13.46110 | 55° | 33km/h | 2323m | 5.8m/s | 3.7°C | 54.3% | 772.5hPa | 2.9V | 18:12:15 | 00:25:17 | 00:00:00 | |
| DG6HD-11 | 2026-09-02 10:52:30 | 54.10298 | 13.46087 | 63° | 31km/h | 2314m | 3.5m/s | 0°C | 0% | 0hPa | 2.9V | 00:00:00 | 00:00:00 | 00:00:00 | |
| MECKS9 | 2026-09-02 10:52:28 | 54.10294 | 13.46075 | 65° | 29km/h | 2310m | 4.7m/s | 3.8°C | 51.5% | 773.7hPa | 2.9V | 00:00:00 | 00:00:00 | 00:00:00 | |
| DB0DAN | 2026-09-02 10:52:25 | 54.10285 | 13.46035 | 75° | 18km/h | 2287m | 5.3m/s | 4°C | 51.7% | 775.94hPa | 2.9V | 00:00:00 | 00:00:00 | 00:00:00 | |
| AA1-15 | 2026-09-02 10:52:21 | 54.10277 | 13.46003 | 64° | 27km/h | 2269m | 4m/s | 4°C | 55.5% | 777.7hPa | 2.9V | 18:12:15 | 00:25:06 | 00:00:00 | |
| AA1-15 | 2026-09-02 10:52:10 | 54.10279 | 13.45863 | 76° | 20km/h | 2210m | 4.8m/s | 4.4°C | 54.5% | 783.2hPa | 2.9V | 18:12:15 | 00:24:55 | 00:00:00 | |
| DB0DAN | 2026-09-02 10:52:10 | 54.10279 | 13.45863 | 76° | 18km/h | 2210m | 4.8m/s | 4.4°C | 51.9% | 783.19hPa | 2.9V | 00:00:00 | 00:00:00 | 00:00:00 | |
| AA1-15 | 2026-09-02 10:52:02 | 54.10296 | 13.45684 | 100° | 26km/h | 2147m | 4.3m/s | 4.8°C | 52.8% | 789.3hPa | 2.9V | 18:12:15 | 00:24:42 | 00:00:00 | |
| MECKS9 | 2026-09-02 10:51:59 | 54.10294 | 13.45696 | 108° | 33km/h | 2152m | 4.8m/s | 4.8°C | 51.0% | 788.9hPa | 2.9V | 00:00:00 | 00:00:00 | 00:00:00 | |
| DB0DAN | 2026-09-02 10:51:55 | 54.10296 | 13.45663 | 81° | 22km/h | 2137m | 5.3m/s | 4.9°C | 50.7% | 790.16hPa | 2.9V | 00:00:00 | 00:00:00 | 00:00:00 | |
| AA1-15 | 2026-09-02 10:51:48 | 54.10303 | 13.45572 | 121° | 29km/h | 2100m | 4.4m/s | 5.1°C | 51.6% | 793.9hPa | 2.9V | 18:12:15 | 00:24:33 | 00:00:00 | |
| MECKS9 | 2026-09-02 10:51:47 | 54.10307 | 13.45562 | 125° | 29km/h | 2095m | 6.3m/s | 5.1°C | 47.6% | 794.3hPa | 2.9V | 00:00:00 | 00:00:00 | 00:00:00 | |
| DB0DAN | 2026-09-02 10:51:40 | 54.10336 | 13.45480 | 123° | 26km/h | 2053m | 5m/s | 5.4°C | 46.4% | 798.39hPa | 2.9V | 00:00:00 | 00:00:00 | 00:00:00 | |
| AA1-15 | 2026-09-02 10:51:38 | 54.10347 | 13.45458 | 135° | 20km/h | 2040m | 4.4m/s | 5.5°C | 48.9% | 799.8hPa | 2.9V | 18:12:15 | 00:24:22 | 00:00:00 | |
| AA1-15 | 2026-09-02 10:51:27 | 54.10371 | 13.45302 | 107° | 26km/h | 1980m | 5.9m/s | 5.9°C | 45.9% | 805.9hPa | 2.9V | 18:12:15 | 00:24:09 | 00:00:00 | |
| AA1-15 | 2026-09-02 10:51:26 | 54.10375 | 13.45283 | 122° | 24km/h | 1970m | 3.5m/s | 6°C | 45.9% | 806.9hPa | 2.9V | 18:12:15 | 00:24:07 | 00:00:00 | |
| DB0DAN | 2026-09-02 10:51:25 | 54.10369 | 13.45313 | 104° | 27km/h | 1987m | 7.8m/s | 5.8°C | 43.4% | 805.14hPa | 2.9V | 00:00:00 | 00:00:00 | 00:00:00 | |
| AA1-15 | 2026-09-02 10:51:25 | 54.10378 | 13.45275 | 114° | 20km/h | 1967m | 4.5m/s | 6°C | 46.2% | 807.2hPa | 2.9V | 18:12:15 | 00:24:06 | 00:00:00 | |
| AA1-15 | 2026-09-02 10:51:20 | 54.10381 | 13.45267 | 125° | 22km/h | 1962m | 4.6m/s | 6°C | 46% | 807.7hPa | 2.9V | 18:12:15 | 00:24:05 | 00:00:00 | |
| AA1-15 | 2026-09-02 10:51:18 | 54.10388 | 13.45251 | 126° | 26km/h | 1955m | 4.9m/s | 6.1°C | 46.1% | 808.5hPa | 2.9V | 18:12:15 | 00:24:03 | 00:00:00 | |
| AA1-15 | 2026-09-02 10:51:17 | 54.10402 | 13.45217 | 116° | 26km/h | 1938m | 4.9m/s | 6.2°C | 45.4% | 810.2hPa | 2.9V | 18:12:15 | 00:23:59 | 00:00:00 | |
| AA1-15 | 2026-09-02 10:51:14 | 54.10404 | 13.45207 | 107° | 26km/h | 1934m | 4.1m/s | 6.2°C | 44.8% | 810.6hPa | 2.9V | 18:12:15 | 00:23:58 | 00:00:00 | |
| AA1-15 | 2026-09-02 10:51:12 | 54.10405 | 13.45196 | 94° | 27km/h | 1929m | 5.9m/s | 6.2°C | 44.6% | 811hPa | 2.9V | 18:12:15 | 00:23:57 | 00:00:00 | |
| AA1-15 | 2026-09-02 10:51:11 | 54.10406 | 13.45184 | 91° | 26km/h | 1923m | 6.9m/s | 6.2°C | 44.1% | 811.7hPa | 2.9V | 18:12:15 | 00:23:56 | 00:00:00 | |
| AA1-15 | 2026-09-02 10:51:10 | 54.10406 | 13.45174 | 88° | 22km/h | 1917m | 5.6m/s | 6.3°C | 43.7% | 812.3hPa | 2.9V | 18:12:15 | 00:23:55 | 00:00:00 | |
| DB0DAN | 2026-09-02 10:51:10 | 54.10406 | 13.45174 | 88° | 22km/h | 1917m | 5.6m/s | 6.3°C | 40.8% | 812.28hPa | 2.9V | 00:00:00 | 00:00:00 | 00:00:00 | |
| AA1-15 | 2026-09-02 10:51:09 | 54.10406 | 13.45165 | 93° | 18km/h | 1912m | 4.7m/s | 0°C | 0% | 812.9hPa | 2.9V | 18:12:15 | 00:23:54 | 00:00:00 | |
| AA1-15 | 2026-09-02 10:51:07 | 54.10408 | 13.45149 | 106° | 22km/h | 1903m | 4.4m/s | 0°C | 0% | 813.7hPa | 2.9V | 18:12:15 | 00:23:52 | 00:00:00 | |
| AA1-15 | 2026-09-02 10:51:06 | 54.10410 | 13.45139 | 113° | 26km/h | 1900m | 3.7m/s | 0°C | 0% | 814.1hPa | 2.9V | 18:12:15 | 00:23:51 | 00:00:00 | |
| AA1-15 | 2026-09-02 10:51:05 | 54.10412 | 13.45128 | 106° | 29km/h | 1896m | 4.5m/s | 0°C | 0% | 814.4hPa | 2.9V | 18:12:15 | 00:23:50 | 00:00:00 | |
| AA1-15 | 2026-09-02 10:51:03 | 54.10415 | 13.45101 | 93° | 31km/h | 1888m | 4.1m/s | 0°C | 0% | 815.3hPa | 2.9V | 18:12:15 | 00:23:48 | 00:00:00 | |
| AA1-15 | 2026-09-02 10:51:02 | 54.10414 | 13.45088 | 80° | 31km/h | 1884m | 4.6m/s | 0°C | 0% | 815.6hPa | 2.9V | 18:12:15 | 00:23:47 | 00:00:00 | |
| AA1-15 | 2026-09-02 10:51:00 | 54.10410 | 13.45063 | 69° | 31km/h | 1875m | 5.9m/s | 0°C | 0% | 816.6hPa | 2.9V | 18:12:15 | 00:23:45 | 00:00:00 | |
| AA1-15 | 2026-09-02 10:50:59 | 54.10407 | 13.45051 | 67° | 29km/h | 1869m | 5.2m/s | 0°C | 0% | 817.1hPa | 2.9V | 18:12:15 | 00:23:44 | 00:00:00 | |
| AA1-15 | 2026-09-02 10:50:58 | 54.10405 | 13.45039 | 72° | 27km/h | 1864m | 4.9m/s | 0°C | 0% | 817.5hPa | 2.9V | 18:12:15 | 00:23:43 | 00:00:00 | |
| AA1-15 | 2026-09-02 10:50:56 | 54.10403 | 13.45018 | 92° | 24km/h | 1856m | 4m/s | 0°C | 0% | 818.4hPa | 2.9V | 18:12:15 | 00:23:41 | 00:00:00 | |
| AA1-15 | 2026-09-02 10:50:55 | 54.10403 | 13.45009 | 99° | 20km/h | 1851m | 6.5m/s | 0°C | 0% | 819hPa | 2.9V | 18:12:15 | 00:23:40 | 00:00:00 | |
| DB0DAN | 2026-09-02 10:50:55 | 54.10403 | 13.45009 | 99° | 18km/h | 1851m | 6.5m/s | 6.7°C | 38.7% | 818.97hPa | 2.9V | 00:00:00 | 00:00:00 | 00:00:00 | |
| AA1-15 | 2026-09-02 10:50:53 | 54.10405 | 13.44994 | 105° | 18km/h | 1838m | 6.2m/s | 0°C | 0% | 820.2hPa | 2.9V | 18:12:15 | 00:23:38 | 00:00:00 | |
| AA1-15 | 2026-09-02 10:50:52 | 54.10406 | 13.44987 | 116° | 16km/h | 1832m | 6.5m/s | 0°C | 0% | 820.8hPa | 2.9V | 18:12:15 | 00:23:37 | 00:00:00 | |
| AA1-15 | 2026-09-02 10:50:50 | 54.10408 | 13.44956 | 76° | 22km/h | 1815m | 4.2m/s | 0°C | 0% | 822.4hPa | 2.9V | 18:12:15 | 00:23:33 | 00:00:00 | |
| AA1-15 | 2026-09-02 10:50:49 | 54.10406 | 13.44946 | 75° | 26km/h | 1811m | 5.3m/s | 0°C | 0% | 822.9hPa | 2.9V | 18:12:15 | 00:23:32 | 00:00:00 | |
| AA1-15 | 2026-09-02 10:50:45 | 54.10405 | 13.44918 | 94° | 38km/h | 1799m | 5.7m/s | 0°C | 0% | 0hPa | 2.9V | 18:12:15 | 00:23:30 | 00:00:00 | |
| AA1-15 | 2026-09-02 10:50:43 | 54.10408 | 13.44884 | 106° | 38km/h | 1789m | 3.7m/s | 0°C | 0% | 0hPa | 2.9V | 18:12:15 | 00:23:28 | 00:00:00 | |
| AA1-15 | 2026-09-02 10:50:42 | 54.10414 | 13.44854 | 107° | 37km/h | 1782m | 4.3m/s | 0°C | 0% | 0hPa | 2.9V | 18:12:15 | 00:23:26 | 00:00:00 | |
| DB0DAN | 2026-09-02 10:50:40 | 54.10416 | 13.44839 | 109° | 33km/h | 1777m | 6.3m/s | 6.4°C | 49.1% | 0hPa | 2.9V | 00:00:00 | 00:00:00 | 00:00:00 | |
| AA1-15 | 2026-09-02 10:50:33 | 54.10422 | 13.44746 | 82° | 35km/h | 1735m | 6.1m/s | 0°C | 0% | 0hPa | 2.9V | 18:12:15 | 00:23:18 | 00:00:00 | |
| AA1-15 | 2026-09-02 10:50:31 | 54.10421 | 13.44714 | 90° | 38km/h | 1726m | 4.2m/s | 0°C | 0% | 0hPa | 2.9V | 18:12:15 | 00:23:16 | 00:00:00 | |
| AA1-15 | 2026-09-02 10:50:30 | 54.10421 | 13.44698 | 94° | 37km/h | 1722m | 5.5m/s | 0°C | 0% | 0hPa | 2.9V | 18:12:15 | 00:23:15 | 00:00:00 | |
| AA1-15 | 2026-09-02 10:50:29 | 54.10422 | 13.44683 | 94° | 33km/h | 1717m | 4.1m/s | 0°C | 0% | 0hPa | 2.9V | 18:12:15 | 00:23:14 | 00:00:00 | |
| AA1-15 | 2026-09-02 10:50:28 | 54.10421 | 13.44668 | 86° | 33km/h | 1712m | 5.5m/s | 0°C | 0% | 0hPa | 2.9V | 18:12:15 | 00:23:13 | 00:00:00 | |
| AA1-15 | 2026-09-02 10:50:26 | 54.10420 | 13.44635 | 87° | 42km/h | 1700m | 6.5m/s | 0°C | 0% | 0hPa | 2.9V | 18:12:15 | 00:23:11 | 00:00:00 | |
| AA1-15 | 2026-09-02 10:50:25 | 54.10420 | 13.44615 | 91° | 47km/h | 1693m | 6.2m/s | 0°C | 0% | 0hPa | 2.9V | 18:12:15 | 00:23:10 | 00:00:00 | |
| DB0DAN | 2026-09-02 10:50:25 | 54.10420 | 13.44615 | 91° | 46km/h | 1693m | 6.2m/s | 6.6°C | 54.2% | 0hPa | 2.9V | 00:00:00 | 00:00:00 | 00:00:00 | |
| AA1-15 | 2026-09-02 10:50:24 | 54.10421 | 13.44595 | 98° | 47km/h | 1688m | 4.3m/s | 0°C | 0% | 0hPa | 2.9V | 18:12:15 | 00:23:09 | 00:00:00 | |
| AA1-15 | 2026-09-02 10:50:22 | 54.10426 | 13.44558 | 107° | 38km/h | 1680m | 4.6m/s | 0°C | 0% | 0hPa | 2.9V | 18:12:15 | 00:23:07 | 00:00:00 | |
| AA1-15 | 2026-09-02 10:50:20 | 54.10429 | 13.44529 | 97° | 31km/h | 1671m | 5.6m/s | 0°C | 0% | 0hPa | 2.9V | 18:12:15 | 00:23:05 | 00:00:00 | |
| DB0DAN | 2026-09-02 10:50:10 | 54.10422 | 13.44357 | 93° | 27km/h | 1625m | 4.4m/s | 0°C | 0% | 0hPa | 2.9V | 00:00:00 | 00:00:00 | 00:00:00 | |
| AA1-15 | 2026-09-02 10:50:09 | 54.10421 | 13.44345 | 80° | 27km/h | 1621m | 4m/s | 0°C | 0% | 0hPa | 2.9V | 18:12:15 | 00:22:54 | 00:00:00 | |
| AA1-15 | 2026-09-02 10:50:08 | 54.10417 | 13.44321 | 73° | 33km/h | 1610m | 6.5m/s | 0°C | 0% | 0hPa | 2.9V | 18:12:15 | 00:22:52 | 00:00:00 | |
| AA1-15 | 2026-09-02 10:50:07 | 54.10415 | 13.44307 | 76° | 38km/h | 1604m | 5m/s | 0°C | 0% | 0hPa | 2.9V | 18:12:15 | 00:22:51 | 00:00:00 | |
| AA1-15 | 2026-09-02 10:50:05 | 54.10413 | 13.44290 | 80° | 40km/h | 1599m | 5.1m/s | 0°C | 0% | 0hPa | 2.9V | 18:12:15 | 00:22:50 | 00:00:00 | |
| AA1-15 | 2026-09-02 10:50:03 | 54.10410 | 13.44255 | 87° | 42km/h | 1589m | 4.4m/s | 0°C | 0% | 0hPa | 2.9V | 18:12:15 | 00:22:48 | 00:00:00 | |
| AA1-15 | 2026-09-02 10:50:03 | 54.10410 | 13.44237 | 89° | 38km/h | 1585m | 3.4m/s | 0°C | 0% | 0hPa | 2.9V | 18:12:15 | 00:22:47 | 00:00:00 | |
| AA1-15 | 2026-09-02 10:50:01 | 54.10409 | 13.44222 | 87° | 35km/h | 1581m | 4.4m/s | 0°C | 0% | 0hPa | 2.9V | 18:12:15 | 00:22:46 | 00:00:00 | |
| AA1-15 | 2026-09-02 10:49:59 | 54.10406 | 13.44195 | 71° | 31km/h | 1571m | 5.7m/s | 0°C | 0% | 0hPa | 2.9V | 18:12:15 | 00:22:44 | 00:00:00 | |
| AA1-15 | 2026-09-02 10:49:58 | 54.10403 | 13.44182 | 67° | 33km/h | 1564m | 7m/s | 0°C | 0% | 0hPa | 2.9V | 18:12:15 | 00:22:43 | 00:00:00 | |
| AA1-15 | 2026-09-02 10:49:57 | 54.10400 | 13.44167 | 68° | 37km/h | 1558m | 5.9m/s | 0°C | 0% | 0hPa | 2.9V | 18:12:15 | 00:22:42 | 00:00:00 | |
| DB0DAN | 2026-09-02 10:49:55 | 54.10395 | 13.44135 | 84° | 38km/h | 1549m | 3.3m/s | 0°C | 0% | 0hPa | 2.9V | 00:00:00 | 00:00:00 | 00:00:00 | |
| MECKS9 | 2026-09-02 10:49:53 | 54.10394 | 13.44117 | 87° | 42km/h | 1546m | 3.4m/s | 0°C | 0% | 849.6hPa | 2.9V | 00:00:00 | 00:00:00 | 00:00:00 | |
| MECKS9 | 2026-09-02 10:49:42 | 54.10374 | 13.43942 | 69° | 33km/h | 1503m | 2.4m/s | 0°C | 0% | 854.4hPa | 2.9V | 00:00:00 | 00:00:00 | 00:00:00 | |
| DB0DAN | 2026-09-02 10:49:40 | 54.10366 | 13.43907 | 76° | 27km/h | 1492m | 4.2m/s | 0°C | 0% | 0hPa | 2.9V | 00:00:00 | 00:00:00 | 00:00:00 | |
| MECKS9 | 2026-09-02 10:49:12 | 54.10357 | 13.43501 | 84° | 37km/h | 1362m | 5.4m/s | 0°C | 0% | 869.0hPa | 0V | 00:00:00 | 00:00:00 | 00:00:00 |